<?xml version="1.0" encoding="UTF-8" standalone="no" ?>
<gpx xmlns="http://www.topografix.com/GPX/1/1" xmlns:xsi="http://www.w3.org/2001/XMLSchema-instance" xsi:schemaLocation="http://www.topografix.com/GPX/1/1 http://www.topografix.com/GPX/1/1/gpx.xsd" version="1.1" creator="VisuGPX - https://www.visugpx.com">
  <metadata>
    <name>Bessy-sur-Cure-Vézelay</name>
    <desc><![CDATA[Chemin de Compostelle 2014-1 : Bessy-sur-Cure-Vézelay]]></desc>
  </metadata>
  <trk>
    <name><![CDATA[11 Bessy-Sur-Cure Vézelay]]></name>
    <trkseg>
      <trkpt lat="47.61978" lon="3.74146">
        <ele>122</ele>
        <time>2014-04-17T06:08:12Z</time>
      </trkpt>
      <trkpt lat="47.61974" lon="3.74151">
        <ele>122</ele>
        <time>2014-04-17T06:08:21Z</time>
      </trkpt>
      <trkpt lat="47.6197" lon="3.74155">
        <ele>122</ele>
        <time>2014-04-17T06:08:26Z</time>
      </trkpt>
      <trkpt lat="47.61966" lon="3.74159">
        <ele>122</ele>
        <time>2014-04-17T06:08:30Z</time>
      </trkpt>
      <trkpt lat="47.61961" lon="3.7416">
        <ele>122</ele>
        <time>2014-04-17T06:08:33Z</time>
      </trkpt>
      <trkpt lat="47.61955" lon="3.74158">
        <ele>123</ele>
        <time>2014-04-17T06:08:36Z</time>
      </trkpt>
      <trkpt lat="47.6195" lon="3.74159">
        <ele>123</ele>
        <time>2014-04-17T06:08:40Z</time>
      </trkpt>
      <trkpt lat="47.61946" lon="3.74163">
        <ele>123</ele>
        <time>2014-04-17T06:08:44Z</time>
      </trkpt>
      <trkpt lat="47.61942" lon="3.74167">
        <ele>122</ele>
        <time>2014-04-17T06:08:48Z</time>
      </trkpt>
      <trkpt lat="47.61938" lon="3.74171">
        <ele>122</ele>
        <time>2014-04-17T06:08:53Z</time>
      </trkpt>
      <trkpt lat="47.61933" lon="3.74169">
        <ele>122</ele>
        <time>2014-04-17T06:08:58Z</time>
      </trkpt>
      <trkpt lat="47.61928" lon="3.74171">
        <ele>122</ele>
        <time>2014-04-17T06:09:02Z</time>
      </trkpt>
      <trkpt lat="47.61922" lon="3.74174">
        <ele>122</ele>
        <time>2014-04-17T06:09:07Z</time>
      </trkpt>
      <trkpt lat="47.61918" lon="3.74176">
        <ele>122</ele>
        <time>2014-04-17T06:09:10Z</time>
      </trkpt>
      <trkpt lat="47.61913" lon="3.74178">
        <ele>122</ele>
        <time>2014-04-17T06:09:13Z</time>
      </trkpt>
      <trkpt lat="47.61909" lon="3.74182">
        <ele>122</ele>
        <time>2014-04-17T06:09:18Z</time>
      </trkpt>
      <trkpt lat="47.61904" lon="3.74182">
        <ele>122</ele>
        <time>2014-04-17T06:09:22Z</time>
      </trkpt>
      <trkpt lat="47.61899" lon="3.74183">
        <ele>122</ele>
        <time>2014-04-17T06:09:26Z</time>
      </trkpt>
      <trkpt lat="47.61889" lon="3.74184">
        <ele>122</ele>
        <time>2014-04-17T06:09:31Z</time>
      </trkpt>
      <trkpt lat="47.61881" lon="3.74179">
        <ele>122</ele>
        <time>2014-04-17T06:09:39Z</time>
      </trkpt>
      <trkpt lat="47.61876" lon="3.74183">
        <ele>122</ele>
        <time>2014-04-17T06:09:46Z</time>
      </trkpt>
      <trkpt lat="47.61871" lon="3.74187">
        <ele>122</ele>
        <time>2014-04-17T06:09:49Z</time>
      </trkpt>
      <trkpt lat="47.61867" lon="3.74189">
        <ele>122</ele>
        <time>2014-04-17T06:09:52Z</time>
      </trkpt>
      <trkpt lat="47.61863" lon="3.74192">
        <ele>122</ele>
        <time>2014-04-17T06:09:55Z</time>
      </trkpt>
      <trkpt lat="47.61858" lon="3.74193">
        <ele>122</ele>
        <time>2014-04-17T06:09:58Z</time>
      </trkpt>
      <trkpt lat="47.61853" lon="3.74196">
        <ele>122</ele>
        <time>2014-04-17T06:10:02Z</time>
      </trkpt>
      <trkpt lat="47.61845" lon="3.74208">
        <ele>121</ele>
        <time>2014-04-17T06:10:09Z</time>
      </trkpt>
      <trkpt lat="47.6184" lon="3.74218">
        <ele>121</ele>
        <time>2014-04-17T06:10:19Z</time>
      </trkpt>
      <trkpt lat="47.61835" lon="3.7422">
        <ele>121</ele>
        <time>2014-04-17T06:10:22Z</time>
      </trkpt>
      <trkpt lat="47.6183" lon="3.74222">
        <ele>122</ele>
        <time>2014-04-17T06:10:25Z</time>
      </trkpt>
      <trkpt lat="47.61827" lon="3.74227">
        <ele>122</ele>
        <time>2014-04-17T06:10:31Z</time>
      </trkpt>
      <trkpt lat="47.6183" lon="3.7423">
        <ele>122</ele>
        <time>2014-04-17T06:10:42Z</time>
      </trkpt>
      <trkpt lat="47.61833" lon="3.74226">
        <ele>122</ele>
        <time>2014-04-17T06:11:38Z</time>
      </trkpt>
      <trkpt lat="47.61829" lon="3.7423">
        <ele>122</ele>
        <time>2014-04-17T06:12:04Z</time>
      </trkpt>
      <trkpt lat="47.61825" lon="3.74235">
        <ele>121</ele>
        <time>2014-04-17T06:12:08Z</time>
      </trkpt>
      <trkpt lat="47.6182" lon="3.74236">
        <ele>122</ele>
        <time>2014-04-17T06:12:13Z</time>
      </trkpt>
      <trkpt lat="47.61815" lon="3.74239">
        <ele>122</ele>
        <time>2014-04-17T06:12:17Z</time>
      </trkpt>
      <trkpt lat="47.61811" lon="3.74242">
        <ele>122</ele>
        <time>2014-04-17T06:12:21Z</time>
      </trkpt>
      <trkpt lat="47.61807" lon="3.74247">
        <ele>122</ele>
        <time>2014-04-17T06:12:27Z</time>
      </trkpt>
      <trkpt lat="47.61802" lon="3.74251">
        <ele>120</ele>
        <time>2014-04-17T06:12:31Z</time>
      </trkpt>
      <trkpt lat="47.61798" lon="3.74255">
        <ele>121</ele>
        <time>2014-04-17T06:12:34Z</time>
      </trkpt>
      <trkpt lat="47.61793" lon="3.74259">
        <ele>121</ele>
        <time>2014-04-17T06:12:38Z</time>
      </trkpt>
      <trkpt lat="47.61789" lon="3.74263">
        <ele>121</ele>
        <time>2014-04-17T06:12:41Z</time>
      </trkpt>
      <trkpt lat="47.61785" lon="3.74268">
        <ele>121</ele>
        <time>2014-04-17T06:12:44Z</time>
      </trkpt>
      <trkpt lat="47.61781" lon="3.74272">
        <ele>121</ele>
        <time>2014-04-17T06:12:47Z</time>
      </trkpt>
      <trkpt lat="47.61777" lon="3.74276">
        <ele>121</ele>
        <time>2014-04-17T06:12:51Z</time>
      </trkpt>
      <trkpt lat="47.61773" lon="3.74281">
        <ele>121</ele>
        <time>2014-04-17T06:12:56Z</time>
      </trkpt>
      <trkpt lat="47.6177" lon="3.74286">
        <ele>121</ele>
        <time>2014-04-17T06:13:02Z</time>
      </trkpt>
      <trkpt lat="47.61765" lon="3.74287">
        <ele>121</ele>
        <time>2014-04-17T06:13:06Z</time>
      </trkpt>
      <trkpt lat="47.6176" lon="3.74289">
        <ele>121</ele>
        <time>2014-04-17T06:13:10Z</time>
      </trkpt>
      <trkpt lat="47.61754" lon="3.74294">
        <ele>121</ele>
        <time>2014-04-17T06:13:14Z</time>
      </trkpt>
      <trkpt lat="47.6175" lon="3.74298">
        <ele>121</ele>
        <time>2014-04-17T06:13:16Z</time>
      </trkpt>
      <trkpt lat="47.61746" lon="3.74302">
        <ele>123</ele>
        <time>2014-04-17T06:13:20Z</time>
      </trkpt>
      <trkpt lat="47.61741" lon="3.74306">
        <ele>123</ele>
        <time>2014-04-17T06:13:24Z</time>
      </trkpt>
      <trkpt lat="47.61737" lon="3.7431">
        <ele>123</ele>
        <time>2014-04-17T06:13:27Z</time>
      </trkpt>
      <trkpt lat="47.61733" lon="3.74315">
        <ele>123</ele>
        <time>2014-04-17T06:13:31Z</time>
      </trkpt>
      <trkpt lat="47.61729" lon="3.74319">
        <ele>123</ele>
        <time>2014-04-17T06:13:35Z</time>
      </trkpt>
      <trkpt lat="47.61724" lon="3.74323">
        <ele>123</ele>
        <time>2014-04-17T06:13:40Z</time>
      </trkpt>
      <trkpt lat="47.6172" lon="3.74328">
        <ele>123</ele>
        <time>2014-04-17T06:13:44Z</time>
      </trkpt>
      <trkpt lat="47.61716" lon="3.74332">
        <ele>123</ele>
        <time>2014-04-17T06:13:48Z</time>
      </trkpt>
      <trkpt lat="47.61712" lon="3.74336">
        <ele>122</ele>
        <time>2014-04-17T06:13:52Z</time>
      </trkpt>
      <trkpt lat="47.61708" lon="3.74341">
        <ele>122</ele>
        <time>2014-04-17T06:13:56Z</time>
      </trkpt>
      <trkpt lat="47.61704" lon="3.74346">
        <ele>121</ele>
        <time>2014-04-17T06:13:59Z</time>
      </trkpt>
      <trkpt lat="47.617" lon="3.74349">
        <ele>121</ele>
        <time>2014-04-17T06:14:02Z</time>
      </trkpt>
      <trkpt lat="47.61695" lon="3.74353">
        <ele>121</ele>
        <time>2014-04-17T06:14:09Z</time>
      </trkpt>
      <trkpt lat="47.61691" lon="3.74356">
        <ele>121</ele>
        <time>2014-04-17T06:14:15Z</time>
      </trkpt>
      <trkpt lat="47.61687" lon="3.74361">
        <ele>121</ele>
        <time>2014-04-17T06:14:22Z</time>
      </trkpt>
      <trkpt lat="47.61683" lon="3.74366">
        <ele>121</ele>
        <time>2014-04-17T06:14:26Z</time>
      </trkpt>
      <trkpt lat="47.61679" lon="3.74373">
        <ele>121</ele>
        <time>2014-04-17T06:14:29Z</time>
      </trkpt>
      <trkpt lat="47.61674" lon="3.74378">
        <ele>121</ele>
        <time>2014-04-17T06:14:32Z</time>
      </trkpt>
      <trkpt lat="47.6167" lon="3.74381">
        <ele>121</ele>
        <time>2014-04-17T06:14:34Z</time>
      </trkpt>
      <trkpt lat="47.61665" lon="3.74384">
        <ele>122</ele>
        <time>2014-04-17T06:14:37Z</time>
      </trkpt>
      <trkpt lat="47.61661" lon="3.74388">
        <ele>122</ele>
        <time>2014-04-17T06:14:41Z</time>
      </trkpt>
      <trkpt lat="47.61657" lon="3.74392">
        <ele>122</ele>
        <time>2014-04-17T06:14:45Z</time>
      </trkpt>
      <trkpt lat="47.61653" lon="3.74397">
        <ele>122</ele>
        <time>2014-04-17T06:14:50Z</time>
      </trkpt>
      <trkpt lat="47.61649" lon="3.74401">
        <ele>122</ele>
        <time>2014-04-17T06:14:55Z</time>
      </trkpt>
      <trkpt lat="47.61645" lon="3.74406">
        <ele>122</ele>
        <time>2014-04-17T06:14:59Z</time>
      </trkpt>
      <trkpt lat="47.61641" lon="3.74409">
        <ele>122</ele>
        <time>2014-04-17T06:15:03Z</time>
      </trkpt>
      <trkpt lat="47.61638" lon="3.74414">
        <ele>122</ele>
        <time>2014-04-17T06:15:06Z</time>
      </trkpt>
      <trkpt lat="47.61633" lon="3.74419">
        <ele>120</ele>
        <time>2014-04-17T06:15:10Z</time>
      </trkpt>
      <trkpt lat="47.61628" lon="3.74424">
        <ele>120</ele>
        <time>2014-04-17T06:15:14Z</time>
      </trkpt>
      <trkpt lat="47.61625" lon="3.74431">
        <ele>120</ele>
        <time>2014-04-17T06:15:18Z</time>
      </trkpt>
      <trkpt lat="47.61621" lon="3.74435">
        <ele>120</ele>
        <time>2014-04-17T06:15:22Z</time>
      </trkpt>
      <trkpt lat="47.61617" lon="3.74437">
        <ele>120</ele>
        <time>2014-04-17T06:15:26Z</time>
      </trkpt>
      <trkpt lat="47.61612" lon="3.74435">
        <ele>120</ele>
        <time>2014-04-17T06:15:33Z</time>
      </trkpt>
      <trkpt lat="47.61608" lon="3.7444">
        <ele>120</ele>
        <time>2014-04-17T06:15:44Z</time>
      </trkpt>
      <trkpt lat="47.61604" lon="3.74445">
        <ele>120</ele>
        <time>2014-04-17T06:15:48Z</time>
      </trkpt>
      <trkpt lat="47.616" lon="3.7445">
        <ele>120</ele>
        <time>2014-04-17T06:15:52Z</time>
      </trkpt>
      <trkpt lat="47.61597" lon="3.74455">
        <ele>120</ele>
        <time>2014-04-17T06:15:56Z</time>
      </trkpt>
      <trkpt lat="47.61592" lon="3.74458">
        <ele>120</ele>
        <time>2014-04-17T06:16:00Z</time>
      </trkpt>
      <trkpt lat="47.61588" lon="3.74462">
        <ele>119</ele>
        <time>2014-04-17T06:16:04Z</time>
      </trkpt>
      <trkpt lat="47.61584" lon="3.74465">
        <ele>119</ele>
        <time>2014-04-17T06:16:08Z</time>
      </trkpt>
      <trkpt lat="47.61579" lon="3.74467">
        <ele>123</ele>
        <time>2014-04-17T06:16:11Z</time>
      </trkpt>
      <trkpt lat="47.61574" lon="3.74469">
        <ele>123</ele>
        <time>2014-04-17T06:16:14Z</time>
      </trkpt>
      <trkpt lat="47.61569" lon="3.74472">
        <ele>123</ele>
        <time>2014-04-17T06:16:18Z</time>
      </trkpt>
      <trkpt lat="47.61563" lon="3.74472">
        <ele>123</ele>
        <time>2014-04-17T06:16:22Z</time>
      </trkpt>
      <trkpt lat="47.61558" lon="3.7447">
        <ele>124</ele>
        <time>2014-04-17T06:16:26Z</time>
      </trkpt>
      <trkpt lat="47.61553" lon="3.74471">
        <ele>124</ele>
        <time>2014-04-17T06:16:31Z</time>
      </trkpt>
      <trkpt lat="47.61547" lon="3.7447">
        <ele>125</ele>
        <time>2014-04-17T06:16:34Z</time>
      </trkpt>
      <trkpt lat="47.61541" lon="3.74469">
        <ele>125</ele>
        <time>2014-04-17T06:16:37Z</time>
      </trkpt>
      <trkpt lat="47.61537" lon="3.74472">
        <ele>125</ele>
        <time>2014-04-17T06:16:43Z</time>
      </trkpt>
      <trkpt lat="47.61532" lon="3.74472">
        <ele>125</ele>
        <time>2014-04-17T06:16:49Z</time>
      </trkpt>
      <trkpt lat="47.61528" lon="3.74468">
        <ele>126</ele>
        <time>2014-04-17T06:16:56Z</time>
      </trkpt>
      <trkpt lat="47.61513" lon="3.74465">
        <ele>127</ele>
        <time>2014-04-17T06:17:08Z</time>
      </trkpt>
      <trkpt lat="47.61508" lon="3.74466">
        <ele>127</ele>
        <time>2014-04-17T06:17:11Z</time>
      </trkpt>
      <trkpt lat="47.61503" lon="3.74467">
        <ele>127</ele>
        <time>2014-04-17T06:17:14Z</time>
      </trkpt>
      <trkpt lat="47.61498" lon="3.74469">
        <ele>136</ele>
        <time>2014-04-17T06:17:17Z</time>
      </trkpt>
      <trkpt lat="47.61494" lon="3.74473">
        <ele>136</ele>
        <time>2014-04-17T06:17:20Z</time>
      </trkpt>
      <trkpt lat="47.61489" lon="3.74476">
        <ele>136</ele>
        <time>2014-04-17T06:17:24Z</time>
      </trkpt>
      <trkpt lat="47.61485" lon="3.7448">
        <ele>136</ele>
        <time>2014-04-17T06:17:28Z</time>
      </trkpt>
      <trkpt lat="47.61482" lon="3.74486">
        <ele>135</ele>
        <time>2014-04-17T06:17:35Z</time>
      </trkpt>
      <trkpt lat="47.6148" lon="3.74493">
        <ele>134</ele>
        <time>2014-04-17T06:17:40Z</time>
      </trkpt>
      <trkpt lat="47.61476" lon="3.745">
        <ele>135</ele>
        <time>2014-04-17T06:17:44Z</time>
      </trkpt>
      <trkpt lat="47.61472" lon="3.74501">
        <ele>129</ele>
        <time>2014-04-17T06:17:49Z</time>
      </trkpt>
      <trkpt lat="47.61466" lon="3.74502">
        <ele>130</ele>
        <time>2014-04-17T06:17:53Z</time>
      </trkpt>
      <trkpt lat="47.61461" lon="3.74504">
        <ele>131</ele>
        <time>2014-04-17T06:17:57Z</time>
      </trkpt>
      <trkpt lat="47.6146" lon="3.74512">
        <ele>131</ele>
        <time>2014-04-17T06:18:04Z</time>
      </trkpt>
      <trkpt lat="47.61459" lon="3.74519">
        <ele>130</ele>
        <time>2014-04-17T06:18:09Z</time>
      </trkpt>
      <trkpt lat="47.61457" lon="3.74525">
        <ele>130</ele>
        <time>2014-04-17T06:18:13Z</time>
      </trkpt>
      <trkpt lat="47.61453" lon="3.7453">
        <ele>131</ele>
        <time>2014-04-17T06:18:16Z</time>
      </trkpt>
      <trkpt lat="47.61449" lon="3.74535">
        <ele>131</ele>
        <time>2014-04-17T06:18:20Z</time>
      </trkpt>
      <trkpt lat="47.61444" lon="3.7454">
        <ele>131</ele>
        <time>2014-04-17T06:18:24Z</time>
      </trkpt>
      <trkpt lat="47.61441" lon="3.74545">
        <ele>130</ele>
        <time>2014-04-17T06:18:27Z</time>
      </trkpt>
      <trkpt lat="47.61437" lon="3.7455">
        <ele>130</ele>
        <time>2014-04-17T06:18:31Z</time>
      </trkpt>
      <trkpt lat="47.61434" lon="3.74557">
        <ele>130</ele>
        <time>2014-04-17T06:18:36Z</time>
      </trkpt>
      <trkpt lat="47.61429" lon="3.74563">
        <ele>129</ele>
        <time>2014-04-17T06:18:40Z</time>
      </trkpt>
      <trkpt lat="47.61426" lon="3.74569">
        <ele>129</ele>
        <time>2014-04-17T06:18:45Z</time>
      </trkpt>
      <trkpt lat="47.61424" lon="3.74575">
        <ele>129</ele>
        <time>2014-04-17T06:18:49Z</time>
      </trkpt>
      <trkpt lat="47.61421" lon="3.74582">
        <ele>128</ele>
        <time>2014-04-17T06:18:54Z</time>
      </trkpt>
      <trkpt lat="47.61417" lon="3.74587">
        <ele>127</ele>
        <time>2014-04-17T06:18:58Z</time>
      </trkpt>
      <trkpt lat="47.61412" lon="3.74593">
        <ele>131</ele>
        <time>2014-04-17T06:19:02Z</time>
      </trkpt>
      <trkpt lat="47.61409" lon="3.74597">
        <ele>132</ele>
        <time>2014-04-17T06:19:05Z</time>
      </trkpt>
      <trkpt lat="47.61405" lon="3.74602">
        <ele>132</ele>
        <time>2014-04-17T06:19:08Z</time>
      </trkpt>
      <trkpt lat="47.614" lon="3.74606">
        <ele>133</ele>
        <time>2014-04-17T06:19:11Z</time>
      </trkpt>
      <trkpt lat="47.61399" lon="3.74613">
        <ele>133</ele>
        <time>2014-04-17T06:19:16Z</time>
      </trkpt>
      <trkpt lat="47.61397" lon="3.74621">
        <ele>133</ele>
        <time>2014-04-17T06:19:22Z</time>
      </trkpt>
      <trkpt lat="47.61394" lon="3.74628">
        <ele>133</ele>
        <time>2014-04-17T06:19:26Z</time>
      </trkpt>
      <trkpt lat="47.6139" lon="3.74633">
        <ele>133</ele>
        <time>2014-04-17T06:19:30Z</time>
      </trkpt>
      <trkpt lat="47.61387" lon="3.74638">
        <ele>134</ele>
        <time>2014-04-17T06:19:33Z</time>
      </trkpt>
      <trkpt lat="47.61383" lon="3.74643">
        <ele>134</ele>
        <time>2014-04-17T06:19:36Z</time>
      </trkpt>
      <trkpt lat="47.61379" lon="3.74649">
        <ele>134</ele>
        <time>2014-04-17T06:19:40Z</time>
      </trkpt>
      <trkpt lat="47.61376" lon="3.74654">
        <ele>134</ele>
        <time>2014-04-17T06:19:44Z</time>
      </trkpt>
      <trkpt lat="47.61372" lon="3.7466">
        <ele>135</ele>
        <time>2014-04-17T06:19:48Z</time>
      </trkpt>
      <trkpt lat="47.61371" lon="3.74667">
        <ele>135</ele>
        <time>2014-04-17T06:19:52Z</time>
      </trkpt>
      <trkpt lat="47.61369" lon="3.74673">
        <ele>131</ele>
        <time>2014-04-17T06:19:55Z</time>
      </trkpt>
      <trkpt lat="47.61365" lon="3.74679">
        <ele>131</ele>
        <time>2014-04-17T06:20:00Z</time>
      </trkpt>
      <trkpt lat="47.61365" lon="3.74686">
        <ele>131</ele>
        <time>2014-04-17T06:20:03Z</time>
      </trkpt>
      <trkpt lat="47.6136" lon="3.74693">
        <ele>131</ele>
        <time>2014-04-17T06:20:07Z</time>
      </trkpt>
      <trkpt lat="47.61354" lon="3.74696">
        <ele>131</ele>
        <time>2014-04-17T06:20:10Z</time>
      </trkpt>
      <trkpt lat="47.61354" lon="3.74703">
        <ele>131</ele>
        <time>2014-04-17T06:20:14Z</time>
      </trkpt>
      <trkpt lat="47.61351" lon="3.74709">
        <ele>131</ele>
        <time>2014-04-17T06:20:19Z</time>
      </trkpt>
      <trkpt lat="47.61349" lon="3.74724">
        <ele>130</ele>
        <time>2014-04-17T06:20:41Z</time>
      </trkpt>
      <trkpt lat="47.61345" lon="3.74729">
        <ele>130</ele>
        <time>2014-04-17T06:20:45Z</time>
      </trkpt>
      <trkpt lat="47.6134" lon="3.74734">
        <ele>131</ele>
        <time>2014-04-17T06:20:49Z</time>
      </trkpt>
      <trkpt lat="47.61344" lon="3.74737">
        <ele>130</ele>
        <time>2014-04-17T06:21:06Z</time>
      </trkpt>
      <trkpt lat="47.61344" lon="3.74745">
        <ele>131</ele>
        <time>2014-04-17T06:21:21Z</time>
      </trkpt>
      <trkpt lat="47.61341" lon="3.74751">
        <ele>129</ele>
        <time>2014-04-17T06:21:24Z</time>
      </trkpt>
      <trkpt lat="47.61337" lon="3.74755">
        <ele>130</ele>
        <time>2014-04-17T06:21:27Z</time>
      </trkpt>
      <trkpt lat="47.61332" lon="3.74757">
        <ele>134</ele>
        <time>2014-04-17T06:21:30Z</time>
      </trkpt>
      <trkpt lat="47.61328" lon="3.74761">
        <ele>135</ele>
        <time>2014-04-17T06:21:33Z</time>
      </trkpt>
      <trkpt lat="47.61323" lon="3.74766">
        <ele>136</ele>
        <time>2014-04-17T06:21:36Z</time>
      </trkpt>
      <trkpt lat="47.61318" lon="3.74771">
        <ele>137</ele>
        <time>2014-04-17T06:21:39Z</time>
      </trkpt>
      <trkpt lat="47.61316" lon="3.74777">
        <ele>137</ele>
        <time>2014-04-17T06:21:42Z</time>
      </trkpt>
      <trkpt lat="47.61313" lon="3.74783">
        <ele>137</ele>
        <time>2014-04-17T06:21:46Z</time>
      </trkpt>
      <trkpt lat="47.61309" lon="3.74787">
        <ele>137</ele>
        <time>2014-04-17T06:21:50Z</time>
      </trkpt>
      <trkpt lat="47.61305" lon="3.74792">
        <ele>137</ele>
        <time>2014-04-17T06:21:55Z</time>
      </trkpt>
      <trkpt lat="47.61303" lon="3.748">
        <ele>137</ele>
        <time>2014-04-17T06:22:00Z</time>
      </trkpt>
      <trkpt lat="47.61303" lon="3.74807">
        <ele>136</ele>
        <time>2014-04-17T06:22:04Z</time>
      </trkpt>
      <trkpt lat="47.613" lon="3.74814">
        <ele>136</ele>
        <time>2014-04-17T06:22:08Z</time>
      </trkpt>
      <trkpt lat="47.61297" lon="3.7482">
        <ele>136</ele>
        <time>2014-04-17T06:22:12Z</time>
      </trkpt>
      <trkpt lat="47.61294" lon="3.74826">
        <ele>136</ele>
        <time>2014-04-17T06:22:15Z</time>
      </trkpt>
      <trkpt lat="47.6129" lon="3.74832">
        <ele>137</ele>
        <time>2014-04-17T06:22:19Z</time>
      </trkpt>
      <trkpt lat="47.61286" lon="3.74835">
        <ele>130</ele>
        <time>2014-04-17T06:22:23Z</time>
      </trkpt>
      <trkpt lat="47.61282" lon="3.74839">
        <ele>130</ele>
        <time>2014-04-17T06:22:27Z</time>
      </trkpt>
      <trkpt lat="47.61278" lon="3.74845">
        <ele>131</ele>
        <time>2014-04-17T06:22:31Z</time>
      </trkpt>
      <trkpt lat="47.61273" lon="3.74849">
        <ele>131</ele>
        <time>2014-04-17T06:22:34Z</time>
      </trkpt>
      <trkpt lat="47.61266" lon="3.74849">
        <ele>133</ele>
        <time>2014-04-17T06:22:36Z</time>
      </trkpt>
      <trkpt lat="47.61259" lon="3.74852">
        <ele>133</ele>
        <time>2014-04-17T06:22:41Z</time>
      </trkpt>
      <trkpt lat="47.61258" lon="3.7486">
        <ele>132</ele>
        <time>2014-04-17T06:22:46Z</time>
      </trkpt>
      <trkpt lat="47.61259" lon="3.74868">
        <ele>130</ele>
        <time>2014-04-17T06:22:50Z</time>
      </trkpt>
      <trkpt lat="47.61257" lon="3.74874">
        <ele>129</ele>
        <time>2014-04-17T06:22:54Z</time>
      </trkpt>
      <trkpt lat="47.61253" lon="3.74879">
        <ele>129</ele>
        <time>2014-04-17T06:23:00Z</time>
      </trkpt>
      <trkpt lat="47.61249" lon="3.74883">
        <ele>137</ele>
        <time>2014-04-17T06:23:05Z</time>
      </trkpt>
      <trkpt lat="47.61244" lon="3.74887">
        <ele>136</ele>
        <time>2014-04-17T06:23:08Z</time>
      </trkpt>
      <trkpt lat="47.61243" lon="3.7489">
        <ele>136</ele>
        <time>2014-04-17T06:23:16Z</time>
      </trkpt>
      <trkpt lat="47.61238" lon="3.74895">
        <ele>135</ele>
        <time>2014-04-17T06:23:23Z</time>
      </trkpt>
      <trkpt lat="47.61233" lon="3.74899">
        <ele>135</ele>
        <time>2014-04-17T06:23:27Z</time>
      </trkpt>
      <trkpt lat="47.61228" lon="3.74903">
        <ele>135</ele>
        <time>2014-04-17T06:23:31Z</time>
      </trkpt>
      <trkpt lat="47.61223" lon="3.74907">
        <ele>136</ele>
        <time>2014-04-17T06:23:35Z</time>
      </trkpt>
      <trkpt lat="47.61218" lon="3.74909">
        <ele>136</ele>
        <time>2014-04-17T06:23:42Z</time>
      </trkpt>
      <trkpt lat="47.61214" lon="3.7491">
        <ele>137</ele>
        <time>2014-04-17T06:23:46Z</time>
      </trkpt>
      <trkpt lat="47.61209" lon="3.74911">
        <ele>137</ele>
        <time>2014-04-17T06:23:49Z</time>
      </trkpt>
      <trkpt lat="47.61206" lon="3.74917">
        <ele>128</ele>
        <time>2014-04-17T06:23:52Z</time>
      </trkpt>
      <trkpt lat="47.61202" lon="3.74922">
        <ele>129</ele>
        <time>2014-04-17T06:23:58Z</time>
      </trkpt>
      <trkpt lat="47.61198" lon="3.7492">
        <ele>129</ele>
        <time>2014-04-17T06:24:01Z</time>
      </trkpt>
      <trkpt lat="47.61192" lon="3.74921">
        <ele>130</ele>
        <time>2014-04-17T06:24:04Z</time>
      </trkpt>
      <trkpt lat="47.61187" lon="3.74925">
        <ele>131</ele>
        <time>2014-04-17T06:24:07Z</time>
      </trkpt>
      <trkpt lat="47.61183" lon="3.74929">
        <ele>131</ele>
        <time>2014-04-17T06:24:10Z</time>
      </trkpt>
      <trkpt lat="47.61177" lon="3.74931">
        <ele>131</ele>
        <time>2014-04-17T06:24:13Z</time>
      </trkpt>
      <trkpt lat="47.61171" lon="3.74933">
        <ele>132</ele>
        <time>2014-04-17T06:24:16Z</time>
      </trkpt>
      <trkpt lat="47.61167" lon="3.74936">
        <ele>135</ele>
        <time>2014-04-17T06:24:20Z</time>
      </trkpt>
      <trkpt lat="47.61162" lon="3.7494">
        <ele>135</ele>
        <time>2014-04-17T06:24:24Z</time>
      </trkpt>
      <trkpt lat="47.61158" lon="3.74944">
        <ele>135</ele>
        <time>2014-04-17T06:24:29Z</time>
      </trkpt>
      <trkpt lat="47.61154" lon="3.74949">
        <ele>135</ele>
        <time>2014-04-17T06:24:32Z</time>
      </trkpt>
      <trkpt lat="47.6115" lon="3.74954">
        <ele>134</ele>
        <time>2014-04-17T06:24:36Z</time>
      </trkpt>
      <trkpt lat="47.61145" lon="3.7496">
        <ele>134</ele>
        <time>2014-04-17T06:24:40Z</time>
      </trkpt>
      <trkpt lat="47.61141" lon="3.74964">
        <ele>134</ele>
        <time>2014-04-17T06:24:43Z</time>
      </trkpt>
      <trkpt lat="47.61136" lon="3.74967">
        <ele>134</ele>
        <time>2014-04-17T06:24:47Z</time>
      </trkpt>
      <trkpt lat="47.61131" lon="3.7497">
        <ele>134</ele>
        <time>2014-04-17T06:24:52Z</time>
      </trkpt>
      <trkpt lat="47.61127" lon="3.74972">
        <ele>134</ele>
        <time>2014-04-17T06:24:56Z</time>
      </trkpt>
      <trkpt lat="47.61121" lon="3.74975">
        <ele>134</ele>
        <time>2014-04-17T06:25:00Z</time>
      </trkpt>
      <trkpt lat="47.61116" lon="3.74977">
        <ele>134</ele>
        <time>2014-04-17T06:25:03Z</time>
      </trkpt>
      <trkpt lat="47.61112" lon="3.74979">
        <ele>134</ele>
        <time>2014-04-17T06:25:06Z</time>
      </trkpt>
      <trkpt lat="47.61108" lon="3.74983">
        <ele>134</ele>
        <time>2014-04-17T06:25:11Z</time>
      </trkpt>
      <trkpt lat="47.61103" lon="3.74989">
        <ele>134</ele>
        <time>2014-04-17T06:25:17Z</time>
      </trkpt>
      <trkpt lat="47.61099" lon="3.74994">
        <ele>134</ele>
        <time>2014-04-17T06:25:20Z</time>
      </trkpt>
      <trkpt lat="47.61096" lon="3.75002">
        <ele>130</ele>
        <time>2014-04-17T06:25:24Z</time>
      </trkpt>
      <trkpt lat="47.61091" lon="3.75006">
        <ele>131</ele>
        <time>2014-04-17T06:25:29Z</time>
      </trkpt>
      <trkpt lat="47.61086" lon="3.7501">
        <ele>131</ele>
        <time>2014-04-17T06:25:32Z</time>
      </trkpt>
      <trkpt lat="47.61081" lon="3.75012">
        <ele>135</ele>
        <time>2014-04-17T06:25:35Z</time>
      </trkpt>
      <trkpt lat="47.61077" lon="3.75014">
        <ele>135</ele>
        <time>2014-04-17T06:25:38Z</time>
      </trkpt>
      <trkpt lat="47.61071" lon="3.75018">
        <ele>136</ele>
        <time>2014-04-17T06:25:41Z</time>
      </trkpt>
      <trkpt lat="47.61067" lon="3.75019">
        <ele>136</ele>
        <time>2014-04-17T06:25:45Z</time>
      </trkpt>
      <trkpt lat="47.61062" lon="3.75022">
        <ele>137</ele>
        <time>2014-04-17T06:25:50Z</time>
      </trkpt>
      <trkpt lat="47.6106" lon="3.75029">
        <ele>136</ele>
        <time>2014-04-17T06:25:55Z</time>
      </trkpt>
      <trkpt lat="47.61058" lon="3.75035">
        <ele>136</ele>
        <time>2014-04-17T06:25:59Z</time>
      </trkpt>
      <trkpt lat="47.61054" lon="3.7504">
        <ele>136</ele>
        <time>2014-04-17T06:26:03Z</time>
      </trkpt>
      <trkpt lat="47.61049" lon="3.75044">
        <ele>136</ele>
        <time>2014-04-17T06:26:07Z</time>
      </trkpt>
      <trkpt lat="47.61045" lon="3.75045">
        <ele>137</ele>
        <time>2014-04-17T06:26:12Z</time>
      </trkpt>
      <trkpt lat="47.61041" lon="3.75049">
        <ele>136</ele>
        <time>2014-04-17T06:26:15Z</time>
      </trkpt>
      <trkpt lat="47.61036" lon="3.75053">
        <ele>137</ele>
        <time>2014-04-17T06:26:19Z</time>
      </trkpt>
      <trkpt lat="47.61032" lon="3.75057">
        <ele>137</ele>
        <time>2014-04-17T06:26:25Z</time>
      </trkpt>
      <trkpt lat="47.61028" lon="3.75061">
        <ele>137</ele>
        <time>2014-04-17T06:26:29Z</time>
      </trkpt>
      <trkpt lat="47.61025" lon="3.75066">
        <ele>136</ele>
        <time>2014-04-17T06:26:33Z</time>
      </trkpt>
      <trkpt lat="47.6102" lon="3.7507">
        <ele>136</ele>
        <time>2014-04-17T06:26:36Z</time>
      </trkpt>
      <trkpt lat="47.61017" lon="3.75074">
        <ele>136</ele>
        <time>2014-04-17T06:26:39Z</time>
      </trkpt>
      <trkpt lat="47.61012" lon="3.75077">
        <ele>136</ele>
        <time>2014-04-17T06:26:43Z</time>
      </trkpt>
      <trkpt lat="47.61008" lon="3.75081">
        <ele>136</ele>
        <time>2014-04-17T06:26:46Z</time>
      </trkpt>
      <trkpt lat="47.61005" lon="3.75085">
        <ele>133</ele>
        <time>2014-04-17T06:26:48Z</time>
      </trkpt>
      <trkpt lat="47.61" lon="3.75089">
        <ele>135</ele>
        <time>2014-04-17T06:26:51Z</time>
      </trkpt>
      <trkpt lat="47.60996" lon="3.75093">
        <ele>135</ele>
        <time>2014-04-17T06:26:54Z</time>
      </trkpt>
      <trkpt lat="47.60991" lon="3.75097">
        <ele>135</ele>
        <time>2014-04-17T06:26:58Z</time>
      </trkpt>
      <trkpt lat="47.60987" lon="3.751">
        <ele>136</ele>
        <time>2014-04-17T06:27:01Z</time>
      </trkpt>
      <trkpt lat="47.60981" lon="3.75103">
        <ele>136</ele>
        <time>2014-04-17T06:27:05Z</time>
      </trkpt>
      <trkpt lat="47.60977" lon="3.75105">
        <ele>136</ele>
        <time>2014-04-17T06:27:09Z</time>
      </trkpt>
      <trkpt lat="47.60971" lon="3.75109">
        <ele>136</ele>
        <time>2014-04-17T06:27:15Z</time>
      </trkpt>
      <trkpt lat="47.60966" lon="3.75113">
        <ele>137</ele>
        <time>2014-04-17T06:27:19Z</time>
      </trkpt>
      <trkpt lat="47.60961" lon="3.75118">
        <ele>137</ele>
        <time>2014-04-17T06:27:22Z</time>
      </trkpt>
      <trkpt lat="47.60957" lon="3.75121">
        <ele>137</ele>
        <time>2014-04-17T06:27:25Z</time>
      </trkpt>
      <trkpt lat="47.60953" lon="3.75127">
        <ele>136</ele>
        <time>2014-04-17T06:27:30Z</time>
      </trkpt>
      <trkpt lat="47.60949" lon="3.75131">
        <ele>136</ele>
        <time>2014-04-17T06:27:34Z</time>
      </trkpt>
      <trkpt lat="47.60944" lon="3.75134">
        <ele>136</ele>
        <time>2014-04-17T06:27:38Z</time>
      </trkpt>
      <trkpt lat="47.6094" lon="3.75135">
        <ele>136</ele>
        <time>2014-04-17T06:27:41Z</time>
      </trkpt>
      <trkpt lat="47.60935" lon="3.75137">
        <ele>136</ele>
        <time>2014-04-17T06:27:44Z</time>
      </trkpt>
      <trkpt lat="47.60931" lon="3.75141">
        <ele>136</ele>
        <time>2014-04-17T06:27:48Z</time>
      </trkpt>
      <trkpt lat="47.6093" lon="3.75148">
        <ele>135</ele>
        <time>2014-04-17T06:27:53Z</time>
      </trkpt>
      <trkpt lat="47.60927" lon="3.75154">
        <ele>134</ele>
        <time>2014-04-17T06:27:58Z</time>
      </trkpt>
      <trkpt lat="47.60924" lon="3.75159">
        <ele>134</ele>
        <time>2014-04-17T06:28:03Z</time>
      </trkpt>
      <trkpt lat="47.60918" lon="3.75172">
        <ele>130</ele>
        <time>2014-04-17T06:28:14Z</time>
      </trkpt>
      <trkpt lat="47.60911" lon="3.75181">
        <ele>132</ele>
        <time>2014-04-17T06:28:19Z</time>
      </trkpt>
      <trkpt lat="47.60903" lon="3.75188">
        <ele>133</ele>
        <time>2014-04-17T06:28:25Z</time>
      </trkpt>
      <trkpt lat="47.60898" lon="3.75193">
        <ele>133</ele>
        <time>2014-04-17T06:28:30Z</time>
      </trkpt>
      <trkpt lat="47.60894" lon="3.75196">
        <ele>133</ele>
        <time>2014-04-17T06:28:33Z</time>
      </trkpt>
      <trkpt lat="47.6089" lon="3.75201">
        <ele>133</ele>
        <time>2014-04-17T06:28:36Z</time>
      </trkpt>
      <trkpt lat="47.60885" lon="3.75204">
        <ele>133</ele>
        <time>2014-04-17T06:28:39Z</time>
      </trkpt>
      <trkpt lat="47.60882" lon="3.7521">
        <ele>133</ele>
        <time>2014-04-17T06:28:44Z</time>
      </trkpt>
      <trkpt lat="47.6088" lon="3.75217">
        <ele>132</ele>
        <time>2014-04-17T06:28:50Z</time>
      </trkpt>
      <trkpt lat="47.60875" lon="3.75222">
        <ele>132</ele>
        <time>2014-04-17T06:28:54Z</time>
      </trkpt>
      <trkpt lat="47.60871" lon="3.75226">
        <ele>132</ele>
        <time>2014-04-17T06:28:57Z</time>
      </trkpt>
      <trkpt lat="47.60867" lon="3.7523">
        <ele>132</ele>
        <time>2014-04-17T06:28:59Z</time>
      </trkpt>
      <trkpt lat="47.60861" lon="3.75232">
        <ele>133</ele>
        <time>2014-04-17T06:29:03Z</time>
      </trkpt>
      <trkpt lat="47.60856" lon="3.75238">
        <ele>133</ele>
        <time>2014-04-17T06:29:06Z</time>
      </trkpt>
      <trkpt lat="47.60852" lon="3.75244">
        <ele>133</ele>
        <time>2014-04-17T06:29:09Z</time>
      </trkpt>
      <trkpt lat="47.60849" lon="3.75249">
        <ele>133</ele>
        <time>2014-04-17T06:29:12Z</time>
      </trkpt>
      <trkpt lat="47.60845" lon="3.75253">
        <ele>129</ele>
        <time>2014-04-17T06:29:15Z</time>
      </trkpt>
      <trkpt lat="47.60841" lon="3.75258">
        <ele>129</ele>
        <time>2014-04-17T06:29:19Z</time>
      </trkpt>
      <trkpt lat="47.60837" lon="3.75262">
        <ele>129</ele>
        <time>2014-04-17T06:29:24Z</time>
      </trkpt>
      <trkpt lat="47.60832" lon="3.75268">
        <ele>130</ele>
        <time>2014-04-17T06:29:28Z</time>
      </trkpt>
      <trkpt lat="47.60828" lon="3.75271">
        <ele>130</ele>
        <time>2014-04-17T06:29:31Z</time>
      </trkpt>
      <trkpt lat="47.60823" lon="3.75273">
        <ele>129</ele>
        <time>2014-04-17T06:29:37Z</time>
      </trkpt>
      <trkpt lat="47.60819" lon="3.75276">
        <ele>129</ele>
        <time>2014-04-17T06:29:40Z</time>
      </trkpt>
      <trkpt lat="47.60814" lon="3.75279">
        <ele>129</ele>
        <time>2014-04-17T06:29:43Z</time>
      </trkpt>
      <trkpt lat="47.6081" lon="3.75283">
        <ele>128</ele>
        <time>2014-04-17T06:29:47Z</time>
      </trkpt>
      <trkpt lat="47.60806" lon="3.75285">
        <ele>128</ele>
        <time>2014-04-17T06:29:51Z</time>
      </trkpt>
      <trkpt lat="47.60801" lon="3.75288">
        <ele>128</ele>
        <time>2014-04-17T06:29:56Z</time>
      </trkpt>
      <trkpt lat="47.60797" lon="3.7529">
        <ele>128</ele>
        <time>2014-04-17T06:29:59Z</time>
      </trkpt>
      <trkpt lat="47.60792" lon="3.75292">
        <ele>128</ele>
        <time>2014-04-17T06:30:02Z</time>
      </trkpt>
      <trkpt lat="47.60787" lon="3.75295">
        <ele>128</ele>
        <time>2014-04-17T06:30:06Z</time>
      </trkpt>
      <trkpt lat="47.60783" lon="3.75298">
        <ele>128</ele>
        <time>2014-04-17T06:30:10Z</time>
      </trkpt>
      <trkpt lat="47.60778" lon="3.75299">
        <ele>128</ele>
        <time>2014-04-17T06:30:15Z</time>
      </trkpt>
      <trkpt lat="47.60775" lon="3.75305">
        <ele>127</ele>
        <time>2014-04-17T06:30:19Z</time>
      </trkpt>
      <trkpt lat="47.6077" lon="3.75306">
        <ele>127</ele>
        <time>2014-04-17T06:30:23Z</time>
      </trkpt>
      <trkpt lat="47.60765" lon="3.75308">
        <ele>127</ele>
        <time>2014-04-17T06:30:26Z</time>
      </trkpt>
      <trkpt lat="47.6076" lon="3.75309">
        <ele>127</ele>
        <time>2014-04-17T06:30:29Z</time>
      </trkpt>
      <trkpt lat="47.60755" lon="3.75311">
        <ele>127</ele>
        <time>2014-04-17T06:30:33Z</time>
      </trkpt>
      <trkpt lat="47.60746" lon="3.75316">
        <ele>127</ele>
        <time>2014-04-17T06:30:42Z</time>
      </trkpt>
      <trkpt lat="47.60742" lon="3.75321">
        <ele>127</ele>
        <time>2014-04-17T06:30:45Z</time>
      </trkpt>
      <trkpt lat="47.60737" lon="3.75324">
        <ele>127</ele>
        <time>2014-04-17T06:30:49Z</time>
      </trkpt>
      <trkpt lat="47.60733" lon="3.75328">
        <ele>127</ele>
        <time>2014-04-17T06:30:53Z</time>
      </trkpt>
      <trkpt lat="47.60729" lon="3.75333">
        <ele>127</ele>
        <time>2014-04-17T06:30:57Z</time>
      </trkpt>
      <trkpt lat="47.60725" lon="3.75337">
        <ele>125</ele>
        <time>2014-04-17T06:31:01Z</time>
      </trkpt>
      <trkpt lat="47.60721" lon="3.75341">
        <ele>125</ele>
        <time>2014-04-17T06:31:04Z</time>
      </trkpt>
      <trkpt lat="47.60716" lon="3.75347">
        <ele>125</ele>
        <time>2014-04-17T06:31:08Z</time>
      </trkpt>
      <trkpt lat="47.60712" lon="3.75351">
        <ele>125</ele>
        <time>2014-04-17T06:31:12Z</time>
      </trkpt>
      <trkpt lat="47.60707" lon="3.75357">
        <ele>125</ele>
        <time>2014-04-17T06:31:16Z</time>
      </trkpt>
      <trkpt lat="47.60703" lon="3.75361">
        <ele>125</ele>
        <time>2014-04-17T06:31:19Z</time>
      </trkpt>
      <trkpt lat="47.60699" lon="3.75366">
        <ele>125</ele>
        <time>2014-04-17T06:31:23Z</time>
      </trkpt>
      <trkpt lat="47.60694" lon="3.7537">
        <ele>125</ele>
        <time>2014-04-17T06:31:27Z</time>
      </trkpt>
      <trkpt lat="47.60689" lon="3.75374">
        <ele>125</ele>
        <time>2014-04-17T06:31:31Z</time>
      </trkpt>
      <trkpt lat="47.60684" lon="3.75378">
        <ele>124</ele>
        <time>2014-04-17T06:31:35Z</time>
      </trkpt>
      <trkpt lat="47.6068" lon="3.75383">
        <ele>124</ele>
        <time>2014-04-17T06:31:40Z</time>
      </trkpt>
      <trkpt lat="47.60675" lon="3.75386">
        <ele>124</ele>
        <time>2014-04-17T06:31:44Z</time>
      </trkpt>
      <trkpt lat="47.6067" lon="3.75389">
        <ele>124</ele>
        <time>2014-04-17T06:31:48Z</time>
      </trkpt>
      <trkpt lat="47.60665" lon="3.75391">
        <ele>126</ele>
        <time>2014-04-17T06:31:52Z</time>
      </trkpt>
      <trkpt lat="47.6066" lon="3.75395">
        <ele>125</ele>
        <time>2014-04-17T06:31:56Z</time>
      </trkpt>
      <trkpt lat="47.60656" lon="3.754">
        <ele>125</ele>
        <time>2014-04-17T06:32:00Z</time>
      </trkpt>
      <trkpt lat="47.60651" lon="3.75404">
        <ele>125</ele>
        <time>2014-04-17T06:32:04Z</time>
      </trkpt>
      <trkpt lat="47.60646" lon="3.75408">
        <ele>125</ele>
        <time>2014-04-17T06:32:08Z</time>
      </trkpt>
      <trkpt lat="47.60641" lon="3.75411">
        <ele>126</ele>
        <time>2014-04-17T06:32:12Z</time>
      </trkpt>
      <trkpt lat="47.60636" lon="3.75414">
        <ele>126</ele>
        <time>2014-04-17T06:32:17Z</time>
      </trkpt>
      <trkpt lat="47.60631" lon="3.75416">
        <ele>126</ele>
        <time>2014-04-17T06:32:21Z</time>
      </trkpt>
      <trkpt lat="47.60626" lon="3.75419">
        <ele>123</ele>
        <time>2014-04-17T06:32:25Z</time>
      </trkpt>
      <trkpt lat="47.60621" lon="3.75422">
        <ele>123</ele>
        <time>2014-04-17T06:32:29Z</time>
      </trkpt>
      <trkpt lat="47.60617" lon="3.75426">
        <ele>123</ele>
        <time>2014-04-17T06:32:33Z</time>
      </trkpt>
      <trkpt lat="47.60611" lon="3.75432">
        <ele>124</ele>
        <time>2014-04-17T06:32:38Z</time>
      </trkpt>
      <trkpt lat="47.60606" lon="3.75436">
        <ele>124</ele>
        <time>2014-04-17T06:32:41Z</time>
      </trkpt>
      <trkpt lat="47.60602" lon="3.75439">
        <ele>124</ele>
        <time>2014-04-17T06:32:47Z</time>
      </trkpt>
      <trkpt lat="47.60597" lon="3.75442">
        <ele>124</ele>
        <time>2014-04-17T06:32:51Z</time>
      </trkpt>
      <trkpt lat="47.60592" lon="3.75445">
        <ele>124</ele>
        <time>2014-04-17T06:32:55Z</time>
      </trkpt>
      <trkpt lat="47.60587" lon="3.75448">
        <ele>124</ele>
        <time>2014-04-17T06:32:59Z</time>
      </trkpt>
      <trkpt lat="47.6058" lon="3.75451">
        <ele>125</ele>
        <time>2014-04-17T06:33:04Z</time>
      </trkpt>
      <trkpt lat="47.60576" lon="3.75458">
        <ele>125</ele>
        <time>2014-04-17T06:33:08Z</time>
      </trkpt>
      <trkpt lat="47.60568" lon="3.75464">
        <ele>125</ele>
        <time>2014-04-17T06:33:17Z</time>
      </trkpt>
      <trkpt lat="47.6056" lon="3.75471">
        <ele>124</ele>
        <time>2014-04-17T06:33:24Z</time>
      </trkpt>
      <trkpt lat="47.60555" lon="3.75476">
        <ele>124</ele>
        <time>2014-04-17T06:33:28Z</time>
      </trkpt>
      <trkpt lat="47.60548" lon="3.75479">
        <ele>124</ele>
        <time>2014-04-17T06:33:33Z</time>
      </trkpt>
      <trkpt lat="47.60543" lon="3.75482">
        <ele>124</ele>
        <time>2014-04-17T06:33:38Z</time>
      </trkpt>
      <trkpt lat="47.60538" lon="3.75485">
        <ele>124</ele>
        <time>2014-04-17T06:33:42Z</time>
      </trkpt>
      <trkpt lat="47.60534" lon="3.75488">
        <ele>124</ele>
        <time>2014-04-17T06:33:46Z</time>
      </trkpt>
      <trkpt lat="47.60528" lon="3.75488">
        <ele>124</ele>
        <time>2014-04-17T06:33:52Z</time>
      </trkpt>
      <trkpt lat="47.60523" lon="3.75488">
        <ele>124</ele>
        <time>2014-04-17T06:33:57Z</time>
      </trkpt>
      <trkpt lat="47.60518" lon="3.75488">
        <ele>124</ele>
        <time>2014-04-17T06:34:03Z</time>
      </trkpt>
      <trkpt lat="47.60509" lon="3.7549">
        <ele>124</ele>
        <time>2014-04-17T06:34:12Z</time>
      </trkpt>
      <trkpt lat="47.60504" lon="3.75492">
        <ele>124</ele>
        <time>2014-04-17T06:34:16Z</time>
      </trkpt>
      <trkpt lat="47.60498" lon="3.75494">
        <ele>124</ele>
        <time>2014-04-17T06:34:20Z</time>
      </trkpt>
      <trkpt lat="47.60493" lon="3.75495">
        <ele>124</ele>
        <time>2014-04-17T06:34:25Z</time>
      </trkpt>
      <trkpt lat="47.60488" lon="3.75495">
        <ele>124</ele>
        <time>2014-04-17T06:34:30Z</time>
      </trkpt>
      <trkpt lat="47.60483" lon="3.75495">
        <ele>125</ele>
        <time>2014-04-17T06:34:35Z</time>
      </trkpt>
      <trkpt lat="47.60479" lon="3.75494">
        <ele>125</ele>
        <time>2014-04-17T06:35:02Z</time>
      </trkpt>
      <trkpt lat="47.60474" lon="3.75495">
        <ele>125</ele>
        <time>2014-04-17T06:35:05Z</time>
      </trkpt>
      <trkpt lat="47.60469" lon="3.75496">
        <ele>125</ele>
        <time>2014-04-17T06:35:08Z</time>
      </trkpt>
      <trkpt lat="47.60463" lon="3.75496">
        <ele>125</ele>
        <time>2014-04-17T06:35:12Z</time>
      </trkpt>
      <trkpt lat="47.60459" lon="3.75496">
        <ele>125</ele>
        <time>2014-04-17T06:35:16Z</time>
      </trkpt>
      <trkpt lat="47.60453" lon="3.75497">
        <ele>125</ele>
        <time>2014-04-17T06:35:20Z</time>
      </trkpt>
      <trkpt lat="47.60448" lon="3.75498">
        <ele>125</ele>
        <time>2014-04-17T06:35:23Z</time>
      </trkpt>
      <trkpt lat="47.60442" lon="3.75499">
        <ele>125</ele>
        <time>2014-04-17T06:35:27Z</time>
      </trkpt>
      <trkpt lat="47.60438" lon="3.75501">
        <ele>123</ele>
        <time>2014-04-17T06:35:32Z</time>
      </trkpt>
      <trkpt lat="47.60433" lon="3.75499">
        <ele>125</ele>
        <time>2014-04-17T06:35:37Z</time>
      </trkpt>
      <trkpt lat="47.60429" lon="3.75499">
        <ele>125</ele>
        <time>2014-04-17T06:35:46Z</time>
      </trkpt>
      <trkpt lat="47.60423" lon="3.75502">
        <ele>124</ele>
        <time>2014-04-17T06:36:04Z</time>
      </trkpt>
      <trkpt lat="47.60417" lon="3.75505">
        <ele>124</ele>
        <time>2014-04-17T06:36:07Z</time>
      </trkpt>
      <trkpt lat="47.60413" lon="3.75508">
        <ele>125</ele>
        <time>2014-04-17T06:36:10Z</time>
      </trkpt>
      <trkpt lat="47.60407" lon="3.75511">
        <ele>125</ele>
        <time>2014-04-17T06:36:14Z</time>
      </trkpt>
      <trkpt lat="47.60402" lon="3.75514">
        <ele>125</ele>
        <time>2014-04-17T06:36:18Z</time>
      </trkpt>
      <trkpt lat="47.60397" lon="3.75515">
        <ele>125</ele>
        <time>2014-04-17T06:36:22Z</time>
      </trkpt>
      <trkpt lat="47.60394" lon="3.75517">
        <ele>125</ele>
        <time>2014-04-17T06:36:29Z</time>
      </trkpt>
      <trkpt lat="47.60389" lon="3.75517">
        <ele>125</ele>
        <time>2014-04-17T06:36:36Z</time>
      </trkpt>
      <trkpt lat="47.60384" lon="3.75519">
        <ele>126</ele>
        <time>2014-04-17T06:36:41Z</time>
      </trkpt>
      <trkpt lat="47.6038" lon="3.75523">
        <ele>126</ele>
        <time>2014-04-17T06:37:03Z</time>
      </trkpt>
      <trkpt lat="47.60375" lon="3.75525">
        <ele>126</ele>
        <time>2014-04-17T06:37:07Z</time>
      </trkpt>
      <trkpt lat="47.6037" lon="3.75526">
        <ele>126</ele>
        <time>2014-04-17T06:37:12Z</time>
      </trkpt>
      <trkpt lat="47.60365" lon="3.75528">
        <ele>126</ele>
        <time>2014-04-17T06:37:15Z</time>
      </trkpt>
      <trkpt lat="47.6036" lon="3.75529">
        <ele>126</ele>
        <time>2014-04-17T06:37:18Z</time>
      </trkpt>
      <trkpt lat="47.60354" lon="3.75531">
        <ele>126</ele>
        <time>2014-04-17T06:37:22Z</time>
      </trkpt>
      <trkpt lat="47.60353" lon="3.75542">
        <ele>126</ele>
        <time>2014-04-17T06:37:38Z</time>
      </trkpt>
      <trkpt lat="47.60357" lon="3.75538">
        <ele>126</ele>
        <time>2014-04-17T06:37:53Z</time>
      </trkpt>
      <trkpt lat="47.60359" lon="3.75538">
        <ele>126</ele>
        <time>2014-04-17T06:38:19Z</time>
      </trkpt>
      <trkpt lat="47.60352" lon="3.75535">
        <ele>126</ele>
        <time>2014-04-17T06:38:38Z</time>
      </trkpt>
      <trkpt lat="47.60347" lon="3.75535">
        <ele>127</ele>
        <time>2014-04-17T06:38:42Z</time>
      </trkpt>
      <trkpt lat="47.60342" lon="3.75537">
        <ele>127</ele>
        <time>2014-04-17T06:38:47Z</time>
      </trkpt>
      <trkpt lat="47.60337" lon="3.75537">
        <ele>127</ele>
        <time>2014-04-17T06:38:52Z</time>
      </trkpt>
      <trkpt lat="47.60331" lon="3.75537">
        <ele>130</ele>
        <time>2014-04-17T06:38:56Z</time>
      </trkpt>
      <trkpt lat="47.60326" lon="3.75536">
        <ele>130</ele>
        <time>2014-04-17T06:39:00Z</time>
      </trkpt>
      <trkpt lat="47.60324" lon="3.75536">
        <ele>130</ele>
        <time>2014-04-17T06:39:06Z</time>
      </trkpt>
      <trkpt lat="47.60318" lon="3.75536">
        <ele>130</ele>
        <time>2014-04-17T06:39:11Z</time>
      </trkpt>
      <trkpt lat="47.60314" lon="3.7554">
        <ele>130</ele>
        <time>2014-04-17T06:39:15Z</time>
      </trkpt>
      <trkpt lat="47.60308" lon="3.75541">
        <ele>130</ele>
        <time>2014-04-17T06:39:23Z</time>
      </trkpt>
      <trkpt lat="47.60304" lon="3.75538">
        <ele>130</ele>
        <time>2014-04-17T06:39:26Z</time>
      </trkpt>
      <trkpt lat="47.603" lon="3.75531">
        <ele>130</ele>
        <time>2014-04-17T06:39:29Z</time>
      </trkpt>
      <trkpt lat="47.60301" lon="3.75523">
        <ele>131</ele>
        <time>2014-04-17T06:39:33Z</time>
      </trkpt>
      <trkpt lat="47.60303" lon="3.75517">
        <ele>131</ele>
        <time>2014-04-17T06:39:36Z</time>
      </trkpt>
      <trkpt lat="47.60304" lon="3.75509">
        <ele>131</ele>
        <time>2014-04-17T06:39:40Z</time>
      </trkpt>
      <trkpt lat="47.60307" lon="3.75495">
        <ele>132</ele>
        <time>2014-04-17T06:39:49Z</time>
      </trkpt>
      <trkpt lat="47.60303" lon="3.75488">
        <ele>132</ele>
        <time>2014-04-17T06:39:53Z</time>
      </trkpt>
      <trkpt lat="47.603" lon="3.75484">
        <ele>132</ele>
        <time>2014-04-17T06:39:56Z</time>
      </trkpt>
      <trkpt lat="47.60296" lon="3.75478">
        <ele>133</ele>
        <time>2014-04-17T06:40:01Z</time>
      </trkpt>
      <trkpt lat="47.60291" lon="3.75473">
        <ele>133</ele>
        <time>2014-04-17T06:40:04Z</time>
      </trkpt>
      <trkpt lat="47.60286" lon="3.75473">
        <ele>133</ele>
        <time>2014-04-17T06:40:07Z</time>
      </trkpt>
      <trkpt lat="47.60281" lon="3.75476">
        <ele>133</ele>
        <time>2014-04-17T06:40:12Z</time>
      </trkpt>
      <trkpt lat="47.60279" lon="3.75483">
        <ele>133</ele>
        <time>2014-04-17T06:40:16Z</time>
      </trkpt>
      <trkpt lat="47.60278" lon="3.7549">
        <ele>134</ele>
        <time>2014-04-17T06:40:20Z</time>
      </trkpt>
      <trkpt lat="47.60279" lon="3.75498">
        <ele>134</ele>
        <time>2014-04-17T06:40:24Z</time>
      </trkpt>
      <trkpt lat="47.60279" lon="3.75506">
        <ele>132</ele>
        <time>2014-04-17T06:40:29Z</time>
      </trkpt>
      <trkpt lat="47.60277" lon="3.75512">
        <ele>132</ele>
        <time>2014-04-17T06:40:33Z</time>
      </trkpt>
      <trkpt lat="47.60275" lon="3.75518">
        <ele>132</ele>
        <time>2014-04-17T06:40:37Z</time>
      </trkpt>
      <trkpt lat="47.60272" lon="3.75524">
        <ele>132</ele>
        <time>2014-04-17T06:40:41Z</time>
      </trkpt>
      <trkpt lat="47.60268" lon="3.75529">
        <ele>132</ele>
        <time>2014-04-17T06:40:45Z</time>
      </trkpt>
      <trkpt lat="47.60266" lon="3.75535">
        <ele>131</ele>
        <time>2014-04-17T06:40:51Z</time>
      </trkpt>
      <trkpt lat="47.60263" lon="3.7554">
        <ele>131</ele>
        <time>2014-04-17T06:40:56Z</time>
      </trkpt>
      <trkpt lat="47.60258" lon="3.75543">
        <ele>131</ele>
        <time>2014-04-17T06:41:03Z</time>
      </trkpt>
      <trkpt lat="47.60254" lon="3.75543">
        <ele>131</ele>
        <time>2014-04-17T06:41:09Z</time>
      </trkpt>
      <trkpt lat="47.60252" lon="3.75539">
        <ele>132</ele>
        <time>2014-04-17T06:41:22Z</time>
      </trkpt>
      <trkpt lat="47.60247" lon="3.7554">
        <ele>133</ele>
        <time>2014-04-17T06:41:39Z</time>
      </trkpt>
      <trkpt lat="47.60246" lon="3.75541">
        <ele>133</ele>
        <time>2014-04-17T06:42:50Z</time>
      </trkpt>
      <trkpt lat="47.60241" lon="3.75537">
        <ele>133</ele>
        <time>2014-04-17T06:43:16Z</time>
      </trkpt>
      <trkpt lat="47.60238" lon="3.75538">
        <ele>133</ele>
        <time>2014-04-17T06:45:47Z</time>
      </trkpt>
      <trkpt lat="47.6024" lon="3.75545">
        <ele>133</ele>
        <time>2014-04-17T06:46:11Z</time>
      </trkpt>
      <trkpt lat="47.60235" lon="3.75548">
        <ele>133</ele>
        <time>2014-04-17T06:46:18Z</time>
      </trkpt>
      <trkpt lat="47.60231" lon="3.75554">
        <ele>132</ele>
        <time>2014-04-17T06:46:45Z</time>
      </trkpt>
      <trkpt lat="47.60226" lon="3.75552">
        <ele>132</ele>
        <time>2014-04-17T06:46:50Z</time>
      </trkpt>
      <trkpt lat="47.60223" lon="3.75555">
        <ele>132</ele>
        <time>2014-04-17T06:47:28Z</time>
      </trkpt>
      <trkpt lat="47.60219" lon="3.75552">
        <ele>132</ele>
        <time>2014-04-17T06:47:33Z</time>
      </trkpt>
      <trkpt lat="47.60215" lon="3.75548">
        <ele>133</ele>
        <time>2014-04-17T06:47:38Z</time>
      </trkpt>
      <trkpt lat="47.60211" lon="3.75555">
        <ele>132</ele>
        <time>2014-04-17T06:47:43Z</time>
      </trkpt>
      <trkpt lat="47.60207" lon="3.75558">
        <ele>132</ele>
        <time>2014-04-17T06:47:46Z</time>
      </trkpt>
      <trkpt lat="47.60202" lon="3.75556">
        <ele>132</ele>
        <time>2014-04-17T06:47:54Z</time>
      </trkpt>
      <trkpt lat="47.60198" lon="3.75553">
        <ele>132</ele>
        <time>2014-04-17T06:47:59Z</time>
      </trkpt>
      <trkpt lat="47.60193" lon="3.75554">
        <ele>132</ele>
        <time>2014-04-17T06:48:03Z</time>
      </trkpt>
      <trkpt lat="47.60189" lon="3.75556">
        <ele>132</ele>
        <time>2014-04-17T06:48:08Z</time>
      </trkpt>
      <trkpt lat="47.60186" lon="3.75562">
        <ele>132</ele>
        <time>2014-04-17T06:48:12Z</time>
      </trkpt>
      <trkpt lat="47.60185" lon="3.75569">
        <ele>132</ele>
        <time>2014-04-17T06:48:17Z</time>
      </trkpt>
      <trkpt lat="47.60191" lon="3.75579">
        <ele>132</ele>
        <time>2014-04-17T06:48:30Z</time>
      </trkpt>
      <trkpt lat="47.60186" lon="3.7559">
        <ele>129</ele>
        <time>2014-04-17T06:48:40Z</time>
      </trkpt>
      <trkpt lat="47.60187" lon="3.75597">
        <ele>129</ele>
        <time>2014-04-17T06:49:03Z</time>
      </trkpt>
      <trkpt lat="47.60195" lon="3.75606">
        <ele>129</ele>
        <time>2014-04-17T06:49:12Z</time>
      </trkpt>
      <trkpt lat="47.60205" lon="3.75611">
        <ele>128</ele>
        <time>2014-04-17T06:49:20Z</time>
      </trkpt>
      <trkpt lat="47.60214" lon="3.75614">
        <ele>128</ele>
        <time>2014-04-17T06:49:27Z</time>
      </trkpt>
      <trkpt lat="47.60223" lon="3.75621">
        <ele>128</ele>
        <time>2014-04-17T06:49:37Z</time>
      </trkpt>
      <trkpt lat="47.60231" lon="3.75628">
        <ele>128</ele>
        <time>2014-04-17T06:49:43Z</time>
      </trkpt>
      <trkpt lat="47.60239" lon="3.75633">
        <ele>127</ele>
        <time>2014-04-17T06:49:47Z</time>
      </trkpt>
      <trkpt lat="47.60248" lon="3.75631">
        <ele>128</ele>
        <time>2014-04-17T06:49:55Z</time>
      </trkpt>
      <trkpt lat="47.60249" lon="3.75641">
        <ele>127</ele>
        <time>2014-04-17T06:50:01Z</time>
      </trkpt>
      <trkpt lat="47.60254" lon="3.75645">
        <ele>126</ele>
        <time>2014-04-17T06:50:03Z</time>
      </trkpt>
      <trkpt lat="47.60258" lon="3.75649">
        <ele>126</ele>
        <time>2014-04-17T06:50:05Z</time>
      </trkpt>
      <trkpt lat="47.60257" lon="3.75657">
        <ele>125</ele>
        <time>2014-04-17T06:50:15Z</time>
      </trkpt>
      <trkpt lat="47.60258" lon="3.75667">
        <ele>125</ele>
        <time>2014-04-17T06:50:30Z</time>
      </trkpt>
      <trkpt lat="47.60261" lon="3.75673">
        <ele>124</ele>
        <time>2014-04-17T06:50:34Z</time>
      </trkpt>
      <trkpt lat="47.60262" lon="3.7568">
        <ele>124</ele>
        <time>2014-04-17T06:50:38Z</time>
      </trkpt>
      <trkpt lat="47.60263" lon="3.75687">
        <ele>124</ele>
        <time>2014-04-17T06:50:42Z</time>
      </trkpt>
      <trkpt lat="47.60265" lon="3.75695">
        <ele>124</ele>
        <time>2014-04-17T06:50:46Z</time>
      </trkpt>
      <trkpt lat="47.60268" lon="3.757">
        <ele>124</ele>
        <time>2014-04-17T06:50:50Z</time>
      </trkpt>
      <trkpt lat="47.6027" lon="3.75708">
        <ele>124</ele>
        <time>2014-04-17T06:50:58Z</time>
      </trkpt>
      <trkpt lat="47.60271" lon="3.75716">
        <ele>124</ele>
        <time>2014-04-17T06:51:02Z</time>
      </trkpt>
      <trkpt lat="47.60272" lon="3.75723">
        <ele>123</ele>
        <time>2014-04-17T06:51:06Z</time>
      </trkpt>
      <trkpt lat="47.60275" lon="3.75729">
        <ele>123</ele>
        <time>2014-04-17T06:51:10Z</time>
      </trkpt>
      <trkpt lat="47.60277" lon="3.75736">
        <ele>123</ele>
        <time>2014-04-17T06:51:14Z</time>
      </trkpt>
      <trkpt lat="47.60277" lon="3.75743">
        <ele>123</ele>
        <time>2014-04-17T06:51:18Z</time>
      </trkpt>
      <trkpt lat="47.60279" lon="3.75751">
        <ele>123</ele>
        <time>2014-04-17T06:51:22Z</time>
      </trkpt>
      <trkpt lat="47.60282" lon="3.75758">
        <ele>123</ele>
        <time>2014-04-17T06:51:26Z</time>
      </trkpt>
      <trkpt lat="47.60282" lon="3.75766">
        <ele>123</ele>
        <time>2014-04-17T06:51:30Z</time>
      </trkpt>
      <trkpt lat="47.60284" lon="3.75773">
        <ele>123</ele>
        <time>2014-04-17T06:51:38Z</time>
      </trkpt>
      <trkpt lat="47.60291" lon="3.75783">
        <ele>123</ele>
        <time>2014-04-17T06:51:46Z</time>
      </trkpt>
      <trkpt lat="47.60297" lon="3.75813">
        <ele>124</ele>
        <time>2014-04-17T06:52:05Z</time>
      </trkpt>
      <trkpt lat="47.603" lon="3.75823">
        <ele>124</ele>
        <time>2014-04-17T06:52:10Z</time>
      </trkpt>
      <trkpt lat="47.60302" lon="3.75828">
        <ele>124</ele>
        <time>2014-04-17T06:52:15Z</time>
      </trkpt>
      <trkpt lat="47.60302" lon="3.75827">
        <ele>124</ele>
        <time>2014-04-17T06:54:15Z</time>
      </trkpt>
      <trkpt lat="47.6031" lon="3.75825">
        <ele>124</ele>
        <time>2014-04-17T06:57:21Z</time>
      </trkpt>
      <trkpt lat="47.60315" lon="3.75822">
        <ele>124</ele>
        <time>2014-04-17T06:57:33Z</time>
      </trkpt>
      <trkpt lat="47.60316" lon="3.75823">
        <ele>124</ele>
        <time>2014-04-17T06:58:42Z</time>
      </trkpt>
      <trkpt lat="47.6031" lon="3.75822">
        <ele>124</ele>
        <time>2014-04-17T06:59:06Z</time>
      </trkpt>
      <trkpt lat="47.60305" lon="3.75823">
        <ele>124</ele>
        <time>2014-04-17T06:59:07Z</time>
      </trkpt>
      <trkpt lat="47.603" lon="3.75821">
        <ele>124</ele>
        <time>2014-04-17T06:59:09Z</time>
      </trkpt>
      <trkpt lat="47.60295" lon="3.75818">
        <ele>124</ele>
        <time>2014-04-17T06:59:12Z</time>
      </trkpt>
      <trkpt lat="47.60291" lon="3.75813">
        <ele>123</ele>
        <time>2014-04-17T06:59:16Z</time>
      </trkpt>
      <trkpt lat="47.60288" lon="3.75806">
        <ele>123</ele>
        <time>2014-04-17T06:59:21Z</time>
      </trkpt>
      <trkpt lat="47.60292" lon="3.75801">
        <ele>123</ele>
        <time>2014-04-17T06:59:26Z</time>
      </trkpt>
      <trkpt lat="47.60287" lon="3.75797">
        <ele>123</ele>
        <time>2014-04-17T06:59:54Z</time>
      </trkpt>
      <trkpt lat="47.60277" lon="3.75792">
        <ele>123</ele>
        <time>2014-04-17T06:59:58Z</time>
      </trkpt>
      <trkpt lat="47.60275" lon="3.75778">
        <ele>123</ele>
        <time>2014-04-17T07:00:08Z</time>
      </trkpt>
      <trkpt lat="47.60275" lon="3.7577">
        <ele>123</ele>
        <time>2014-04-17T07:00:12Z</time>
      </trkpt>
      <trkpt lat="47.60273" lon="3.75764">
        <ele>123</ele>
        <time>2014-04-17T07:00:14Z</time>
      </trkpt>
      <trkpt lat="47.60272" lon="3.75756">
        <ele>123</ele>
        <time>2014-04-17T07:00:17Z</time>
      </trkpt>
      <trkpt lat="47.60271" lon="3.75748">
        <ele>123</ele>
        <time>2014-04-17T07:00:20Z</time>
      </trkpt>
      <trkpt lat="47.60269" lon="3.75742">
        <ele>123</ele>
        <time>2014-04-17T07:00:26Z</time>
      </trkpt>
      <trkpt lat="47.60272" lon="3.75737">
        <ele>123</ele>
        <time>2014-04-17T07:00:39Z</time>
      </trkpt>
      <trkpt lat="47.60269" lon="3.75732">
        <ele>123</ele>
        <time>2014-04-17T07:00:54Z</time>
      </trkpt>
      <trkpt lat="47.60266" lon="3.75734">
        <ele>123</ele>
        <time>2014-04-17T07:01:01Z</time>
      </trkpt>
      <trkpt lat="47.60268" lon="3.7572">
        <ele>124</ele>
        <time>2014-04-17T07:01:18Z</time>
      </trkpt>
      <trkpt lat="47.60265" lon="3.75715">
        <ele>124</ele>
        <time>2014-04-17T07:01:23Z</time>
      </trkpt>
      <trkpt lat="47.60263" lon="3.75708">
        <ele>124</ele>
        <time>2014-04-17T07:01:27Z</time>
      </trkpt>
      <trkpt lat="47.6026" lon="3.75702">
        <ele>124</ele>
        <time>2014-04-17T07:01:30Z</time>
      </trkpt>
      <trkpt lat="47.60259" lon="3.75695">
        <ele>124</ele>
        <time>2014-04-17T07:01:33Z</time>
      </trkpt>
      <trkpt lat="47.60257" lon="3.75688">
        <ele>124</ele>
        <time>2014-04-17T07:01:36Z</time>
      </trkpt>
      <trkpt lat="47.60252" lon="3.75685">
        <ele>124</ele>
        <time>2014-04-17T07:01:41Z</time>
      </trkpt>
      <trkpt lat="47.6025" lon="3.75678">
        <ele>124</ele>
        <time>2014-04-17T07:01:45Z</time>
      </trkpt>
      <trkpt lat="47.60252" lon="3.75672">
        <ele>125</ele>
        <time>2014-04-17T07:01:49Z</time>
      </trkpt>
      <trkpt lat="47.60249" lon="3.75665">
        <ele>125</ele>
        <time>2014-04-17T07:01:54Z</time>
      </trkpt>
      <trkpt lat="47.60248" lon="3.75658">
        <ele>126</ele>
        <time>2014-04-17T07:01:59Z</time>
      </trkpt>
      <trkpt lat="47.60247" lon="3.75651">
        <ele>126</ele>
        <time>2014-04-17T07:02:03Z</time>
      </trkpt>
      <trkpt lat="47.60246" lon="3.75644">
        <ele>127</ele>
        <time>2014-04-17T07:02:08Z</time>
      </trkpt>
      <trkpt lat="47.60243" lon="3.75637">
        <ele>127</ele>
        <time>2014-04-17T07:02:13Z</time>
      </trkpt>
      <trkpt lat="47.60238" lon="3.75634">
        <ele>127</ele>
        <time>2014-04-17T07:02:17Z</time>
      </trkpt>
      <trkpt lat="47.60234" lon="3.75631">
        <ele>128</ele>
        <time>2014-04-17T07:02:20Z</time>
      </trkpt>
      <trkpt lat="47.60229" lon="3.75629">
        <ele>128</ele>
        <time>2014-04-17T07:02:23Z</time>
      </trkpt>
      <trkpt lat="47.60224" lon="3.75627">
        <ele>128</ele>
        <time>2014-04-17T07:02:27Z</time>
      </trkpt>
      <trkpt lat="47.60219" lon="3.75626">
        <ele>128</ele>
        <time>2014-04-17T07:02:33Z</time>
      </trkpt>
      <trkpt lat="47.60214" lon="3.75628">
        <ele>128</ele>
        <time>2014-04-17T07:02:38Z</time>
      </trkpt>
      <trkpt lat="47.60208" lon="3.75623">
        <ele>128</ele>
        <time>2014-04-17T07:02:41Z</time>
      </trkpt>
      <trkpt lat="47.60203" lon="3.75618">
        <ele>128</ele>
        <time>2014-04-17T07:02:56Z</time>
      </trkpt>
      <trkpt lat="47.60198" lon="3.75617">
        <ele>128</ele>
        <time>2014-04-17T07:03:01Z</time>
      </trkpt>
      <trkpt lat="47.60194" lon="3.75618">
        <ele>128</ele>
        <time>2014-04-17T07:03:05Z</time>
      </trkpt>
      <trkpt lat="47.60189" lon="3.75621">
        <ele>128</ele>
        <time>2014-04-17T07:03:11Z</time>
      </trkpt>
      <trkpt lat="47.60185" lon="3.75624">
        <ele>128</ele>
        <time>2014-04-17T07:03:15Z</time>
      </trkpt>
      <trkpt lat="47.6018" lon="3.75627">
        <ele>128</ele>
        <time>2014-04-17T07:03:20Z</time>
      </trkpt>
      <trkpt lat="47.60175" lon="3.75631">
        <ele>128</ele>
        <time>2014-04-17T07:03:25Z</time>
      </trkpt>
      <trkpt lat="47.60171" lon="3.75633">
        <ele>128</ele>
        <time>2014-04-17T07:03:31Z</time>
      </trkpt>
      <trkpt lat="47.60166" lon="3.75633">
        <ele>131</ele>
        <time>2014-04-17T07:03:37Z</time>
      </trkpt>
      <trkpt lat="47.60161" lon="3.75632">
        <ele>131</ele>
        <time>2014-04-17T07:03:40Z</time>
      </trkpt>
      <trkpt lat="47.60155" lon="3.75633">
        <ele>131</ele>
        <time>2014-04-17T07:03:44Z</time>
      </trkpt>
      <trkpt lat="47.6015" lon="3.75633">
        <ele>131</ele>
        <time>2014-04-17T07:03:48Z</time>
      </trkpt>
      <trkpt lat="47.60145" lon="3.75631">
        <ele>132</ele>
        <time>2014-04-17T07:03:53Z</time>
      </trkpt>
      <trkpt lat="47.6014" lon="3.7563">
        <ele>132</ele>
        <time>2014-04-17T07:03:58Z</time>
      </trkpt>
      <trkpt lat="47.60134" lon="3.75629">
        <ele>132</ele>
        <time>2014-04-17T07:04:02Z</time>
      </trkpt>
      <trkpt lat="47.60129" lon="3.7563">
        <ele>132</ele>
        <time>2014-04-17T07:04:06Z</time>
      </trkpt>
      <trkpt lat="47.60124" lon="3.75629">
        <ele>133</ele>
        <time>2014-04-17T07:04:10Z</time>
      </trkpt>
      <trkpt lat="47.60119" lon="3.75629">
        <ele>133</ele>
        <time>2014-04-17T07:04:14Z</time>
      </trkpt>
      <trkpt lat="47.60115" lon="3.75627">
        <ele>133</ele>
        <time>2014-04-17T07:04:22Z</time>
      </trkpt>
      <trkpt lat="47.60112" lon="3.75628">
        <ele>133</ele>
        <time>2014-04-17T07:04:28Z</time>
      </trkpt>
      <trkpt lat="47.60105" lon="3.75641">
        <ele>134</ele>
        <time>2014-04-17T07:04:40Z</time>
      </trkpt>
      <trkpt lat="47.60101" lon="3.75651">
        <ele>134</ele>
        <time>2014-04-17T07:04:45Z</time>
      </trkpt>
      <trkpt lat="47.60097" lon="3.75656">
        <ele>135</ele>
        <time>2014-04-17T07:04:49Z</time>
      </trkpt>
      <trkpt lat="47.60092" lon="3.75658">
        <ele>135</ele>
        <time>2014-04-17T07:04:52Z</time>
      </trkpt>
      <trkpt lat="47.60087" lon="3.75661">
        <ele>136</ele>
        <time>2014-04-17T07:04:56Z</time>
      </trkpt>
      <trkpt lat="47.60082" lon="3.75661">
        <ele>138</ele>
        <time>2014-04-17T07:04:59Z</time>
      </trkpt>
      <trkpt lat="47.60076" lon="3.75662">
        <ele>139</ele>
        <time>2014-04-17T07:05:02Z</time>
      </trkpt>
      <trkpt lat="47.60071" lon="3.75665">
        <ele>140</ele>
        <time>2014-04-17T07:05:08Z</time>
      </trkpt>
      <trkpt lat="47.60067" lon="3.75672">
        <ele>139</ele>
        <time>2014-04-17T07:05:12Z</time>
      </trkpt>
      <trkpt lat="47.60064" lon="3.75676">
        <ele>139</ele>
        <time>2014-04-17T07:05:15Z</time>
      </trkpt>
      <trkpt lat="47.60061" lon="3.75683">
        <ele>139</ele>
        <time>2014-04-17T07:05:19Z</time>
      </trkpt>
      <trkpt lat="47.60057" lon="3.75687">
        <ele>140</ele>
        <time>2014-04-17T07:05:25Z</time>
      </trkpt>
      <trkpt lat="47.60053" lon="3.75692">
        <ele>140</ele>
        <time>2014-04-17T07:05:31Z</time>
      </trkpt>
      <trkpt lat="47.60053" lon="3.75699">
        <ele>140</ele>
        <time>2014-04-17T07:05:39Z</time>
      </trkpt>
      <trkpt lat="47.6005" lon="3.75698">
        <ele>140</ele>
        <time>2014-04-17T07:06:03Z</time>
      </trkpt>
      <trkpt lat="47.60044" lon="3.757">
        <ele>140</ele>
        <time>2014-04-17T07:06:07Z</time>
      </trkpt>
      <trkpt lat="47.60038" lon="3.75702">
        <ele>141</ele>
        <time>2014-04-17T07:06:10Z</time>
      </trkpt>
      <trkpt lat="47.60032" lon="3.75703">
        <ele>141</ele>
        <time>2014-04-17T07:06:13Z</time>
      </trkpt>
      <trkpt lat="47.60027" lon="3.75705">
        <ele>141</ele>
        <time>2014-04-17T07:06:17Z</time>
      </trkpt>
      <trkpt lat="47.60021" lon="3.75706">
        <ele>142</ele>
        <time>2014-04-17T07:06:20Z</time>
      </trkpt>
      <trkpt lat="47.60016" lon="3.75708">
        <ele>142</ele>
        <time>2014-04-17T07:06:23Z</time>
      </trkpt>
      <trkpt lat="47.60012" lon="3.75713">
        <ele>142</ele>
        <time>2014-04-17T07:06:28Z</time>
      </trkpt>
      <trkpt lat="47.60009" lon="3.75718">
        <ele>141</ele>
        <time>2014-04-17T07:06:33Z</time>
      </trkpt>
      <trkpt lat="47.60011" lon="3.75725">
        <ele>141</ele>
        <time>2014-04-17T07:07:08Z</time>
      </trkpt>
      <trkpt lat="47.60008" lon="3.7573">
        <ele>141</ele>
        <time>2014-04-17T07:07:16Z</time>
      </trkpt>
      <trkpt lat="47.60005" lon="3.75735">
        <ele>141</ele>
        <time>2014-04-17T07:07:20Z</time>
      </trkpt>
      <trkpt lat="47.60002" lon="3.7574">
        <ele>141</ele>
        <time>2014-04-17T07:07:25Z</time>
      </trkpt>
      <trkpt lat="47.59995" lon="3.75747">
        <ele>142</ele>
        <time>2014-04-17T07:07:35Z</time>
      </trkpt>
      <trkpt lat="47.59989" lon="3.75759">
        <ele>140</ele>
        <time>2014-04-17T07:07:48Z</time>
      </trkpt>
      <trkpt lat="47.59985" lon="3.75764">
        <ele>139</ele>
        <time>2014-04-17T07:07:51Z</time>
      </trkpt>
      <trkpt lat="47.59976" lon="3.7577">
        <ele>139</ele>
        <time>2014-04-17T07:08:00Z</time>
      </trkpt>
      <trkpt lat="47.59974" lon="3.75784">
        <ele>138</ele>
        <time>2014-04-17T07:08:07Z</time>
      </trkpt>
      <trkpt lat="47.59971" lon="3.7579">
        <ele>138</ele>
        <time>2014-04-17T07:08:19Z</time>
      </trkpt>
      <trkpt lat="47.59962" lon="3.7579">
        <ele>138</ele>
        <time>2014-04-17T07:08:47Z</time>
      </trkpt>
      <trkpt lat="47.59958" lon="3.75789">
        <ele>138</ele>
        <time>2014-04-17T07:08:49Z</time>
      </trkpt>
      <trkpt lat="47.59953" lon="3.7579">
        <ele>138</ele>
        <time>2014-04-17T07:08:52Z</time>
      </trkpt>
      <trkpt lat="47.59948" lon="3.75792">
        <ele>138</ele>
        <time>2014-04-17T07:08:57Z</time>
      </trkpt>
      <trkpt lat="47.59943" lon="3.75796">
        <ele>138</ele>
        <time>2014-04-17T07:09:00Z</time>
      </trkpt>
      <trkpt lat="47.59936" lon="3.75798">
        <ele>138</ele>
        <time>2014-04-17T07:09:03Z</time>
      </trkpt>
      <trkpt lat="47.59931" lon="3.75802">
        <ele>138</ele>
        <time>2014-04-17T07:09:06Z</time>
      </trkpt>
      <trkpt lat="47.59926" lon="3.75805">
        <ele>137</ele>
        <time>2014-04-17T07:09:10Z</time>
      </trkpt>
      <trkpt lat="47.59921" lon="3.75806">
        <ele>137</ele>
        <time>2014-04-17T07:09:14Z</time>
      </trkpt>
      <trkpt lat="47.59917" lon="3.7581">
        <ele>137</ele>
        <time>2014-04-17T07:09:19Z</time>
      </trkpt>
      <trkpt lat="47.59912" lon="3.75812">
        <ele>137</ele>
        <time>2014-04-17T07:09:22Z</time>
      </trkpt>
      <trkpt lat="47.59907" lon="3.75813">
        <ele>137</ele>
        <time>2014-04-17T07:09:26Z</time>
      </trkpt>
      <trkpt lat="47.59902" lon="3.75818">
        <ele>136</ele>
        <time>2014-04-17T07:09:30Z</time>
      </trkpt>
      <trkpt lat="47.59898" lon="3.75821">
        <ele>137</ele>
        <time>2014-04-17T07:09:35Z</time>
      </trkpt>
      <trkpt lat="47.59893" lon="3.75823">
        <ele>137</ele>
        <time>2014-04-17T07:09:39Z</time>
      </trkpt>
      <trkpt lat="47.59889" lon="3.75826">
        <ele>137</ele>
        <time>2014-04-17T07:09:43Z</time>
      </trkpt>
      <trkpt lat="47.59885" lon="3.7583">
        <ele>137</ele>
        <time>2014-04-17T07:09:47Z</time>
      </trkpt>
      <trkpt lat="47.59879" lon="3.75832">
        <ele>137</ele>
        <time>2014-04-17T07:09:52Z</time>
      </trkpt>
      <trkpt lat="47.59874" lon="3.7583">
        <ele>137</ele>
        <time>2014-04-17T07:09:57Z</time>
      </trkpt>
      <trkpt lat="47.59871" lon="3.75825">
        <ele>137</ele>
        <time>2014-04-17T07:10:03Z</time>
      </trkpt>
      <trkpt lat="47.59869" lon="3.75819">
        <ele>137</ele>
        <time>2014-04-17T07:10:07Z</time>
      </trkpt>
      <trkpt lat="47.59861" lon="3.7581">
        <ele>137</ele>
        <time>2014-04-17T07:10:22Z</time>
      </trkpt>
      <trkpt lat="47.59863" lon="3.75805">
        <ele>137</ele>
        <time>2014-04-17T07:10:27Z</time>
      </trkpt>
      <trkpt lat="47.59866" lon="3.75803">
        <ele>138</ele>
        <time>2014-04-17T07:11:20Z</time>
      </trkpt>
      <trkpt lat="47.59867" lon="3.7581">
        <ele>137</ele>
        <time>2014-04-17T07:11:27Z</time>
      </trkpt>
      <trkpt lat="47.59866" lon="3.75815">
        <ele>137</ele>
        <time>2014-04-17T07:11:36Z</time>
      </trkpt>
      <trkpt lat="47.59865" lon="3.75818">
        <ele>137</ele>
        <time>2014-04-17T07:11:42Z</time>
      </trkpt>
      <trkpt lat="47.59858" lon="3.75821">
        <ele>137</ele>
        <time>2014-04-17T07:12:01Z</time>
      </trkpt>
      <trkpt lat="47.5985" lon="3.75829">
        <ele>137</ele>
        <time>2014-04-17T07:12:07Z</time>
      </trkpt>
      <trkpt lat="47.59847" lon="3.75834">
        <ele>135</ele>
        <time>2014-04-17T07:12:10Z</time>
      </trkpt>
      <trkpt lat="47.59844" lon="3.75841">
        <ele>135</ele>
        <time>2014-04-17T07:12:15Z</time>
      </trkpt>
      <trkpt lat="47.59842" lon="3.75848">
        <ele>135</ele>
        <time>2014-04-17T07:12:19Z</time>
      </trkpt>
      <trkpt lat="47.59839" lon="3.75854">
        <ele>135</ele>
        <time>2014-04-17T07:12:24Z</time>
      </trkpt>
      <trkpt lat="47.59838" lon="3.75861">
        <ele>134</ele>
        <time>2014-04-17T07:12:29Z</time>
      </trkpt>
      <trkpt lat="47.59838" lon="3.75868">
        <ele>134</ele>
        <time>2014-04-17T07:12:33Z</time>
      </trkpt>
      <trkpt lat="47.59835" lon="3.75874">
        <ele>134</ele>
        <time>2014-04-17T07:12:37Z</time>
      </trkpt>
      <trkpt lat="47.59828" lon="3.75882">
        <ele>139</ele>
        <time>2014-04-17T07:12:42Z</time>
      </trkpt>
      <trkpt lat="47.59823" lon="3.75886">
        <ele>139</ele>
        <time>2014-04-17T07:12:45Z</time>
      </trkpt>
      <trkpt lat="47.59818" lon="3.7589">
        <ele>140</ele>
        <time>2014-04-17T07:12:49Z</time>
      </trkpt>
      <trkpt lat="47.59813" lon="3.75893">
        <ele>140</ele>
        <time>2014-04-17T07:12:52Z</time>
      </trkpt>
      <trkpt lat="47.59809" lon="3.75898">
        <ele>140</ele>
        <time>2014-04-17T07:12:57Z</time>
      </trkpt>
      <trkpt lat="47.59805" lon="3.75904">
        <ele>140</ele>
        <time>2014-04-17T07:13:01Z</time>
      </trkpt>
      <trkpt lat="47.59801" lon="3.75906">
        <ele>141</ele>
        <time>2014-04-17T07:13:05Z</time>
      </trkpt>
      <trkpt lat="47.59798" lon="3.75912">
        <ele>141</ele>
        <time>2014-04-17T07:13:11Z</time>
      </trkpt>
      <trkpt lat="47.59797" lon="3.75919">
        <ele>138</ele>
        <time>2014-04-17T07:13:16Z</time>
      </trkpt>
      <trkpt lat="47.59791" lon="3.75924">
        <ele>139</ele>
        <time>2014-04-17T07:13:21Z</time>
      </trkpt>
      <trkpt lat="47.59787" lon="3.75924">
        <ele>139</ele>
        <time>2014-04-17T07:13:24Z</time>
      </trkpt>
      <trkpt lat="47.59782" lon="3.75927">
        <ele>140</ele>
        <time>2014-04-17T07:13:28Z</time>
      </trkpt>
      <trkpt lat="47.59777" lon="3.75932">
        <ele>140</ele>
        <time>2014-04-17T07:13:31Z</time>
      </trkpt>
      <trkpt lat="47.59774" lon="3.75936">
        <ele>140</ele>
        <time>2014-04-17T07:13:34Z</time>
      </trkpt>
      <trkpt lat="47.59769" lon="3.75938">
        <ele>141</ele>
        <time>2014-04-17T07:13:54Z</time>
      </trkpt>
      <trkpt lat="47.59765" lon="3.7594">
        <ele>141</ele>
        <time>2014-04-17T07:13:57Z</time>
      </trkpt>
      <trkpt lat="47.5976" lon="3.7594">
        <ele>141</ele>
        <time>2014-04-17T07:14:02Z</time>
      </trkpt>
      <trkpt lat="47.59755" lon="3.7594">
        <ele>142</ele>
        <time>2014-04-17T07:14:08Z</time>
      </trkpt>
      <trkpt lat="47.59752" lon="3.75949">
        <ele>141</ele>
        <time>2014-04-17T07:14:29Z</time>
      </trkpt>
      <trkpt lat="47.59748" lon="3.75953">
        <ele>149</ele>
        <time>2014-04-17T07:14:33Z</time>
      </trkpt>
      <trkpt lat="47.59744" lon="3.75957">
        <ele>149</ele>
        <time>2014-04-17T07:14:37Z</time>
      </trkpt>
      <trkpt lat="47.5974" lon="3.75962">
        <ele>149</ele>
        <time>2014-04-17T07:14:42Z</time>
      </trkpt>
      <trkpt lat="47.59736" lon="3.75968">
        <ele>149</ele>
        <time>2014-04-17T07:14:47Z</time>
      </trkpt>
      <trkpt lat="47.59732" lon="3.75972">
        <ele>149</ele>
        <time>2014-04-17T07:14:52Z</time>
      </trkpt>
      <trkpt lat="47.59727" lon="3.75974">
        <ele>149</ele>
        <time>2014-04-17T07:14:58Z</time>
      </trkpt>
      <trkpt lat="47.59722" lon="3.75975">
        <ele>150</ele>
        <time>2014-04-17T07:15:02Z</time>
      </trkpt>
      <trkpt lat="47.59717" lon="3.75974">
        <ele>150</ele>
        <time>2014-04-17T07:15:05Z</time>
      </trkpt>
      <trkpt lat="47.59712" lon="3.75978">
        <ele>151</ele>
        <time>2014-04-17T07:15:09Z</time>
      </trkpt>
      <trkpt lat="47.59709" lon="3.75985">
        <ele>151</ele>
        <time>2014-04-17T07:15:12Z</time>
      </trkpt>
      <trkpt lat="47.59706" lon="3.75992">
        <ele>151</ele>
        <time>2014-04-17T07:15:16Z</time>
      </trkpt>
      <trkpt lat="47.59703" lon="3.75998">
        <ele>152</ele>
        <time>2014-04-17T07:15:20Z</time>
      </trkpt>
      <trkpt lat="47.597" lon="3.76003">
        <ele>148</ele>
        <time>2014-04-17T07:15:24Z</time>
      </trkpt>
      <trkpt lat="47.59694" lon="3.76006">
        <ele>149</ele>
        <time>2014-04-17T07:15:29Z</time>
      </trkpt>
      <trkpt lat="47.5969" lon="3.7601">
        <ele>149</ele>
        <time>2014-04-17T07:15:33Z</time>
      </trkpt>
      <trkpt lat="47.59689" lon="3.76017">
        <ele>149</ele>
        <time>2014-04-17T07:15:37Z</time>
      </trkpt>
      <trkpt lat="47.59688" lon="3.76026">
        <ele>148</ele>
        <time>2014-04-17T07:15:40Z</time>
      </trkpt>
      <trkpt lat="47.59687" lon="3.76034">
        <ele>148</ele>
        <time>2014-04-17T07:15:43Z</time>
      </trkpt>
      <trkpt lat="47.59686" lon="3.76042">
        <ele>147</ele>
        <time>2014-04-17T07:15:47Z</time>
      </trkpt>
      <trkpt lat="47.59686" lon="3.76048">
        <ele>147</ele>
        <time>2014-04-17T07:15:50Z</time>
      </trkpt>
      <trkpt lat="47.59685" lon="3.76056">
        <ele>147</ele>
        <time>2014-04-17T07:15:53Z</time>
      </trkpt>
      <trkpt lat="47.59681" lon="3.76062">
        <ele>147</ele>
        <time>2014-04-17T07:15:57Z</time>
      </trkpt>
      <trkpt lat="47.59677" lon="3.76068">
        <ele>148</ele>
        <time>2014-04-17T07:16:01Z</time>
      </trkpt>
      <trkpt lat="47.59673" lon="3.76072">
        <ele>149</ele>
        <time>2014-04-17T07:16:04Z</time>
      </trkpt>
      <trkpt lat="47.5967" lon="3.76077">
        <ele>150</ele>
        <time>2014-04-17T07:16:09Z</time>
      </trkpt>
      <trkpt lat="47.59666" lon="3.76082">
        <ele>153</ele>
        <time>2014-04-17T07:16:14Z</time>
      </trkpt>
      <trkpt lat="47.59663" lon="3.76089">
        <ele>153</ele>
        <time>2014-04-17T07:16:19Z</time>
      </trkpt>
      <trkpt lat="47.59662" lon="3.76094">
        <ele>153</ele>
        <time>2014-04-17T07:16:30Z</time>
      </trkpt>
      <trkpt lat="47.59659" lon="3.761">
        <ele>153</ele>
        <time>2014-04-17T07:16:34Z</time>
      </trkpt>
      <trkpt lat="47.59655" lon="3.76105">
        <ele>153</ele>
        <time>2014-04-17T07:16:37Z</time>
      </trkpt>
      <trkpt lat="47.59654" lon="3.76112">
        <ele>153</ele>
        <time>2014-04-17T07:16:39Z</time>
      </trkpt>
      <trkpt lat="47.59652" lon="3.76118">
        <ele>153</ele>
        <time>2014-04-17T07:16:43Z</time>
      </trkpt>
      <trkpt lat="47.59649" lon="3.76123">
        <ele>153</ele>
        <time>2014-04-17T07:16:47Z</time>
      </trkpt>
      <trkpt lat="47.59646" lon="3.76127">
        <ele>153</ele>
        <time>2014-04-17T07:16:52Z</time>
      </trkpt>
      <trkpt lat="47.59641" lon="3.76132">
        <ele>153</ele>
        <time>2014-04-17T07:16:56Z</time>
      </trkpt>
      <trkpt lat="47.59638" lon="3.76136">
        <ele>153</ele>
        <time>2014-04-17T07:16:59Z</time>
      </trkpt>
      <trkpt lat="47.59633" lon="3.76141">
        <ele>154</ele>
        <time>2014-04-17T07:17:02Z</time>
      </trkpt>
      <trkpt lat="47.5963" lon="3.76145">
        <ele>154</ele>
        <time>2014-04-17T07:17:05Z</time>
      </trkpt>
      <trkpt lat="47.59628" lon="3.76152">
        <ele>154</ele>
        <time>2014-04-17T07:17:10Z</time>
      </trkpt>
      <trkpt lat="47.59631" lon="3.76154">
        <ele>153</ele>
        <time>2014-04-17T07:17:17Z</time>
      </trkpt>
      <trkpt lat="47.5963" lon="3.76161">
        <ele>153</ele>
        <time>2014-04-17T07:17:29Z</time>
      </trkpt>
      <trkpt lat="47.59628" lon="3.76168">
        <ele>150</ele>
        <time>2014-04-17T07:17:33Z</time>
      </trkpt>
      <trkpt lat="47.59625" lon="3.76173">
        <ele>150</ele>
        <time>2014-04-17T07:17:37Z</time>
      </trkpt>
      <trkpt lat="47.59622" lon="3.7618">
        <ele>150</ele>
        <time>2014-04-17T07:17:42Z</time>
      </trkpt>
      <trkpt lat="47.59619" lon="3.76186">
        <ele>151</ele>
        <time>2014-04-17T07:17:45Z</time>
      </trkpt>
      <trkpt lat="47.59614" lon="3.7619">
        <ele>151</ele>
        <time>2014-04-17T07:17:48Z</time>
      </trkpt>
      <trkpt lat="47.5961" lon="3.76195">
        <ele>151</ele>
        <time>2014-04-17T07:17:52Z</time>
      </trkpt>
      <trkpt lat="47.5961" lon="3.76203">
        <ele>151</ele>
        <time>2014-04-17T07:17:56Z</time>
      </trkpt>
      <trkpt lat="47.59608" lon="3.76209">
        <ele>151</ele>
        <time>2014-04-17T07:17:59Z</time>
      </trkpt>
      <trkpt lat="47.59606" lon="3.76213">
        <ele>151</ele>
        <time>2014-04-17T07:18:07Z</time>
      </trkpt>
      <trkpt lat="47.59599" lon="3.76219">
        <ele>152</ele>
        <time>2014-04-17T07:18:16Z</time>
      </trkpt>
      <trkpt lat="47.59597" lon="3.76228">
        <ele>152</ele>
        <time>2014-04-17T07:18:20Z</time>
      </trkpt>
      <trkpt lat="47.59597" lon="3.76236">
        <ele>153</ele>
        <time>2014-04-17T07:18:24Z</time>
      </trkpt>
      <trkpt lat="47.59596" lon="3.76244">
        <ele>154</ele>
        <time>2014-04-17T07:18:30Z</time>
      </trkpt>
      <trkpt lat="47.59595" lon="3.76253">
        <ele>153</ele>
        <time>2014-04-17T07:18:36Z</time>
      </trkpt>
      <trkpt lat="47.59594" lon="3.76261">
        <ele>151</ele>
        <time>2014-04-17T07:18:39Z</time>
      </trkpt>
      <trkpt lat="47.59591" lon="3.76268">
        <ele>151</ele>
        <time>2014-04-17T07:18:43Z</time>
      </trkpt>
      <trkpt lat="47.5959" lon="3.76275">
        <ele>149</ele>
        <time>2014-04-17T07:18:49Z</time>
      </trkpt>
      <trkpt lat="47.59588" lon="3.76282">
        <ele>149</ele>
        <time>2014-04-17T07:18:53Z</time>
      </trkpt>
      <trkpt lat="47.59586" lon="3.76289">
        <ele>148</ele>
        <time>2014-04-17T07:18:58Z</time>
      </trkpt>
      <trkpt lat="47.59586" lon="3.76296">
        <ele>148</ele>
        <time>2014-04-17T07:19:03Z</time>
      </trkpt>
      <trkpt lat="47.59583" lon="3.76304">
        <ele>158</ele>
        <time>2014-04-17T07:19:08Z</time>
      </trkpt>
      <trkpt lat="47.59581" lon="3.76311">
        <ele>158</ele>
        <time>2014-04-17T07:19:12Z</time>
      </trkpt>
      <trkpt lat="47.5958" lon="3.76319">
        <ele>157</ele>
        <time>2014-04-17T07:19:17Z</time>
      </trkpt>
      <trkpt lat="47.59579" lon="3.76325">
        <ele>156</ele>
        <time>2014-04-17T07:19:22Z</time>
      </trkpt>
      <trkpt lat="47.5958" lon="3.76333">
        <ele>156</ele>
        <time>2014-04-17T07:19:25Z</time>
      </trkpt>
      <trkpt lat="47.59579" lon="3.76341">
        <ele>155</ele>
        <time>2014-04-17T07:19:29Z</time>
      </trkpt>
      <trkpt lat="47.59578" lon="3.76348">
        <ele>155</ele>
        <time>2014-04-17T07:19:32Z</time>
      </trkpt>
      <trkpt lat="47.59576" lon="3.76357">
        <ele>155</ele>
        <time>2014-04-17T07:19:35Z</time>
      </trkpt>
      <trkpt lat="47.59575" lon="3.76365">
        <ele>155</ele>
        <time>2014-04-17T07:19:38Z</time>
      </trkpt>
      <trkpt lat="47.59574" lon="3.76373">
        <ele>155</ele>
        <time>2014-04-17T07:19:41Z</time>
      </trkpt>
      <trkpt lat="47.59573" lon="3.7638">
        <ele>154</ele>
        <time>2014-04-17T07:19:45Z</time>
      </trkpt>
      <trkpt lat="47.59572" lon="3.76388">
        <ele>154</ele>
        <time>2014-04-17T07:19:49Z</time>
      </trkpt>
      <trkpt lat="47.59571" lon="3.76396">
        <ele>153</ele>
        <time>2014-04-17T07:19:53Z</time>
      </trkpt>
      <trkpt lat="47.59568" lon="3.76402">
        <ele>153</ele>
        <time>2014-04-17T07:19:57Z</time>
      </trkpt>
      <trkpt lat="47.59567" lon="3.76409">
        <ele>153</ele>
        <time>2014-04-17T07:20:00Z</time>
      </trkpt>
      <trkpt lat="47.59568" lon="3.76416">
        <ele>152</ele>
        <time>2014-04-17T07:20:03Z</time>
      </trkpt>
      <trkpt lat="47.59567" lon="3.76423">
        <ele>150</ele>
        <time>2014-04-17T07:20:07Z</time>
      </trkpt>
      <trkpt lat="47.59567" lon="3.7643">
        <ele>150</ele>
        <time>2014-04-17T07:20:11Z</time>
      </trkpt>
      <trkpt lat="47.59567" lon="3.76437">
        <ele>150</ele>
        <time>2014-04-17T07:20:15Z</time>
      </trkpt>
      <trkpt lat="47.59566" lon="3.76445">
        <ele>150</ele>
        <time>2014-04-17T07:20:19Z</time>
      </trkpt>
      <trkpt lat="47.59565" lon="3.76453">
        <ele>150</ele>
        <time>2014-04-17T07:20:23Z</time>
      </trkpt>
      <trkpt lat="47.59564" lon="3.76461">
        <ele>150</ele>
        <time>2014-04-17T07:20:27Z</time>
      </trkpt>
      <trkpt lat="47.59561" lon="3.76468">
        <ele>149</ele>
        <time>2014-04-17T07:20:30Z</time>
      </trkpt>
      <trkpt lat="47.5956" lon="3.76475">
        <ele>149</ele>
        <time>2014-04-17T07:20:33Z</time>
      </trkpt>
      <trkpt lat="47.59558" lon="3.76482">
        <ele>149</ele>
        <time>2014-04-17T07:20:37Z</time>
      </trkpt>
      <trkpt lat="47.59555" lon="3.76488">
        <ele>149</ele>
        <time>2014-04-17T07:20:39Z</time>
      </trkpt>
      <trkpt lat="47.59554" lon="3.76495">
        <ele>149</ele>
        <time>2014-04-17T07:20:41Z</time>
      </trkpt>
      <trkpt lat="47.59552" lon="3.76502">
        <ele>146</ele>
        <time>2014-04-17T07:20:44Z</time>
      </trkpt>
      <trkpt lat="47.59548" lon="3.76506">
        <ele>147</ele>
        <time>2014-04-17T07:20:51Z</time>
      </trkpt>
      <trkpt lat="47.59544" lon="3.7651">
        <ele>147</ele>
        <time>2014-04-17T07:20:56Z</time>
      </trkpt>
      <trkpt lat="47.59543" lon="3.76518">
        <ele>147</ele>
        <time>2014-04-17T07:21:00Z</time>
      </trkpt>
      <trkpt lat="47.59543" lon="3.76526">
        <ele>147</ele>
        <time>2014-04-17T07:21:03Z</time>
      </trkpt>
      <trkpt lat="47.59541" lon="3.76532">
        <ele>147</ele>
        <time>2014-04-17T07:21:07Z</time>
      </trkpt>
      <trkpt lat="47.59542" lon="3.7654">
        <ele>147</ele>
        <time>2014-04-17T07:21:13Z</time>
      </trkpt>
      <trkpt lat="47.59543" lon="3.76547">
        <ele>147</ele>
        <time>2014-04-17T07:21:16Z</time>
      </trkpt>
      <trkpt lat="47.59544" lon="3.76554">
        <ele>146</ele>
        <time>2014-04-17T07:21:19Z</time>
      </trkpt>
      <trkpt lat="47.59542" lon="3.76561">
        <ele>146</ele>
        <time>2014-04-17T07:21:23Z</time>
      </trkpt>
      <trkpt lat="47.5954" lon="3.76568">
        <ele>146</ele>
        <time>2014-04-17T07:21:26Z</time>
      </trkpt>
      <trkpt lat="47.59539" lon="3.76576">
        <ele>146</ele>
        <time>2014-04-17T07:21:30Z</time>
      </trkpt>
      <trkpt lat="47.59539" lon="3.76584">
        <ele>145</ele>
        <time>2014-04-17T07:21:35Z</time>
      </trkpt>
      <trkpt lat="47.59538" lon="3.76591">
        <ele>145</ele>
        <time>2014-04-17T07:21:38Z</time>
      </trkpt>
      <trkpt lat="47.59539" lon="3.76599">
        <ele>145</ele>
        <time>2014-04-17T07:21:42Z</time>
      </trkpt>
      <trkpt lat="47.5954" lon="3.76606">
        <ele>144</ele>
        <time>2014-04-17T07:21:46Z</time>
      </trkpt>
      <trkpt lat="47.59541" lon="3.76613">
        <ele>144</ele>
        <time>2014-04-17T07:21:50Z</time>
      </trkpt>
      <trkpt lat="47.59541" lon="3.7662">
        <ele>144</ele>
        <time>2014-04-17T07:21:54Z</time>
      </trkpt>
      <trkpt lat="47.59539" lon="3.76627">
        <ele>144</ele>
        <time>2014-04-17T07:21:58Z</time>
      </trkpt>
      <trkpt lat="47.59538" lon="3.76633">
        <ele>144</ele>
        <time>2014-04-17T07:22:02Z</time>
      </trkpt>
      <trkpt lat="47.59537" lon="3.76641">
        <ele>144</ele>
        <time>2014-04-17T07:22:06Z</time>
      </trkpt>
      <trkpt lat="47.59536" lon="3.76648">
        <ele>144</ele>
        <time>2014-04-17T07:22:10Z</time>
      </trkpt>
      <trkpt lat="47.59535" lon="3.76656">
        <ele>145</ele>
        <time>2014-04-17T07:22:14Z</time>
      </trkpt>
      <trkpt lat="47.59535" lon="3.76663">
        <ele>145</ele>
        <time>2014-04-17T07:22:18Z</time>
      </trkpt>
      <trkpt lat="47.59534" lon="3.7667">
        <ele>143</ele>
        <time>2014-04-17T07:22:22Z</time>
      </trkpt>
      <trkpt lat="47.59532" lon="3.76679">
        <ele>143</ele>
        <time>2014-04-17T07:22:27Z</time>
      </trkpt>
      <trkpt lat="47.59532" lon="3.76687">
        <ele>143</ele>
        <time>2014-04-17T07:22:30Z</time>
      </trkpt>
      <trkpt lat="47.59532" lon="3.76693">
        <ele>142</ele>
        <time>2014-04-17T07:22:33Z</time>
      </trkpt>
      <trkpt lat="47.59533" lon="3.76701">
        <ele>142</ele>
        <time>2014-04-17T07:22:37Z</time>
      </trkpt>
      <trkpt lat="47.59535" lon="3.76708">
        <ele>141</ele>
        <time>2014-04-17T07:22:41Z</time>
      </trkpt>
      <trkpt lat="47.59537" lon="3.76716">
        <ele>141</ele>
        <time>2014-04-17T07:22:45Z</time>
      </trkpt>
      <trkpt lat="47.59537" lon="3.76724">
        <ele>141</ele>
        <time>2014-04-17T07:22:52Z</time>
      </trkpt>
      <trkpt lat="47.59537" lon="3.7673">
        <ele>141</ele>
        <time>2014-04-17T07:22:54Z</time>
      </trkpt>
      <trkpt lat="47.59536" lon="3.76738">
        <ele>141</ele>
        <time>2014-04-17T07:22:57Z</time>
      </trkpt>
      <trkpt lat="47.59538" lon="3.76745">
        <ele>140</ele>
        <time>2014-04-17T07:23:01Z</time>
      </trkpt>
      <trkpt lat="47.59539" lon="3.76751">
        <ele>138</ele>
        <time>2014-04-17T07:23:05Z</time>
      </trkpt>
      <trkpt lat="47.59538" lon="3.76754">
        <ele>138</ele>
        <time>2014-04-17T07:23:11Z</time>
      </trkpt>
      <trkpt lat="47.59534" lon="3.76759">
        <ele>139</ele>
        <time>2014-04-17T07:23:22Z</time>
      </trkpt>
      <trkpt lat="47.59532" lon="3.76766">
        <ele>139</ele>
        <time>2014-04-17T07:23:27Z</time>
      </trkpt>
      <trkpt lat="47.59529" lon="3.76773">
        <ele>139</ele>
        <time>2014-04-17T07:23:32Z</time>
      </trkpt>
      <trkpt lat="47.59528" lon="3.7678">
        <ele>139</ele>
        <time>2014-04-17T07:23:36Z</time>
      </trkpt>
      <trkpt lat="47.59524" lon="3.76787">
        <ele>139</ele>
        <time>2014-04-17T07:23:40Z</time>
      </trkpt>
      <trkpt lat="47.59521" lon="3.76793">
        <ele>139</ele>
        <time>2014-04-17T07:23:44Z</time>
      </trkpt>
      <trkpt lat="47.59519" lon="3.76799">
        <ele>139</ele>
        <time>2014-04-17T07:23:47Z</time>
      </trkpt>
      <trkpt lat="47.59515" lon="3.76804">
        <ele>139</ele>
        <time>2014-04-17T07:23:52Z</time>
      </trkpt>
      <trkpt lat="47.59513" lon="3.76812">
        <ele>139</ele>
        <time>2014-04-17T07:24:00Z</time>
      </trkpt>
      <trkpt lat="47.5951" lon="3.76817">
        <ele>140</ele>
        <time>2014-04-17T07:24:03Z</time>
      </trkpt>
      <trkpt lat="47.59507" lon="3.76823">
        <ele>140</ele>
        <time>2014-04-17T07:24:06Z</time>
      </trkpt>
      <trkpt lat="47.59505" lon="3.7683">
        <ele>141</ele>
        <time>2014-04-17T07:24:11Z</time>
      </trkpt>
      <trkpt lat="47.59502" lon="3.76838">
        <ele>141</ele>
        <time>2014-04-17T07:24:14Z</time>
      </trkpt>
      <trkpt lat="47.595" lon="3.76844">
        <ele>140</ele>
        <time>2014-04-17T07:24:16Z</time>
      </trkpt>
      <trkpt lat="47.59496" lon="3.76851">
        <ele>142</ele>
        <time>2014-04-17T07:24:19Z</time>
      </trkpt>
      <trkpt lat="47.59493" lon="3.76858">
        <ele>142</ele>
        <time>2014-04-17T07:24:22Z</time>
      </trkpt>
      <trkpt lat="47.5949" lon="3.76864">
        <ele>142</ele>
        <time>2014-04-17T07:24:25Z</time>
      </trkpt>
      <trkpt lat="47.59488" lon="3.7687">
        <ele>142</ele>
        <time>2014-04-17T07:24:28Z</time>
      </trkpt>
      <trkpt lat="47.59486" lon="3.76876">
        <ele>142</ele>
        <time>2014-04-17T07:24:32Z</time>
      </trkpt>
      <trkpt lat="47.59485" lon="3.76882">
        <ele>142</ele>
        <time>2014-04-17T07:24:36Z</time>
      </trkpt>
      <trkpt lat="47.59481" lon="3.76889">
        <ele>141</ele>
        <time>2014-04-17T07:24:40Z</time>
      </trkpt>
      <trkpt lat="47.59478" lon="3.76896">
        <ele>141</ele>
        <time>2014-04-17T07:24:44Z</time>
      </trkpt>
      <trkpt lat="47.59473" lon="3.76901">
        <ele>141</ele>
        <time>2014-04-17T07:24:47Z</time>
      </trkpt>
      <trkpt lat="47.59469" lon="3.76905">
        <ele>141</ele>
        <time>2014-04-17T07:24:51Z</time>
      </trkpt>
      <trkpt lat="47.59465" lon="3.76908">
        <ele>141</ele>
        <time>2014-04-17T07:24:55Z</time>
      </trkpt>
      <trkpt lat="47.59461" lon="3.76913">
        <ele>141</ele>
        <time>2014-04-17T07:24:58Z</time>
      </trkpt>
      <trkpt lat="47.5946" lon="3.7692">
        <ele>139</ele>
        <time>2014-04-17T07:25:02Z</time>
      </trkpt>
      <trkpt lat="47.59457" lon="3.76926">
        <ele>139</ele>
        <time>2014-04-17T07:25:06Z</time>
      </trkpt>
      <trkpt lat="47.59454" lon="3.76931">
        <ele>139</ele>
        <time>2014-04-17T07:25:09Z</time>
      </trkpt>
      <trkpt lat="47.59451" lon="3.76937">
        <ele>139</ele>
        <time>2014-04-17T07:25:13Z</time>
      </trkpt>
      <trkpt lat="47.59446" lon="3.76942">
        <ele>139</ele>
        <time>2014-04-17T07:25:17Z</time>
      </trkpt>
      <trkpt lat="47.59443" lon="3.76948">
        <ele>139</ele>
        <time>2014-04-17T07:25:21Z</time>
      </trkpt>
      <trkpt lat="47.5944" lon="3.76953">
        <ele>139</ele>
        <time>2014-04-17T07:25:24Z</time>
      </trkpt>
      <trkpt lat="47.59437" lon="3.76959">
        <ele>138</ele>
        <time>2014-04-17T07:25:27Z</time>
      </trkpt>
      <trkpt lat="47.59435" lon="3.76965">
        <ele>138</ele>
        <time>2014-04-17T07:25:32Z</time>
      </trkpt>
      <trkpt lat="47.59431" lon="3.7697">
        <ele>138</ele>
        <time>2014-04-17T07:25:36Z</time>
      </trkpt>
      <trkpt lat="47.59427" lon="3.76974">
        <ele>138</ele>
        <time>2014-04-17T07:25:39Z</time>
      </trkpt>
      <trkpt lat="47.59423" lon="3.76978">
        <ele>138</ele>
        <time>2014-04-17T07:25:42Z</time>
      </trkpt>
      <trkpt lat="47.59419" lon="3.76982">
        <ele>138</ele>
        <time>2014-04-17T07:25:48Z</time>
      </trkpt>
      <trkpt lat="47.59414" lon="3.76985">
        <ele>138</ele>
        <time>2014-04-17T07:25:51Z</time>
      </trkpt>
      <trkpt lat="47.59409" lon="3.76988">
        <ele>138</ele>
        <time>2014-04-17T07:25:54Z</time>
      </trkpt>
      <trkpt lat="47.59404" lon="3.76992">
        <ele>138</ele>
        <time>2014-04-17T07:25:59Z</time>
      </trkpt>
      <trkpt lat="47.594" lon="3.76995">
        <ele>139</ele>
        <time>2014-04-17T07:26:02Z</time>
      </trkpt>
      <trkpt lat="47.59395" lon="3.76998">
        <ele>139</ele>
        <time>2014-04-17T07:26:06Z</time>
      </trkpt>
      <trkpt lat="47.5939" lon="3.77002">
        <ele>137</ele>
        <time>2014-04-17T07:26:10Z</time>
      </trkpt>
      <trkpt lat="47.59386" lon="3.77006">
        <ele>137</ele>
        <time>2014-04-17T07:26:14Z</time>
      </trkpt>
      <trkpt lat="47.59382" lon="3.77011">
        <ele>136</ele>
        <time>2014-04-17T07:26:19Z</time>
      </trkpt>
      <trkpt lat="47.59377" lon="3.77011">
        <ele>137</ele>
        <time>2014-04-17T07:26:26Z</time>
      </trkpt>
      <trkpt lat="47.59372" lon="3.77013">
        <ele>137</ele>
        <time>2014-04-17T07:26:34Z</time>
      </trkpt>
      <trkpt lat="47.59367" lon="3.77014">
        <ele>137</ele>
        <time>2014-04-17T07:26:39Z</time>
      </trkpt>
      <trkpt lat="47.59362" lon="3.77016">
        <ele>137</ele>
        <time>2014-04-17T07:26:42Z</time>
      </trkpt>
      <trkpt lat="47.59358" lon="3.77018">
        <ele>137</ele>
        <time>2014-04-17T07:26:45Z</time>
      </trkpt>
      <trkpt lat="47.59352" lon="3.7702">
        <ele>137</ele>
        <time>2014-04-17T07:26:48Z</time>
      </trkpt>
      <trkpt lat="47.59347" lon="3.77025">
        <ele>137</ele>
        <time>2014-04-17T07:26:52Z</time>
      </trkpt>
      <trkpt lat="47.59344" lon="3.77031">
        <ele>137</ele>
        <time>2014-04-17T07:26:56Z</time>
      </trkpt>
      <trkpt lat="47.5934" lon="3.77037">
        <ele>136</ele>
        <time>2014-04-17T07:27:00Z</time>
      </trkpt>
      <trkpt lat="47.59336" lon="3.77043">
        <ele>136</ele>
        <time>2014-04-17T07:27:03Z</time>
      </trkpt>
      <trkpt lat="47.5933" lon="3.77046">
        <ele>138</ele>
        <time>2014-04-17T07:27:06Z</time>
      </trkpt>
      <trkpt lat="47.59325" lon="3.77049">
        <ele>138</ele>
        <time>2014-04-17T07:27:09Z</time>
      </trkpt>
      <trkpt lat="47.59323" lon="3.77056">
        <ele>137</ele>
        <time>2014-04-17T07:27:13Z</time>
      </trkpt>
      <trkpt lat="47.59322" lon="3.77064">
        <ele>137</ele>
        <time>2014-04-17T07:27:16Z</time>
      </trkpt>
      <trkpt lat="47.59318" lon="3.7707">
        <ele>136</ele>
        <time>2014-04-17T07:27:20Z</time>
      </trkpt>
      <trkpt lat="47.59313" lon="3.77073">
        <ele>137</ele>
        <time>2014-04-17T07:27:23Z</time>
      </trkpt>
      <trkpt lat="47.59309" lon="3.77077">
        <ele>137</ele>
        <time>2014-04-17T07:27:27Z</time>
      </trkpt>
      <trkpt lat="47.59304" lon="3.77077">
        <ele>137</ele>
        <time>2014-04-17T07:27:31Z</time>
      </trkpt>
      <trkpt lat="47.59298" lon="3.77077">
        <ele>137</ele>
        <time>2014-04-17T07:27:35Z</time>
      </trkpt>
      <trkpt lat="47.59293" lon="3.77077">
        <ele>137</ele>
        <time>2014-04-17T07:27:39Z</time>
      </trkpt>
      <trkpt lat="47.59287" lon="3.77079">
        <ele>138</ele>
        <time>2014-04-17T07:27:43Z</time>
      </trkpt>
      <trkpt lat="47.59283" lon="3.7708">
        <ele>138</ele>
        <time>2014-04-17T07:27:46Z</time>
      </trkpt>
      <trkpt lat="47.59279" lon="3.77085">
        <ele>134</ele>
        <time>2014-04-17T07:27:50Z</time>
      </trkpt>
      <trkpt lat="47.59272" lon="3.77088">
        <ele>134</ele>
        <time>2014-04-17T07:27:54Z</time>
      </trkpt>
      <trkpt lat="47.59266" lon="3.77088">
        <ele>135</ele>
        <time>2014-04-17T07:27:57Z</time>
      </trkpt>
      <trkpt lat="47.59261" lon="3.77089">
        <ele>135</ele>
        <time>2014-04-17T07:28:00Z</time>
      </trkpt>
      <trkpt lat="47.59256" lon="3.77091">
        <ele>136</ele>
        <time>2014-04-17T07:28:04Z</time>
      </trkpt>
      <trkpt lat="47.59251" lon="3.77091">
        <ele>136</ele>
        <time>2014-04-17T07:28:08Z</time>
      </trkpt>
      <trkpt lat="47.59246" lon="3.77093">
        <ele>135</ele>
        <time>2014-04-17T07:28:12Z</time>
      </trkpt>
      <trkpt lat="47.59241" lon="3.77093">
        <ele>134</ele>
        <time>2014-04-17T07:28:17Z</time>
      </trkpt>
      <trkpt lat="47.59236" lon="3.77092">
        <ele>133</ele>
        <time>2014-04-17T07:28:21Z</time>
      </trkpt>
      <trkpt lat="47.59231" lon="3.7709">
        <ele>133</ele>
        <time>2014-04-17T07:28:24Z</time>
      </trkpt>
      <trkpt lat="47.59228" lon="3.77085">
        <ele>133</ele>
        <time>2014-04-17T07:28:28Z</time>
      </trkpt>
      <trkpt lat="47.59223" lon="3.7708">
        <ele>135</ele>
        <time>2014-04-17T07:28:34Z</time>
      </trkpt>
      <trkpt lat="47.5922" lon="3.77074">
        <ele>135</ele>
        <time>2014-04-17T07:28:38Z</time>
      </trkpt>
      <trkpt lat="47.59217" lon="3.77069">
        <ele>134</ele>
        <time>2014-04-17T07:28:41Z</time>
      </trkpt>
      <trkpt lat="47.59214" lon="3.77064">
        <ele>134</ele>
        <time>2014-04-17T07:28:44Z</time>
      </trkpt>
      <trkpt lat="47.59209" lon="3.77058">
        <ele>134</ele>
        <time>2014-04-17T07:28:48Z</time>
      </trkpt>
      <trkpt lat="47.59205" lon="3.77055">
        <ele>134</ele>
        <time>2014-04-17T07:28:51Z</time>
      </trkpt>
      <trkpt lat="47.59202" lon="3.7705">
        <ele>134</ele>
        <time>2014-04-17T07:28:54Z</time>
      </trkpt>
      <trkpt lat="47.59199" lon="3.77043">
        <ele>134</ele>
        <time>2014-04-17T07:28:57Z</time>
      </trkpt>
      <trkpt lat="47.59197" lon="3.77036">
        <ele>134</ele>
        <time>2014-04-17T07:29:00Z</time>
      </trkpt>
      <trkpt lat="47.59195" lon="3.77028">
        <ele>133</ele>
        <time>2014-04-17T07:29:03Z</time>
      </trkpt>
      <trkpt lat="47.59193" lon="3.77021">
        <ele>133</ele>
        <time>2014-04-17T07:29:07Z</time>
      </trkpt>
      <trkpt lat="47.59194" lon="3.77014">
        <ele>133</ele>
        <time>2014-04-17T07:29:12Z</time>
      </trkpt>
      <trkpt lat="47.59195" lon="3.77007">
        <ele>133</ele>
        <time>2014-04-17T07:29:16Z</time>
      </trkpt>
      <trkpt lat="47.59192" lon="3.76999">
        <ele>134</ele>
        <time>2014-04-17T07:29:20Z</time>
      </trkpt>
      <trkpt lat="47.5919" lon="3.76992">
        <ele>134</ele>
        <time>2014-04-17T07:29:24Z</time>
      </trkpt>
      <trkpt lat="47.59189" lon="3.76985">
        <ele>134</ele>
        <time>2014-04-17T07:29:28Z</time>
      </trkpt>
      <trkpt lat="47.59187" lon="3.76978">
        <ele>135</ele>
        <time>2014-04-17T07:29:33Z</time>
      </trkpt>
      <trkpt lat="47.59185" lon="3.7697">
        <ele>135</ele>
        <time>2014-04-17T07:29:37Z</time>
      </trkpt>
      <trkpt lat="47.59184" lon="3.76964">
        <ele>135</ele>
        <time>2014-04-17T07:29:40Z</time>
      </trkpt>
      <trkpt lat="47.59182" lon="3.76956">
        <ele>135</ele>
        <time>2014-04-17T07:29:44Z</time>
      </trkpt>
      <trkpt lat="47.59182" lon="3.76947">
        <ele>135</ele>
        <time>2014-04-17T07:29:47Z</time>
      </trkpt>
      <trkpt lat="47.59182" lon="3.7694">
        <ele>135</ele>
        <time>2014-04-17T07:29:50Z</time>
      </trkpt>
      <trkpt lat="47.59181" lon="3.76931">
        <ele>135</ele>
        <time>2014-04-17T07:29:54Z</time>
      </trkpt>
      <trkpt lat="47.5918" lon="3.76925">
        <ele>134</ele>
        <time>2014-04-17T07:29:58Z</time>
      </trkpt>
      <trkpt lat="47.59178" lon="3.76919">
        <ele>134</ele>
        <time>2014-04-17T07:30:02Z</time>
      </trkpt>
      <trkpt lat="47.59175" lon="3.76912">
        <ele>134</ele>
        <time>2014-04-17T07:30:06Z</time>
      </trkpt>
      <trkpt lat="47.59173" lon="3.76906">
        <ele>134</ele>
        <time>2014-04-17T07:30:09Z</time>
      </trkpt>
      <trkpt lat="47.5917" lon="3.769">
        <ele>135</ele>
        <time>2014-04-17T07:30:12Z</time>
      </trkpt>
      <trkpt lat="47.5917" lon="3.76892">
        <ele>136</ele>
        <time>2014-04-17T07:30:17Z</time>
      </trkpt>
      <trkpt lat="47.59166" lon="3.76885">
        <ele>129</ele>
        <time>2014-04-17T07:30:21Z</time>
      </trkpt>
      <trkpt lat="47.59166" lon="3.76876">
        <ele>129</ele>
        <time>2014-04-17T07:30:24Z</time>
      </trkpt>
      <trkpt lat="47.59166" lon="3.76869">
        <ele>130</ele>
        <time>2014-04-17T07:30:27Z</time>
      </trkpt>
      <trkpt lat="47.59166" lon="3.7686">
        <ele>130</ele>
        <time>2014-04-17T07:30:31Z</time>
      </trkpt>
      <trkpt lat="47.59165" lon="3.76853">
        <ele>131</ele>
        <time>2014-04-17T07:30:35Z</time>
      </trkpt>
      <trkpt lat="47.59165" lon="3.76845">
        <ele>132</ele>
        <time>2014-04-17T07:30:40Z</time>
      </trkpt>
      <trkpt lat="47.59164" lon="3.76837">
        <ele>133</ele>
        <time>2014-04-17T07:30:45Z</time>
      </trkpt>
      <trkpt lat="47.59162" lon="3.7683">
        <ele>133</ele>
        <time>2014-04-17T07:30:50Z</time>
      </trkpt>
      <trkpt lat="47.59159" lon="3.76824">
        <ele>133</ele>
        <time>2014-04-17T07:30:54Z</time>
      </trkpt>
      <trkpt lat="47.59157" lon="3.76817">
        <ele>132</ele>
        <time>2014-04-17T07:30:57Z</time>
      </trkpt>
      <trkpt lat="47.59156" lon="3.7681">
        <ele>132</ele>
        <time>2014-04-17T07:31:00Z</time>
      </trkpt>
      <trkpt lat="47.59156" lon="3.76802">
        <ele>132</ele>
        <time>2014-04-17T07:31:04Z</time>
      </trkpt>
      <trkpt lat="47.59156" lon="3.76794">
        <ele>132</ele>
        <time>2014-04-17T07:31:09Z</time>
      </trkpt>
      <trkpt lat="47.59155" lon="3.76788">
        <ele>132</ele>
        <time>2014-04-17T07:31:13Z</time>
      </trkpt>
      <trkpt lat="47.59154" lon="3.7678">
        <ele>132</ele>
        <time>2014-04-17T07:31:16Z</time>
      </trkpt>
      <trkpt lat="47.5915" lon="3.76774">
        <ele>132</ele>
        <time>2014-04-17T07:31:20Z</time>
      </trkpt>
      <trkpt lat="47.59148" lon="3.76768">
        <ele>133</ele>
        <time>2014-04-17T07:31:26Z</time>
      </trkpt>
      <trkpt lat="47.59148" lon="3.76761">
        <ele>133</ele>
        <time>2014-04-17T07:31:30Z</time>
      </trkpt>
      <trkpt lat="47.59148" lon="3.76753">
        <ele>133</ele>
        <time>2014-04-17T07:31:33Z</time>
      </trkpt>
      <trkpt lat="47.59149" lon="3.76746">
        <ele>135</ele>
        <time>2014-04-17T07:31:39Z</time>
      </trkpt>
      <trkpt lat="47.59145" lon="3.76742">
        <ele>134</ele>
        <time>2014-04-17T07:31:43Z</time>
      </trkpt>
      <trkpt lat="47.59144" lon="3.76736">
        <ele>134</ele>
        <time>2014-04-17T07:31:46Z</time>
      </trkpt>
      <trkpt lat="47.59142" lon="3.76729">
        <ele>134</ele>
        <time>2014-04-17T07:31:50Z</time>
      </trkpt>
      <trkpt lat="47.59141" lon="3.7672">
        <ele>134</ele>
        <time>2014-04-17T07:31:54Z</time>
      </trkpt>
      <trkpt lat="47.5914" lon="3.76705">
        <ele>134</ele>
        <time>2014-04-17T07:31:59Z</time>
      </trkpt>
      <trkpt lat="47.59135" lon="3.76692">
        <ele>134</ele>
        <time>2014-04-17T07:32:05Z</time>
      </trkpt>
      <trkpt lat="47.59136" lon="3.76684">
        <ele>134</ele>
        <time>2014-04-17T07:32:10Z</time>
      </trkpt>
      <trkpt lat="47.59139" lon="3.76677">
        <ele>135</ele>
        <time>2014-04-17T07:32:14Z</time>
      </trkpt>
      <trkpt lat="47.59143" lon="3.7667">
        <ele>135</ele>
        <time>2014-04-17T07:32:18Z</time>
      </trkpt>
      <trkpt lat="47.59146" lon="3.76665">
        <ele>137</ele>
        <time>2014-04-17T07:32:23Z</time>
      </trkpt>
      <trkpt lat="47.59149" lon="3.76659">
        <ele>137</ele>
        <time>2014-04-17T07:32:29Z</time>
      </trkpt>
      <trkpt lat="47.59152" lon="3.76653">
        <ele>137</ele>
        <time>2014-04-17T07:32:35Z</time>
      </trkpt>
      <trkpt lat="47.59152" lon="3.76645">
        <ele>137</ele>
        <time>2014-04-17T07:32:40Z</time>
      </trkpt>
      <trkpt lat="47.59155" lon="3.76639">
        <ele>137</ele>
        <time>2014-04-17T07:32:46Z</time>
      </trkpt>
      <trkpt lat="47.59153" lon="3.76629">
        <ele>137</ele>
        <time>2014-04-17T07:32:57Z</time>
      </trkpt>
      <trkpt lat="47.59156" lon="3.76626">
        <ele>137</ele>
        <time>2014-04-17T07:33:08Z</time>
      </trkpt>
      <trkpt lat="47.59145" lon="3.76651">
        <ele>136</ele>
        <time>2014-04-17T07:33:45Z</time>
      </trkpt>
      <trkpt lat="47.59146" lon="3.76638">
        <ele>136</ele>
        <time>2014-04-17T07:33:49Z</time>
      </trkpt>
      <trkpt lat="47.59151" lon="3.76631">
        <ele>137</ele>
        <time>2014-04-17T07:34:33Z</time>
      </trkpt>
      <trkpt lat="47.59146" lon="3.76628">
        <ele>137</ele>
        <time>2014-04-17T07:34:36Z</time>
      </trkpt>
      <trkpt lat="47.59143" lon="3.76622">
        <ele>137</ele>
        <time>2014-04-17T07:34:39Z</time>
      </trkpt>
      <trkpt lat="47.5914" lon="3.76618">
        <ele>136</ele>
        <time>2014-04-17T07:34:42Z</time>
      </trkpt>
      <trkpt lat="47.59134" lon="3.76616">
        <ele>136</ele>
        <time>2014-04-17T07:34:45Z</time>
      </trkpt>
      <trkpt lat="47.59128" lon="3.76614">
        <ele>136</ele>
        <time>2014-04-17T07:34:48Z</time>
      </trkpt>
      <trkpt lat="47.59124" lon="3.76609">
        <ele>135</ele>
        <time>2014-04-17T07:34:57Z</time>
      </trkpt>
      <trkpt lat="47.59123" lon="3.76602">
        <ele>135</ele>
        <time>2014-04-17T07:35:01Z</time>
      </trkpt>
      <trkpt lat="47.59121" lon="3.76595">
        <ele>135</ele>
        <time>2014-04-17T07:35:06Z</time>
      </trkpt>
      <trkpt lat="47.5912" lon="3.76587">
        <ele>135</ele>
        <time>2014-04-17T07:35:11Z</time>
      </trkpt>
      <trkpt lat="47.59116" lon="3.76583">
        <ele>137</ele>
        <time>2014-04-17T07:35:15Z</time>
      </trkpt>
      <trkpt lat="47.59113" lon="3.76576">
        <ele>136</ele>
        <time>2014-04-17T07:35:18Z</time>
      </trkpt>
      <trkpt lat="47.59112" lon="3.76569">
        <ele>136</ele>
        <time>2014-04-17T07:35:21Z</time>
      </trkpt>
      <trkpt lat="47.5911" lon="3.7656">
        <ele>137</ele>
        <time>2014-04-17T07:35:24Z</time>
      </trkpt>
      <trkpt lat="47.5911" lon="3.76551">
        <ele>137</ele>
        <time>2014-04-17T07:35:27Z</time>
      </trkpt>
      <trkpt lat="47.59109" lon="3.76543">
        <ele>137</ele>
        <time>2014-04-17T07:35:31Z</time>
      </trkpt>
      <trkpt lat="47.59108" lon="3.76537">
        <ele>137</ele>
        <time>2014-04-17T07:35:36Z</time>
      </trkpt>
      <trkpt lat="47.59106" lon="3.7653">
        <ele>137</ele>
        <time>2014-04-17T07:35:41Z</time>
      </trkpt>
      <trkpt lat="47.59105" lon="3.76523">
        <ele>137</ele>
        <time>2014-04-17T07:35:44Z</time>
      </trkpt>
      <trkpt lat="47.59104" lon="3.76516">
        <ele>137</ele>
        <time>2014-04-17T07:35:47Z</time>
      </trkpt>
      <trkpt lat="47.59104" lon="3.76508">
        <ele>136</ele>
        <time>2014-04-17T07:35:50Z</time>
      </trkpt>
      <trkpt lat="47.59104" lon="3.765">
        <ele>136</ele>
        <time>2014-04-17T07:35:54Z</time>
      </trkpt>
      <trkpt lat="47.59105" lon="3.76493">
        <ele>139</ele>
        <time>2014-04-17T07:35:58Z</time>
      </trkpt>
      <trkpt lat="47.59107" lon="3.76487">
        <ele>140</ele>
        <time>2014-04-17T07:36:01Z</time>
      </trkpt>
      <trkpt lat="47.59105" lon="3.76482">
        <ele>140</ele>
        <time>2014-04-17T07:36:12Z</time>
      </trkpt>
      <trkpt lat="47.59102" lon="3.76477">
        <ele>140</ele>
        <time>2014-04-17T07:36:16Z</time>
      </trkpt>
      <trkpt lat="47.591" lon="3.7647">
        <ele>140</ele>
        <time>2014-04-17T07:36:20Z</time>
      </trkpt>
      <trkpt lat="47.591" lon="3.76462">
        <ele>141</ele>
        <time>2014-04-17T07:36:25Z</time>
      </trkpt>
      <trkpt lat="47.59098" lon="3.76455">
        <ele>141</ele>
        <time>2014-04-17T07:36:30Z</time>
      </trkpt>
      <trkpt lat="47.59095" lon="3.76448">
        <ele>140</ele>
        <time>2014-04-17T07:36:34Z</time>
      </trkpt>
      <trkpt lat="47.59093" lon="3.76445">
        <ele>140</ele>
        <time>2014-04-17T07:36:40Z</time>
      </trkpt>
      <trkpt lat="47.5909" lon="3.76439">
        <ele>140</ele>
        <time>2014-04-17T07:36:45Z</time>
      </trkpt>
      <trkpt lat="47.59088" lon="3.7643">
        <ele>139</ele>
        <time>2014-04-17T07:36:49Z</time>
      </trkpt>
      <trkpt lat="47.59087" lon="3.76423">
        <ele>137</ele>
        <time>2014-04-17T07:36:54Z</time>
      </trkpt>
      <trkpt lat="47.59086" lon="3.76415">
        <ele>136</ele>
        <time>2014-04-17T07:37:00Z</time>
      </trkpt>
      <trkpt lat="47.59083" lon="3.76409">
        <ele>134</ele>
        <time>2014-04-17T07:37:03Z</time>
      </trkpt>
      <trkpt lat="47.59081" lon="3.76401">
        <ele>134</ele>
        <time>2014-04-17T07:37:06Z</time>
      </trkpt>
      <trkpt lat="47.59079" lon="3.76393">
        <ele>133</ele>
        <time>2014-04-17T07:37:09Z</time>
      </trkpt>
      <trkpt lat="47.59075" lon="3.76385">
        <ele>133</ele>
        <time>2014-04-17T07:37:12Z</time>
      </trkpt>
      <trkpt lat="47.59072" lon="3.7638">
        <ele>133</ele>
        <time>2014-04-17T07:37:17Z</time>
      </trkpt>
      <trkpt lat="47.59068" lon="3.76372">
        <ele>133</ele>
        <time>2014-04-17T07:37:21Z</time>
      </trkpt>
      <trkpt lat="47.59066" lon="3.76365">
        <ele>133</ele>
        <time>2014-04-17T07:37:24Z</time>
      </trkpt>
      <trkpt lat="47.59064" lon="3.76359">
        <ele>133</ele>
        <time>2014-04-17T07:37:29Z</time>
      </trkpt>
      <trkpt lat="47.59068" lon="3.76352">
        <ele>134</ele>
        <time>2014-04-17T07:37:34Z</time>
      </trkpt>
      <trkpt lat="47.59071" lon="3.76347">
        <ele>135</ele>
        <time>2014-04-17T07:37:37Z</time>
      </trkpt>
      <trkpt lat="47.59069" lon="3.76342">
        <ele>135</ele>
        <time>2014-04-17T07:37:57Z</time>
      </trkpt>
      <trkpt lat="47.59066" lon="3.76351">
        <ele>134</ele>
        <time>2014-04-17T07:38:03Z</time>
      </trkpt>
      <trkpt lat="47.59061" lon="3.76351">
        <ele>133</ele>
        <time>2014-04-17T07:38:13Z</time>
      </trkpt>
      <trkpt lat="47.59059" lon="3.76345">
        <ele>133</ele>
        <time>2014-04-17T07:38:20Z</time>
      </trkpt>
      <trkpt lat="47.59059" lon="3.76337">
        <ele>134</ele>
        <time>2014-04-17T07:38:23Z</time>
      </trkpt>
      <trkpt lat="47.59059" lon="3.76328">
        <ele>135</ele>
        <time>2014-04-17T07:38:26Z</time>
      </trkpt>
      <trkpt lat="47.59057" lon="3.76321">
        <ele>135</ele>
        <time>2014-04-17T07:38:29Z</time>
      </trkpt>
      <trkpt lat="47.59059" lon="3.7632">
        <ele>135</ele>
        <time>2014-04-17T07:38:40Z</time>
      </trkpt>
      <trkpt lat="47.59057" lon="3.76313">
        <ele>135</ele>
        <time>2014-04-17T07:38:45Z</time>
      </trkpt>
      <trkpt lat="47.59057" lon="3.76306">
        <ele>134</ele>
        <time>2014-04-17T07:38:51Z</time>
      </trkpt>
      <trkpt lat="47.59061" lon="3.76303">
        <ele>135</ele>
        <time>2014-04-17T07:38:55Z</time>
      </trkpt>
      <trkpt lat="47.59067" lon="3.763">
        <ele>135</ele>
        <time>2014-04-17T07:38:58Z</time>
      </trkpt>
      <trkpt lat="47.59073" lon="3.763">
        <ele>135</ele>
        <time>2014-04-17T07:39:18Z</time>
      </trkpt>
      <trkpt lat="47.59075" lon="3.76306">
        <ele>135</ele>
        <time>2014-04-17T07:39:28Z</time>
      </trkpt>
      <trkpt lat="47.59073" lon="3.76313">
        <ele>136</ele>
        <time>2014-04-17T07:39:34Z</time>
      </trkpt>
      <trkpt lat="47.59064" lon="3.76316">
        <ele>135</ele>
        <time>2014-04-17T07:39:42Z</time>
      </trkpt>
      <trkpt lat="47.59058" lon="3.76316">
        <ele>135</ele>
        <time>2014-04-17T07:40:02Z</time>
      </trkpt>
      <trkpt lat="47.59057" lon="3.76308">
        <ele>134</ele>
        <time>2014-04-17T07:40:06Z</time>
      </trkpt>
      <trkpt lat="47.59058" lon="3.76299">
        <ele>135</ele>
        <time>2014-04-17T07:40:10Z</time>
      </trkpt>
      <trkpt lat="47.59059" lon="3.7629">
        <ele>135</ele>
        <time>2014-04-17T07:40:13Z</time>
      </trkpt>
      <trkpt lat="47.5906" lon="3.76283">
        <ele>135</ele>
        <time>2014-04-17T07:40:15Z</time>
      </trkpt>
      <trkpt lat="47.59067" lon="3.76284">
        <ele>135</ele>
        <time>2014-04-17T07:40:38Z</time>
      </trkpt>
      <trkpt lat="47.59071" lon="3.76279">
        <ele>136</ele>
        <time>2014-04-17T07:40:44Z</time>
      </trkpt>
      <trkpt lat="47.59068" lon="3.76284">
        <ele>135</ele>
        <time>2014-04-17T07:41:18Z</time>
      </trkpt>
      <trkpt lat="47.59063" lon="3.76284">
        <ele>135</ele>
        <time>2014-04-17T07:41:21Z</time>
      </trkpt>
      <trkpt lat="47.59059" lon="3.7628">
        <ele>135</ele>
        <time>2014-04-17T07:41:26Z</time>
      </trkpt>
      <trkpt lat="47.59052" lon="3.76277">
        <ele>135</ele>
        <time>2014-04-17T07:41:37Z</time>
      </trkpt>
      <trkpt lat="47.59049" lon="3.7627">
        <ele>134</ele>
        <time>2014-04-17T07:41:40Z</time>
      </trkpt>
      <trkpt lat="47.59046" lon="3.7626">
        <ele>134</ele>
        <time>2014-04-17T07:41:45Z</time>
      </trkpt>
      <trkpt lat="47.59042" lon="3.76256">
        <ele>134</ele>
        <time>2014-04-17T07:42:04Z</time>
      </trkpt>
      <trkpt lat="47.59041" lon="3.7625">
        <ele>136</ele>
        <time>2014-04-17T07:42:09Z</time>
      </trkpt>
      <trkpt lat="47.59038" lon="3.76242">
        <ele>136</ele>
        <time>2014-04-17T07:42:14Z</time>
      </trkpt>
      <trkpt lat="47.59036" lon="3.76235">
        <ele>135</ele>
        <time>2014-04-17T07:42:18Z</time>
      </trkpt>
      <trkpt lat="47.59035" lon="3.76228">
        <ele>136</ele>
        <time>2014-04-17T07:42:23Z</time>
      </trkpt>
      <trkpt lat="47.59034" lon="3.76221">
        <ele>136</ele>
        <time>2014-04-17T07:42:29Z</time>
      </trkpt>
      <trkpt lat="47.59033" lon="3.76213">
        <ele>136</ele>
        <time>2014-04-17T07:42:33Z</time>
      </trkpt>
      <trkpt lat="47.5903" lon="3.76206">
        <ele>136</ele>
        <time>2014-04-17T07:42:36Z</time>
      </trkpt>
      <trkpt lat="47.59029" lon="3.76203">
        <ele>136</ele>
        <time>2014-04-17T07:42:42Z</time>
      </trkpt>
      <trkpt lat="47.59027" lon="3.76196">
        <ele>136</ele>
        <time>2014-04-17T07:42:45Z</time>
      </trkpt>
      <trkpt lat="47.59026" lon="3.76189">
        <ele>136</ele>
        <time>2014-04-17T07:42:48Z</time>
      </trkpt>
      <trkpt lat="47.59022" lon="3.76175">
        <ele>135</ele>
        <time>2014-04-17T07:42:56Z</time>
      </trkpt>
      <trkpt lat="47.59022" lon="3.76168">
        <ele>135</ele>
        <time>2014-04-17T07:43:03Z</time>
      </trkpt>
      <trkpt lat="47.59027" lon="3.76167">
        <ele>136</ele>
        <time>2014-04-17T07:43:07Z</time>
      </trkpt>
      <trkpt lat="47.59032" lon="3.76166">
        <ele>140</ele>
        <time>2014-04-17T07:43:10Z</time>
      </trkpt>
      <trkpt lat="47.59035" lon="3.76161">
        <ele>140</ele>
        <time>2014-04-17T07:43:13Z</time>
      </trkpt>
      <trkpt lat="47.59037" lon="3.76162">
        <ele>141</ele>
        <time>2014-04-17T07:43:21Z</time>
      </trkpt>
      <trkpt lat="47.59037" lon="3.76172">
        <ele>137</ele>
        <time>2014-04-17T07:43:24Z</time>
      </trkpt>
      <trkpt lat="47.59036" lon="3.76183">
        <ele>137</ele>
        <time>2014-04-17T07:43:28Z</time>
      </trkpt>
      <trkpt lat="47.59032" lon="3.76183">
        <ele>136</ele>
        <time>2014-04-17T07:43:36Z</time>
      </trkpt>
      <trkpt lat="47.59028" lon="3.76182">
        <ele>136</ele>
        <time>2014-04-17T07:43:40Z</time>
      </trkpt>
      <trkpt lat="47.59023" lon="3.76182">
        <ele>135</ele>
        <time>2014-04-17T07:43:44Z</time>
      </trkpt>
      <trkpt lat="47.59018" lon="3.76181">
        <ele>135</ele>
        <time>2014-04-17T07:43:48Z</time>
      </trkpt>
      <trkpt lat="47.59017" lon="3.76173">
        <ele>134</ele>
        <time>2014-04-17T07:43:55Z</time>
      </trkpt>
      <trkpt lat="47.59016" lon="3.76165">
        <ele>136</ele>
        <time>2014-04-17T07:43:59Z</time>
      </trkpt>
      <trkpt lat="47.59016" lon="3.76151">
        <ele>138</ele>
        <time>2014-04-17T07:44:05Z</time>
      </trkpt>
      <trkpt lat="47.59019" lon="3.76145">
        <ele>139</ele>
        <time>2014-04-17T07:44:08Z</time>
      </trkpt>
      <trkpt lat="47.59024" lon="3.76148">
        <ele>139</ele>
        <time>2014-04-17T07:44:15Z</time>
      </trkpt>
      <trkpt lat="47.59022" lon="3.76147">
        <ele>139</ele>
        <time>2014-04-17T07:45:59Z</time>
      </trkpt>
      <trkpt lat="47.59016" lon="3.76146">
        <ele>138</ele>
        <time>2014-04-17T07:46:13Z</time>
      </trkpt>
      <trkpt lat="47.59014" lon="3.76139">
        <ele>139</ele>
        <time>2014-04-17T07:46:16Z</time>
      </trkpt>
      <trkpt lat="47.59012" lon="3.76133">
        <ele>139</ele>
        <time>2014-04-17T07:46:19Z</time>
      </trkpt>
      <trkpt lat="47.59011" lon="3.76126">
        <ele>139</ele>
        <time>2014-04-17T07:46:22Z</time>
      </trkpt>
      <trkpt lat="47.59009" lon="3.76119">
        <ele>140</ele>
        <time>2014-04-17T07:46:25Z</time>
      </trkpt>
      <trkpt lat="47.59009" lon="3.7611">
        <ele>139</ele>
        <time>2014-04-17T07:46:30Z</time>
      </trkpt>
      <trkpt lat="47.59006" lon="3.76108">
        <ele>139</ele>
        <time>2014-04-17T07:46:47Z</time>
      </trkpt>
      <trkpt lat="47.59003" lon="3.76102">
        <ele>139</ele>
        <time>2014-04-17T07:46:52Z</time>
      </trkpt>
      <trkpt lat="47.59001" lon="3.76095">
        <ele>138</ele>
        <time>2014-04-17T07:46:56Z</time>
      </trkpt>
      <trkpt lat="47.59" lon="3.76086">
        <ele>134</ele>
        <time>2014-04-17T07:47:00Z</time>
      </trkpt>
      <trkpt lat="47.59" lon="3.76079">
        <ele>134</ele>
        <time>2014-04-17T07:47:03Z</time>
      </trkpt>
      <trkpt lat="47.58999" lon="3.76072">
        <ele>134</ele>
        <time>2014-04-17T07:47:07Z</time>
      </trkpt>
      <trkpt lat="47.58998" lon="3.76065">
        <ele>133</ele>
        <time>2014-04-17T07:47:11Z</time>
      </trkpt>
      <trkpt lat="47.58996" lon="3.76058">
        <ele>133</ele>
        <time>2014-04-17T07:47:16Z</time>
      </trkpt>
      <trkpt lat="47.58992" lon="3.76053">
        <ele>133</ele>
        <time>2014-04-17T07:47:21Z</time>
      </trkpt>
      <trkpt lat="47.58989" lon="3.76047">
        <ele>133</ele>
        <time>2014-04-17T07:47:26Z</time>
      </trkpt>
      <trkpt lat="47.58988" lon="3.76041">
        <ele>133</ele>
        <time>2014-04-17T07:47:30Z</time>
      </trkpt>
      <trkpt lat="47.58982" lon="3.76037">
        <ele>133</ele>
        <time>2014-04-17T07:47:36Z</time>
      </trkpt>
      <trkpt lat="47.58978" lon="3.76036">
        <ele>133</ele>
        <time>2014-04-17T07:47:41Z</time>
      </trkpt>
      <trkpt lat="47.58975" lon="3.76031">
        <ele>133</ele>
        <time>2014-04-17T07:47:47Z</time>
      </trkpt>
      <trkpt lat="47.58971" lon="3.76026">
        <ele>133</ele>
        <time>2014-04-17T07:47:52Z</time>
      </trkpt>
      <trkpt lat="47.58969" lon="3.76018">
        <ele>133</ele>
        <time>2014-04-17T07:47:57Z</time>
      </trkpt>
      <trkpt lat="47.58971" lon="3.76011">
        <ele>133</ele>
        <time>2014-04-17T07:48:00Z</time>
      </trkpt>
      <trkpt lat="47.58973" lon="3.76005">
        <ele>133</ele>
        <time>2014-04-17T07:48:03Z</time>
      </trkpt>
      <trkpt lat="47.58968" lon="3.76">
        <ele>136</ele>
        <time>2014-04-17T07:48:08Z</time>
      </trkpt>
      <trkpt lat="47.58962" lon="3.7599">
        <ele>136</ele>
        <time>2014-04-17T07:48:14Z</time>
      </trkpt>
      <trkpt lat="47.5896" lon="3.75983">
        <ele>136</ele>
        <time>2014-04-17T07:48:17Z</time>
      </trkpt>
      <trkpt lat="47.58959" lon="3.75977">
        <ele>136</ele>
        <time>2014-04-17T07:48:20Z</time>
      </trkpt>
      <trkpt lat="47.58957" lon="3.7597">
        <ele>136</ele>
        <time>2014-04-17T07:48:24Z</time>
      </trkpt>
      <trkpt lat="47.58953" lon="3.75966">
        <ele>136</ele>
        <time>2014-04-17T07:49:01Z</time>
      </trkpt>
      <trkpt lat="47.58952" lon="3.75959">
        <ele>136</ele>
        <time>2014-04-17T07:49:07Z</time>
      </trkpt>
      <trkpt lat="47.58949" lon="3.75954">
        <ele>136</ele>
        <time>2014-04-17T07:49:10Z</time>
      </trkpt>
      <trkpt lat="47.58946" lon="3.75947">
        <ele>136</ele>
        <time>2014-04-17T07:49:15Z</time>
      </trkpt>
      <trkpt lat="47.58945" lon="3.7594">
        <ele>137</ele>
        <time>2014-04-17T07:49:19Z</time>
      </trkpt>
      <trkpt lat="47.58947" lon="3.75933">
        <ele>137</ele>
        <time>2014-04-17T07:49:22Z</time>
      </trkpt>
      <trkpt lat="47.58944" lon="3.75923">
        <ele>137</ele>
        <time>2014-04-17T07:49:38Z</time>
      </trkpt>
      <trkpt lat="47.58934" lon="3.75916">
        <ele>141</ele>
        <time>2014-04-17T07:49:44Z</time>
      </trkpt>
      <trkpt lat="47.58931" lon="3.75913">
        <ele>140</ele>
        <time>2014-04-17T07:50:07Z</time>
      </trkpt>
      <trkpt lat="47.58925" lon="3.75914">
        <ele>138</ele>
        <time>2014-04-17T07:50:11Z</time>
      </trkpt>
      <trkpt lat="47.5892" lon="3.75911">
        <ele>136</ele>
        <time>2014-04-17T07:50:14Z</time>
      </trkpt>
      <trkpt lat="47.58917" lon="3.75905">
        <ele>139</ele>
        <time>2014-04-17T07:50:17Z</time>
      </trkpt>
      <trkpt lat="47.58915" lon="3.75899">
        <ele>134</ele>
        <time>2014-04-17T07:50:20Z</time>
      </trkpt>
      <trkpt lat="47.58912" lon="3.75895">
        <ele>135</ele>
        <time>2014-04-17T07:50:25Z</time>
      </trkpt>
      <trkpt lat="47.58908" lon="3.75889">
        <ele>135</ele>
        <time>2014-04-17T07:50:30Z</time>
      </trkpt>
      <trkpt lat="47.58905" lon="3.75882">
        <ele>136</ele>
        <time>2014-04-17T07:50:34Z</time>
      </trkpt>
      <trkpt lat="47.58901" lon="3.75877">
        <ele>136</ele>
        <time>2014-04-17T07:50:37Z</time>
      </trkpt>
      <trkpt lat="47.58897" lon="3.75873">
        <ele>136</ele>
        <time>2014-04-17T07:50:42Z</time>
      </trkpt>
      <trkpt lat="47.58893" lon="3.75869">
        <ele>137</ele>
        <time>2014-04-17T07:50:46Z</time>
      </trkpt>
      <trkpt lat="47.58889" lon="3.75863">
        <ele>137</ele>
        <time>2014-04-17T07:50:53Z</time>
      </trkpt>
      <trkpt lat="47.58888" lon="3.75854">
        <ele>138</ele>
        <time>2014-04-17T07:50:56Z</time>
      </trkpt>
      <trkpt lat="47.58884" lon="3.75849">
        <ele>137</ele>
        <time>2014-04-17T07:51:00Z</time>
      </trkpt>
      <trkpt lat="47.5888" lon="3.75844">
        <ele>137</ele>
        <time>2014-04-17T07:51:04Z</time>
      </trkpt>
      <trkpt lat="47.58878" lon="3.75838">
        <ele>137</ele>
        <time>2014-04-17T07:51:08Z</time>
      </trkpt>
      <trkpt lat="47.58876" lon="3.75832">
        <ele>147</ele>
        <time>2014-04-17T07:51:16Z</time>
      </trkpt>
      <trkpt lat="47.58874" lon="3.75825">
        <ele>147</ele>
        <time>2014-04-17T07:51:22Z</time>
      </trkpt>
      <trkpt lat="47.58873" lon="3.75819">
        <ele>147</ele>
        <time>2014-04-17T07:51:25Z</time>
      </trkpt>
      <trkpt lat="47.58873" lon="3.75812">
        <ele>148</ele>
        <time>2014-04-17T07:51:29Z</time>
      </trkpt>
      <trkpt lat="47.58868" lon="3.75809">
        <ele>147</ele>
        <time>2014-04-17T07:51:34Z</time>
      </trkpt>
      <trkpt lat="47.58864" lon="3.75807">
        <ele>147</ele>
        <time>2014-04-17T07:51:39Z</time>
      </trkpt>
      <trkpt lat="47.5886" lon="3.75801">
        <ele>147</ele>
        <time>2014-04-17T07:51:42Z</time>
      </trkpt>
      <trkpt lat="47.58857" lon="3.75797">
        <ele>148</ele>
        <time>2014-04-17T07:51:47Z</time>
      </trkpt>
      <trkpt lat="47.58856" lon="3.7579">
        <ele>149</ele>
        <time>2014-04-17T07:51:53Z</time>
      </trkpt>
      <trkpt lat="47.5885" lon="3.75792">
        <ele>148</ele>
        <time>2014-04-17T07:51:58Z</time>
      </trkpt>
      <trkpt lat="47.58846" lon="3.75789">
        <ele>148</ele>
        <time>2014-04-17T07:52:02Z</time>
      </trkpt>
      <trkpt lat="47.58842" lon="3.75782">
        <ele>149</ele>
        <time>2014-04-17T07:52:21Z</time>
      </trkpt>
      <trkpt lat="47.58838" lon="3.75777">
        <ele>150</ele>
        <time>2014-04-17T07:52:25Z</time>
      </trkpt>
      <trkpt lat="47.58833" lon="3.75777">
        <ele>142</ele>
        <time>2014-04-17T07:52:29Z</time>
      </trkpt>
      <trkpt lat="47.58828" lon="3.75773">
        <ele>143</ele>
        <time>2014-04-17T07:52:33Z</time>
      </trkpt>
      <trkpt lat="47.58824" lon="3.75771">
        <ele>143</ele>
        <time>2014-04-17T07:52:37Z</time>
      </trkpt>
      <trkpt lat="47.58818" lon="3.75767">
        <ele>143</ele>
        <time>2014-04-17T07:52:42Z</time>
      </trkpt>
      <trkpt lat="47.58816" lon="3.75761">
        <ele>144</ele>
        <time>2014-04-17T07:52:47Z</time>
      </trkpt>
      <trkpt lat="47.58811" lon="3.75759">
        <ele>143</ele>
        <time>2014-04-17T07:52:52Z</time>
      </trkpt>
      <trkpt lat="47.58806" lon="3.75759">
        <ele>142</ele>
        <time>2014-04-17T07:52:58Z</time>
      </trkpt>
      <trkpt lat="47.58797" lon="3.75759">
        <ele>141</ele>
        <time>2014-04-17T07:53:04Z</time>
      </trkpt>
      <trkpt lat="47.58793" lon="3.75754">
        <ele>140</ele>
        <time>2014-04-17T07:53:09Z</time>
      </trkpt>
      <trkpt lat="47.58789" lon="3.75748">
        <ele>153</ele>
        <time>2014-04-17T07:53:14Z</time>
      </trkpt>
      <trkpt lat="47.58785" lon="3.75744">
        <ele>152</ele>
        <time>2014-04-17T07:53:18Z</time>
      </trkpt>
      <trkpt lat="47.58779" lon="3.75746">
        <ele>151</ele>
        <time>2014-04-17T07:53:23Z</time>
      </trkpt>
      <trkpt lat="47.58775" lon="3.75743">
        <ele>150</ele>
        <time>2014-04-17T07:53:27Z</time>
      </trkpt>
      <trkpt lat="47.58771" lon="3.75738">
        <ele>150</ele>
        <time>2014-04-17T07:53:32Z</time>
      </trkpt>
      <trkpt lat="47.58768" lon="3.75732">
        <ele>151</ele>
        <time>2014-04-17T07:53:37Z</time>
      </trkpt>
      <trkpt lat="47.58763" lon="3.7573">
        <ele>150</ele>
        <time>2014-04-17T07:53:41Z</time>
      </trkpt>
      <trkpt lat="47.58757" lon="3.75727">
        <ele>150</ele>
        <time>2014-04-17T07:53:45Z</time>
      </trkpt>
      <trkpt lat="47.58752" lon="3.75726">
        <ele>150</ele>
        <time>2014-04-17T07:53:49Z</time>
      </trkpt>
      <trkpt lat="47.58747" lon="3.75725">
        <ele>144</ele>
        <time>2014-04-17T07:53:53Z</time>
      </trkpt>
      <trkpt lat="47.58742" lon="3.75724">
        <ele>144</ele>
        <time>2014-04-17T07:53:56Z</time>
      </trkpt>
      <trkpt lat="47.58736" lon="3.75723">
        <ele>144</ele>
        <time>2014-04-17T07:54:01Z</time>
      </trkpt>
      <trkpt lat="47.58731" lon="3.75724">
        <ele>144</ele>
        <time>2014-04-17T07:54:05Z</time>
      </trkpt>
      <trkpt lat="47.58726" lon="3.75722">
        <ele>144</ele>
        <time>2014-04-17T07:54:10Z</time>
      </trkpt>
      <trkpt lat="47.58721" lon="3.75719">
        <ele>144</ele>
        <time>2014-04-17T07:54:14Z</time>
      </trkpt>
      <trkpt lat="47.58716" lon="3.75717">
        <ele>144</ele>
        <time>2014-04-17T07:54:19Z</time>
      </trkpt>
      <trkpt lat="47.58713" lon="3.7571">
        <ele>145</ele>
        <time>2014-04-17T07:54:23Z</time>
      </trkpt>
      <trkpt lat="47.58709" lon="3.75706">
        <ele>145</ele>
        <time>2014-04-17T07:54:26Z</time>
      </trkpt>
      <trkpt lat="47.58706" lon="3.75701">
        <ele>146</ele>
        <time>2014-04-17T07:54:31Z</time>
      </trkpt>
      <trkpt lat="47.58701" lon="3.75699">
        <ele>146</ele>
        <time>2014-04-17T07:54:36Z</time>
      </trkpt>
      <trkpt lat="47.58696" lon="3.75697">
        <ele>146</ele>
        <time>2014-04-17T07:54:40Z</time>
      </trkpt>
      <trkpt lat="47.58692" lon="3.75695">
        <ele>146</ele>
        <time>2014-04-17T07:54:44Z</time>
      </trkpt>
      <trkpt lat="47.58686" lon="3.75695">
        <ele>146</ele>
        <time>2014-04-17T07:54:48Z</time>
      </trkpt>
      <trkpt lat="47.58681" lon="3.75696">
        <ele>145</ele>
        <time>2014-04-17T07:54:51Z</time>
      </trkpt>
      <trkpt lat="47.58675" lon="3.75697">
        <ele>145</ele>
        <time>2014-04-17T07:54:54Z</time>
      </trkpt>
      <trkpt lat="47.5867" lon="3.75696">
        <ele>145</ele>
        <time>2014-04-17T07:54:58Z</time>
      </trkpt>
      <trkpt lat="47.58664" lon="3.75696">
        <ele>140</ele>
        <time>2014-04-17T07:55:02Z</time>
      </trkpt>
      <trkpt lat="47.58659" lon="3.75698">
        <ele>140</ele>
        <time>2014-04-17T07:55:05Z</time>
      </trkpt>
      <trkpt lat="47.58655" lon="3.75701">
        <ele>139</ele>
        <time>2014-04-17T07:55:07Z</time>
      </trkpt>
      <trkpt lat="47.5865" lon="3.75705">
        <ele>138</ele>
        <time>2014-04-17T07:55:09Z</time>
      </trkpt>
      <trkpt lat="47.58645" lon="3.75705">
        <ele>138</ele>
        <time>2014-04-17T07:55:13Z</time>
      </trkpt>
      <trkpt lat="47.58642" lon="3.75698">
        <ele>139</ele>
        <time>2014-04-17T07:55:18Z</time>
      </trkpt>
      <trkpt lat="47.58639" lon="3.75692">
        <ele>140</ele>
        <time>2014-04-17T07:55:21Z</time>
      </trkpt>
      <trkpt lat="47.58634" lon="3.75689">
        <ele>140</ele>
        <time>2014-04-17T07:55:25Z</time>
      </trkpt>
      <trkpt lat="47.58631" lon="3.75685">
        <ele>140</ele>
        <time>2014-04-17T07:55:28Z</time>
      </trkpt>
      <trkpt lat="47.58628" lon="3.75678">
        <ele>140</ele>
        <time>2014-04-17T07:55:32Z</time>
      </trkpt>
      <trkpt lat="47.58623" lon="3.75678">
        <ele>140</ele>
        <time>2014-04-17T07:55:40Z</time>
      </trkpt>
      <trkpt lat="47.58618" lon="3.75684">
        <ele>140</ele>
        <time>2014-04-17T07:55:44Z</time>
      </trkpt>
      <trkpt lat="47.58612" lon="3.75686">
        <ele>140</ele>
        <time>2014-04-17T07:55:47Z</time>
      </trkpt>
      <trkpt lat="47.58607" lon="3.75687">
        <ele>140</ele>
        <time>2014-04-17T07:55:50Z</time>
      </trkpt>
      <trkpt lat="47.58603" lon="3.75689">
        <ele>139</ele>
        <time>2014-04-17T07:55:54Z</time>
      </trkpt>
      <trkpt lat="47.58598" lon="3.75688">
        <ele>140</ele>
        <time>2014-04-17T07:56:00Z</time>
      </trkpt>
      <trkpt lat="47.58593" lon="3.75686">
        <ele>140</ele>
        <time>2014-04-17T07:56:06Z</time>
      </trkpt>
      <trkpt lat="47.58589" lon="3.75686">
        <ele>140</ele>
        <time>2014-04-17T07:56:16Z</time>
      </trkpt>
      <trkpt lat="47.58585" lon="3.75688">
        <ele>140</ele>
        <time>2014-04-17T07:56:18Z</time>
      </trkpt>
      <trkpt lat="47.58582" lon="3.75694">
        <ele>139</ele>
        <time>2014-04-17T07:56:51Z</time>
      </trkpt>
      <trkpt lat="47.58582" lon="3.75699">
        <ele>138</ele>
        <time>2014-04-17T07:57:00Z</time>
      </trkpt>
      <trkpt lat="47.58581" lon="3.75705">
        <ele>137</ele>
        <time>2014-04-17T07:57:14Z</time>
      </trkpt>
      <trkpt lat="47.58577" lon="3.75701">
        <ele>138</ele>
        <time>2014-04-17T07:57:23Z</time>
      </trkpt>
      <trkpt lat="47.58568" lon="3.75698">
        <ele>138</ele>
        <time>2014-04-17T07:57:34Z</time>
      </trkpt>
      <trkpt lat="47.58559" lon="3.75693">
        <ele>139</ele>
        <time>2014-04-17T07:57:42Z</time>
      </trkpt>
      <trkpt lat="47.58555" lon="3.75692">
        <ele>139</ele>
        <time>2014-04-17T07:57:48Z</time>
      </trkpt>
      <trkpt lat="47.5855" lon="3.75691">
        <ele>139</ele>
        <time>2014-04-17T07:57:57Z</time>
      </trkpt>
      <trkpt lat="47.58544" lon="3.75695">
        <ele>139</ele>
        <time>2014-04-17T07:58:01Z</time>
      </trkpt>
      <trkpt lat="47.5854" lon="3.75699">
        <ele>139</ele>
        <time>2014-04-17T07:58:04Z</time>
      </trkpt>
      <trkpt lat="47.58531" lon="3.75696">
        <ele>140</ele>
        <time>2014-04-17T07:58:12Z</time>
      </trkpt>
      <trkpt lat="47.58521" lon="3.75695">
        <ele>140</ele>
        <time>2014-04-17T07:58:23Z</time>
      </trkpt>
      <trkpt lat="47.58512" lon="3.75699">
        <ele>140</ele>
        <time>2014-04-17T07:58:29Z</time>
      </trkpt>
      <trkpt lat="47.58503" lon="3.75703">
        <ele>140</ele>
        <time>2014-04-17T07:58:37Z</time>
      </trkpt>
      <trkpt lat="47.58494" lon="3.75705">
        <ele>145</ele>
        <time>2014-04-17T07:58:46Z</time>
      </trkpt>
      <trkpt lat="47.58485" lon="3.75713">
        <ele>144</ele>
        <time>2014-04-17T07:58:52Z</time>
      </trkpt>
      <trkpt lat="47.58477" lon="3.7572">
        <ele>144</ele>
        <time>2014-04-17T07:58:57Z</time>
      </trkpt>
      <trkpt lat="47.58468" lon="3.75721">
        <ele>144</ele>
        <time>2014-04-17T07:59:06Z</time>
      </trkpt>
      <trkpt lat="47.58457" lon="3.75725">
        <ele>145</ele>
        <time>2014-04-17T07:59:12Z</time>
      </trkpt>
      <trkpt lat="47.58449" lon="3.7573">
        <ele>145</ele>
        <time>2014-04-17T07:59:22Z</time>
      </trkpt>
      <trkpt lat="47.58442" lon="3.7574">
        <ele>144</ele>
        <time>2014-04-17T07:59:28Z</time>
      </trkpt>
      <trkpt lat="47.58434" lon="3.75748">
        <ele>143</ele>
        <time>2014-04-17T07:59:34Z</time>
      </trkpt>
      <trkpt lat="47.58424" lon="3.75754">
        <ele>138</ele>
        <time>2014-04-17T07:59:39Z</time>
      </trkpt>
      <trkpt lat="47.58415" lon="3.7576">
        <ele>143</ele>
        <time>2014-04-17T07:59:44Z</time>
      </trkpt>
      <trkpt lat="47.58407" lon="3.75768">
        <ele>144</ele>
        <time>2014-04-17T07:59:52Z</time>
      </trkpt>
      <trkpt lat="47.58403" lon="3.75772">
        <ele>144</ele>
        <time>2014-04-17T08:00:04Z</time>
      </trkpt>
      <trkpt lat="47.58393" lon="3.75777">
        <ele>145</ele>
        <time>2014-04-17T08:00:23Z</time>
      </trkpt>
      <trkpt lat="47.58385" lon="3.75786">
        <ele>145</ele>
        <time>2014-04-17T08:00:37Z</time>
      </trkpt>
      <trkpt lat="47.58375" lon="3.75788">
        <ele>146</ele>
        <time>2014-04-17T08:00:45Z</time>
      </trkpt>
      <trkpt lat="47.58365" lon="3.75791">
        <ele>147</ele>
        <time>2014-04-17T08:00:53Z</time>
      </trkpt>
      <trkpt lat="47.58359" lon="3.75803">
        <ele>146</ele>
        <time>2014-04-17T08:01:00Z</time>
      </trkpt>
      <trkpt lat="47.58353" lon="3.75814">
        <ele>145</ele>
        <time>2014-04-17T08:01:07Z</time>
      </trkpt>
      <trkpt lat="47.58345" lon="3.75825">
        <ele>143</ele>
        <time>2014-04-17T08:01:15Z</time>
      </trkpt>
      <trkpt lat="47.58337" lon="3.7583">
        <ele>142</ele>
        <time>2014-04-17T08:01:33Z</time>
      </trkpt>
      <trkpt lat="47.58331" lon="3.75834">
        <ele>142</ele>
        <time>2014-04-17T08:01:46Z</time>
      </trkpt>
      <trkpt lat="47.58323" lon="3.75837">
        <ele>146</ele>
        <time>2014-04-17T08:01:54Z</time>
      </trkpt>
      <trkpt lat="47.58315" lon="3.75846">
        <ele>148</ele>
        <time>2014-04-17T08:01:59Z</time>
      </trkpt>
      <trkpt lat="47.58309" lon="3.75858">
        <ele>150</ele>
        <time>2014-04-17T08:02:06Z</time>
      </trkpt>
      <trkpt lat="47.58301" lon="3.75866">
        <ele>151</ele>
        <time>2014-04-17T08:02:12Z</time>
      </trkpt>
      <trkpt lat="47.58296" lon="3.75878">
        <ele>151</ele>
        <time>2014-04-17T08:02:19Z</time>
      </trkpt>
      <trkpt lat="47.58289" lon="3.75888">
        <ele>151</ele>
        <time>2014-04-17T08:02:26Z</time>
      </trkpt>
      <trkpt lat="47.58285" lon="3.75901">
        <ele>151</ele>
        <time>2014-04-17T08:02:41Z</time>
      </trkpt>
      <trkpt lat="47.58279" lon="3.75914">
        <ele>152</ele>
        <time>2014-04-17T08:02:48Z</time>
      </trkpt>
      <trkpt lat="47.5827" lon="3.7593">
        <ele>144</ele>
        <time>2014-04-17T08:03:03Z</time>
      </trkpt>
      <trkpt lat="47.58263" lon="3.75939">
        <ele>144</ele>
        <time>2014-04-17T08:03:10Z</time>
      </trkpt>
      <trkpt lat="47.58257" lon="3.75951">
        <ele>142</ele>
        <time>2014-04-17T08:03:15Z</time>
      </trkpt>
      <trkpt lat="47.5825" lon="3.75961">
        <ele>141</ele>
        <time>2014-04-17T08:03:19Z</time>
      </trkpt>
      <trkpt lat="47.58246" lon="3.75974">
        <ele>157</ele>
        <time>2014-04-17T08:03:27Z</time>
      </trkpt>
      <trkpt lat="47.58242" lon="3.75988">
        <ele>152</ele>
        <time>2014-04-17T08:03:43Z</time>
      </trkpt>
      <trkpt lat="47.58235" lon="3.76012">
        <ele>149</ele>
        <time>2014-04-17T08:04:32Z</time>
      </trkpt>
      <trkpt lat="47.58231" lon="3.76024">
        <ele>152</ele>
        <time>2014-04-17T08:04:35Z</time>
      </trkpt>
      <trkpt lat="47.58231" lon="3.76038">
        <ele>152</ele>
        <time>2014-04-17T08:04:40Z</time>
      </trkpt>
      <trkpt lat="47.58238" lon="3.76042">
        <ele>151</ele>
        <time>2014-04-17T08:04:48Z</time>
      </trkpt>
      <trkpt lat="47.5824" lon="3.76049">
        <ele>150</ele>
        <time>2014-04-17T08:04:56Z</time>
      </trkpt>
      <trkpt lat="47.58243" lon="3.76063">
        <ele>145</ele>
        <time>2014-04-17T08:05:08Z</time>
      </trkpt>
      <trkpt lat="47.5824" lon="3.76073">
        <ele>143</ele>
        <time>2014-04-17T08:05:12Z</time>
      </trkpt>
      <trkpt lat="47.58241" lon="3.76076">
        <ele>140</ele>
        <time>2014-04-17T08:05:18Z</time>
      </trkpt>
      <trkpt lat="47.58238" lon="3.76083">
        <ele>141</ele>
        <time>2014-04-17T08:05:23Z</time>
      </trkpt>
      <trkpt lat="47.58234" lon="3.76087">
        <ele>142</ele>
        <time>2014-04-17T08:05:26Z</time>
      </trkpt>
      <trkpt lat="47.58234" lon="3.76095">
        <ele>143</ele>
        <time>2014-04-17T08:05:31Z</time>
      </trkpt>
      <trkpt lat="47.58233" lon="3.76108">
        <ele>146</ele>
        <time>2014-04-17T08:05:39Z</time>
      </trkpt>
      <trkpt lat="47.58232" lon="3.76123">
        <ele>147</ele>
        <time>2014-04-17T08:05:51Z</time>
      </trkpt>
      <trkpt lat="47.58237" lon="3.76135">
        <ele>146</ele>
        <time>2014-04-17T08:05:57Z</time>
      </trkpt>
      <trkpt lat="47.58239" lon="3.76148">
        <ele>143</ele>
        <time>2014-04-17T08:06:03Z</time>
      </trkpt>
      <trkpt lat="47.58238" lon="3.76155">
        <ele>141</ele>
        <time>2014-04-17T08:06:06Z</time>
      </trkpt>
      <trkpt lat="47.58235" lon="3.76161">
        <ele>141</ele>
        <time>2014-04-17T08:06:10Z</time>
      </trkpt>
      <trkpt lat="47.58233" lon="3.76169">
        <ele>141</ele>
        <time>2014-04-17T08:06:15Z</time>
      </trkpt>
      <trkpt lat="47.58232" lon="3.76176">
        <ele>142</ele>
        <time>2014-04-17T08:06:19Z</time>
      </trkpt>
      <trkpt lat="47.58233" lon="3.76184">
        <ele>143</ele>
        <time>2014-04-17T08:06:23Z</time>
      </trkpt>
      <trkpt lat="47.58235" lon="3.76191">
        <ele>143</ele>
        <time>2014-04-17T08:06:27Z</time>
      </trkpt>
      <trkpt lat="47.58236" lon="3.76198">
        <ele>144</ele>
        <time>2014-04-17T08:06:31Z</time>
      </trkpt>
      <trkpt lat="47.58235" lon="3.76205">
        <ele>145</ele>
        <time>2014-04-17T08:06:35Z</time>
      </trkpt>
      <trkpt lat="47.58233" lon="3.76211">
        <ele>145</ele>
        <time>2014-04-17T08:06:41Z</time>
      </trkpt>
      <trkpt lat="47.58231" lon="3.76219">
        <ele>145</ele>
        <time>2014-04-17T08:06:50Z</time>
      </trkpt>
      <trkpt lat="47.58228" lon="3.76225">
        <ele>145</ele>
        <time>2014-04-17T08:06:54Z</time>
      </trkpt>
      <trkpt lat="47.5823" lon="3.76231">
        <ele>144</ele>
        <time>2014-04-17T08:06:58Z</time>
      </trkpt>
      <trkpt lat="47.58233" lon="3.76238">
        <ele>142</ele>
        <time>2014-04-17T08:07:02Z</time>
      </trkpt>
      <trkpt lat="47.58237" lon="3.76243">
        <ele>140</ele>
        <time>2014-04-17T08:07:05Z</time>
      </trkpt>
      <trkpt lat="47.58238" lon="3.76251">
        <ele>138</ele>
        <time>2014-04-17T08:07:08Z</time>
      </trkpt>
      <trkpt lat="47.58239" lon="3.76258">
        <ele>139</ele>
        <time>2014-04-17T08:07:11Z</time>
      </trkpt>
      <trkpt lat="47.58243" lon="3.76263">
        <ele>139</ele>
        <time>2014-04-17T08:07:15Z</time>
      </trkpt>
      <trkpt lat="47.58249" lon="3.76265">
        <ele>139</ele>
        <time>2014-04-17T08:07:18Z</time>
      </trkpt>
      <trkpt lat="47.58254" lon="3.76266">
        <ele>130</ele>
        <time>2014-04-17T08:07:22Z</time>
      </trkpt>
      <trkpt lat="47.58258" lon="3.7627">
        <ele>129</ele>
        <time>2014-04-17T08:07:26Z</time>
      </trkpt>
      <trkpt lat="47.58262" lon="3.76274">
        <ele>129</ele>
        <time>2014-04-17T08:07:30Z</time>
      </trkpt>
      <trkpt lat="47.58261" lon="3.76281">
        <ele>129</ele>
        <time>2014-04-17T08:07:35Z</time>
      </trkpt>
      <trkpt lat="47.58263" lon="3.76288">
        <ele>128</ele>
        <time>2014-04-17T08:07:40Z</time>
      </trkpt>
      <trkpt lat="47.58267" lon="3.76293">
        <ele>128</ele>
        <time>2014-04-17T08:07:44Z</time>
      </trkpt>
      <trkpt lat="47.5827" lon="3.763">
        <ele>128</ele>
        <time>2014-04-17T08:07:48Z</time>
      </trkpt>
      <trkpt lat="47.5828" lon="3.76326">
        <ele>128</ele>
        <time>2014-04-17T08:08:07Z</time>
      </trkpt>
      <trkpt lat="47.58285" lon="3.7633">
        <ele>127</ele>
        <time>2014-04-17T08:08:16Z</time>
      </trkpt>
      <trkpt lat="47.5829" lon="3.76331">
        <ele>127</ele>
        <time>2014-04-17T08:08:19Z</time>
      </trkpt>
      <trkpt lat="47.58295" lon="3.76332">
        <ele>127</ele>
        <time>2014-04-17T08:08:22Z</time>
      </trkpt>
      <trkpt lat="47.583" lon="3.76335">
        <ele>127</ele>
        <time>2014-04-17T08:08:25Z</time>
      </trkpt>
      <trkpt lat="47.58304" lon="3.76339">
        <ele>126</ele>
        <time>2014-04-17T08:08:29Z</time>
      </trkpt>
      <trkpt lat="47.58309" lon="3.76343">
        <ele>126</ele>
        <time>2014-04-17T08:08:34Z</time>
      </trkpt>
      <trkpt lat="47.58312" lon="3.76349">
        <ele>126</ele>
        <time>2014-04-17T08:08:38Z</time>
      </trkpt>
      <trkpt lat="47.5831" lon="3.76359">
        <ele>126</ele>
        <time>2014-04-17T08:08:47Z</time>
      </trkpt>
      <trkpt lat="47.58309" lon="3.76366">
        <ele>126</ele>
        <time>2014-04-17T08:08:58Z</time>
      </trkpt>
      <trkpt lat="47.58314" lon="3.7638">
        <ele>126</ele>
        <time>2014-04-17T08:09:07Z</time>
      </trkpt>
      <trkpt lat="47.5832" lon="3.76392">
        <ele>126</ele>
        <time>2014-04-17T08:09:16Z</time>
      </trkpt>
      <trkpt lat="47.58315" lon="3.76406">
        <ele>125</ele>
        <time>2014-04-17T08:09:22Z</time>
      </trkpt>
      <trkpt lat="47.58334" lon="3.76413">
        <ele>122</ele>
        <time>2014-04-17T08:09:32Z</time>
      </trkpt>
      <trkpt lat="47.58343" lon="3.76414">
        <ele>123</ele>
        <time>2014-04-17T08:09:37Z</time>
      </trkpt>
      <trkpt lat="47.58345" lon="3.76427">
        <ele>124</ele>
        <time>2014-04-17T08:09:50Z</time>
      </trkpt>
      <trkpt lat="47.58351" lon="3.76437">
        <ele>124</ele>
        <time>2014-04-17T08:10:00Z</time>
      </trkpt>
      <trkpt lat="47.58356" lon="3.76448">
        <ele>125</ele>
        <time>2014-04-17T08:10:07Z</time>
      </trkpt>
      <trkpt lat="47.58363" lon="3.76457">
        <ele>125</ele>
        <time>2014-04-17T08:10:13Z</time>
      </trkpt>
      <trkpt lat="47.5837" lon="3.76467">
        <ele>125</ele>
        <time>2014-04-17T08:10:20Z</time>
      </trkpt>
      <trkpt lat="47.58376" lon="3.7648">
        <ele>125</ele>
        <time>2014-04-17T08:10:26Z</time>
      </trkpt>
      <trkpt lat="47.58386" lon="3.76503">
        <ele>126</ele>
        <time>2014-04-17T08:10:37Z</time>
      </trkpt>
      <trkpt lat="47.58389" lon="3.76518">
        <ele>126</ele>
        <time>2014-04-17T08:10:47Z</time>
      </trkpt>
      <trkpt lat="47.58396" lon="3.76528">
        <ele>126</ele>
        <time>2014-04-17T08:10:53Z</time>
      </trkpt>
      <trkpt lat="47.58397" lon="3.76539">
        <ele>126</ele>
        <time>2014-04-17T08:11:03Z</time>
      </trkpt>
      <trkpt lat="47.58394" lon="3.76543">
        <ele>126</ele>
        <time>2014-04-17T08:11:11Z</time>
      </trkpt>
      <trkpt lat="47.58396" lon="3.7655">
        <ele>126</ele>
        <time>2014-04-17T08:11:16Z</time>
      </trkpt>
      <trkpt lat="47.584" lon="3.76555">
        <ele>126</ele>
        <time>2014-04-17T08:11:19Z</time>
      </trkpt>
      <trkpt lat="47.58403" lon="3.76561">
        <ele>126</ele>
        <time>2014-04-17T08:11:22Z</time>
      </trkpt>
      <trkpt lat="47.58407" lon="3.76566">
        <ele>126</ele>
        <time>2014-04-17T08:11:26Z</time>
      </trkpt>
      <trkpt lat="47.58411" lon="3.76572">
        <ele>126</ele>
        <time>2014-04-17T08:11:31Z</time>
      </trkpt>
      <trkpt lat="47.58411" lon="3.76579">
        <ele>125</ele>
        <time>2014-04-17T08:11:34Z</time>
      </trkpt>
      <trkpt lat="47.58412" lon="3.76587">
        <ele>125</ele>
        <time>2014-04-17T08:11:38Z</time>
      </trkpt>
      <trkpt lat="47.58415" lon="3.76593">
        <ele>126</ele>
        <time>2014-04-17T08:11:44Z</time>
      </trkpt>
      <trkpt lat="47.58417" lon="3.76601">
        <ele>128</ele>
        <time>2014-04-17T08:11:50Z</time>
      </trkpt>
      <trkpt lat="47.5842" lon="3.76608">
        <ele>129</ele>
        <time>2014-04-17T08:11:54Z</time>
      </trkpt>
      <trkpt lat="47.58424" lon="3.76614">
        <ele>129</ele>
        <time>2014-04-17T08:11:57Z</time>
      </trkpt>
      <trkpt lat="47.58424" lon="3.76621">
        <ele>129</ele>
        <time>2014-04-17T08:12:03Z</time>
      </trkpt>
      <trkpt lat="47.58428" lon="3.76625">
        <ele>129</ele>
        <time>2014-04-17T08:12:07Z</time>
      </trkpt>
      <trkpt lat="47.5843" lon="3.76632">
        <ele>129</ele>
        <time>2014-04-17T08:12:12Z</time>
      </trkpt>
      <trkpt lat="47.58431" lon="3.76639">
        <ele>129</ele>
        <time>2014-04-17T08:12:16Z</time>
      </trkpt>
      <trkpt lat="47.58439" lon="3.76648">
        <ele>129</ele>
        <time>2014-04-17T08:12:24Z</time>
      </trkpt>
      <trkpt lat="47.58444" lon="3.76651">
        <ele>129</ele>
        <time>2014-04-17T08:12:27Z</time>
      </trkpt>
      <trkpt lat="47.58447" lon="3.76656">
        <ele>129</ele>
        <time>2014-04-17T08:12:32Z</time>
      </trkpt>
      <trkpt lat="47.5845" lon="3.76662">
        <ele>130</ele>
        <time>2014-04-17T08:12:37Z</time>
      </trkpt>
      <trkpt lat="47.58454" lon="3.76667">
        <ele>128</ele>
        <time>2014-04-17T08:12:41Z</time>
      </trkpt>
      <trkpt lat="47.58457" lon="3.76673">
        <ele>128</ele>
        <time>2014-04-17T08:12:45Z</time>
      </trkpt>
      <trkpt lat="47.5846" lon="3.76677">
        <ele>128</ele>
        <time>2014-04-17T08:12:52Z</time>
      </trkpt>
      <trkpt lat="47.5846" lon="3.76686">
        <ele>128</ele>
        <time>2014-04-17T08:12:56Z</time>
      </trkpt>
      <trkpt lat="47.58461" lon="3.76693">
        <ele>128</ele>
        <time>2014-04-17T08:12:59Z</time>
      </trkpt>
      <trkpt lat="47.58464" lon="3.767">
        <ele>128</ele>
        <time>2014-04-17T08:13:03Z</time>
      </trkpt>
      <trkpt lat="47.58469" lon="3.76703">
        <ele>128</ele>
        <time>2014-04-17T08:13:06Z</time>
      </trkpt>
      <trkpt lat="47.58473" lon="3.76708">
        <ele>128</ele>
        <time>2014-04-17T08:13:10Z</time>
      </trkpt>
      <trkpt lat="47.58477" lon="3.76713">
        <ele>128</ele>
        <time>2014-04-17T08:13:15Z</time>
      </trkpt>
      <trkpt lat="47.58482" lon="3.76718">
        <ele>128</ele>
        <time>2014-04-17T08:13:19Z</time>
      </trkpt>
      <trkpt lat="47.58484" lon="3.76724">
        <ele>128</ele>
        <time>2014-04-17T08:13:22Z</time>
      </trkpt>
      <trkpt lat="47.58486" lon="3.76731">
        <ele>127</ele>
        <time>2014-04-17T08:13:25Z</time>
      </trkpt>
      <trkpt lat="47.58491" lon="3.76737">
        <ele>127</ele>
        <time>2014-04-17T08:13:29Z</time>
      </trkpt>
      <trkpt lat="47.58494" lon="3.76742">
        <ele>127</ele>
        <time>2014-04-17T08:13:33Z</time>
      </trkpt>
      <trkpt lat="47.58498" lon="3.76749">
        <ele>127</ele>
        <time>2014-04-17T08:13:36Z</time>
      </trkpt>
      <trkpt lat="47.58503" lon="3.76753">
        <ele>129</ele>
        <time>2014-04-17T08:13:39Z</time>
      </trkpt>
      <trkpt lat="47.58507" lon="3.76758">
        <ele>131</ele>
        <time>2014-04-17T08:13:45Z</time>
      </trkpt>
      <trkpt lat="47.58508" lon="3.76765">
        <ele>132</ele>
        <time>2014-04-17T08:13:49Z</time>
      </trkpt>
      <trkpt lat="47.58511" lon="3.76771">
        <ele>133</ele>
        <time>2014-04-17T08:13:53Z</time>
      </trkpt>
      <trkpt lat="47.58513" lon="3.76778">
        <ele>134</ele>
        <time>2014-04-17T08:13:57Z</time>
      </trkpt>
      <trkpt lat="47.58514" lon="3.76785">
        <ele>134</ele>
        <time>2014-04-17T08:14:02Z</time>
      </trkpt>
      <trkpt lat="47.58515" lon="3.76792">
        <ele>134</ele>
        <time>2014-04-17T08:14:06Z</time>
      </trkpt>
      <trkpt lat="47.58518" lon="3.76799">
        <ele>134</ele>
        <time>2014-04-17T08:14:10Z</time>
      </trkpt>
      <trkpt lat="47.58523" lon="3.76806">
        <ele>134</ele>
        <time>2014-04-17T08:14:14Z</time>
      </trkpt>
      <trkpt lat="47.58523" lon="3.76814">
        <ele>133</ele>
        <time>2014-04-17T08:14:20Z</time>
      </trkpt>
      <trkpt lat="47.58525" lon="3.7682">
        <ele>133</ele>
        <time>2014-04-17T08:14:24Z</time>
      </trkpt>
      <trkpt lat="47.58527" lon="3.76828">
        <ele>133</ele>
        <time>2014-04-17T08:14:28Z</time>
      </trkpt>
      <trkpt lat="47.5853" lon="3.76833">
        <ele>133</ele>
        <time>2014-04-17T08:14:31Z</time>
      </trkpt>
      <trkpt lat="47.58533" lon="3.76839">
        <ele>129</ele>
        <time>2014-04-17T08:14:35Z</time>
      </trkpt>
      <trkpt lat="47.58536" lon="3.76845">
        <ele>129</ele>
        <time>2014-04-17T08:14:40Z</time>
      </trkpt>
      <trkpt lat="47.58539" lon="3.76851">
        <ele>130</ele>
        <time>2014-04-17T08:14:44Z</time>
      </trkpt>
      <trkpt lat="47.58541" lon="3.76858">
        <ele>130</ele>
        <time>2014-04-17T08:14:48Z</time>
      </trkpt>
      <trkpt lat="47.58536" lon="3.7686">
        <ele>129</ele>
        <time>2014-04-17T08:14:54Z</time>
      </trkpt>
      <trkpt lat="47.58532" lon="3.76859">
        <ele>129</ele>
        <time>2014-04-17T08:15:03Z</time>
      </trkpt>
      <trkpt lat="47.5853" lon="3.76866">
        <ele>129</ele>
        <time>2014-04-17T08:15:10Z</time>
      </trkpt>
      <trkpt lat="47.58533" lon="3.76873">
        <ele>129</ele>
        <time>2014-04-17T08:15:15Z</time>
      </trkpt>
      <trkpt lat="47.58534" lon="3.76882">
        <ele>128</ele>
        <time>2014-04-17T08:15:19Z</time>
      </trkpt>
      <trkpt lat="47.58535" lon="3.76888">
        <ele>128</ele>
        <time>2014-04-17T08:15:22Z</time>
      </trkpt>
      <trkpt lat="47.58538" lon="3.76894">
        <ele>128</ele>
        <time>2014-04-17T08:15:26Z</time>
      </trkpt>
      <trkpt lat="47.58541" lon="3.76901">
        <ele>128</ele>
        <time>2014-04-17T08:15:31Z</time>
      </trkpt>
      <trkpt lat="47.58544" lon="3.76908">
        <ele>128</ele>
        <time>2014-04-17T08:15:35Z</time>
      </trkpt>
      <trkpt lat="47.58546" lon="3.76915">
        <ele>128</ele>
        <time>2014-04-17T08:15:39Z</time>
      </trkpt>
      <trkpt lat="47.58549" lon="3.76921">
        <ele>126</ele>
        <time>2014-04-17T08:15:43Z</time>
      </trkpt>
      <trkpt lat="47.58551" lon="3.76926">
        <ele>126</ele>
        <time>2014-04-17T08:15:52Z</time>
      </trkpt>
      <trkpt lat="47.58553" lon="3.76932">
        <ele>126</ele>
        <time>2014-04-17T08:16:00Z</time>
      </trkpt>
      <trkpt lat="47.58555" lon="3.7694">
        <ele>126</ele>
        <time>2014-04-17T08:16:06Z</time>
      </trkpt>
      <trkpt lat="47.58557" lon="3.76949">
        <ele>126</ele>
        <time>2014-04-17T08:16:16Z</time>
      </trkpt>
      <trkpt lat="47.58559" lon="3.76956">
        <ele>126</ele>
        <time>2014-04-17T08:16:20Z</time>
      </trkpt>
      <trkpt lat="47.5856" lon="3.76963">
        <ele>126</ele>
        <time>2014-04-17T08:16:24Z</time>
      </trkpt>
      <trkpt lat="47.58562" lon="3.7697">
        <ele>126</ele>
        <time>2014-04-17T08:16:28Z</time>
      </trkpt>
      <trkpt lat="47.58563" lon="3.76978">
        <ele>126</ele>
        <time>2014-04-17T08:16:32Z</time>
      </trkpt>
      <trkpt lat="47.58564" lon="3.76986">
        <ele>126</ele>
        <time>2014-04-17T08:16:43Z</time>
      </trkpt>
      <trkpt lat="47.58567" lon="3.76992">
        <ele>126</ele>
        <time>2014-04-17T08:16:47Z</time>
      </trkpt>
      <trkpt lat="47.5857" lon="3.76999">
        <ele>127</ele>
        <time>2014-04-17T08:16:51Z</time>
      </trkpt>
      <trkpt lat="47.58573" lon="3.77004">
        <ele>127</ele>
        <time>2014-04-17T08:16:54Z</time>
      </trkpt>
      <trkpt lat="47.58574" lon="3.77011">
        <ele>127</ele>
        <time>2014-04-17T08:16:58Z</time>
      </trkpt>
      <trkpt lat="47.58579" lon="3.77017">
        <ele>127</ele>
        <time>2014-04-17T08:17:01Z</time>
      </trkpt>
      <trkpt lat="47.58584" lon="3.77018">
        <ele>133</ele>
        <time>2014-04-17T08:17:04Z</time>
      </trkpt>
      <trkpt lat="47.58589" lon="3.77015">
        <ele>133</ele>
        <time>2014-04-17T08:17:06Z</time>
      </trkpt>
      <trkpt lat="47.5859" lon="3.77022">
        <ele>134</ele>
        <time>2014-04-17T08:17:13Z</time>
      </trkpt>
      <trkpt lat="47.58591" lon="3.77029">
        <ele>135</ele>
        <time>2014-04-17T08:17:16Z</time>
      </trkpt>
      <trkpt lat="47.58591" lon="3.77037">
        <ele>135</ele>
        <time>2014-04-17T08:17:20Z</time>
      </trkpt>
      <trkpt lat="47.58592" lon="3.77046">
        <ele>135</ele>
        <time>2014-04-17T08:17:24Z</time>
      </trkpt>
      <trkpt lat="47.58595" lon="3.77051">
        <ele>135</ele>
        <time>2014-04-17T08:17:28Z</time>
      </trkpt>
      <trkpt lat="47.58597" lon="3.77058">
        <ele>135</ele>
        <time>2014-04-17T08:17:33Z</time>
      </trkpt>
      <trkpt lat="47.58598" lon="3.77066">
        <ele>134</ele>
        <time>2014-04-17T08:17:38Z</time>
      </trkpt>
      <trkpt lat="47.58602" lon="3.77063">
        <ele>135</ele>
        <time>2014-04-17T08:17:44Z</time>
      </trkpt>
      <trkpt lat="47.58601" lon="3.77071">
        <ele>134</ele>
        <time>2014-04-17T08:17:52Z</time>
      </trkpt>
      <trkpt lat="47.58603" lon="3.77079">
        <ele>134</ele>
        <time>2014-04-17T08:17:56Z</time>
      </trkpt>
      <trkpt lat="47.58605" lon="3.77087">
        <ele>134</ele>
        <time>2014-04-17T08:18:00Z</time>
      </trkpt>
      <trkpt lat="47.58607" lon="3.77095">
        <ele>135</ele>
        <time>2014-04-17T08:18:04Z</time>
      </trkpt>
      <trkpt lat="47.58609" lon="3.77102">
        <ele>136</ele>
        <time>2014-04-17T08:18:08Z</time>
      </trkpt>
      <trkpt lat="47.58607" lon="3.77098">
        <ele>135</ele>
        <time>2014-04-17T08:18:21Z</time>
      </trkpt>
      <trkpt lat="47.58606" lon="3.77103">
        <ele>135</ele>
        <time>2014-04-17T08:18:54Z</time>
      </trkpt>
      <trkpt lat="47.58608" lon="3.7711">
        <ele>136</ele>
        <time>2014-04-17T08:18:57Z</time>
      </trkpt>
      <trkpt lat="47.58609" lon="3.77117">
        <ele>137</ele>
        <time>2014-04-17T08:19:01Z</time>
      </trkpt>
      <trkpt lat="47.58612" lon="3.77123">
        <ele>137</ele>
        <time>2014-04-17T08:19:05Z</time>
      </trkpt>
      <trkpt lat="47.5861" lon="3.77131">
        <ele>137</ele>
        <time>2014-04-17T08:19:09Z</time>
      </trkpt>
      <trkpt lat="47.58608" lon="3.77137">
        <ele>137</ele>
        <time>2014-04-17T08:19:11Z</time>
      </trkpt>
      <trkpt lat="47.58606" lon="3.77146">
        <ele>136</ele>
        <time>2014-04-17T08:19:14Z</time>
      </trkpt>
      <trkpt lat="47.58603" lon="3.77152">
        <ele>135</ele>
        <time>2014-04-17T08:19:17Z</time>
      </trkpt>
      <trkpt lat="47.58601" lon="3.77154">
        <ele>135</ele>
        <time>2014-04-17T08:19:25Z</time>
      </trkpt>
      <trkpt lat="47.58599" lon="3.7716">
        <ele>134</ele>
        <time>2014-04-17T08:19:32Z</time>
      </trkpt>
      <trkpt lat="47.58597" lon="3.77168">
        <ele>134</ele>
        <time>2014-04-17T08:19:36Z</time>
      </trkpt>
      <trkpt lat="47.58594" lon="3.77173">
        <ele>133</ele>
        <time>2014-04-17T08:19:40Z</time>
      </trkpt>
      <trkpt lat="47.58592" lon="3.7718">
        <ele>134</ele>
        <time>2014-04-17T08:19:44Z</time>
      </trkpt>
      <trkpt lat="47.58591" lon="3.77188">
        <ele>135</ele>
        <time>2014-04-17T08:19:48Z</time>
      </trkpt>
      <trkpt lat="47.58591" lon="3.77197">
        <ele>136</ele>
        <time>2014-04-17T08:19:52Z</time>
      </trkpt>
      <trkpt lat="47.58593" lon="3.77204">
        <ele>136</ele>
        <time>2014-04-17T08:19:57Z</time>
      </trkpt>
      <trkpt lat="47.58593" lon="3.77211">
        <ele>136</ele>
        <time>2014-04-17T08:20:01Z</time>
      </trkpt>
      <trkpt lat="47.58592" lon="3.77218">
        <ele>136</ele>
        <time>2014-04-17T08:20:05Z</time>
      </trkpt>
      <trkpt lat="47.5859" lon="3.77224">
        <ele>135</ele>
        <time>2014-04-17T08:20:09Z</time>
      </trkpt>
      <trkpt lat="47.58588" lon="3.77231">
        <ele>134</ele>
        <time>2014-04-17T08:20:12Z</time>
      </trkpt>
      <trkpt lat="47.58586" lon="3.77239">
        <ele>132</ele>
        <time>2014-04-17T08:20:15Z</time>
      </trkpt>
      <trkpt lat="47.58583" lon="3.77244">
        <ele>128</ele>
        <time>2014-04-17T08:20:22Z</time>
      </trkpt>
      <trkpt lat="47.58579" lon="3.7725">
        <ele>128</ele>
        <time>2014-04-17T08:20:28Z</time>
      </trkpt>
      <trkpt lat="47.58575" lon="3.77256">
        <ele>128</ele>
        <time>2014-04-17T08:20:32Z</time>
      </trkpt>
      <trkpt lat="47.58572" lon="3.77262">
        <ele>128</ele>
        <time>2014-04-17T08:20:36Z</time>
      </trkpt>
      <trkpt lat="47.58569" lon="3.77269">
        <ele>127</ele>
        <time>2014-04-17T08:20:41Z</time>
      </trkpt>
      <trkpt lat="47.58565" lon="3.77276">
        <ele>127</ele>
        <time>2014-04-17T08:20:45Z</time>
      </trkpt>
      <trkpt lat="47.58563" lon="3.77285">
        <ele>127</ele>
        <time>2014-04-17T08:20:49Z</time>
      </trkpt>
      <trkpt lat="47.5856" lon="3.77291">
        <ele>127</ele>
        <time>2014-04-17T08:20:53Z</time>
      </trkpt>
      <trkpt lat="47.58557" lon="3.77297">
        <ele>127</ele>
        <time>2014-04-17T08:20:57Z</time>
      </trkpt>
      <trkpt lat="47.58554" lon="3.77303">
        <ele>127</ele>
        <time>2014-04-17T08:21:00Z</time>
      </trkpt>
      <trkpt lat="47.5855" lon="3.77309">
        <ele>127</ele>
        <time>2014-04-17T08:21:04Z</time>
      </trkpt>
      <trkpt lat="47.58547" lon="3.77316">
        <ele>127</ele>
        <time>2014-04-17T08:21:08Z</time>
      </trkpt>
      <trkpt lat="47.58544" lon="3.77323">
        <ele>127</ele>
        <time>2014-04-17T08:21:12Z</time>
      </trkpt>
      <trkpt lat="47.58539" lon="3.77336">
        <ele>127</ele>
        <time>2014-04-17T08:21:20Z</time>
      </trkpt>
      <trkpt lat="47.58537" lon="3.77342">
        <ele>127</ele>
        <time>2014-04-17T08:21:23Z</time>
      </trkpt>
      <trkpt lat="47.58534" lon="3.77349">
        <ele>127</ele>
        <time>2014-04-17T08:21:27Z</time>
      </trkpt>
      <trkpt lat="47.5853" lon="3.77354">
        <ele>127</ele>
        <time>2014-04-17T08:21:34Z</time>
      </trkpt>
      <trkpt lat="47.58527" lon="3.77359">
        <ele>127</ele>
        <time>2014-04-17T08:21:38Z</time>
      </trkpt>
      <trkpt lat="47.58523" lon="3.77363">
        <ele>127</ele>
        <time>2014-04-17T08:21:43Z</time>
      </trkpt>
      <trkpt lat="47.58519" lon="3.77366">
        <ele>127</ele>
        <time>2014-04-17T08:21:48Z</time>
      </trkpt>
      <trkpt lat="47.58514" lon="3.7737">
        <ele>127</ele>
        <time>2014-04-17T08:21:52Z</time>
      </trkpt>
      <trkpt lat="47.58511" lon="3.77375">
        <ele>127</ele>
        <time>2014-04-17T08:21:56Z</time>
      </trkpt>
      <trkpt lat="47.58507" lon="3.77379">
        <ele>127</ele>
        <time>2014-04-17T08:22:02Z</time>
      </trkpt>
      <trkpt lat="47.58502" lon="3.77383">
        <ele>127</ele>
        <time>2014-04-17T08:22:07Z</time>
      </trkpt>
      <trkpt lat="47.58499" lon="3.77388">
        <ele>127</ele>
        <time>2014-04-17T08:22:10Z</time>
      </trkpt>
      <trkpt lat="47.58495" lon="3.77392">
        <ele>127</ele>
        <time>2014-04-17T08:22:13Z</time>
      </trkpt>
      <trkpt lat="47.58492" lon="3.77397">
        <ele>127</ele>
        <time>2014-04-17T08:22:17Z</time>
      </trkpt>
      <trkpt lat="47.58486" lon="3.77404">
        <ele>127</ele>
        <time>2014-04-17T08:22:19Z</time>
      </trkpt>
      <trkpt lat="47.58481" lon="3.77412">
        <ele>127</ele>
        <time>2014-04-17T08:22:21Z</time>
      </trkpt>
      <trkpt lat="47.58477" lon="3.77417">
        <ele>127</ele>
        <time>2014-04-17T08:22:23Z</time>
      </trkpt>
      <trkpt lat="47.58475" lon="3.7742">
        <ele>127</ele>
        <time>2014-04-17T08:22:25Z</time>
      </trkpt>
      <trkpt lat="47.58471" lon="3.77427">
        <ele>127</ele>
        <time>2014-04-17T08:22:31Z</time>
      </trkpt>
      <trkpt lat="47.58468" lon="3.77433">
        <ele>127</ele>
        <time>2014-04-17T08:22:35Z</time>
      </trkpt>
      <trkpt lat="47.58464" lon="3.77437">
        <ele>128</ele>
        <time>2014-04-17T08:22:40Z</time>
      </trkpt>
      <trkpt lat="47.5846" lon="3.77442">
        <ele>128</ele>
        <time>2014-04-17T08:22:44Z</time>
      </trkpt>
      <trkpt lat="47.58453" lon="3.77452">
        <ele>128</ele>
        <time>2014-04-17T08:22:56Z</time>
      </trkpt>
      <trkpt lat="47.58449" lon="3.77458">
        <ele>128</ele>
        <time>2014-04-17T08:23:00Z</time>
      </trkpt>
      <trkpt lat="47.58445" lon="3.77461">
        <ele>128</ele>
        <time>2014-04-17T08:23:06Z</time>
      </trkpt>
      <trkpt lat="47.58441" lon="3.77466">
        <ele>128</ele>
        <time>2014-04-17T08:23:09Z</time>
      </trkpt>
      <trkpt lat="47.58437" lon="3.7747">
        <ele>128</ele>
        <time>2014-04-17T08:23:12Z</time>
      </trkpt>
      <trkpt lat="47.58433" lon="3.77474">
        <ele>129</ele>
        <time>2014-04-17T08:23:15Z</time>
      </trkpt>
      <trkpt lat="47.58429" lon="3.77478">
        <ele>129</ele>
        <time>2014-04-17T08:23:18Z</time>
      </trkpt>
      <trkpt lat="47.58425" lon="3.77483">
        <ele>129</ele>
        <time>2014-04-17T08:23:23Z</time>
      </trkpt>
      <trkpt lat="47.58422" lon="3.77489">
        <ele>130</ele>
        <time>2014-04-17T08:23:28Z</time>
      </trkpt>
      <trkpt lat="47.58418" lon="3.77493">
        <ele>130</ele>
        <time>2014-04-17T08:23:32Z</time>
      </trkpt>
      <trkpt lat="47.58413" lon="3.77495">
        <ele>131</ele>
        <time>2014-04-17T08:23:37Z</time>
      </trkpt>
      <trkpt lat="47.58409" lon="3.775">
        <ele>132</ele>
        <time>2014-04-17T08:23:42Z</time>
      </trkpt>
      <trkpt lat="47.58405" lon="3.77505">
        <ele>131</ele>
        <time>2014-04-17T08:23:45Z</time>
      </trkpt>
      <trkpt lat="47.58401" lon="3.7751">
        <ele>131</ele>
        <time>2014-04-17T08:23:54Z</time>
      </trkpt>
      <trkpt lat="47.58397" lon="3.77515">
        <ele>131</ele>
        <time>2014-04-17T08:23:58Z</time>
      </trkpt>
      <trkpt lat="47.58387" lon="3.77521">
        <ele>131</ele>
        <time>2014-04-17T08:24:05Z</time>
      </trkpt>
      <trkpt lat="47.58379" lon="3.77529">
        <ele>131</ele>
        <time>2014-04-17T08:24:10Z</time>
      </trkpt>
      <trkpt lat="47.5837" lon="3.77534">
        <ele>131</ele>
        <time>2014-04-17T08:24:16Z</time>
      </trkpt>
      <trkpt lat="47.58359" lon="3.77534">
        <ele>132</ele>
        <time>2014-04-17T08:24:22Z</time>
      </trkpt>
      <trkpt lat="47.5835" lon="3.77535">
        <ele>132</ele>
        <time>2014-04-17T08:24:32Z</time>
      </trkpt>
      <trkpt lat="47.58345" lon="3.77536">
        <ele>132</ele>
        <time>2014-04-17T08:24:36Z</time>
      </trkpt>
      <trkpt lat="47.58339" lon="3.77542">
        <ele>132</ele>
        <time>2014-04-17T08:24:39Z</time>
      </trkpt>
      <trkpt lat="47.58333" lon="3.77546">
        <ele>133</ele>
        <time>2014-04-17T08:24:43Z</time>
      </trkpt>
      <trkpt lat="47.58328" lon="3.77545">
        <ele>133</ele>
        <time>2014-04-17T08:24:49Z</time>
      </trkpt>
      <trkpt lat="47.58323" lon="3.77546">
        <ele>133</ele>
        <time>2014-04-17T08:24:54Z</time>
      </trkpt>
      <trkpt lat="47.58315" lon="3.77545">
        <ele>133</ele>
        <time>2014-04-17T08:25:01Z</time>
      </trkpt>
      <trkpt lat="47.58311" lon="3.77543">
        <ele>134</ele>
        <time>2014-04-17T08:25:05Z</time>
      </trkpt>
      <trkpt lat="47.58305" lon="3.77542">
        <ele>134</ele>
        <time>2014-04-17T08:25:09Z</time>
      </trkpt>
      <trkpt lat="47.58299" lon="3.77545">
        <ele>134</ele>
        <time>2014-04-17T08:25:12Z</time>
      </trkpt>
      <trkpt lat="47.58295" lon="3.77545">
        <ele>134</ele>
        <time>2014-04-17T08:25:15Z</time>
      </trkpt>
      <trkpt lat="47.58286" lon="3.77541">
        <ele>134</ele>
        <time>2014-04-17T08:25:24Z</time>
      </trkpt>
      <trkpt lat="47.58277" lon="3.77545">
        <ele>134</ele>
        <time>2014-04-17T08:25:30Z</time>
      </trkpt>
      <trkpt lat="47.58268" lon="3.77548">
        <ele>134</ele>
        <time>2014-04-17T08:25:36Z</time>
      </trkpt>
      <trkpt lat="47.58259" lon="3.77547">
        <ele>134</ele>
        <time>2014-04-17T08:25:49Z</time>
      </trkpt>
      <trkpt lat="47.58253" lon="3.77554">
        <ele>134</ele>
        <time>2014-04-17T08:25:53Z</time>
      </trkpt>
      <trkpt lat="47.58244" lon="3.77562">
        <ele>135</ele>
        <time>2014-04-17T08:25:59Z</time>
      </trkpt>
      <trkpt lat="47.58239" lon="3.77565">
        <ele>135</ele>
        <time>2014-04-17T08:26:08Z</time>
      </trkpt>
      <trkpt lat="47.58232" lon="3.77564">
        <ele>135</ele>
        <time>2014-04-17T08:26:19Z</time>
      </trkpt>
      <trkpt lat="47.58223" lon="3.77574">
        <ele>135</ele>
        <time>2014-04-17T08:26:25Z</time>
      </trkpt>
      <trkpt lat="47.58216" lon="3.77583">
        <ele>135</ele>
        <time>2014-04-17T08:26:30Z</time>
      </trkpt>
      <trkpt lat="47.58213" lon="3.77588">
        <ele>130</ele>
        <time>2014-04-17T08:26:32Z</time>
      </trkpt>
      <trkpt lat="47.58207" lon="3.77592">
        <ele>130</ele>
        <time>2014-04-17T08:26:35Z</time>
      </trkpt>
      <trkpt lat="47.58202" lon="3.77595">
        <ele>130</ele>
        <time>2014-04-17T08:26:37Z</time>
      </trkpt>
      <trkpt lat="47.58197" lon="3.77597">
        <ele>130</ele>
        <time>2014-04-17T08:26:40Z</time>
      </trkpt>
      <trkpt lat="47.58196" lon="3.77599">
        <ele>130</ele>
        <time>2014-04-17T08:26:51Z</time>
      </trkpt>
      <trkpt lat="47.58194" lon="3.77606">
        <ele>129</ele>
        <time>2014-04-17T08:27:00Z</time>
      </trkpt>
      <trkpt lat="47.5819" lon="3.77611">
        <ele>129</ele>
        <time>2014-04-17T08:27:05Z</time>
      </trkpt>
      <trkpt lat="47.58186" lon="3.77614">
        <ele>129</ele>
        <time>2014-04-17T08:27:07Z</time>
      </trkpt>
      <trkpt lat="47.5818" lon="3.77619">
        <ele>129</ele>
        <time>2014-04-17T08:27:10Z</time>
      </trkpt>
      <trkpt lat="47.58175" lon="3.77622">
        <ele>129</ele>
        <time>2014-04-17T08:27:13Z</time>
      </trkpt>
      <trkpt lat="47.58169" lon="3.7763">
        <ele>128</ele>
        <time>2014-04-17T08:27:22Z</time>
      </trkpt>
      <trkpt lat="47.58165" lon="3.77633">
        <ele>129</ele>
        <time>2014-04-17T08:27:26Z</time>
      </trkpt>
      <trkpt lat="47.58161" lon="3.77636">
        <ele>128</ele>
        <time>2014-04-17T08:27:29Z</time>
      </trkpt>
      <trkpt lat="47.58156" lon="3.77639">
        <ele>128</ele>
        <time>2014-04-17T08:27:33Z</time>
      </trkpt>
      <trkpt lat="47.5815" lon="3.77642">
        <ele>128</ele>
        <time>2014-04-17T08:27:38Z</time>
      </trkpt>
      <trkpt lat="47.58145" lon="3.77642">
        <ele>128</ele>
        <time>2014-04-17T08:27:45Z</time>
      </trkpt>
      <trkpt lat="47.5814" lon="3.77644">
        <ele>128</ele>
        <time>2014-04-17T08:27:49Z</time>
      </trkpt>
      <trkpt lat="47.58134" lon="3.77645">
        <ele>129</ele>
        <time>2014-04-17T08:27:53Z</time>
      </trkpt>
      <trkpt lat="47.5813" lon="3.77643">
        <ele>129</ele>
        <time>2014-04-17T08:27:57Z</time>
      </trkpt>
      <trkpt lat="47.58126" lon="3.7764">
        <ele>129</ele>
        <time>2014-04-17T08:28:01Z</time>
      </trkpt>
      <trkpt lat="47.58121" lon="3.77638">
        <ele>129</ele>
        <time>2014-04-17T08:28:05Z</time>
      </trkpt>
      <trkpt lat="47.58116" lon="3.77637">
        <ele>129</ele>
        <time>2014-04-17T08:28:09Z</time>
      </trkpt>
      <trkpt lat="47.58111" lon="3.77638">
        <ele>129</ele>
        <time>2014-04-17T08:28:13Z</time>
      </trkpt>
      <trkpt lat="47.58106" lon="3.77638">
        <ele>129</ele>
        <time>2014-04-17T08:28:17Z</time>
      </trkpt>
      <trkpt lat="47.58101" lon="3.77638">
        <ele>129</ele>
        <time>2014-04-17T08:28:21Z</time>
      </trkpt>
      <trkpt lat="47.58097" lon="3.77636">
        <ele>129</ele>
        <time>2014-04-17T08:28:25Z</time>
      </trkpt>
      <trkpt lat="47.58091" lon="3.77637">
        <ele>129</ele>
        <time>2014-04-17T08:28:29Z</time>
      </trkpt>
      <trkpt lat="47.58087" lon="3.77641">
        <ele>129</ele>
        <time>2014-04-17T08:28:32Z</time>
      </trkpt>
      <trkpt lat="47.58077" lon="3.77644">
        <ele>129</ele>
        <time>2014-04-17T08:28:38Z</time>
      </trkpt>
      <trkpt lat="47.58072" lon="3.77642">
        <ele>129</ele>
        <time>2014-04-17T08:28:41Z</time>
      </trkpt>
      <trkpt lat="47.58067" lon="3.77643">
        <ele>129</ele>
        <time>2014-04-17T08:28:44Z</time>
      </trkpt>
      <trkpt lat="47.58062" lon="3.77646">
        <ele>129</ele>
        <time>2014-04-17T08:28:47Z</time>
      </trkpt>
      <trkpt lat="47.58056" lon="3.77648">
        <ele>129</ele>
        <time>2014-04-17T08:28:50Z</time>
      </trkpt>
      <trkpt lat="47.58052" lon="3.77649">
        <ele>129</ele>
        <time>2014-04-17T08:28:53Z</time>
      </trkpt>
      <trkpt lat="47.58048" lon="3.77652">
        <ele>129</ele>
        <time>2014-04-17T08:28:58Z</time>
      </trkpt>
      <trkpt lat="47.58043" lon="3.77655">
        <ele>129</ele>
        <time>2014-04-17T08:29:03Z</time>
      </trkpt>
      <trkpt lat="47.58038" lon="3.77655">
        <ele>129</ele>
        <time>2014-04-17T08:29:06Z</time>
      </trkpt>
      <trkpt lat="47.58033" lon="3.77655">
        <ele>129</ele>
        <time>2014-04-17T08:29:09Z</time>
      </trkpt>
      <trkpt lat="47.58028" lon="3.77652">
        <ele>129</ele>
        <time>2014-04-17T08:29:14Z</time>
      </trkpt>
      <trkpt lat="47.58024" lon="3.77648">
        <ele>129</ele>
        <time>2014-04-17T08:29:18Z</time>
      </trkpt>
      <trkpt lat="47.5802" lon="3.77647">
        <ele>129</ele>
        <time>2014-04-17T08:29:21Z</time>
      </trkpt>
      <trkpt lat="47.58015" lon="3.77645">
        <ele>128</ele>
        <time>2014-04-17T08:29:25Z</time>
      </trkpt>
      <trkpt lat="47.58009" lon="3.77643">
        <ele>128</ele>
        <time>2014-04-17T08:29:29Z</time>
      </trkpt>
      <trkpt lat="47.58004" lon="3.77642">
        <ele>128</ele>
        <time>2014-04-17T08:29:33Z</time>
      </trkpt>
      <trkpt lat="47.57999" lon="3.77643">
        <ele>128</ele>
        <time>2014-04-17T08:29:37Z</time>
      </trkpt>
      <trkpt lat="47.57994" lon="3.77645">
        <ele>128</ele>
        <time>2014-04-17T08:29:40Z</time>
      </trkpt>
      <trkpt lat="47.57988" lon="3.77647">
        <ele>128</ele>
        <time>2014-04-17T08:29:43Z</time>
      </trkpt>
      <trkpt lat="47.57982" lon="3.77646">
        <ele>128</ele>
        <time>2014-04-17T08:29:47Z</time>
      </trkpt>
      <trkpt lat="47.57978" lon="3.77646">
        <ele>128</ele>
        <time>2014-04-17T08:29:54Z</time>
      </trkpt>
      <trkpt lat="47.57969" lon="3.77655">
        <ele>128</ele>
        <time>2014-04-17T08:30:23Z</time>
      </trkpt>
      <trkpt lat="47.57961" lon="3.77657">
        <ele>128</ele>
        <time>2014-04-17T08:30:29Z</time>
      </trkpt>
      <trkpt lat="47.57956" lon="3.7766">
        <ele>128</ele>
        <time>2014-04-17T08:30:33Z</time>
      </trkpt>
      <trkpt lat="47.57951" lon="3.77662">
        <ele>128</ele>
        <time>2014-04-17T08:30:38Z</time>
      </trkpt>
      <trkpt lat="47.57946" lon="3.77664">
        <ele>128</ele>
        <time>2014-04-17T08:30:41Z</time>
      </trkpt>
      <trkpt lat="47.57941" lon="3.77667">
        <ele>129</ele>
        <time>2014-04-17T08:30:43Z</time>
      </trkpt>
      <trkpt lat="47.57936" lon="3.7767">
        <ele>128</ele>
        <time>2014-04-17T08:30:45Z</time>
      </trkpt>
      <trkpt lat="47.57932" lon="3.77673">
        <ele>128</ele>
        <time>2014-04-17T08:30:47Z</time>
      </trkpt>
      <trkpt lat="47.57927" lon="3.77676">
        <ele>128</ele>
        <time>2014-04-17T08:30:51Z</time>
      </trkpt>
      <trkpt lat="47.57922" lon="3.77675">
        <ele>128</ele>
        <time>2014-04-17T08:30:58Z</time>
      </trkpt>
      <trkpt lat="47.57918" lon="3.77675">
        <ele>128</ele>
        <time>2014-04-17T08:31:03Z</time>
      </trkpt>
      <trkpt lat="47.57913" lon="3.77675">
        <ele>128</ele>
        <time>2014-04-17T08:31:07Z</time>
      </trkpt>
      <trkpt lat="47.57908" lon="3.77675">
        <ele>128</ele>
        <time>2014-04-17T08:31:12Z</time>
      </trkpt>
      <trkpt lat="47.57903" lon="3.77679">
        <ele>128</ele>
        <time>2014-04-17T08:31:16Z</time>
      </trkpt>
      <trkpt lat="47.579" lon="3.77684">
        <ele>128</ele>
        <time>2014-04-17T08:31:19Z</time>
      </trkpt>
      <trkpt lat="47.57895" lon="3.77689">
        <ele>128</ele>
        <time>2014-04-17T08:31:23Z</time>
      </trkpt>
      <trkpt lat="47.5789" lon="3.77689">
        <ele>128</ele>
        <time>2014-04-17T08:31:28Z</time>
      </trkpt>
      <trkpt lat="47.57888" lon="3.77691">
        <ele>128</ele>
        <time>2014-04-17T08:31:34Z</time>
      </trkpt>
      <trkpt lat="47.57887" lon="3.77696">
        <ele>128</ele>
        <time>2014-04-17T08:31:53Z</time>
      </trkpt>
      <trkpt lat="47.57882" lon="3.77699">
        <ele>128</ele>
        <time>2014-04-17T08:31:57Z</time>
      </trkpt>
      <trkpt lat="47.57878" lon="3.77704">
        <ele>128</ele>
        <time>2014-04-17T08:32:00Z</time>
      </trkpt>
      <trkpt lat="47.57875" lon="3.77709">
        <ele>128</ele>
        <time>2014-04-17T08:32:03Z</time>
      </trkpt>
      <trkpt lat="47.57871" lon="3.77714">
        <ele>128</ele>
        <time>2014-04-17T08:32:07Z</time>
      </trkpt>
      <trkpt lat="47.57866" lon="3.77716">
        <ele>128</ele>
        <time>2014-04-17T08:32:13Z</time>
      </trkpt>
      <trkpt lat="47.57862" lon="3.77722">
        <ele>128</ele>
        <time>2014-04-17T08:32:18Z</time>
      </trkpt>
      <trkpt lat="47.57858" lon="3.77727">
        <ele>128</ele>
        <time>2014-04-17T08:32:22Z</time>
      </trkpt>
      <trkpt lat="47.57854" lon="3.77731">
        <ele>128</ele>
        <time>2014-04-17T08:32:26Z</time>
      </trkpt>
      <trkpt lat="47.57849" lon="3.77735">
        <ele>129</ele>
        <time>2014-04-17T08:32:30Z</time>
      </trkpt>
      <trkpt lat="47.57844" lon="3.77739">
        <ele>129</ele>
        <time>2014-04-17T08:32:34Z</time>
      </trkpt>
      <trkpt lat="47.5784" lon="3.77741">
        <ele>129</ele>
        <time>2014-04-17T08:32:37Z</time>
      </trkpt>
      <trkpt lat="47.57835" lon="3.77742">
        <ele>129</ele>
        <time>2014-04-17T08:32:41Z</time>
      </trkpt>
      <trkpt lat="47.57831" lon="3.77747">
        <ele>129</ele>
        <time>2014-04-17T08:32:44Z</time>
      </trkpt>
      <trkpt lat="47.57828" lon="3.77752">
        <ele>129</ele>
        <time>2014-04-17T08:32:47Z</time>
      </trkpt>
      <trkpt lat="47.57824" lon="3.77757">
        <ele>129</ele>
        <time>2014-04-17T08:32:50Z</time>
      </trkpt>
      <trkpt lat="47.5782" lon="3.77762">
        <ele>129</ele>
        <time>2014-04-17T08:32:54Z</time>
      </trkpt>
      <trkpt lat="47.57818" lon="3.77765">
        <ele>129</ele>
        <time>2014-04-17T08:33:00Z</time>
      </trkpt>
      <trkpt lat="47.57814" lon="3.77769">
        <ele>129</ele>
        <time>2014-04-17T08:33:07Z</time>
      </trkpt>
      <trkpt lat="47.5781" lon="3.77771">
        <ele>129</ele>
        <time>2014-04-17T08:33:13Z</time>
      </trkpt>
      <trkpt lat="47.57806" lon="3.77777">
        <ele>129</ele>
        <time>2014-04-17T08:33:17Z</time>
      </trkpt>
      <trkpt lat="47.57803" lon="3.77783">
        <ele>129</ele>
        <time>2014-04-17T08:33:23Z</time>
      </trkpt>
      <trkpt lat="47.57799" lon="3.77787">
        <ele>129</ele>
        <time>2014-04-17T08:33:29Z</time>
      </trkpt>
      <trkpt lat="47.57796" lon="3.77791">
        <ele>129</ele>
        <time>2014-04-17T08:33:37Z</time>
      </trkpt>
      <trkpt lat="47.57793" lon="3.77789">
        <ele>129</ele>
        <time>2014-04-17T08:34:05Z</time>
      </trkpt>
      <trkpt lat="47.57793" lon="3.77796">
        <ele>129</ele>
        <time>2014-04-17T08:34:09Z</time>
      </trkpt>
      <trkpt lat="47.57791" lon="3.778">
        <ele>129</ele>
        <time>2014-04-17T08:34:22Z</time>
      </trkpt>
      <trkpt lat="47.5779" lon="3.77809">
        <ele>130</ele>
        <time>2014-04-17T08:34:24Z</time>
      </trkpt>
      <trkpt lat="47.57788" lon="3.77818">
        <ele>130</ele>
        <time>2014-04-17T08:34:36Z</time>
      </trkpt>
      <trkpt lat="47.57788" lon="3.77814">
        <ele>130</ele>
        <time>2014-04-17T08:34:47Z</time>
      </trkpt>
      <trkpt lat="47.57789" lon="3.77805">
        <ele>129</ele>
        <time>2014-04-17T08:34:51Z</time>
      </trkpt>
      <trkpt lat="47.5779" lon="3.77798">
        <ele>129</ele>
        <time>2014-04-17T08:34:55Z</time>
      </trkpt>
      <trkpt lat="47.57793" lon="3.77793">
        <ele>129</ele>
        <time>2014-04-17T08:35:02Z</time>
      </trkpt>
      <trkpt lat="47.57796" lon="3.77794">
        <ele>129</ele>
        <time>2014-04-17T08:35:13Z</time>
      </trkpt>
      <trkpt lat="47.57791" lon="3.77799">
        <ele>129</ele>
        <time>2014-04-17T08:35:49Z</time>
      </trkpt>
      <trkpt lat="47.5779" lon="3.77796">
        <ele>129</ele>
        <time>2014-04-17T08:36:24Z</time>
      </trkpt>
      <trkpt lat="47.57786" lon="3.778">
        <ele>129</ele>
        <time>2014-04-17T08:36:42Z</time>
      </trkpt>
      <trkpt lat="47.57785" lon="3.77804">
        <ele>129</ele>
        <time>2014-04-17T08:36:49Z</time>
      </trkpt>
      <trkpt lat="47.57784" lon="3.77813">
        <ele>130</ele>
        <time>2014-04-17T08:36:55Z</time>
      </trkpt>
      <trkpt lat="47.57782" lon="3.77809">
        <ele>130</ele>
        <time>2014-04-17T08:37:31Z</time>
      </trkpt>
      <trkpt lat="47.57784" lon="3.77801">
        <ele>129</ele>
        <time>2014-04-17T08:38:50Z</time>
      </trkpt>
      <trkpt lat="47.57785" lon="3.77803">
        <ele>129</ele>
        <time>2014-04-17T08:40:44Z</time>
      </trkpt>
      <trkpt lat="47.57788" lon="3.77802">
        <ele>129</ele>
        <time>2014-04-17T08:41:40Z</time>
      </trkpt>
      <trkpt lat="47.57791" lon="3.77795">
        <ele>129</ele>
        <time>2014-04-17T08:47:55Z</time>
      </trkpt>
      <trkpt lat="47.57795" lon="3.77797">
        <ele>129</ele>
        <time>2014-04-17T08:48:18Z</time>
      </trkpt>
      <trkpt lat="47.57798" lon="3.77803">
        <ele>129</ele>
        <time>2014-04-17T08:48:25Z</time>
      </trkpt>
      <trkpt lat="47.57796" lon="3.77811">
        <ele>130</ele>
        <time>2014-04-17T08:48:31Z</time>
      </trkpt>
      <trkpt lat="47.57797" lon="3.77819">
        <ele>130</ele>
        <time>2014-04-17T08:48:35Z</time>
      </trkpt>
      <trkpt lat="47.57796" lon="3.7783">
        <ele>130</ele>
        <time>2014-04-17T08:48:46Z</time>
      </trkpt>
      <trkpt lat="47.57797" lon="3.77837">
        <ele>130</ele>
        <time>2014-04-17T08:48:49Z</time>
      </trkpt>
      <trkpt lat="47.578" lon="3.77839">
        <ele>130</ele>
        <time>2014-04-17T08:49:05Z</time>
      </trkpt>
      <trkpt lat="47.578" lon="3.77832">
        <ele>130</ele>
        <time>2014-04-17T08:49:11Z</time>
      </trkpt>
      <trkpt lat="47.578" lon="3.77824">
        <ele>130</ele>
        <time>2014-04-17T08:49:18Z</time>
      </trkpt>
      <trkpt lat="47.57795" lon="3.77822">
        <ele>130</ele>
        <time>2014-04-17T08:49:22Z</time>
      </trkpt>
      <trkpt lat="47.5779" lon="3.77824">
        <ele>130</ele>
        <time>2014-04-17T08:49:26Z</time>
      </trkpt>
      <trkpt lat="47.57785" lon="3.77823">
        <ele>130</ele>
        <time>2014-04-17T08:49:30Z</time>
      </trkpt>
      <trkpt lat="47.57781" lon="3.77821">
        <ele>130</ele>
        <time>2014-04-17T08:49:35Z</time>
      </trkpt>
      <trkpt lat="47.57775" lon="3.77816">
        <ele>130</ele>
        <time>2014-04-17T08:49:40Z</time>
      </trkpt>
      <trkpt lat="47.57771" lon="3.77811">
        <ele>130</ele>
        <time>2014-04-17T08:49:43Z</time>
      </trkpt>
      <trkpt lat="47.57768" lon="3.77806">
        <ele>130</ele>
        <time>2014-04-17T08:49:45Z</time>
      </trkpt>
      <trkpt lat="47.57763" lon="3.77797">
        <ele>129</ele>
        <time>2014-04-17T08:49:48Z</time>
      </trkpt>
      <trkpt lat="47.57761" lon="3.7779">
        <ele>129</ele>
        <time>2014-04-17T08:49:50Z</time>
      </trkpt>
      <trkpt lat="47.57759" lon="3.77787">
        <ele>129</ele>
        <time>2014-04-17T08:49:52Z</time>
      </trkpt>
      <trkpt lat="47.57754" lon="3.77783">
        <ele>129</ele>
        <time>2014-04-17T08:50:00Z</time>
      </trkpt>
      <trkpt lat="47.57751" lon="3.77776">
        <ele>129</ele>
        <time>2014-04-17T08:50:04Z</time>
      </trkpt>
      <trkpt lat="47.5775" lon="3.77778">
        <ele>129</ele>
        <time>2014-04-17T08:50:24Z</time>
      </trkpt>
      <trkpt lat="47.57758" lon="3.77782">
        <ele>129</ele>
        <time>2014-04-17T08:50:45Z</time>
      </trkpt>
      <trkpt lat="47.57759" lon="3.77781">
        <ele>129</ele>
        <time>2014-04-17T08:51:08Z</time>
      </trkpt>
      <trkpt lat="47.57762" lon="3.77786">
        <ele>129</ele>
        <time>2014-04-17T08:51:13Z</time>
      </trkpt>
      <trkpt lat="47.57762" lon="3.77794">
        <ele>129</ele>
        <time>2014-04-17T08:51:17Z</time>
      </trkpt>
      <trkpt lat="47.57757" lon="3.77796">
        <ele>129</ele>
        <time>2014-04-17T08:51:20Z</time>
      </trkpt>
      <trkpt lat="47.57752" lon="3.77795">
        <ele>129</ele>
        <time>2014-04-17T08:51:22Z</time>
      </trkpt>
      <trkpt lat="47.57748" lon="3.77791">
        <ele>129</ele>
        <time>2014-04-17T08:51:24Z</time>
      </trkpt>
      <trkpt lat="47.57744" lon="3.77786">
        <ele>129</ele>
        <time>2014-04-17T08:51:27Z</time>
      </trkpt>
      <trkpt lat="47.57739" lon="3.77783">
        <ele>129</ele>
        <time>2014-04-17T08:51:31Z</time>
      </trkpt>
      <trkpt lat="47.57734" lon="3.7778">
        <ele>129</ele>
        <time>2014-04-17T08:51:35Z</time>
      </trkpt>
      <trkpt lat="47.57729" lon="3.77779">
        <ele>129</ele>
        <time>2014-04-17T08:51:39Z</time>
      </trkpt>
      <trkpt lat="47.57724" lon="3.7778">
        <ele>129</ele>
        <time>2014-04-17T08:51:43Z</time>
      </trkpt>
      <trkpt lat="47.57719" lon="3.77781">
        <ele>129</ele>
        <time>2014-04-17T08:51:48Z</time>
      </trkpt>
      <trkpt lat="47.57715" lon="3.77782">
        <ele>129</ele>
        <time>2014-04-17T08:51:57Z</time>
      </trkpt>
      <trkpt lat="47.5771" lon="3.77784">
        <ele>129</ele>
        <time>2014-04-17T08:52:04Z</time>
      </trkpt>
      <trkpt lat="47.57705" lon="3.77787">
        <ele>129</ele>
        <time>2014-04-17T08:52:08Z</time>
      </trkpt>
      <trkpt lat="47.57701" lon="3.77788">
        <ele>129</ele>
        <time>2014-04-17T08:52:12Z</time>
      </trkpt>
      <trkpt lat="47.57695" lon="3.77789">
        <ele>129</ele>
        <time>2014-04-17T08:52:18Z</time>
      </trkpt>
      <trkpt lat="47.5769" lon="3.77789">
        <ele>129</ele>
        <time>2014-04-17T08:52:22Z</time>
      </trkpt>
      <trkpt lat="47.57686" lon="3.77789">
        <ele>129</ele>
        <time>2014-04-17T08:52:26Z</time>
      </trkpt>
      <trkpt lat="47.57681" lon="3.77789">
        <ele>129</ele>
        <time>2014-04-17T08:52:32Z</time>
      </trkpt>
      <trkpt lat="47.57679" lon="3.77785">
        <ele>129</ele>
        <time>2014-04-17T08:53:49Z</time>
      </trkpt>
      <trkpt lat="47.57673" lon="3.77783">
        <ele>129</ele>
        <time>2014-04-17T08:53:54Z</time>
      </trkpt>
      <trkpt lat="47.57668" lon="3.77781">
        <ele>129</ele>
        <time>2014-04-17T08:53:58Z</time>
      </trkpt>
      <trkpt lat="47.57664" lon="3.77777">
        <ele>128</ele>
        <time>2014-04-17T08:54:03Z</time>
      </trkpt>
      <trkpt lat="47.5766" lon="3.77773">
        <ele>128</ele>
        <time>2014-04-17T08:54:08Z</time>
      </trkpt>
      <trkpt lat="47.57656" lon="3.7777">
        <ele>128</ele>
        <time>2014-04-17T08:54:13Z</time>
      </trkpt>
      <trkpt lat="47.57653" lon="3.77765">
        <ele>128</ele>
        <time>2014-04-17T08:54:17Z</time>
      </trkpt>
      <trkpt lat="47.57648" lon="3.77762">
        <ele>128</ele>
        <time>2014-04-17T08:54:21Z</time>
      </trkpt>
      <trkpt lat="47.57644" lon="3.77758">
        <ele>128</ele>
        <time>2014-04-17T08:54:25Z</time>
      </trkpt>
      <trkpt lat="47.57639" lon="3.77754">
        <ele>128</ele>
        <time>2014-04-17T08:54:42Z</time>
      </trkpt>
      <trkpt lat="47.57635" lon="3.77749">
        <ele>128</ele>
        <time>2014-04-17T08:54:46Z</time>
      </trkpt>
      <trkpt lat="47.57631" lon="3.77746">
        <ele>128</ele>
        <time>2014-04-17T08:54:50Z</time>
      </trkpt>
      <trkpt lat="47.57628" lon="3.7774">
        <ele>128</ele>
        <time>2014-04-17T08:54:55Z</time>
      </trkpt>
      <trkpt lat="47.57625" lon="3.77733">
        <ele>128</ele>
        <time>2014-04-17T08:55:00Z</time>
      </trkpt>
      <trkpt lat="47.57623" lon="3.77726">
        <ele>128</ele>
        <time>2014-04-17T08:55:03Z</time>
      </trkpt>
      <trkpt lat="47.57621" lon="3.77719">
        <ele>128</ele>
        <time>2014-04-17T08:56:15Z</time>
      </trkpt>
      <trkpt lat="47.57623" lon="3.77712">
        <ele>128</ele>
        <time>2014-04-17T08:56:19Z</time>
      </trkpt>
      <trkpt lat="47.57625" lon="3.77705">
        <ele>128</ele>
        <time>2014-04-17T08:56:23Z</time>
      </trkpt>
      <trkpt lat="47.57627" lon="3.77698">
        <ele>128</ele>
        <time>2014-04-17T08:56:27Z</time>
      </trkpt>
      <trkpt lat="47.57629" lon="3.7769">
        <ele>128</ele>
        <time>2014-04-17T08:56:31Z</time>
      </trkpt>
      <trkpt lat="47.5763" lon="3.77682">
        <ele>128</ele>
        <time>2014-04-17T08:56:35Z</time>
      </trkpt>
      <trkpt lat="47.57632" lon="3.77676">
        <ele>128</ele>
        <time>2014-04-17T08:56:38Z</time>
      </trkpt>
      <trkpt lat="47.57636" lon="3.77671">
        <ele>128</ele>
        <time>2014-04-17T08:56:42Z</time>
      </trkpt>
      <trkpt lat="47.57638" lon="3.77671">
        <ele>128</ele>
        <time>2014-04-17T08:56:59Z</time>
      </trkpt>
      <trkpt lat="47.57629" lon="3.77669">
        <ele>128</ele>
        <time>2014-04-17T08:57:21Z</time>
      </trkpt>
      <trkpt lat="47.57629" lon="3.7767">
        <ele>128</ele>
        <time>2014-04-17T08:57:37Z</time>
      </trkpt>
      <trkpt lat="47.57632" lon="3.77664">
        <ele>128</ele>
        <time>2014-04-17T08:57:53Z</time>
      </trkpt>
      <trkpt lat="47.57637" lon="3.7766">
        <ele>128</ele>
        <time>2014-04-17T08:57:58Z</time>
      </trkpt>
      <trkpt lat="47.57641" lon="3.77656">
        <ele>128</ele>
        <time>2014-04-17T08:58:02Z</time>
      </trkpt>
      <trkpt lat="47.57645" lon="3.77648">
        <ele>128</ele>
        <time>2014-04-17T08:58:07Z</time>
      </trkpt>
      <trkpt lat="47.57647" lon="3.77642">
        <ele>128</ele>
        <time>2014-04-17T08:58:10Z</time>
      </trkpt>
      <trkpt lat="47.5765" lon="3.77636">
        <ele>128</ele>
        <time>2014-04-17T08:58:13Z</time>
      </trkpt>
      <trkpt lat="47.57654" lon="3.77631">
        <ele>128</ele>
        <time>2014-04-17T08:58:16Z</time>
      </trkpt>
      <trkpt lat="47.57657" lon="3.77625">
        <ele>128</ele>
        <time>2014-04-17T08:58:20Z</time>
      </trkpt>
      <trkpt lat="47.5766" lon="3.77618">
        <ele>128</ele>
        <time>2014-04-17T08:58:24Z</time>
      </trkpt>
      <trkpt lat="47.57664" lon="3.77613">
        <ele>128</ele>
        <time>2014-04-17T08:58:28Z</time>
      </trkpt>
      <trkpt lat="47.57668" lon="3.77608">
        <ele>128</ele>
        <time>2014-04-17T08:58:32Z</time>
      </trkpt>
      <trkpt lat="47.5767" lon="3.77602">
        <ele>128</ele>
        <time>2014-04-17T08:58:36Z</time>
      </trkpt>
      <trkpt lat="47.57673" lon="3.77597">
        <ele>128</ele>
        <time>2014-04-17T08:58:40Z</time>
      </trkpt>
      <trkpt lat="47.57677" lon="3.77592">
        <ele>128</ele>
        <time>2014-04-17T08:58:44Z</time>
      </trkpt>
      <trkpt lat="47.57681" lon="3.77586">
        <ele>128</ele>
        <time>2014-04-17T08:58:48Z</time>
      </trkpt>
      <trkpt lat="47.57684" lon="3.77579">
        <ele>129</ele>
        <time>2014-04-17T08:58:54Z</time>
      </trkpt>
      <trkpt lat="47.57682" lon="3.77572">
        <ele>129</ele>
        <time>2014-04-17T08:58:59Z</time>
      </trkpt>
      <trkpt lat="47.57677" lon="3.77569">
        <ele>129</ele>
        <time>2014-04-17T08:59:02Z</time>
      </trkpt>
      <trkpt lat="47.57672" lon="3.7757">
        <ele>129</ele>
        <time>2014-04-17T08:59:05Z</time>
      </trkpt>
      <trkpt lat="47.57667" lon="3.77572">
        <ele>129</ele>
        <time>2014-04-17T08:59:09Z</time>
      </trkpt>
      <trkpt lat="47.57662" lon="3.77572">
        <ele>130</ele>
        <time>2014-04-17T08:59:14Z</time>
      </trkpt>
      <trkpt lat="47.57658" lon="3.77572">
        <ele>130</ele>
        <time>2014-04-17T08:59:19Z</time>
      </trkpt>
      <trkpt lat="47.57653" lon="3.77577">
        <ele>130</ele>
        <time>2014-04-17T08:59:25Z</time>
      </trkpt>
      <trkpt lat="47.57649" lon="3.77577">
        <ele>130</ele>
        <time>2014-04-17T08:59:28Z</time>
      </trkpt>
      <trkpt lat="47.57643" lon="3.77576">
        <ele>130</ele>
        <time>2014-04-17T08:59:32Z</time>
      </trkpt>
      <trkpt lat="47.57637" lon="3.77574">
        <ele>130</ele>
        <time>2014-04-17T08:59:35Z</time>
      </trkpt>
      <trkpt lat="47.57633" lon="3.77572">
        <ele>130</ele>
        <time>2014-04-17T08:59:38Z</time>
      </trkpt>
      <trkpt lat="47.57627" lon="3.77572">
        <ele>130</ele>
        <time>2014-04-17T08:59:42Z</time>
      </trkpt>
      <trkpt lat="47.57622" lon="3.77573">
        <ele>130</ele>
        <time>2014-04-17T08:59:45Z</time>
      </trkpt>
      <trkpt lat="47.57617" lon="3.77572">
        <ele>130</ele>
        <time>2014-04-17T08:59:48Z</time>
      </trkpt>
      <trkpt lat="47.57613" lon="3.77572">
        <ele>130</ele>
        <time>2014-04-17T08:59:53Z</time>
      </trkpt>
      <trkpt lat="47.57608" lon="3.77569">
        <ele>130</ele>
        <time>2014-04-17T08:59:58Z</time>
      </trkpt>
      <trkpt lat="47.57602" lon="3.7757">
        <ele>130</ele>
        <time>2014-04-17T09:00:03Z</time>
      </trkpt>
      <trkpt lat="47.57597" lon="3.77568">
        <ele>130</ele>
        <time>2014-04-17T09:00:07Z</time>
      </trkpt>
      <trkpt lat="47.57592" lon="3.77568">
        <ele>130</ele>
        <time>2014-04-17T09:00:11Z</time>
      </trkpt>
      <trkpt lat="47.57587" lon="3.77568">
        <ele>130</ele>
        <time>2014-04-17T09:00:15Z</time>
      </trkpt>
      <trkpt lat="47.57581" lon="3.77567">
        <ele>130</ele>
        <time>2014-04-17T09:00:19Z</time>
      </trkpt>
      <trkpt lat="47.57576" lon="3.77566">
        <ele>130</ele>
        <time>2014-04-17T09:00:23Z</time>
      </trkpt>
      <trkpt lat="47.57572" lon="3.77565">
        <ele>130</ele>
        <time>2014-04-17T09:00:27Z</time>
      </trkpt>
      <trkpt lat="47.57567" lon="3.77568">
        <ele>130</ele>
        <time>2014-04-17T09:00:32Z</time>
      </trkpt>
      <trkpt lat="47.57562" lon="3.77568">
        <ele>130</ele>
        <time>2014-04-17T09:00:42Z</time>
      </trkpt>
      <trkpt lat="47.57557" lon="3.77565">
        <ele>130</ele>
        <time>2014-04-17T09:00:46Z</time>
      </trkpt>
      <trkpt lat="47.57552" lon="3.77565">
        <ele>130</ele>
        <time>2014-04-17T09:00:49Z</time>
      </trkpt>
      <trkpt lat="47.57547" lon="3.77566">
        <ele>130</ele>
        <time>2014-04-17T09:00:52Z</time>
      </trkpt>
      <trkpt lat="47.57541" lon="3.77567">
        <ele>130</ele>
        <time>2014-04-17T09:00:57Z</time>
      </trkpt>
      <trkpt lat="47.57537" lon="3.77568">
        <ele>130</ele>
        <time>2014-04-17T09:01:00Z</time>
      </trkpt>
      <trkpt lat="47.57532" lon="3.77566">
        <ele>130</ele>
        <time>2014-04-17T09:01:04Z</time>
      </trkpt>
      <trkpt lat="47.57527" lon="3.77567">
        <ele>130</ele>
        <time>2014-04-17T09:01:08Z</time>
      </trkpt>
      <trkpt lat="47.57522" lon="3.77568">
        <ele>130</ele>
        <time>2014-04-17T09:01:12Z</time>
      </trkpt>
      <trkpt lat="47.57517" lon="3.77573">
        <ele>130</ele>
        <time>2014-04-17T09:01:15Z</time>
      </trkpt>
      <trkpt lat="47.57512" lon="3.77575">
        <ele>130</ele>
        <time>2014-04-17T09:01:18Z</time>
      </trkpt>
      <trkpt lat="47.57508" lon="3.77574">
        <ele>130</ele>
        <time>2014-04-17T09:01:23Z</time>
      </trkpt>
      <trkpt lat="47.57503" lon="3.77571">
        <ele>130</ele>
        <time>2014-04-17T09:01:28Z</time>
      </trkpt>
      <trkpt lat="47.57498" lon="3.77576">
        <ele>129</ele>
        <time>2014-04-17T09:01:32Z</time>
      </trkpt>
      <trkpt lat="47.57493" lon="3.77579">
        <ele>129</ele>
        <time>2014-04-17T09:01:36Z</time>
      </trkpt>
      <trkpt lat="47.57488" lon="3.77581">
        <ele>129</ele>
        <time>2014-04-17T09:01:40Z</time>
      </trkpt>
      <trkpt lat="47.57483" lon="3.77583">
        <ele>129</ele>
        <time>2014-04-17T09:01:43Z</time>
      </trkpt>
      <trkpt lat="47.57478" lon="3.77583">
        <ele>129</ele>
        <time>2014-04-17T09:01:46Z</time>
      </trkpt>
      <trkpt lat="47.57473" lon="3.77586">
        <ele>129</ele>
        <time>2014-04-17T09:01:49Z</time>
      </trkpt>
      <trkpt lat="47.57469" lon="3.77588">
        <ele>129</ele>
        <time>2014-04-17T09:01:52Z</time>
      </trkpt>
      <trkpt lat="47.57464" lon="3.77591">
        <ele>129</ele>
        <time>2014-04-17T09:01:55Z</time>
      </trkpt>
      <trkpt lat="47.57459" lon="3.77594">
        <ele>129</ele>
        <time>2014-04-17T09:01:59Z</time>
      </trkpt>
      <trkpt lat="47.57454" lon="3.77595">
        <ele>129</ele>
        <time>2014-04-17T09:02:04Z</time>
      </trkpt>
      <trkpt lat="47.57449" lon="3.77597">
        <ele>129</ele>
        <time>2014-04-17T09:02:07Z</time>
      </trkpt>
      <trkpt lat="47.57443" lon="3.77597">
        <ele>129</ele>
        <time>2014-04-17T09:02:12Z</time>
      </trkpt>
      <trkpt lat="47.57439" lon="3.776">
        <ele>129</ele>
        <time>2014-04-17T09:02:15Z</time>
      </trkpt>
      <trkpt lat="47.57434" lon="3.77602">
        <ele>129</ele>
        <time>2014-04-17T09:02:19Z</time>
      </trkpt>
      <trkpt lat="47.57429" lon="3.77604">
        <ele>129</ele>
        <time>2014-04-17T09:02:23Z</time>
      </trkpt>
      <trkpt lat="47.57424" lon="3.77606">
        <ele>129</ele>
        <time>2014-04-17T09:02:28Z</time>
      </trkpt>
      <trkpt lat="47.5742" lon="3.7761">
        <ele>129</ele>
        <time>2014-04-17T09:02:32Z</time>
      </trkpt>
      <trkpt lat="47.57415" lon="3.77613">
        <ele>130</ele>
        <time>2014-04-17T09:02:36Z</time>
      </trkpt>
      <trkpt lat="47.5741" lon="3.77611">
        <ele>130</ele>
        <time>2014-04-17T09:02:40Z</time>
      </trkpt>
      <trkpt lat="47.57405" lon="3.77613">
        <ele>130</ele>
        <time>2014-04-17T09:02:43Z</time>
      </trkpt>
      <trkpt lat="47.574" lon="3.77615">
        <ele>130</ele>
        <time>2014-04-17T09:02:46Z</time>
      </trkpt>
      <trkpt lat="47.57395" lon="3.77616">
        <ele>130</ele>
        <time>2014-04-17T09:02:50Z</time>
      </trkpt>
      <trkpt lat="47.57392" lon="3.77623">
        <ele>130</ele>
        <time>2014-04-17T09:02:54Z</time>
      </trkpt>
      <trkpt lat="47.57388" lon="3.77628">
        <ele>130</ele>
        <time>2014-04-17T09:04:17Z</time>
      </trkpt>
      <trkpt lat="47.57383" lon="3.77629">
        <ele>130</ele>
        <time>2014-04-17T09:04:21Z</time>
      </trkpt>
      <trkpt lat="47.57379" lon="3.7763">
        <ele>130</ele>
        <time>2014-04-17T09:04:24Z</time>
      </trkpt>
      <trkpt lat="47.57373" lon="3.77631">
        <ele>130</ele>
        <time>2014-04-17T09:04:29Z</time>
      </trkpt>
      <trkpt lat="47.57369" lon="3.77631">
        <ele>130</ele>
        <time>2014-04-17T09:04:33Z</time>
      </trkpt>
      <trkpt lat="47.57363" lon="3.77634">
        <ele>131</ele>
        <time>2014-04-17T09:04:38Z</time>
      </trkpt>
      <trkpt lat="47.57358" lon="3.77637">
        <ele>131</ele>
        <time>2014-04-17T09:04:42Z</time>
      </trkpt>
      <trkpt lat="47.57354" lon="3.77641">
        <ele>131</ele>
        <time>2014-04-17T09:04:45Z</time>
      </trkpt>
      <trkpt lat="47.57349" lon="3.77644">
        <ele>131</ele>
        <time>2014-04-17T09:04:49Z</time>
      </trkpt>
      <trkpt lat="47.57343" lon="3.77645">
        <ele>131</ele>
        <time>2014-04-17T09:04:54Z</time>
      </trkpt>
      <trkpt lat="47.57339" lon="3.77648">
        <ele>131</ele>
        <time>2014-04-17T09:04:57Z</time>
      </trkpt>
      <trkpt lat="47.57334" lon="3.7765">
        <ele>132</ele>
        <time>2014-04-17T09:05:01Z</time>
      </trkpt>
      <trkpt lat="47.57329" lon="3.77658">
        <ele>133</ele>
        <time>2014-04-17T09:05:04Z</time>
      </trkpt>
      <trkpt lat="47.57326" lon="3.77663">
        <ele>133</ele>
        <time>2014-04-17T09:05:06Z</time>
      </trkpt>
      <trkpt lat="47.57322" lon="3.77669">
        <ele>133</ele>
        <time>2014-04-17T09:05:09Z</time>
      </trkpt>
      <trkpt lat="47.57318" lon="3.77672">
        <ele>133</ele>
        <time>2014-04-17T09:05:13Z</time>
      </trkpt>
      <trkpt lat="47.57312" lon="3.77675">
        <ele>133</ele>
        <time>2014-04-17T09:05:17Z</time>
      </trkpt>
      <trkpt lat="47.57307" lon="3.77678">
        <ele>133</ele>
        <time>2014-04-17T09:05:19Z</time>
      </trkpt>
      <trkpt lat="47.57302" lon="3.77682">
        <ele>133</ele>
        <time>2014-04-17T09:05:22Z</time>
      </trkpt>
      <trkpt lat="47.57298" lon="3.77685">
        <ele>133</ele>
        <time>2014-04-17T09:05:27Z</time>
      </trkpt>
      <trkpt lat="47.57293" lon="3.77687">
        <ele>133</ele>
        <time>2014-04-17T09:05:32Z</time>
      </trkpt>
      <trkpt lat="47.57288" lon="3.77689">
        <ele>134</ele>
        <time>2014-04-17T09:05:37Z</time>
      </trkpt>
      <trkpt lat="47.57284" lon="3.77693">
        <ele>134</ele>
        <time>2014-04-17T09:05:41Z</time>
      </trkpt>
      <trkpt lat="47.57279" lon="3.77698">
        <ele>134</ele>
        <time>2014-04-17T09:05:45Z</time>
      </trkpt>
      <trkpt lat="47.57275" lon="3.777">
        <ele>134</ele>
        <time>2014-04-17T09:05:48Z</time>
      </trkpt>
      <trkpt lat="47.5727" lon="3.77702">
        <ele>134</ele>
        <time>2014-04-17T09:05:51Z</time>
      </trkpt>
      <trkpt lat="47.57265" lon="3.77705">
        <ele>134</ele>
        <time>2014-04-17T09:05:56Z</time>
      </trkpt>
      <trkpt lat="47.57261" lon="3.77707">
        <ele>134</ele>
        <time>2014-04-17T09:06:01Z</time>
      </trkpt>
      <trkpt lat="47.57259" lon="3.77708">
        <ele>134</ele>
        <time>2014-04-17T09:06:07Z</time>
      </trkpt>
      <trkpt lat="47.57254" lon="3.77709">
        <ele>134</ele>
        <time>2014-04-17T09:06:13Z</time>
      </trkpt>
      <trkpt lat="47.57249" lon="3.77714">
        <ele>136</ele>
        <time>2014-04-17T09:06:17Z</time>
      </trkpt>
      <trkpt lat="47.57245" lon="3.77718">
        <ele>136</ele>
        <time>2014-04-17T09:06:20Z</time>
      </trkpt>
      <trkpt lat="47.57241" lon="3.77723">
        <ele>136</ele>
        <time>2014-04-17T09:06:23Z</time>
      </trkpt>
      <trkpt lat="47.57233" lon="3.7773">
        <ele>136</ele>
        <time>2014-04-17T09:06:32Z</time>
      </trkpt>
      <trkpt lat="47.57229" lon="3.77735">
        <ele>136</ele>
        <time>2014-04-17T09:06:36Z</time>
      </trkpt>
      <trkpt lat="47.57224" lon="3.77743">
        <ele>136</ele>
        <time>2014-04-17T09:06:40Z</time>
      </trkpt>
      <trkpt lat="47.5722" lon="3.77748">
        <ele>136</ele>
        <time>2014-04-17T09:06:43Z</time>
      </trkpt>
      <trkpt lat="47.57216" lon="3.77745">
        <ele>136</ele>
        <time>2014-04-17T09:06:50Z</time>
      </trkpt>
      <trkpt lat="47.57211" lon="3.77745">
        <ele>136</ele>
        <time>2014-04-17T09:06:55Z</time>
      </trkpt>
      <trkpt lat="47.57206" lon="3.77747">
        <ele>136</ele>
        <time>2014-04-17T09:06:58Z</time>
      </trkpt>
      <trkpt lat="47.57201" lon="3.7775">
        <ele>136</ele>
        <time>2014-04-17T09:07:00Z</time>
      </trkpt>
      <trkpt lat="47.57197" lon="3.7775">
        <ele>134</ele>
        <time>2014-04-17T09:07:03Z</time>
      </trkpt>
      <trkpt lat="47.57192" lon="3.77749">
        <ele>136</ele>
        <time>2014-04-17T09:07:06Z</time>
      </trkpt>
      <trkpt lat="47.57185" lon="3.77746">
        <ele>136</ele>
        <time>2014-04-17T09:07:09Z</time>
      </trkpt>
      <trkpt lat="47.57182" lon="3.77742">
        <ele>136</ele>
        <time>2014-04-17T09:07:11Z</time>
      </trkpt>
      <trkpt lat="47.57178" lon="3.77737">
        <ele>136</ele>
        <time>2014-04-17T09:07:17Z</time>
      </trkpt>
      <trkpt lat="47.57176" lon="3.7773">
        <ele>137</ele>
        <time>2014-04-17T09:07:22Z</time>
      </trkpt>
      <trkpt lat="47.57173" lon="3.77724">
        <ele>137</ele>
        <time>2014-04-17T09:07:26Z</time>
      </trkpt>
      <trkpt lat="47.57171" lon="3.77716">
        <ele>137</ele>
        <time>2014-04-17T09:07:30Z</time>
      </trkpt>
      <trkpt lat="47.57168" lon="3.77709">
        <ele>137</ele>
        <time>2014-04-17T09:07:34Z</time>
      </trkpt>
      <trkpt lat="47.57164" lon="3.77703">
        <ele>140</ele>
        <time>2014-04-17T09:07:38Z</time>
      </trkpt>
      <trkpt lat="47.57161" lon="3.77697">
        <ele>141</ele>
        <time>2014-04-17T09:07:44Z</time>
      </trkpt>
      <trkpt lat="47.57158" lon="3.77691">
        <ele>141</ele>
        <time>2014-04-17T09:07:48Z</time>
      </trkpt>
      <trkpt lat="47.57154" lon="3.77687">
        <ele>141</ele>
        <time>2014-04-17T09:07:52Z</time>
      </trkpt>
      <trkpt lat="47.5715" lon="3.77679">
        <ele>142</ele>
        <time>2014-04-17T09:08:04Z</time>
      </trkpt>
      <trkpt lat="47.57145" lon="3.77675">
        <ele>142</ele>
        <time>2014-04-17T09:08:09Z</time>
      </trkpt>
      <trkpt lat="47.5714" lon="3.77672">
        <ele>142</ele>
        <time>2014-04-17T09:08:14Z</time>
      </trkpt>
      <trkpt lat="47.57137" lon="3.77666">
        <ele>147</ele>
        <time>2014-04-17T09:08:19Z</time>
      </trkpt>
      <trkpt lat="47.57133" lon="3.77672">
        <ele>143</ele>
        <time>2014-04-17T09:08:20Z</time>
      </trkpt>
      <trkpt lat="47.57128" lon="3.77672">
        <ele>143</ele>
        <time>2014-04-17T09:08:42Z</time>
      </trkpt>
      <trkpt lat="47.57125" lon="3.77667">
        <ele>148</ele>
        <time>2014-04-17T09:08:46Z</time>
      </trkpt>
      <trkpt lat="47.57122" lon="3.7766">
        <ele>148</ele>
        <time>2014-04-17T09:08:51Z</time>
      </trkpt>
      <trkpt lat="47.5712" lon="3.77653">
        <ele>149</ele>
        <time>2014-04-17T09:08:56Z</time>
      </trkpt>
      <trkpt lat="47.57117" lon="3.77647">
        <ele>149</ele>
        <time>2014-04-17T09:09:02Z</time>
      </trkpt>
      <trkpt lat="47.57114" lon="3.7764">
        <ele>149</ele>
        <time>2014-04-17T09:09:08Z</time>
      </trkpt>
      <trkpt lat="47.5711" lon="3.77636">
        <ele>150</ele>
        <time>2014-04-17T09:09:13Z</time>
      </trkpt>
      <trkpt lat="47.57103" lon="3.77638">
        <ele>150</ele>
        <time>2014-04-17T09:09:17Z</time>
      </trkpt>
      <trkpt lat="47.57098" lon="3.77637">
        <ele>151</ele>
        <time>2014-04-17T09:09:21Z</time>
      </trkpt>
      <trkpt lat="47.57094" lon="3.77632">
        <ele>151</ele>
        <time>2014-04-17T09:09:26Z</time>
      </trkpt>
      <trkpt lat="47.57089" lon="3.77631">
        <ele>151</ele>
        <time>2014-04-17T09:09:31Z</time>
      </trkpt>
      <trkpt lat="47.57084" lon="3.77633">
        <ele>151</ele>
        <time>2014-04-17T09:09:36Z</time>
      </trkpt>
      <trkpt lat="47.57079" lon="3.77635">
        <ele>157</ele>
        <time>2014-04-17T09:09:40Z</time>
      </trkpt>
      <trkpt lat="47.57074" lon="3.77637">
        <ele>157</ele>
        <time>2014-04-17T09:09:45Z</time>
      </trkpt>
      <trkpt lat="47.57069" lon="3.77639">
        <ele>157</ele>
        <time>2014-04-17T09:09:48Z</time>
      </trkpt>
      <trkpt lat="47.57064" lon="3.77638">
        <ele>157</ele>
        <time>2014-04-17T09:09:53Z</time>
      </trkpt>
      <trkpt lat="47.57062" lon="3.77632">
        <ele>158</ele>
        <time>2014-04-17T09:10:00Z</time>
      </trkpt>
      <trkpt lat="47.57057" lon="3.7763">
        <ele>158</ele>
        <time>2014-04-17T09:10:04Z</time>
      </trkpt>
      <trkpt lat="47.57052" lon="3.7763">
        <ele>158</ele>
        <time>2014-04-17T09:10:09Z</time>
      </trkpt>
      <trkpt lat="47.57047" lon="3.77627">
        <ele>159</ele>
        <time>2014-04-17T09:10:14Z</time>
      </trkpt>
      <trkpt lat="47.57042" lon="3.77625">
        <ele>159</ele>
        <time>2014-04-17T09:10:20Z</time>
      </trkpt>
      <trkpt lat="47.57032" lon="3.7763">
        <ele>158</ele>
        <time>2014-04-17T09:10:26Z</time>
      </trkpt>
      <trkpt lat="47.57027" lon="3.77634">
        <ele>158</ele>
        <time>2014-04-17T09:10:29Z</time>
      </trkpt>
      <trkpt lat="47.57024" lon="3.77639">
        <ele>157</ele>
        <time>2014-04-17T09:10:35Z</time>
      </trkpt>
      <trkpt lat="47.57019" lon="3.77642">
        <ele>157</ele>
        <time>2014-04-17T09:10:40Z</time>
      </trkpt>
      <trkpt lat="47.57018" lon="3.77634">
        <ele>158</ele>
        <time>2014-04-17T09:10:48Z</time>
      </trkpt>
      <trkpt lat="47.57016" lon="3.77627">
        <ele>159</ele>
        <time>2014-04-17T09:10:52Z</time>
      </trkpt>
      <trkpt lat="47.57011" lon="3.77625">
        <ele>159</ele>
        <time>2014-04-17T09:10:57Z</time>
      </trkpt>
      <trkpt lat="47.57006" lon="3.77625">
        <ele>159</ele>
        <time>2014-04-17T09:11:02Z</time>
      </trkpt>
      <trkpt lat="47.57005" lon="3.77618">
        <ele>161</ele>
        <time>2014-04-17T09:11:10Z</time>
      </trkpt>
      <trkpt lat="47.57003" lon="3.77611">
        <ele>162</ele>
        <time>2014-04-17T09:11:17Z</time>
      </trkpt>
      <trkpt lat="47.57004" lon="3.77605">
        <ele>163</ele>
        <time>2014-04-17T09:11:26Z</time>
      </trkpt>
      <trkpt lat="47.56997" lon="3.77602">
        <ele>163</ele>
        <time>2014-04-17T09:11:47Z</time>
      </trkpt>
      <trkpt lat="47.56998" lon="3.77592">
        <ele>166</ele>
        <time>2014-04-17T09:12:31Z</time>
      </trkpt>
      <trkpt lat="47.56998" lon="3.77586">
        <ele>169</ele>
        <time>2014-04-17T09:12:35Z</time>
      </trkpt>
      <trkpt lat="47.56998" lon="3.77578">
        <ele>173</ele>
        <time>2014-04-17T09:12:40Z</time>
      </trkpt>
      <trkpt lat="47.56999" lon="3.77569">
        <ele>175</ele>
        <time>2014-04-17T09:13:13Z</time>
      </trkpt>
      <trkpt lat="47.56999" lon="3.77562">
        <ele>177</ele>
        <time>2014-04-17T09:13:20Z</time>
      </trkpt>
      <trkpt lat="47.57" lon="3.77555">
        <ele>172</ele>
        <time>2014-04-17T09:13:24Z</time>
      </trkpt>
      <trkpt lat="47.57002" lon="3.77548">
        <ele>173</ele>
        <time>2014-04-17T09:13:29Z</time>
      </trkpt>
      <trkpt lat="47.57001" lon="3.7754">
        <ele>174</ele>
        <time>2014-04-17T09:13:33Z</time>
      </trkpt>
      <trkpt lat="47.57" lon="3.77533">
        <ele>175</ele>
        <time>2014-04-17T09:13:36Z</time>
      </trkpt>
      <trkpt lat="47.56999" lon="3.77527">
        <ele>183</ele>
        <time>2014-04-17T09:13:39Z</time>
      </trkpt>
      <trkpt lat="47.57001" lon="3.7752">
        <ele>178</ele>
        <time>2014-04-17T09:13:42Z</time>
      </trkpt>
      <trkpt lat="47.57004" lon="3.77514">
        <ele>179</ele>
        <time>2014-04-17T09:13:45Z</time>
      </trkpt>
      <trkpt lat="47.57005" lon="3.77508">
        <ele>182</ele>
        <time>2014-04-17T09:13:54Z</time>
      </trkpt>
      <trkpt lat="47.57004" lon="3.77501">
        <ele>184</ele>
        <time>2014-04-17T09:13:58Z</time>
      </trkpt>
      <trkpt lat="47.57003" lon="3.77494">
        <ele>184</ele>
        <time>2014-04-17T09:14:01Z</time>
      </trkpt>
      <trkpt lat="47.57" lon="3.77488">
        <ele>182</ele>
        <time>2014-04-17T09:14:07Z</time>
      </trkpt>
      <trkpt lat="47.57" lon="3.7748">
        <ele>192</ele>
        <time>2014-04-17T09:14:12Z</time>
      </trkpt>
      <trkpt lat="47.57" lon="3.77473">
        <ele>193</ele>
        <time>2014-04-17T09:14:17Z</time>
      </trkpt>
      <trkpt lat="47.57" lon="3.77466">
        <ele>178</ele>
        <time>2014-04-17T09:14:22Z</time>
      </trkpt>
      <trkpt lat="47.56999" lon="3.77458">
        <ele>194</ele>
        <time>2014-04-17T09:14:29Z</time>
      </trkpt>
      <trkpt lat="47.56995" lon="3.7745">
        <ele>194</ele>
        <time>2014-04-17T09:14:33Z</time>
      </trkpt>
      <trkpt lat="47.56993" lon="3.77444">
        <ele>194</ele>
        <time>2014-04-17T09:14:37Z</time>
      </trkpt>
      <trkpt lat="47.56991" lon="3.77438">
        <ele>193</ele>
        <time>2014-04-17T09:14:43Z</time>
      </trkpt>
      <trkpt lat="47.56989" lon="3.77432">
        <ele>193</ele>
        <time>2014-04-17T09:14:49Z</time>
      </trkpt>
      <trkpt lat="47.56988" lon="3.77425">
        <ele>192</ele>
        <time>2014-04-17T09:14:54Z</time>
      </trkpt>
      <trkpt lat="47.56984" lon="3.77418">
        <ele>193</ele>
        <time>2014-04-17T09:14:56Z</time>
      </trkpt>
      <trkpt lat="47.5698" lon="3.77414">
        <ele>196</ele>
        <time>2014-04-17T09:15:02Z</time>
      </trkpt>
      <trkpt lat="47.5698" lon="3.77408">
        <ele>196</ele>
        <time>2014-04-17T09:15:11Z</time>
      </trkpt>
      <trkpt lat="47.56981" lon="3.77401">
        <ele>196</ele>
        <time>2014-04-17T09:15:18Z</time>
      </trkpt>
      <trkpt lat="47.56977" lon="3.77397">
        <ele>198</ele>
        <time>2014-04-17T09:15:27Z</time>
      </trkpt>
      <trkpt lat="47.56975" lon="3.77389">
        <ele>199</ele>
        <time>2014-04-17T09:15:35Z</time>
      </trkpt>
      <trkpt lat="47.56973" lon="3.77381">
        <ele>199</ele>
        <time>2014-04-17T09:15:39Z</time>
      </trkpt>
      <trkpt lat="47.56968" lon="3.7737">
        <ele>200</ele>
        <time>2014-04-17T09:15:50Z</time>
      </trkpt>
      <trkpt lat="47.56965" lon="3.77364">
        <ele>200</ele>
        <time>2014-04-17T09:15:56Z</time>
      </trkpt>
      <trkpt lat="47.56961" lon="3.7736">
        <ele>201</ele>
        <time>2014-04-17T09:16:02Z</time>
      </trkpt>
      <trkpt lat="47.5696" lon="3.77352">
        <ele>201</ele>
        <time>2014-04-17T09:16:05Z</time>
      </trkpt>
      <trkpt lat="47.56958" lon="3.77346">
        <ele>202</ele>
        <time>2014-04-17T09:16:11Z</time>
      </trkpt>
      <trkpt lat="47.56957" lon="3.77338">
        <ele>202</ele>
        <time>2014-04-17T09:16:19Z</time>
      </trkpt>
      <trkpt lat="47.56954" lon="3.77332">
        <ele>202</ele>
        <time>2014-04-17T09:16:25Z</time>
      </trkpt>
      <trkpt lat="47.56953" lon="3.77328">
        <ele>203</ele>
        <time>2014-04-17T09:16:32Z</time>
      </trkpt>
      <trkpt lat="47.56945" lon="3.77309">
        <ele>204</ele>
        <time>2014-04-17T09:16:59Z</time>
      </trkpt>
      <trkpt lat="47.56946" lon="3.77301">
        <ele>203</ele>
        <time>2014-04-17T09:17:03Z</time>
      </trkpt>
      <trkpt lat="47.56945" lon="3.77292">
        <ele>203</ele>
        <time>2014-04-17T09:17:15Z</time>
      </trkpt>
      <trkpt lat="47.56946" lon="3.77285">
        <ele>203</ele>
        <time>2014-04-17T09:17:19Z</time>
      </trkpt>
      <trkpt lat="47.56948" lon="3.77278">
        <ele>203</ele>
        <time>2014-04-17T09:17:25Z</time>
      </trkpt>
      <trkpt lat="47.56949" lon="3.77271">
        <ele>203</ele>
        <time>2014-04-17T09:17:30Z</time>
      </trkpt>
      <trkpt lat="47.56949" lon="3.77263">
        <ele>203</ele>
        <time>2014-04-17T09:17:37Z</time>
      </trkpt>
      <trkpt lat="47.56946" lon="3.77256">
        <ele>204</ele>
        <time>2014-04-17T09:17:45Z</time>
      </trkpt>
      <trkpt lat="47.5694" lon="3.77251">
        <ele>205</ele>
        <time>2014-04-17T09:18:22Z</time>
      </trkpt>
      <trkpt lat="47.56934" lon="3.7725">
        <ele>207</ele>
        <time>2014-04-17T09:18:28Z</time>
      </trkpt>
      <trkpt lat="47.5693" lon="3.7725">
        <ele>208</ele>
        <time>2014-04-17T09:18:34Z</time>
      </trkpt>
      <trkpt lat="47.56924" lon="3.77247">
        <ele>210</ele>
        <time>2014-04-17T09:18:39Z</time>
      </trkpt>
      <trkpt lat="47.5692" lon="3.77245">
        <ele>211</ele>
        <time>2014-04-17T09:18:43Z</time>
      </trkpt>
      <trkpt lat="47.56915" lon="3.77243">
        <ele>215</ele>
        <time>2014-04-17T09:18:50Z</time>
      </trkpt>
      <trkpt lat="47.5691" lon="3.77244">
        <ele>215</ele>
        <time>2014-04-17T09:18:56Z</time>
      </trkpt>
      <trkpt lat="47.56895" lon="3.77238">
        <ele>217</ele>
        <time>2014-04-17T09:19:21Z</time>
      </trkpt>
      <trkpt lat="47.5689" lon="3.77238">
        <ele>217</ele>
        <time>2014-04-17T09:19:29Z</time>
      </trkpt>
      <trkpt lat="47.56885" lon="3.77235">
        <ele>218</ele>
        <time>2014-04-17T09:19:34Z</time>
      </trkpt>
      <trkpt lat="47.56879" lon="3.77236">
        <ele>218</ele>
        <time>2014-04-17T09:19:38Z</time>
      </trkpt>
      <trkpt lat="47.56874" lon="3.77233">
        <ele>219</ele>
        <time>2014-04-17T09:19:43Z</time>
      </trkpt>
      <trkpt lat="47.56869" lon="3.77234">
        <ele>219</ele>
        <time>2014-04-17T09:19:47Z</time>
      </trkpt>
      <trkpt lat="47.56865" lon="3.77233">
        <ele>219</ele>
        <time>2014-04-17T09:19:54Z</time>
      </trkpt>
      <trkpt lat="47.56861" lon="3.77229">
        <ele>220</ele>
        <time>2014-04-17T09:19:59Z</time>
      </trkpt>
      <trkpt lat="47.56855" lon="3.7723">
        <ele>220</ele>
        <time>2014-04-17T09:20:03Z</time>
      </trkpt>
      <trkpt lat="47.5685" lon="3.77231">
        <ele>220</ele>
        <time>2014-04-17T09:20:08Z</time>
      </trkpt>
      <trkpt lat="47.56845" lon="3.7723">
        <ele>221</ele>
        <time>2014-04-17T09:20:12Z</time>
      </trkpt>
      <trkpt lat="47.5684" lon="3.7723">
        <ele>221</ele>
        <time>2014-04-17T09:20:17Z</time>
      </trkpt>
      <trkpt lat="47.56835" lon="3.77229">
        <ele>221</ele>
        <time>2014-04-17T09:20:21Z</time>
      </trkpt>
      <trkpt lat="47.5683" lon="3.77227">
        <ele>226</ele>
        <time>2014-04-17T09:20:26Z</time>
      </trkpt>
      <trkpt lat="47.56825" lon="3.77226">
        <ele>226</ele>
        <time>2014-04-17T09:20:30Z</time>
      </trkpt>
      <trkpt lat="47.5682" lon="3.77223">
        <ele>226</ele>
        <time>2014-04-17T09:20:34Z</time>
      </trkpt>
      <trkpt lat="47.56816" lon="3.77221">
        <ele>227</ele>
        <time>2014-04-17T09:20:39Z</time>
      </trkpt>
      <trkpt lat="47.56811" lon="3.7722">
        <ele>227</ele>
        <time>2014-04-17T09:20:45Z</time>
      </trkpt>
      <trkpt lat="47.56806" lon="3.77218">
        <ele>227</ele>
        <time>2014-04-17T09:20:51Z</time>
      </trkpt>
      <trkpt lat="47.56802" lon="3.77217">
        <ele>227</ele>
        <time>2014-04-17T09:20:54Z</time>
      </trkpt>
      <trkpt lat="47.56796" lon="3.77215">
        <ele>227</ele>
        <time>2014-04-17T09:20:59Z</time>
      </trkpt>
      <trkpt lat="47.5679" lon="3.77217">
        <ele>228</ele>
        <time>2014-04-17T09:21:04Z</time>
      </trkpt>
      <trkpt lat="47.56785" lon="3.77218">
        <ele>228</ele>
        <time>2014-04-17T09:21:08Z</time>
      </trkpt>
      <trkpt lat="47.56781" lon="3.77215">
        <ele>228</ele>
        <time>2014-04-17T09:21:13Z</time>
      </trkpt>
      <trkpt lat="47.56776" lon="3.77215">
        <ele>229</ele>
        <time>2014-04-17T09:21:17Z</time>
      </trkpt>
      <trkpt lat="47.56773" lon="3.77222">
        <ele>229</ele>
        <time>2014-04-17T09:21:31Z</time>
      </trkpt>
      <trkpt lat="47.56775" lon="3.77229">
        <ele>229</ele>
        <time>2014-04-17T09:21:37Z</time>
      </trkpt>
      <trkpt lat="47.56778" lon="3.77234">
        <ele>229</ele>
        <time>2014-04-17T09:21:43Z</time>
      </trkpt>
      <trkpt lat="47.56783" lon="3.77239">
        <ele>229</ele>
        <time>2014-04-17T09:21:50Z</time>
      </trkpt>
      <trkpt lat="47.56787" lon="3.77244">
        <ele>229</ele>
        <time>2014-04-17T09:21:54Z</time>
      </trkpt>
      <trkpt lat="47.56786" lon="3.77251">
        <ele>231</ele>
        <time>2014-04-17T09:21:58Z</time>
      </trkpt>
      <trkpt lat="47.56786" lon="3.77259">
        <ele>231</ele>
        <time>2014-04-17T09:22:05Z</time>
      </trkpt>
      <trkpt lat="47.56786" lon="3.77265">
        <ele>231</ele>
        <time>2014-04-17T09:22:11Z</time>
      </trkpt>
      <trkpt lat="47.56787" lon="3.77272">
        <ele>231</ele>
        <time>2014-04-17T09:22:19Z</time>
      </trkpt>
      <trkpt lat="47.5679" lon="3.77277">
        <ele>231</ele>
        <time>2014-04-17T09:22:24Z</time>
      </trkpt>
      <trkpt lat="47.5679" lon="3.77284">
        <ele>231</ele>
        <time>2014-04-17T09:22:30Z</time>
      </trkpt>
      <trkpt lat="47.56789" lon="3.77292">
        <ele>231</ele>
        <time>2014-04-17T09:22:34Z</time>
      </trkpt>
      <trkpt lat="47.56787" lon="3.77299">
        <ele>231</ele>
        <time>2014-04-17T09:22:38Z</time>
      </trkpt>
      <trkpt lat="47.56783" lon="3.77305">
        <ele>231</ele>
        <time>2014-04-17T09:22:40Z</time>
      </trkpt>
      <trkpt lat="47.56779" lon="3.77312">
        <ele>231</ele>
        <time>2014-04-17T09:22:42Z</time>
      </trkpt>
      <trkpt lat="47.56779" lon="3.7732">
        <ele>232</ele>
        <time>2014-04-17T09:22:46Z</time>
      </trkpt>
      <trkpt lat="47.56782" lon="3.77325">
        <ele>232</ele>
        <time>2014-04-17T09:22:54Z</time>
      </trkpt>
      <trkpt lat="47.5678" lon="3.77333">
        <ele>232</ele>
        <time>2014-04-17T09:23:00Z</time>
      </trkpt>
      <trkpt lat="47.56775" lon="3.77337">
        <ele>228</ele>
        <time>2014-04-17T09:23:04Z</time>
      </trkpt>
      <trkpt lat="47.56769" lon="3.77337">
        <ele>229</ele>
        <time>2014-04-17T09:23:11Z</time>
      </trkpt>
      <trkpt lat="47.56765" lon="3.77338">
        <ele>230</ele>
        <time>2014-04-17T09:23:15Z</time>
      </trkpt>
      <trkpt lat="47.5676" lon="3.77336">
        <ele>231</ele>
        <time>2014-04-17T09:23:20Z</time>
      </trkpt>
      <trkpt lat="47.56755" lon="3.77335">
        <ele>232</ele>
        <time>2014-04-17T09:23:24Z</time>
      </trkpt>
      <trkpt lat="47.5675" lon="3.77333">
        <ele>234</ele>
        <time>2014-04-17T09:23:27Z</time>
      </trkpt>
      <trkpt lat="47.56745" lon="3.77334">
        <ele>231</ele>
        <time>2014-04-17T09:23:30Z</time>
      </trkpt>
      <trkpt lat="47.5674" lon="3.77333">
        <ele>233</ele>
        <time>2014-04-17T09:23:35Z</time>
      </trkpt>
      <trkpt lat="47.56735" lon="3.7733">
        <ele>233</ele>
        <time>2014-04-17T09:23:41Z</time>
      </trkpt>
      <trkpt lat="47.5673" lon="3.77328">
        <ele>232</ele>
        <time>2014-04-17T09:23:46Z</time>
      </trkpt>
      <trkpt lat="47.56725" lon="3.77328">
        <ele>232</ele>
        <time>2014-04-17T09:23:51Z</time>
      </trkpt>
      <trkpt lat="47.5672" lon="3.77326">
        <ele>232</ele>
        <time>2014-04-17T09:23:55Z</time>
      </trkpt>
      <trkpt lat="47.56714" lon="3.77325">
        <ele>232</ele>
        <time>2014-04-17T09:23:59Z</time>
      </trkpt>
      <trkpt lat="47.56709" lon="3.77322">
        <ele>231</ele>
        <time>2014-04-17T09:24:03Z</time>
      </trkpt>
      <trkpt lat="47.56703" lon="3.77321">
        <ele>231</ele>
        <time>2014-04-17T09:24:08Z</time>
      </trkpt>
      <trkpt lat="47.56699" lon="3.77318">
        <ele>231</ele>
        <time>2014-04-17T09:24:14Z</time>
      </trkpt>
      <trkpt lat="47.56695" lon="3.77313">
        <ele>231</ele>
        <time>2014-04-17T09:24:21Z</time>
      </trkpt>
      <trkpt lat="47.5669" lon="3.77311">
        <ele>230</ele>
        <time>2014-04-17T09:24:27Z</time>
      </trkpt>
      <trkpt lat="47.56685" lon="3.77309">
        <ele>230</ele>
        <time>2014-04-17T09:24:31Z</time>
      </trkpt>
      <trkpt lat="47.5668" lon="3.77309">
        <ele>230</ele>
        <time>2014-04-17T09:24:37Z</time>
      </trkpt>
      <trkpt lat="47.56675" lon="3.77308">
        <ele>230</ele>
        <time>2014-04-17T09:24:41Z</time>
      </trkpt>
      <trkpt lat="47.5667" lon="3.77307">
        <ele>230</ele>
        <time>2014-04-17T09:24:44Z</time>
      </trkpt>
      <trkpt lat="47.56667" lon="3.77302">
        <ele>230</ele>
        <time>2014-04-17T09:25:46Z</time>
      </trkpt>
      <trkpt lat="47.56665" lon="3.77297">
        <ele>226</ele>
        <time>2014-04-17T09:25:50Z</time>
      </trkpt>
      <trkpt lat="47.56661" lon="3.7729">
        <ele>227</ele>
        <time>2014-04-17T09:25:56Z</time>
      </trkpt>
      <trkpt lat="47.5666" lon="3.77283">
        <ele>227</ele>
        <time>2014-04-17T09:26:02Z</time>
      </trkpt>
      <trkpt lat="47.56658" lon="3.77276">
        <ele>228</ele>
        <time>2014-04-17T09:26:07Z</time>
      </trkpt>
      <trkpt lat="47.56656" lon="3.7727">
        <ele>229</ele>
        <time>2014-04-17T09:26:11Z</time>
      </trkpt>
      <trkpt lat="47.56653" lon="3.77262">
        <ele>229</ele>
        <time>2014-04-17T09:26:15Z</time>
      </trkpt>
      <trkpt lat="47.56651" lon="3.77254">
        <ele>230</ele>
        <time>2014-04-17T09:26:19Z</time>
      </trkpt>
      <trkpt lat="47.56651" lon="3.77246">
        <ele>232</ele>
        <time>2014-04-17T09:26:23Z</time>
      </trkpt>
      <trkpt lat="47.5665" lon="3.77237">
        <ele>232</ele>
        <time>2014-04-17T09:26:30Z</time>
      </trkpt>
      <trkpt lat="47.5665" lon="3.7723">
        <ele>231</ele>
        <time>2014-04-17T09:26:34Z</time>
      </trkpt>
      <trkpt lat="47.56649" lon="3.77222">
        <ele>231</ele>
        <time>2014-04-17T09:26:39Z</time>
      </trkpt>
      <trkpt lat="47.56647" lon="3.77215">
        <ele>231</ele>
        <time>2014-04-17T09:26:43Z</time>
      </trkpt>
      <trkpt lat="47.56645" lon="3.77209">
        <ele>231</ele>
        <time>2014-04-17T09:26:46Z</time>
      </trkpt>
      <trkpt lat="47.56643" lon="3.77202">
        <ele>230</ele>
        <time>2014-04-17T09:26:50Z</time>
      </trkpt>
      <trkpt lat="47.56642" lon="3.77195">
        <ele>230</ele>
        <time>2014-04-17T09:26:55Z</time>
      </trkpt>
      <trkpt lat="47.56644" lon="3.77188">
        <ele>230</ele>
        <time>2014-04-17T09:27:00Z</time>
      </trkpt>
      <trkpt lat="47.56647" lon="3.77183">
        <ele>230</ele>
        <time>2014-04-17T09:27:03Z</time>
      </trkpt>
      <trkpt lat="47.56651" lon="3.77176">
        <ele>230</ele>
        <time>2014-04-17T09:27:07Z</time>
      </trkpt>
      <trkpt lat="47.56655" lon="3.77173">
        <ele>230</ele>
        <time>2014-04-17T09:27:12Z</time>
      </trkpt>
      <trkpt lat="47.5666" lon="3.77173">
        <ele>230</ele>
        <time>2014-04-17T09:27:16Z</time>
      </trkpt>
      <trkpt lat="47.56696" lon="3.77183">
        <ele>231</ele>
        <time>2014-04-17T09:27:51Z</time>
      </trkpt>
      <trkpt lat="47.567" lon="3.77185">
        <ele>231</ele>
        <time>2014-04-17T09:27:56Z</time>
      </trkpt>
      <trkpt lat="47.56705" lon="3.77187">
        <ele>231</ele>
        <time>2014-04-17T09:28:01Z</time>
      </trkpt>
      <trkpt lat="47.5671" lon="3.77185">
        <ele>231</ele>
        <time>2014-04-17T09:28:26Z</time>
      </trkpt>
      <trkpt lat="47.56713" lon="3.77183">
        <ele>231</ele>
        <time>2014-04-17T09:28:39Z</time>
      </trkpt>
      <trkpt lat="47.56712" lon="3.77188">
        <ele>231</ele>
        <time>2014-04-17T09:29:00Z</time>
      </trkpt>
      <trkpt lat="47.56717" lon="3.7719">
        <ele>231</ele>
        <time>2014-04-17T09:29:07Z</time>
      </trkpt>
      <trkpt lat="47.56719" lon="3.77189">
        <ele>231</ele>
        <time>2014-04-17T09:29:24Z</time>
      </trkpt>
      <trkpt lat="47.56724" lon="3.77191">
        <ele>231</ele>
        <time>2014-04-17T09:29:30Z</time>
      </trkpt>
      <trkpt lat="47.56728" lon="3.77192">
        <ele>231</ele>
        <time>2014-04-17T09:29:40Z</time>
      </trkpt>
      <trkpt lat="47.56732" lon="3.77193">
        <ele>231</ele>
        <time>2014-04-17T09:29:50Z</time>
      </trkpt>
      <trkpt lat="47.56736" lon="3.77194">
        <ele>231</ele>
        <time>2014-04-17T09:29:58Z</time>
      </trkpt>
      <trkpt lat="47.56741" lon="3.77196">
        <ele>231</ele>
        <time>2014-04-17T09:30:08Z</time>
      </trkpt>
      <trkpt lat="47.56743" lon="3.77197">
        <ele>231</ele>
        <time>2014-04-17T09:30:24Z</time>
      </trkpt>
      <trkpt lat="47.56747" lon="3.77198">
        <ele>231</ele>
        <time>2014-04-17T09:30:34Z</time>
      </trkpt>
      <trkpt lat="47.5675" lon="3.77196">
        <ele>231</ele>
        <time>2014-04-17T09:30:44Z</time>
      </trkpt>
      <trkpt lat="47.56755" lon="3.77196">
        <ele>229</ele>
        <time>2014-04-17T09:30:49Z</time>
      </trkpt>
      <trkpt lat="47.56758" lon="3.77195">
        <ele>229</ele>
        <time>2014-04-17T09:30:56Z</time>
      </trkpt>
      <trkpt lat="47.56763" lon="3.77199">
        <ele>229</ele>
        <time>2014-04-17T09:31:02Z</time>
      </trkpt>
      <trkpt lat="47.56767" lon="3.77201">
        <ele>228</ele>
        <time>2014-04-17T09:31:05Z</time>
      </trkpt>
      <trkpt lat="47.56771" lon="3.77205">
        <ele>228</ele>
        <time>2014-04-17T09:31:15Z</time>
      </trkpt>
      <trkpt lat="47.56776" lon="3.77202">
        <ele>228</ele>
        <time>2014-04-17T09:31:39Z</time>
      </trkpt>
      <trkpt lat="47.5678" lon="3.77198">
        <ele>228</ele>
        <time>2014-04-17T09:31:45Z</time>
      </trkpt>
      <trkpt lat="47.56784" lon="3.77194">
        <ele>228</ele>
        <time>2014-04-17T09:31:50Z</time>
      </trkpt>
      <trkpt lat="47.56785" lon="3.77187">
        <ele>227</ele>
        <time>2014-04-17T09:31:55Z</time>
      </trkpt>
      <trkpt lat="47.56788" lon="3.77181">
        <ele>227</ele>
        <time>2014-04-17T09:32:02Z</time>
      </trkpt>
      <trkpt lat="47.56786" lon="3.77172">
        <ele>227</ele>
        <time>2014-04-17T09:32:07Z</time>
      </trkpt>
      <trkpt lat="47.56786" lon="3.77165">
        <ele>225</ele>
        <time>2014-04-17T09:32:11Z</time>
      </trkpt>
      <trkpt lat="47.56786" lon="3.77157">
        <ele>225</ele>
        <time>2014-04-17T09:32:14Z</time>
      </trkpt>
      <trkpt lat="47.56787" lon="3.7715">
        <ele>225</ele>
        <time>2014-04-17T09:32:17Z</time>
      </trkpt>
      <trkpt lat="47.56789" lon="3.77144">
        <ele>225</ele>
        <time>2014-04-17T09:32:22Z</time>
      </trkpt>
      <trkpt lat="47.56789" lon="3.77136">
        <ele>224</ele>
        <time>2014-04-17T09:32:27Z</time>
      </trkpt>
      <trkpt lat="47.56792" lon="3.7713">
        <ele>224</ele>
        <time>2014-04-17T09:32:32Z</time>
      </trkpt>
      <trkpt lat="47.56792" lon="3.77123">
        <ele>224</ele>
        <time>2014-04-17T09:32:38Z</time>
      </trkpt>
      <trkpt lat="47.56795" lon="3.77117">
        <ele>224</ele>
        <time>2014-04-17T09:32:42Z</time>
      </trkpt>
      <trkpt lat="47.56799" lon="3.77112">
        <ele>224</ele>
        <time>2014-04-17T09:32:44Z</time>
      </trkpt>
      <trkpt lat="47.56802" lon="3.77106">
        <ele>224</ele>
        <time>2014-04-17T09:32:48Z</time>
      </trkpt>
      <trkpt lat="47.56802" lon="3.77098">
        <ele>224</ele>
        <time>2014-04-17T09:32:52Z</time>
      </trkpt>
      <trkpt lat="47.56804" lon="3.77092">
        <ele>223</ele>
        <time>2014-04-17T09:32:57Z</time>
      </trkpt>
      <trkpt lat="47.56807" lon="3.77085">
        <ele>223</ele>
        <time>2014-04-17T09:33:01Z</time>
      </trkpt>
      <trkpt lat="47.5681" lon="3.7708">
        <ele>222</ele>
        <time>2014-04-17T09:33:04Z</time>
      </trkpt>
      <trkpt lat="47.56813" lon="3.77072">
        <ele>222</ele>
        <time>2014-04-17T09:33:08Z</time>
      </trkpt>
      <trkpt lat="47.56813" lon="3.77065">
        <ele>222</ele>
        <time>2014-04-17T09:33:11Z</time>
      </trkpt>
      <trkpt lat="47.56811" lon="3.77058">
        <ele>222</ele>
        <time>2014-04-17T09:33:14Z</time>
      </trkpt>
      <trkpt lat="47.56809" lon="3.77051">
        <ele>222</ele>
        <time>2014-04-17T09:33:18Z</time>
      </trkpt>
      <trkpt lat="47.56812" lon="3.77045">
        <ele>222</ele>
        <time>2014-04-17T09:33:22Z</time>
      </trkpt>
      <trkpt lat="47.56815" lon="3.77039">
        <ele>221</ele>
        <time>2014-04-17T09:33:27Z</time>
      </trkpt>
      <trkpt lat="47.56817" lon="3.77031">
        <ele>221</ele>
        <time>2014-04-17T09:33:31Z</time>
      </trkpt>
      <trkpt lat="47.56821" lon="3.77022">
        <ele>221</ele>
        <time>2014-04-17T09:33:36Z</time>
      </trkpt>
      <trkpt lat="47.56825" lon="3.77016">
        <ele>220</ele>
        <time>2014-04-17T09:33:40Z</time>
      </trkpt>
      <trkpt lat="47.56828" lon="3.77012">
        <ele>220</ele>
        <time>2014-04-17T09:33:43Z</time>
      </trkpt>
      <trkpt lat="47.56829" lon="3.77004">
        <ele>219</ele>
        <time>2014-04-17T09:33:48Z</time>
      </trkpt>
      <trkpt lat="47.56832" lon="3.76999">
        <ele>218</ele>
        <time>2014-04-17T09:33:52Z</time>
      </trkpt>
      <trkpt lat="47.56835" lon="3.76993">
        <ele>217</ele>
        <time>2014-04-17T09:33:55Z</time>
      </trkpt>
      <trkpt lat="47.56837" lon="3.76986">
        <ele>217</ele>
        <time>2014-04-17T09:34:00Z</time>
      </trkpt>
      <trkpt lat="47.56837" lon="3.7698">
        <ele>216</ele>
        <time>2014-04-17T09:34:04Z</time>
      </trkpt>
      <trkpt lat="47.56837" lon="3.76971">
        <ele>216</ele>
        <time>2014-04-17T09:34:09Z</time>
      </trkpt>
      <trkpt lat="47.56835" lon="3.76965">
        <ele>216</ele>
        <time>2014-04-17T09:34:15Z</time>
      </trkpt>
      <trkpt lat="47.56833" lon="3.76958">
        <ele>218</ele>
        <time>2014-04-17T09:34:22Z</time>
      </trkpt>
      <trkpt lat="47.56835" lon="3.76951">
        <ele>216</ele>
        <time>2014-04-17T09:34:28Z</time>
      </trkpt>
      <trkpt lat="47.56837" lon="3.76945">
        <ele>215</ele>
        <time>2014-04-17T09:34:31Z</time>
      </trkpt>
      <trkpt lat="47.56837" lon="3.7693">
        <ele>215</ele>
        <time>2014-04-17T09:34:38Z</time>
      </trkpt>
      <trkpt lat="47.56836" lon="3.76922">
        <ele>215</ele>
        <time>2014-04-17T09:34:41Z</time>
      </trkpt>
      <trkpt lat="47.56833" lon="3.76914">
        <ele>215</ele>
        <time>2014-04-17T09:34:46Z</time>
      </trkpt>
      <trkpt lat="47.5683" lon="3.76909">
        <ele>214</ele>
        <time>2014-04-17T09:34:49Z</time>
      </trkpt>
      <trkpt lat="47.5683" lon="3.76901">
        <ele>214</ele>
        <time>2014-04-17T09:34:52Z</time>
      </trkpt>
      <trkpt lat="47.56825" lon="3.76898">
        <ele>213</ele>
        <time>2014-04-17T09:35:01Z</time>
      </trkpt>
      <trkpt lat="47.56826" lon="3.76901">
        <ele>214</ele>
        <time>2014-04-17T09:35:17Z</time>
      </trkpt>
      <trkpt lat="47.56833" lon="3.76898">
        <ele>213</ele>
        <time>2014-04-17T09:36:00Z</time>
      </trkpt>
      <trkpt lat="47.56837" lon="3.76893">
        <ele>214</ele>
        <time>2014-04-17T09:36:04Z</time>
      </trkpt>
      <trkpt lat="47.56841" lon="3.76889">
        <ele>213</ele>
        <time>2014-04-17T09:36:09Z</time>
      </trkpt>
      <trkpt lat="47.56845" lon="3.76886">
        <ele>213</ele>
        <time>2014-04-17T09:36:16Z</time>
      </trkpt>
      <trkpt lat="47.56848" lon="3.76891">
        <ele>213</ele>
        <time>2014-04-17T09:36:20Z</time>
      </trkpt>
      <trkpt lat="47.56851" lon="3.76898">
        <ele>214</ele>
        <time>2014-04-17T09:36:27Z</time>
      </trkpt>
      <trkpt lat="47.56856" lon="3.769">
        <ele>214</ele>
        <time>2014-04-17T09:36:33Z</time>
      </trkpt>
      <trkpt lat="47.56861" lon="3.769">
        <ele>214</ele>
        <time>2014-04-17T09:36:37Z</time>
      </trkpt>
      <trkpt lat="47.56865" lon="3.76905">
        <ele>214</ele>
        <time>2014-04-17T09:36:42Z</time>
      </trkpt>
      <trkpt lat="47.56862" lon="3.76905">
        <ele>214</ele>
        <time>2014-04-17T09:37:06Z</time>
      </trkpt>
      <trkpt lat="47.56858" lon="3.76901">
        <ele>214</ele>
        <time>2014-04-17T09:37:10Z</time>
      </trkpt>
      <trkpt lat="47.56856" lon="3.76895">
        <ele>214</ele>
        <time>2014-04-17T09:37:17Z</time>
      </trkpt>
      <trkpt lat="47.56854" lon="3.76889">
        <ele>213</ele>
        <time>2014-04-17T09:37:34Z</time>
      </trkpt>
      <trkpt lat="47.56858" lon="3.76885">
        <ele>213</ele>
        <time>2014-04-17T09:37:38Z</time>
      </trkpt>
      <trkpt lat="47.56861" lon="3.76881">
        <ele>213</ele>
        <time>2014-04-17T09:37:43Z</time>
      </trkpt>
      <trkpt lat="47.56863" lon="3.76882">
        <ele>213</ele>
        <time>2014-04-17T09:38:00Z</time>
      </trkpt>
      <trkpt lat="47.56867" lon="3.76882">
        <ele>213</ele>
        <time>2014-04-17T09:38:10Z</time>
      </trkpt>
      <trkpt lat="47.56873" lon="3.76883">
        <ele>213</ele>
        <time>2014-04-17T09:38:17Z</time>
      </trkpt>
      <trkpt lat="47.5688" lon="3.76892">
        <ele>214</ele>
        <time>2014-04-17T09:38:25Z</time>
      </trkpt>
      <trkpt lat="47.56881" lon="3.76891">
        <ele>214</ele>
        <time>2014-04-17T09:38:40Z</time>
      </trkpt>
      <trkpt lat="47.56887" lon="3.76889">
        <ele>214</ele>
        <time>2014-04-17T09:38:47Z</time>
      </trkpt>
      <trkpt lat="47.56892" lon="3.76894">
        <ele>214</ele>
        <time>2014-04-17T09:38:50Z</time>
      </trkpt>
      <trkpt lat="47.56896" lon="3.76897">
        <ele>214</ele>
        <time>2014-04-17T09:38:54Z</time>
      </trkpt>
      <trkpt lat="47.56902" lon="3.76899">
        <ele>214</ele>
        <time>2014-04-17T09:38:58Z</time>
      </trkpt>
      <trkpt lat="47.56908" lon="3.76903">
        <ele>214</ele>
        <time>2014-04-17T09:39:03Z</time>
      </trkpt>
      <trkpt lat="47.56913" lon="3.76907">
        <ele>214</ele>
        <time>2014-04-17T09:39:14Z</time>
      </trkpt>
      <trkpt lat="47.56918" lon="3.76908">
        <ele>214</ele>
        <time>2014-04-17T09:39:22Z</time>
      </trkpt>
      <trkpt lat="47.56925" lon="3.76908">
        <ele>213</ele>
        <time>2014-04-17T09:39:39Z</time>
      </trkpt>
      <trkpt lat="47.56927" lon="3.76914">
        <ele>213</ele>
        <time>2014-04-17T09:39:45Z</time>
      </trkpt>
      <trkpt lat="47.56929" lon="3.7692">
        <ele>212</ele>
        <time>2014-04-17T09:39:50Z</time>
      </trkpt>
      <trkpt lat="47.56934" lon="3.76923">
        <ele>211</ele>
        <time>2014-04-17T09:39:54Z</time>
      </trkpt>
      <trkpt lat="47.56939" lon="3.76924">
        <ele>210</ele>
        <time>2014-04-17T09:39:59Z</time>
      </trkpt>
      <trkpt lat="47.56938" lon="3.76917">
        <ele>211</ele>
        <time>2014-04-17T09:40:09Z</time>
      </trkpt>
      <trkpt lat="47.56933" lon="3.76917">
        <ele>211</ele>
        <time>2014-04-17T09:40:12Z</time>
      </trkpt>
      <trkpt lat="47.56926" lon="3.76919">
        <ele>212</ele>
        <time>2014-04-17T09:40:33Z</time>
      </trkpt>
      <trkpt lat="47.5692" lon="3.76916">
        <ele>214</ele>
        <time>2014-04-17T09:40:37Z</time>
      </trkpt>
      <trkpt lat="47.56915" lon="3.76916">
        <ele>214</ele>
        <time>2014-04-17T09:40:41Z</time>
      </trkpt>
      <trkpt lat="47.56913" lon="3.76916">
        <ele>214</ele>
        <time>2014-04-17T09:40:59Z</time>
      </trkpt>
      <trkpt lat="47.56904" lon="3.76922">
        <ele>214</ele>
        <time>2014-04-17T09:41:05Z</time>
      </trkpt>
      <trkpt lat="47.56902" lon="3.76916">
        <ele>214</ele>
        <time>2014-04-17T09:41:17Z</time>
      </trkpt>
      <trkpt lat="47.56901" lon="3.76909">
        <ele>214</ele>
        <time>2014-04-17T09:41:21Z</time>
      </trkpt>
      <trkpt lat="47.56898" lon="3.76901">
        <ele>214</ele>
        <time>2014-04-17T09:41:26Z</time>
      </trkpt>
      <trkpt lat="47.56896" lon="3.76894">
        <ele>214</ele>
        <time>2014-04-17T09:41:30Z</time>
      </trkpt>
      <trkpt lat="47.56897" lon="3.76887">
        <ele>214</ele>
        <time>2014-04-17T09:41:33Z</time>
      </trkpt>
      <trkpt lat="47.56897" lon="3.76879">
        <ele>214</ele>
        <time>2014-04-17T09:41:38Z</time>
      </trkpt>
      <trkpt lat="47.56894" lon="3.76869">
        <ele>214</ele>
        <time>2014-04-17T09:41:42Z</time>
      </trkpt>
      <trkpt lat="47.5689" lon="3.76862">
        <ele>214</ele>
        <time>2014-04-17T09:41:45Z</time>
      </trkpt>
      <trkpt lat="47.56886" lon="3.76857">
        <ele>213</ele>
        <time>2014-04-17T09:41:48Z</time>
      </trkpt>
      <trkpt lat="47.56882" lon="3.76852">
        <ele>213</ele>
        <time>2014-04-17T09:41:54Z</time>
      </trkpt>
      <trkpt lat="47.56879" lon="3.76848">
        <ele>213</ele>
        <time>2014-04-17T09:41:58Z</time>
      </trkpt>
      <trkpt lat="47.56873" lon="3.76844">
        <ele>213</ele>
        <time>2014-04-17T09:42:03Z</time>
      </trkpt>
      <trkpt lat="47.5687" lon="3.76839">
        <ele>212</ele>
        <time>2014-04-17T09:42:08Z</time>
      </trkpt>
      <trkpt lat="47.56866" lon="3.76835">
        <ele>212</ele>
        <time>2014-04-17T09:42:13Z</time>
      </trkpt>
      <trkpt lat="47.56864" lon="3.76827">
        <ele>211</ele>
        <time>2014-04-17T09:42:18Z</time>
      </trkpt>
      <trkpt lat="47.56867" lon="3.76819">
        <ele>212</ele>
        <time>2014-04-17T09:42:22Z</time>
      </trkpt>
      <trkpt lat="47.56867" lon="3.76811">
        <ele>212</ele>
        <time>2014-04-17T09:42:26Z</time>
      </trkpt>
      <trkpt lat="47.56866" lon="3.76803">
        <ele>212</ele>
        <time>2014-04-17T09:42:31Z</time>
      </trkpt>
      <trkpt lat="47.56866" lon="3.76797">
        <ele>212</ele>
        <time>2014-04-17T09:42:34Z</time>
      </trkpt>
      <trkpt lat="47.56866" lon="3.7679">
        <ele>212</ele>
        <time>2014-04-17T09:42:37Z</time>
      </trkpt>
      <trkpt lat="47.56864" lon="3.76783">
        <ele>212</ele>
        <time>2014-04-17T09:42:40Z</time>
      </trkpt>
      <trkpt lat="47.56861" lon="3.76778">
        <ele>211</ele>
        <time>2014-04-17T09:42:44Z</time>
      </trkpt>
      <trkpt lat="47.56857" lon="3.76773">
        <ele>211</ele>
        <time>2014-04-17T09:42:49Z</time>
      </trkpt>
      <trkpt lat="47.56855" lon="3.76766">
        <ele>211</ele>
        <time>2014-04-17T09:42:53Z</time>
      </trkpt>
      <trkpt lat="47.56851" lon="3.76762">
        <ele>210</ele>
        <time>2014-04-17T09:42:56Z</time>
      </trkpt>
      <trkpt lat="47.56849" lon="3.76755">
        <ele>210</ele>
        <time>2014-04-17T09:43:00Z</time>
      </trkpt>
      <trkpt lat="47.56846" lon="3.76748">
        <ele>210</ele>
        <time>2014-04-17T09:43:04Z</time>
      </trkpt>
      <trkpt lat="47.56844" lon="3.76741">
        <ele>210</ele>
        <time>2014-04-17T09:43:08Z</time>
      </trkpt>
      <trkpt lat="47.5684" lon="3.76735">
        <ele>210</ele>
        <time>2014-04-17T09:43:13Z</time>
      </trkpt>
      <trkpt lat="47.56837" lon="3.7673">
        <ele>211</ele>
        <time>2014-04-17T09:43:18Z</time>
      </trkpt>
      <trkpt lat="47.56831" lon="3.76725">
        <ele>203</ele>
        <time>2014-04-17T09:43:23Z</time>
      </trkpt>
      <trkpt lat="47.56832" lon="3.76729">
        <ele>204</ele>
        <time>2014-04-17T09:43:43Z</time>
      </trkpt>
      <trkpt lat="47.56836" lon="3.76733">
        <ele>210</ele>
        <time>2014-04-17T09:43:49Z</time>
      </trkpt>
      <trkpt lat="47.56838" lon="3.76739">
        <ele>210</ele>
        <time>2014-04-17T09:43:55Z</time>
      </trkpt>
      <trkpt lat="47.5684" lon="3.76746">
        <ele>209</ele>
        <time>2014-04-17T09:44:01Z</time>
      </trkpt>
      <trkpt lat="47.56841" lon="3.76753">
        <ele>209</ele>
        <time>2014-04-17T09:44:07Z</time>
      </trkpt>
      <trkpt lat="47.56845" lon="3.7676">
        <ele>209</ele>
        <time>2014-04-17T09:44:12Z</time>
      </trkpt>
      <trkpt lat="47.56847" lon="3.76767">
        <ele>210</ele>
        <time>2014-04-17T09:44:16Z</time>
      </trkpt>
      <trkpt lat="47.56851" lon="3.76774">
        <ele>211</ele>
        <time>2014-04-17T09:44:20Z</time>
      </trkpt>
      <trkpt lat="47.56852" lon="3.7678">
        <ele>211</ele>
        <time>2014-04-17T09:44:24Z</time>
      </trkpt>
      <trkpt lat="47.56851" lon="3.76783">
        <ele>211</ele>
        <time>2014-04-17T09:44:30Z</time>
      </trkpt>
      <trkpt lat="47.56847" lon="3.76782">
        <ele>211</ele>
        <time>2014-04-17T09:44:38Z</time>
      </trkpt>
      <trkpt lat="47.56843" lon="3.76783">
        <ele>211</ele>
        <time>2014-04-17T09:44:55Z</time>
      </trkpt>
      <trkpt lat="47.56838" lon="3.76783">
        <ele>210</ele>
        <time>2014-04-17T09:44:59Z</time>
      </trkpt>
      <trkpt lat="47.56833" lon="3.76783">
        <ele>205</ele>
        <time>2014-04-17T09:45:06Z</time>
      </trkpt>
      <trkpt lat="47.56828" lon="3.76781">
        <ele>205</ele>
        <time>2014-04-17T09:45:09Z</time>
      </trkpt>
      <trkpt lat="47.56822" lon="3.7678">
        <ele>204</ele>
        <time>2014-04-17T09:45:13Z</time>
      </trkpt>
      <trkpt lat="47.56816" lon="3.76784">
        <ele>204</ele>
        <time>2014-04-17T09:45:16Z</time>
      </trkpt>
      <trkpt lat="47.56811" lon="3.76789">
        <ele>204</ele>
        <time>2014-04-17T09:45:18Z</time>
      </trkpt>
      <trkpt lat="47.56806" lon="3.76793">
        <ele>204</ele>
        <time>2014-04-17T09:45:20Z</time>
      </trkpt>
      <trkpt lat="47.56803" lon="3.76792">
        <ele>204</ele>
        <time>2014-04-17T09:45:22Z</time>
      </trkpt>
      <trkpt lat="47.56801" lon="3.76789">
        <ele>203</ele>
        <time>2014-04-17T09:45:24Z</time>
      </trkpt>
      <trkpt lat="47.56797" lon="3.76785">
        <ele>203</ele>
        <time>2014-04-17T09:45:28Z</time>
      </trkpt>
      <trkpt lat="47.56793" lon="3.76779">
        <ele>202</ele>
        <time>2014-04-17T09:45:32Z</time>
      </trkpt>
      <trkpt lat="47.56788" lon="3.76776">
        <ele>202</ele>
        <time>2014-04-17T09:45:35Z</time>
      </trkpt>
      <trkpt lat="47.56785" lon="3.7677">
        <ele>201</ele>
        <time>2014-04-17T09:45:38Z</time>
      </trkpt>
      <trkpt lat="47.5678" lon="3.76765">
        <ele>200</ele>
        <time>2014-04-17T09:45:41Z</time>
      </trkpt>
      <trkpt lat="47.56774" lon="3.76763">
        <ele>199</ele>
        <time>2014-04-17T09:45:44Z</time>
      </trkpt>
      <trkpt lat="47.5677" lon="3.7676">
        <ele>199</ele>
        <time>2014-04-17T09:45:46Z</time>
      </trkpt>
      <trkpt lat="47.56766" lon="3.76756">
        <ele>197</ele>
        <time>2014-04-17T09:45:48Z</time>
      </trkpt>
      <trkpt lat="47.56763" lon="3.76749">
        <ele>195</ele>
        <time>2014-04-17T09:45:50Z</time>
      </trkpt>
      <trkpt lat="47.56761" lon="3.76741">
        <ele>195</ele>
        <time>2014-04-17T09:45:53Z</time>
      </trkpt>
      <trkpt lat="47.56759" lon="3.76735">
        <ele>195</ele>
        <time>2014-04-17T09:45:57Z</time>
      </trkpt>
      <trkpt lat="47.56757" lon="3.76728">
        <ele>196</ele>
        <time>2014-04-17T09:46:00Z</time>
      </trkpt>
      <trkpt lat="47.56755" lon="3.76721">
        <ele>196</ele>
        <time>2014-04-17T09:46:03Z</time>
      </trkpt>
      <trkpt lat="47.56752" lon="3.76713">
        <ele>197</ele>
        <time>2014-04-17T09:46:06Z</time>
      </trkpt>
      <trkpt lat="47.5675" lon="3.76705">
        <ele>197</ele>
        <time>2014-04-17T09:46:09Z</time>
      </trkpt>
      <trkpt lat="47.56747" lon="3.767">
        <ele>185</ele>
        <time>2014-04-17T09:46:12Z</time>
      </trkpt>
      <trkpt lat="47.56743" lon="3.76696">
        <ele>185</ele>
        <time>2014-04-17T09:46:16Z</time>
      </trkpt>
      <trkpt lat="47.56737" lon="3.76696">
        <ele>184</ele>
        <time>2014-04-17T09:46:20Z</time>
      </trkpt>
      <trkpt lat="47.56732" lon="3.76696">
        <ele>184</ele>
        <time>2014-04-17T09:46:23Z</time>
      </trkpt>
      <trkpt lat="47.56726" lon="3.76697">
        <ele>183</ele>
        <time>2014-04-17T09:46:27Z</time>
      </trkpt>
      <trkpt lat="47.5672" lon="3.76699">
        <ele>182</ele>
        <time>2014-04-17T09:46:30Z</time>
      </trkpt>
      <trkpt lat="47.56715" lon="3.767">
        <ele>181</ele>
        <time>2014-04-17T09:46:33Z</time>
      </trkpt>
      <trkpt lat="47.56714" lon="3.76693">
        <ele>181</ele>
        <time>2014-04-17T09:46:39Z</time>
      </trkpt>
      <trkpt lat="47.56711" lon="3.76687">
        <ele>181</ele>
        <time>2014-04-17T09:46:43Z</time>
      </trkpt>
      <trkpt lat="47.56706" lon="3.76685">
        <ele>180</ele>
        <time>2014-04-17T09:46:48Z</time>
      </trkpt>
      <trkpt lat="47.56702" lon="3.76686">
        <ele>179</ele>
        <time>2014-04-17T09:46:50Z</time>
      </trkpt>
      <trkpt lat="47.56697" lon="3.76687">
        <ele>178</ele>
        <time>2014-04-17T09:46:52Z</time>
      </trkpt>
      <trkpt lat="47.56692" lon="3.76688">
        <ele>177</ele>
        <time>2014-04-17T09:46:55Z</time>
      </trkpt>
      <trkpt lat="47.56687" lon="3.76686">
        <ele>176</ele>
        <time>2014-04-17T09:46:58Z</time>
      </trkpt>
      <trkpt lat="47.56681" lon="3.76684">
        <ele>175</ele>
        <time>2014-04-17T09:47:01Z</time>
      </trkpt>
      <trkpt lat="47.56676" lon="3.76684">
        <ele>174</ele>
        <time>2014-04-17T09:47:03Z</time>
      </trkpt>
      <trkpt lat="47.56671" lon="3.76684">
        <ele>173</ele>
        <time>2014-04-17T09:47:06Z</time>
      </trkpt>
      <trkpt lat="47.56665" lon="3.76681">
        <ele>164</ele>
        <time>2014-04-17T09:47:09Z</time>
      </trkpt>
      <trkpt lat="47.56659" lon="3.7668">
        <ele>164</ele>
        <time>2014-04-17T09:47:13Z</time>
      </trkpt>
      <trkpt lat="47.56648" lon="3.76689">
        <ele>163</ele>
        <time>2014-04-17T09:47:19Z</time>
      </trkpt>
      <trkpt lat="47.56642" lon="3.76683">
        <ele>162</ele>
        <time>2014-04-17T09:47:22Z</time>
      </trkpt>
      <trkpt lat="47.56643" lon="3.76675">
        <ele>162</ele>
        <time>2014-04-17T09:47:32Z</time>
      </trkpt>
      <trkpt lat="47.56637" lon="3.76675">
        <ele>161</ele>
        <time>2014-04-17T09:47:40Z</time>
      </trkpt>
      <trkpt lat="47.56635" lon="3.76682">
        <ele>161</ele>
        <time>2014-04-17T09:48:24Z</time>
      </trkpt>
      <trkpt lat="47.56621" lon="3.76711">
        <ele>161</ele>
        <time>2014-04-17T09:48:56Z</time>
      </trkpt>
      <trkpt lat="47.56616" lon="3.76711">
        <ele>161</ele>
        <time>2014-04-17T09:49:01Z</time>
      </trkpt>
      <trkpt lat="47.56612" lon="3.76716">
        <ele>161</ele>
        <time>2014-04-17T09:49:08Z</time>
      </trkpt>
      <trkpt lat="47.56609" lon="3.76721">
        <ele>161</ele>
        <time>2014-04-17T09:49:11Z</time>
      </trkpt>
      <trkpt lat="47.56605" lon="3.76726">
        <ele>161</ele>
        <time>2014-04-17T09:49:14Z</time>
      </trkpt>
      <trkpt lat="47.56602" lon="3.76731">
        <ele>161</ele>
        <time>2014-04-17T09:49:17Z</time>
      </trkpt>
      <trkpt lat="47.56596" lon="3.76736">
        <ele>160</ele>
        <time>2014-04-17T09:49:20Z</time>
      </trkpt>
      <trkpt lat="47.56591" lon="3.7674">
        <ele>160</ele>
        <time>2014-04-17T09:49:23Z</time>
      </trkpt>
      <trkpt lat="47.56586" lon="3.76743">
        <ele>160</ele>
        <time>2014-04-17T09:49:26Z</time>
      </trkpt>
      <trkpt lat="47.56582" lon="3.76746">
        <ele>158</ele>
        <time>2014-04-17T09:49:29Z</time>
      </trkpt>
      <trkpt lat="47.56577" lon="3.76749">
        <ele>157</ele>
        <time>2014-04-17T09:49:33Z</time>
      </trkpt>
      <trkpt lat="47.56571" lon="3.76749">
        <ele>156</ele>
        <time>2014-04-17T09:49:37Z</time>
      </trkpt>
      <trkpt lat="47.56567" lon="3.76749">
        <ele>156</ele>
        <time>2014-04-17T09:49:41Z</time>
      </trkpt>
      <trkpt lat="47.56562" lon="3.76751">
        <ele>164</ele>
        <time>2014-04-17T09:49:45Z</time>
      </trkpt>
      <trkpt lat="47.56557" lon="3.76749">
        <ele>155</ele>
        <time>2014-04-17T09:49:50Z</time>
      </trkpt>
      <trkpt lat="47.56552" lon="3.76748">
        <ele>154</ele>
        <time>2014-04-17T09:49:55Z</time>
      </trkpt>
      <trkpt lat="47.56547" lon="3.76748">
        <ele>154</ele>
        <time>2014-04-17T09:50:00Z</time>
      </trkpt>
      <trkpt lat="47.56541" lon="3.76747">
        <ele>154</ele>
        <time>2014-04-17T09:50:06Z</time>
      </trkpt>
      <trkpt lat="47.56537" lon="3.76746">
        <ele>154</ele>
        <time>2014-04-17T09:50:09Z</time>
      </trkpt>
      <trkpt lat="47.56531" lon="3.76745">
        <ele>153</ele>
        <time>2014-04-17T09:50:12Z</time>
      </trkpt>
      <trkpt lat="47.56527" lon="3.76745">
        <ele>153</ele>
        <time>2014-04-17T09:50:15Z</time>
      </trkpt>
      <trkpt lat="47.56521" lon="3.76744">
        <ele>153</ele>
        <time>2014-04-17T09:50:19Z</time>
      </trkpt>
      <trkpt lat="47.56516" lon="3.76743">
        <ele>154</ele>
        <time>2014-04-17T09:50:23Z</time>
      </trkpt>
      <trkpt lat="47.56511" lon="3.76742">
        <ele>154</ele>
        <time>2014-04-17T09:50:27Z</time>
      </trkpt>
      <trkpt lat="47.56505" lon="3.7674">
        <ele>154</ele>
        <time>2014-04-17T09:50:31Z</time>
      </trkpt>
      <trkpt lat="47.565" lon="3.7674">
        <ele>154</ele>
        <time>2014-04-17T09:50:35Z</time>
      </trkpt>
      <trkpt lat="47.56495" lon="3.76739">
        <ele>154</ele>
        <time>2014-04-17T09:50:39Z</time>
      </trkpt>
      <trkpt lat="47.56489" lon="3.76735">
        <ele>153</ele>
        <time>2014-04-17T09:50:43Z</time>
      </trkpt>
      <trkpt lat="47.56484" lon="3.76731">
        <ele>153</ele>
        <time>2014-04-17T09:50:46Z</time>
      </trkpt>
      <trkpt lat="47.56479" lon="3.76728">
        <ele>152</ele>
        <time>2014-04-17T09:50:49Z</time>
      </trkpt>
      <trkpt lat="47.56475" lon="3.76726">
        <ele>152</ele>
        <time>2014-04-17T09:50:52Z</time>
      </trkpt>
      <trkpt lat="47.56469" lon="3.76724">
        <ele>152</ele>
        <time>2014-04-17T09:50:56Z</time>
      </trkpt>
      <trkpt lat="47.56464" lon="3.76724">
        <ele>152</ele>
        <time>2014-04-17T09:51:00Z</time>
      </trkpt>
      <trkpt lat="47.56459" lon="3.76724">
        <ele>152</ele>
        <time>2014-04-17T09:51:04Z</time>
      </trkpt>
      <trkpt lat="47.56456" lon="3.76719">
        <ele>152</ele>
        <time>2014-04-17T09:51:11Z</time>
      </trkpt>
      <trkpt lat="47.56461" lon="3.76717">
        <ele>152</ele>
        <time>2014-04-17T09:51:14Z</time>
      </trkpt>
      <trkpt lat="47.56466" lon="3.76715">
        <ele>152</ele>
        <time>2014-04-17T09:51:17Z</time>
      </trkpt>
      <trkpt lat="47.56471" lon="3.76712">
        <ele>152</ele>
        <time>2014-04-17T09:51:21Z</time>
      </trkpt>
      <trkpt lat="47.56475" lon="3.76706">
        <ele>152</ele>
        <time>2014-04-17T09:51:26Z</time>
      </trkpt>
      <trkpt lat="47.56477" lon="3.767">
        <ele>151</ele>
        <time>2014-04-17T09:51:30Z</time>
      </trkpt>
      <trkpt lat="47.56479" lon="3.76694">
        <ele>151</ele>
        <time>2014-04-17T09:51:34Z</time>
      </trkpt>
      <trkpt lat="47.56484" lon="3.7669">
        <ele>151</ele>
        <time>2014-04-17T09:51:38Z</time>
      </trkpt>
      <trkpt lat="47.56488" lon="3.76686">
        <ele>150</ele>
        <time>2014-04-17T09:51:42Z</time>
      </trkpt>
      <trkpt lat="47.56492" lon="3.7668">
        <ele>149</ele>
        <time>2014-04-17T09:51:46Z</time>
      </trkpt>
      <trkpt lat="47.56498" lon="3.76669">
        <ele>148</ele>
        <time>2014-04-17T09:51:53Z</time>
      </trkpt>
      <trkpt lat="47.56501" lon="3.76659">
        <ele>149</ele>
        <time>2014-04-17T09:51:57Z</time>
      </trkpt>
      <trkpt lat="47.56504" lon="3.76651">
        <ele>150</ele>
        <time>2014-04-17T09:52:00Z</time>
      </trkpt>
      <trkpt lat="47.56508" lon="3.76646">
        <ele>150</ele>
        <time>2014-04-17T09:52:03Z</time>
      </trkpt>
      <trkpt lat="47.56513" lon="3.76642">
        <ele>151</ele>
        <time>2014-04-17T09:52:06Z</time>
      </trkpt>
      <trkpt lat="47.56518" lon="3.76639">
        <ele>151</ele>
        <time>2014-04-17T09:52:09Z</time>
      </trkpt>
      <trkpt lat="47.56523" lon="3.76636">
        <ele>152</ele>
        <time>2014-04-17T09:52:13Z</time>
      </trkpt>
      <trkpt lat="47.56528" lon="3.76633">
        <ele>152</ele>
        <time>2014-04-17T09:52:17Z</time>
      </trkpt>
      <trkpt lat="47.56532" lon="3.7663">
        <ele>152</ele>
        <time>2014-04-17T09:52:20Z</time>
      </trkpt>
      <trkpt lat="47.56537" lon="3.76626">
        <ele>152</ele>
        <time>2014-04-17T09:52:24Z</time>
      </trkpt>
      <trkpt lat="47.5654" lon="3.76621">
        <ele>153</ele>
        <time>2014-04-17T09:52:31Z</time>
      </trkpt>
      <trkpt lat="47.56544" lon="3.76618">
        <ele>153</ele>
        <time>2014-04-17T09:52:37Z</time>
      </trkpt>
      <trkpt lat="47.56548" lon="3.76613">
        <ele>153</ele>
        <time>2014-04-17T09:52:41Z</time>
      </trkpt>
      <trkpt lat="47.56551" lon="3.76608">
        <ele>154</ele>
        <time>2014-04-17T09:52:44Z</time>
      </trkpt>
      <trkpt lat="47.56555" lon="3.76603">
        <ele>154</ele>
        <time>2014-04-17T09:52:48Z</time>
      </trkpt>
      <trkpt lat="47.56557" lon="3.76597">
        <ele>155</ele>
        <time>2014-04-17T09:52:52Z</time>
      </trkpt>
      <trkpt lat="47.56555" lon="3.76591">
        <ele>155</ele>
        <time>2014-04-17T09:52:57Z</time>
      </trkpt>
      <trkpt lat="47.56554" lon="3.76584">
        <ele>155</ele>
        <time>2014-04-17T09:53:02Z</time>
      </trkpt>
      <trkpt lat="47.5655" lon="3.76577">
        <ele>161</ele>
        <time>2014-04-17T09:53:08Z</time>
      </trkpt>
      <trkpt lat="47.56547" lon="3.76571">
        <ele>161</ele>
        <time>2014-04-17T09:53:12Z</time>
      </trkpt>
      <trkpt lat="47.56544" lon="3.76565">
        <ele>162</ele>
        <time>2014-04-17T09:53:16Z</time>
      </trkpt>
      <trkpt lat="47.56541" lon="3.76559">
        <ele>162</ele>
        <time>2014-04-17T09:53:23Z</time>
      </trkpt>
      <trkpt lat="47.56538" lon="3.76554">
        <ele>162</ele>
        <time>2014-04-17T09:53:28Z</time>
      </trkpt>
      <trkpt lat="47.56534" lon="3.76548">
        <ele>162</ele>
        <time>2014-04-17T09:53:32Z</time>
      </trkpt>
      <trkpt lat="47.5653" lon="3.76543">
        <ele>162</ele>
        <time>2014-04-17T09:53:36Z</time>
      </trkpt>
      <trkpt lat="47.56529" lon="3.76536">
        <ele>162</ele>
        <time>2014-04-17T09:53:40Z</time>
      </trkpt>
      <trkpt lat="47.56528" lon="3.76529">
        <ele>162</ele>
        <time>2014-04-17T09:53:44Z</time>
      </trkpt>
      <trkpt lat="47.56526" lon="3.76522">
        <ele>163</ele>
        <time>2014-04-17T09:53:48Z</time>
      </trkpt>
      <trkpt lat="47.56527" lon="3.76515">
        <ele>163</ele>
        <time>2014-04-17T09:53:54Z</time>
      </trkpt>
      <trkpt lat="47.56529" lon="3.76508">
        <ele>163</ele>
        <time>2014-04-17T09:53:59Z</time>
      </trkpt>
      <trkpt lat="47.56526" lon="3.76498">
        <ele>167</ele>
        <time>2014-04-17T09:54:07Z</time>
      </trkpt>
      <trkpt lat="47.56525" lon="3.76488">
        <ele>167</ele>
        <time>2014-04-17T09:54:12Z</time>
      </trkpt>
      <trkpt lat="47.56521" lon="3.76479">
        <ele>167</ele>
        <time>2014-04-17T09:54:18Z</time>
      </trkpt>
      <trkpt lat="47.56519" lon="3.76472">
        <ele>167</ele>
        <time>2014-04-17T09:54:21Z</time>
      </trkpt>
      <trkpt lat="47.56518" lon="3.76466">
        <ele>167</ele>
        <time>2014-04-17T09:54:24Z</time>
      </trkpt>
      <trkpt lat="47.56519" lon="3.76458">
        <ele>168</ele>
        <time>2014-04-17T09:54:29Z</time>
      </trkpt>
      <trkpt lat="47.56519" lon="3.76445">
        <ele>167</ele>
        <time>2014-04-17T09:54:36Z</time>
      </trkpt>
      <trkpt lat="47.56514" lon="3.76438">
        <ele>167</ele>
        <time>2014-04-17T09:54:39Z</time>
      </trkpt>
      <trkpt lat="47.56512" lon="3.76431">
        <ele>166</ele>
        <time>2014-04-17T09:54:42Z</time>
      </trkpt>
      <trkpt lat="47.5651" lon="3.76423">
        <ele>165</ele>
        <time>2014-04-17T09:54:45Z</time>
      </trkpt>
      <trkpt lat="47.56508" lon="3.76416">
        <ele>165</ele>
        <time>2014-04-17T09:54:48Z</time>
      </trkpt>
      <trkpt lat="47.56505" lon="3.7641">
        <ele>165</ele>
        <time>2014-04-17T09:54:52Z</time>
      </trkpt>
      <trkpt lat="47.56502" lon="3.76404">
        <ele>167</ele>
        <time>2014-04-17T09:54:57Z</time>
      </trkpt>
      <trkpt lat="47.565" lon="3.76396">
        <ele>166</ele>
        <time>2014-04-17T09:55:00Z</time>
      </trkpt>
      <trkpt lat="47.56497" lon="3.76372">
        <ele>168</ele>
        <time>2014-04-17T09:55:11Z</time>
      </trkpt>
      <trkpt lat="47.56492" lon="3.76367">
        <ele>168</ele>
        <time>2014-04-17T09:55:19Z</time>
      </trkpt>
      <trkpt lat="47.56488" lon="3.76362">
        <ele>169</ele>
        <time>2014-04-17T09:55:28Z</time>
      </trkpt>
      <trkpt lat="47.5649" lon="3.76354">
        <ele>169</ele>
        <time>2014-04-17T09:55:33Z</time>
      </trkpt>
      <trkpt lat="47.56487" lon="3.76344">
        <ele>168</ele>
        <time>2014-04-17T09:55:40Z</time>
      </trkpt>
      <trkpt lat="47.56485" lon="3.76337">
        <ele>168</ele>
        <time>2014-04-17T09:55:43Z</time>
      </trkpt>
      <trkpt lat="47.56482" lon="3.76329">
        <ele>169</ele>
        <time>2014-04-17T09:55:47Z</time>
      </trkpt>
      <trkpt lat="47.56481" lon="3.76322">
        <ele>170</ele>
        <time>2014-04-17T09:55:50Z</time>
      </trkpt>
      <trkpt lat="47.56479" lon="3.76315">
        <ele>170</ele>
        <time>2014-04-17T09:55:54Z</time>
      </trkpt>
      <trkpt lat="47.5648" lon="3.76309">
        <ele>170</ele>
        <time>2014-04-17T09:55:59Z</time>
      </trkpt>
      <trkpt lat="47.56481" lon="3.76302">
        <ele>170</ele>
        <time>2014-04-17T09:56:05Z</time>
      </trkpt>
      <trkpt lat="47.56482" lon="3.76294">
        <ele>170</ele>
        <time>2014-04-17T09:56:10Z</time>
      </trkpt>
      <trkpt lat="47.56483" lon="3.76286">
        <ele>170</ele>
        <time>2014-04-17T09:56:14Z</time>
      </trkpt>
      <trkpt lat="47.56485" lon="3.76273">
        <ele>170</ele>
        <time>2014-04-17T09:56:23Z</time>
      </trkpt>
      <trkpt lat="47.56486" lon="3.76266">
        <ele>170</ele>
        <time>2014-04-17T09:56:26Z</time>
      </trkpt>
      <trkpt lat="47.56487" lon="3.7626">
        <ele>170</ele>
        <time>2014-04-17T09:56:29Z</time>
      </trkpt>
      <trkpt lat="47.56487" lon="3.76251">
        <ele>170</ele>
        <time>2014-04-17T09:56:32Z</time>
      </trkpt>
      <trkpt lat="47.56489" lon="3.76244">
        <ele>170</ele>
        <time>2014-04-17T09:56:36Z</time>
      </trkpt>
      <trkpt lat="47.5649" lon="3.76237">
        <ele>170</ele>
        <time>2014-04-17T09:56:41Z</time>
      </trkpt>
      <trkpt lat="47.56488" lon="3.7623">
        <ele>171</ele>
        <time>2014-04-17T09:56:44Z</time>
      </trkpt>
      <trkpt lat="47.56491" lon="3.76223">
        <ele>171</ele>
        <time>2014-04-17T09:56:49Z</time>
      </trkpt>
      <trkpt lat="47.56494" lon="3.76217">
        <ele>171</ele>
        <time>2014-04-17T09:56:53Z</time>
      </trkpt>
      <trkpt lat="47.56496" lon="3.76209">
        <ele>171</ele>
        <time>2014-04-17T09:56:58Z</time>
      </trkpt>
      <trkpt lat="47.56495" lon="3.76201">
        <ele>171</ele>
        <time>2014-04-17T09:57:03Z</time>
      </trkpt>
      <trkpt lat="47.56491" lon="3.76191">
        <ele>171</ele>
        <time>2014-04-17T09:57:08Z</time>
      </trkpt>
      <trkpt lat="47.56488" lon="3.76184">
        <ele>172</ele>
        <time>2014-04-17T09:57:12Z</time>
      </trkpt>
      <trkpt lat="47.56484" lon="3.76177">
        <ele>172</ele>
        <time>2014-04-17T09:57:18Z</time>
      </trkpt>
      <trkpt lat="47.56478" lon="3.7617">
        <ele>172</ele>
        <time>2014-04-17T09:57:23Z</time>
      </trkpt>
      <trkpt lat="47.56476" lon="3.76153">
        <ele>173</ele>
        <time>2014-04-17T09:57:45Z</time>
      </trkpt>
      <trkpt lat="47.56476" lon="3.76138">
        <ele>173</ele>
        <time>2014-04-17T09:57:53Z</time>
      </trkpt>
      <trkpt lat="47.56471" lon="3.76132">
        <ele>173</ele>
        <time>2014-04-17T09:57:57Z</time>
      </trkpt>
      <trkpt lat="47.56467" lon="3.76129">
        <ele>173</ele>
        <time>2014-04-17T09:58:00Z</time>
      </trkpt>
      <trkpt lat="47.56461" lon="3.76125">
        <ele>173</ele>
        <time>2014-04-17T09:58:02Z</time>
      </trkpt>
      <trkpt lat="47.5646" lon="3.76117">
        <ele>173</ele>
        <time>2014-04-17T09:58:06Z</time>
      </trkpt>
      <trkpt lat="47.56461" lon="3.76106">
        <ele>173</ele>
        <time>2014-04-17T09:58:14Z</time>
      </trkpt>
      <trkpt lat="47.56456" lon="3.76102">
        <ele>173</ele>
        <time>2014-04-17T09:58:44Z</time>
      </trkpt>
      <trkpt lat="47.56434" lon="3.76081">
        <ele>174</ele>
        <time>2014-04-17T09:59:15Z</time>
      </trkpt>
      <trkpt lat="47.56429" lon="3.7608">
        <ele>173</ele>
        <time>2014-04-17T09:59:19Z</time>
      </trkpt>
      <trkpt lat="47.56424" lon="3.76077">
        <ele>173</ele>
        <time>2014-04-17T09:59:23Z</time>
      </trkpt>
      <trkpt lat="47.56419" lon="3.76074">
        <ele>173</ele>
        <time>2014-04-17T09:59:26Z</time>
      </trkpt>
      <trkpt lat="47.56413" lon="3.76071">
        <ele>173</ele>
        <time>2014-04-17T09:59:30Z</time>
      </trkpt>
      <trkpt lat="47.56409" lon="3.76069">
        <ele>173</ele>
        <time>2014-04-17T09:59:33Z</time>
      </trkpt>
      <trkpt lat="47.56403" lon="3.76067">
        <ele>174</ele>
        <time>2014-04-17T09:59:37Z</time>
      </trkpt>
      <trkpt lat="47.56398" lon="3.76064">
        <ele>174</ele>
        <time>2014-04-17T09:59:41Z</time>
      </trkpt>
      <trkpt lat="47.56393" lon="3.76061">
        <ele>175</ele>
        <time>2014-04-17T09:59:46Z</time>
      </trkpt>
      <trkpt lat="47.56388" lon="3.76061">
        <ele>175</ele>
        <time>2014-04-17T09:59:51Z</time>
      </trkpt>
      <trkpt lat="47.56383" lon="3.7606">
        <ele>175</ele>
        <time>2014-04-17T09:59:55Z</time>
      </trkpt>
      <trkpt lat="47.56378" lon="3.76058">
        <ele>176</ele>
        <time>2014-04-17T09:59:58Z</time>
      </trkpt>
      <trkpt lat="47.56373" lon="3.76055">
        <ele>176</ele>
        <time>2014-04-17T10:00:04Z</time>
      </trkpt>
      <trkpt lat="47.56368" lon="3.7605">
        <ele>176</ele>
        <time>2014-04-17T10:00:24Z</time>
      </trkpt>
      <trkpt lat="47.56363" lon="3.76049">
        <ele>177</ele>
        <time>2014-04-17T10:00:27Z</time>
      </trkpt>
      <trkpt lat="47.56359" lon="3.76044">
        <ele>177</ele>
        <time>2014-04-17T10:00:33Z</time>
      </trkpt>
      <trkpt lat="47.56361" lon="3.76037">
        <ele>177</ele>
        <time>2014-04-17T10:00:39Z</time>
      </trkpt>
      <trkpt lat="47.56365" lon="3.76034">
        <ele>177</ele>
        <time>2014-04-17T10:00:41Z</time>
      </trkpt>
      <trkpt lat="47.5637" lon="3.76032">
        <ele>177</ele>
        <time>2014-04-17T10:00:46Z</time>
      </trkpt>
      <trkpt lat="47.56374" lon="3.76036">
        <ele>177</ele>
        <time>2014-04-17T10:00:51Z</time>
      </trkpt>
      <trkpt lat="47.56392" lon="3.76053">
        <ele>175</ele>
        <time>2014-04-17T10:01:15Z</time>
      </trkpt>
      <trkpt lat="47.56397" lon="3.76057">
        <ele>175</ele>
        <time>2014-04-17T10:01:21Z</time>
      </trkpt>
      <trkpt lat="47.56402" lon="3.76058">
        <ele>175</ele>
        <time>2014-04-17T10:01:24Z</time>
      </trkpt>
      <trkpt lat="47.56401" lon="3.76051">
        <ele>175</ele>
        <time>2014-04-17T10:01:30Z</time>
      </trkpt>
      <trkpt lat="47.56397" lon="3.76048">
        <ele>176</ele>
        <time>2014-04-17T10:01:39Z</time>
      </trkpt>
      <trkpt lat="47.56391" lon="3.76046">
        <ele>176</ele>
        <time>2014-04-17T10:01:50Z</time>
      </trkpt>
      <trkpt lat="47.56386" lon="3.76043">
        <ele>176</ele>
        <time>2014-04-17T10:01:53Z</time>
      </trkpt>
      <trkpt lat="47.56383" lon="3.76039">
        <ele>176</ele>
        <time>2014-04-17T10:01:57Z</time>
      </trkpt>
      <trkpt lat="47.56378" lon="3.76034">
        <ele>177</ele>
        <time>2014-04-17T10:02:02Z</time>
      </trkpt>
      <trkpt lat="47.56373" lon="3.76032">
        <ele>177</ele>
        <time>2014-04-17T10:02:08Z</time>
      </trkpt>
      <trkpt lat="47.56368" lon="3.76032">
        <ele>177</ele>
        <time>2014-04-17T10:02:12Z</time>
      </trkpt>
      <trkpt lat="47.56363" lon="3.7603">
        <ele>177</ele>
        <time>2014-04-17T10:02:15Z</time>
      </trkpt>
      <trkpt lat="47.56358" lon="3.76028">
        <ele>178</ele>
        <time>2014-04-17T10:02:18Z</time>
      </trkpt>
      <trkpt lat="47.56354" lon="3.76025">
        <ele>178</ele>
        <time>2014-04-17T10:02:21Z</time>
      </trkpt>
      <trkpt lat="47.56349" lon="3.76022">
        <ele>178</ele>
        <time>2014-04-17T10:02:24Z</time>
      </trkpt>
      <trkpt lat="47.56344" lon="3.76021">
        <ele>178</ele>
        <time>2014-04-17T10:02:27Z</time>
      </trkpt>
      <trkpt lat="47.56338" lon="3.7602">
        <ele>179</ele>
        <time>2014-04-17T10:02:31Z</time>
      </trkpt>
      <trkpt lat="47.56329" lon="3.76014">
        <ele>180</ele>
        <time>2014-04-17T10:02:40Z</time>
      </trkpt>
      <trkpt lat="47.56324" lon="3.76014">
        <ele>180</ele>
        <time>2014-04-17T10:02:43Z</time>
      </trkpt>
      <trkpt lat="47.56314" lon="3.76015">
        <ele>180</ele>
        <time>2014-04-17T10:02:53Z</time>
      </trkpt>
      <trkpt lat="47.56308" lon="3.76014">
        <ele>180</ele>
        <time>2014-04-17T10:02:58Z</time>
      </trkpt>
      <trkpt lat="47.56304" lon="3.76009">
        <ele>180</ele>
        <time>2014-04-17T10:03:03Z</time>
      </trkpt>
      <trkpt lat="47.56299" lon="3.76009">
        <ele>180</ele>
        <time>2014-04-17T10:03:08Z</time>
      </trkpt>
      <trkpt lat="47.56294" lon="3.7601">
        <ele>180</ele>
        <time>2014-04-17T10:03:13Z</time>
      </trkpt>
      <trkpt lat="47.5629" lon="3.76009">
        <ele>180</ele>
        <time>2014-04-17T10:03:22Z</time>
      </trkpt>
      <trkpt lat="47.56286" lon="3.76013">
        <ele>180</ele>
        <time>2014-04-17T10:03:28Z</time>
      </trkpt>
      <trkpt lat="47.56281" lon="3.76015">
        <ele>180</ele>
        <time>2014-04-17T10:03:35Z</time>
      </trkpt>
      <trkpt lat="47.56276" lon="3.76017">
        <ele>180</ele>
        <time>2014-04-17T10:03:40Z</time>
      </trkpt>
      <trkpt lat="47.56271" lon="3.7602">
        <ele>180</ele>
        <time>2014-04-17T10:03:43Z</time>
      </trkpt>
      <trkpt lat="47.56266" lon="3.7602">
        <ele>180</ele>
        <time>2014-04-17T10:03:48Z</time>
      </trkpt>
      <trkpt lat="47.56261" lon="3.76023">
        <ele>180</ele>
        <time>2014-04-17T10:03:52Z</time>
      </trkpt>
      <trkpt lat="47.56257" lon="3.76023">
        <ele>180</ele>
        <time>2014-04-17T10:03:55Z</time>
      </trkpt>
      <trkpt lat="47.56251" lon="3.76024">
        <ele>180</ele>
        <time>2014-04-17T10:03:59Z</time>
      </trkpt>
      <trkpt lat="47.56247" lon="3.76025">
        <ele>180</ele>
        <time>2014-04-17T10:04:03Z</time>
      </trkpt>
      <trkpt lat="47.56243" lon="3.76028">
        <ele>180</ele>
        <time>2014-04-17T10:04:08Z</time>
      </trkpt>
      <trkpt lat="47.56237" lon="3.76028">
        <ele>180</ele>
        <time>2014-04-17T10:04:14Z</time>
      </trkpt>
      <trkpt lat="47.56233" lon="3.7603">
        <ele>179</ele>
        <time>2014-04-17T10:04:18Z</time>
      </trkpt>
      <trkpt lat="47.56227" lon="3.7603">
        <ele>179</ele>
        <time>2014-04-17T10:04:21Z</time>
      </trkpt>
      <trkpt lat="47.56222" lon="3.7603">
        <ele>179</ele>
        <time>2014-04-17T10:04:26Z</time>
      </trkpt>
      <trkpt lat="47.56216" lon="3.76028">
        <ele>179</ele>
        <time>2014-04-17T10:04:30Z</time>
      </trkpt>
      <trkpt lat="47.5621" lon="3.76027">
        <ele>179</ele>
        <time>2014-04-17T10:04:33Z</time>
      </trkpt>
      <trkpt lat="47.56204" lon="3.76024">
        <ele>179</ele>
        <time>2014-04-17T10:04:36Z</time>
      </trkpt>
      <trkpt lat="47.562" lon="3.76022">
        <ele>179</ele>
        <time>2014-04-17T10:04:39Z</time>
      </trkpt>
      <trkpt lat="47.56195" lon="3.7602">
        <ele>179</ele>
        <time>2014-04-17T10:04:43Z</time>
      </trkpt>
      <trkpt lat="47.56189" lon="3.76021">
        <ele>179</ele>
        <time>2014-04-17T10:04:47Z</time>
      </trkpt>
      <trkpt lat="47.56184" lon="3.76019">
        <ele>179</ele>
        <time>2014-04-17T10:04:53Z</time>
      </trkpt>
      <trkpt lat="47.5618" lon="3.76015">
        <ele>179</ele>
        <time>2014-04-17T10:04:57Z</time>
      </trkpt>
      <trkpt lat="47.56176" lon="3.76012">
        <ele>179</ele>
        <time>2014-04-17T10:05:00Z</time>
      </trkpt>
      <trkpt lat="47.56172" lon="3.76007">
        <ele>179</ele>
        <time>2014-04-17T10:05:04Z</time>
      </trkpt>
      <trkpt lat="47.56169" lon="3.75999">
        <ele>180</ele>
        <time>2014-04-17T10:05:08Z</time>
      </trkpt>
      <trkpt lat="47.56165" lon="3.75994">
        <ele>181</ele>
        <time>2014-04-17T10:05:11Z</time>
      </trkpt>
      <trkpt lat="47.56161" lon="3.75989">
        <ele>182</ele>
        <time>2014-04-17T10:05:16Z</time>
      </trkpt>
      <trkpt lat="47.56148" lon="3.75978">
        <ele>184</ele>
        <time>2014-04-17T10:05:30Z</time>
      </trkpt>
      <trkpt lat="47.56145" lon="3.75971">
        <ele>184</ele>
        <time>2014-04-17T10:05:34Z</time>
      </trkpt>
      <trkpt lat="47.56143" lon="3.75966">
        <ele>185</ele>
        <time>2014-04-17T10:05:45Z</time>
      </trkpt>
      <trkpt lat="47.56138" lon="3.75965">
        <ele>185</ele>
        <time>2014-04-17T10:05:48Z</time>
      </trkpt>
      <trkpt lat="47.56133" lon="3.75961">
        <ele>185</ele>
        <time>2014-04-17T10:05:54Z</time>
      </trkpt>
      <trkpt lat="47.56129" lon="3.75957">
        <ele>185</ele>
        <time>2014-04-17T10:06:01Z</time>
      </trkpt>
      <trkpt lat="47.56123" lon="3.75948">
        <ele>186</ele>
        <time>2014-04-17T10:06:09Z</time>
      </trkpt>
      <trkpt lat="47.56119" lon="3.75941">
        <ele>186</ele>
        <time>2014-04-17T10:06:20Z</time>
      </trkpt>
      <trkpt lat="47.56115" lon="3.75934">
        <ele>186</ele>
        <time>2014-04-17T10:06:24Z</time>
      </trkpt>
      <trkpt lat="47.56113" lon="3.75927">
        <ele>186</ele>
        <time>2014-04-17T10:06:32Z</time>
      </trkpt>
      <trkpt lat="47.56111" lon="3.75921">
        <ele>186</ele>
        <time>2014-04-17T10:06:36Z</time>
      </trkpt>
      <trkpt lat="47.56109" lon="3.75913">
        <ele>189</ele>
        <time>2014-04-17T10:06:44Z</time>
      </trkpt>
      <trkpt lat="47.56108" lon="3.75906">
        <ele>189</ele>
        <time>2014-04-17T10:06:48Z</time>
      </trkpt>
      <trkpt lat="47.56105" lon="3.75896">
        <ele>189</ele>
        <time>2014-04-17T10:06:51Z</time>
      </trkpt>
      <trkpt lat="47.56103" lon="3.75888">
        <ele>190</ele>
        <time>2014-04-17T10:06:54Z</time>
      </trkpt>
      <trkpt lat="47.56101" lon="3.75881">
        <ele>190</ele>
        <time>2014-04-17T10:06:58Z</time>
      </trkpt>
      <trkpt lat="47.56095" lon="3.7587">
        <ele>190</ele>
        <time>2014-04-17T10:07:04Z</time>
      </trkpt>
      <trkpt lat="47.56088" lon="3.75859">
        <ele>190</ele>
        <time>2014-04-17T10:07:09Z</time>
      </trkpt>
      <trkpt lat="47.56084" lon="3.75854">
        <ele>190</ele>
        <time>2014-04-17T10:07:12Z</time>
      </trkpt>
      <trkpt lat="47.56084" lon="3.75847">
        <ele>190</ele>
        <time>2014-04-17T10:07:16Z</time>
      </trkpt>
      <trkpt lat="47.56083" lon="3.7584">
        <ele>190</ele>
        <time>2014-04-17T10:07:20Z</time>
      </trkpt>
      <trkpt lat="47.56079" lon="3.75834">
        <ele>189</ele>
        <time>2014-04-17T10:07:24Z</time>
      </trkpt>
      <trkpt lat="47.56076" lon="3.75827">
        <ele>191</ele>
        <time>2014-04-17T10:07:27Z</time>
      </trkpt>
      <trkpt lat="47.56075" lon="3.7582">
        <ele>191</ele>
        <time>2014-04-17T10:07:30Z</time>
      </trkpt>
      <trkpt lat="47.56071" lon="3.75813">
        <ele>192</ele>
        <time>2014-04-17T10:07:34Z</time>
      </trkpt>
      <trkpt lat="47.56068" lon="3.75807">
        <ele>193</ele>
        <time>2014-04-17T10:07:38Z</time>
      </trkpt>
      <trkpt lat="47.56067" lon="3.75799">
        <ele>193</ele>
        <time>2014-04-17T10:07:46Z</time>
      </trkpt>
      <trkpt lat="47.56063" lon="3.7579">
        <ele>193</ele>
        <time>2014-04-17T10:07:51Z</time>
      </trkpt>
      <trkpt lat="47.5606" lon="3.75784">
        <ele>194</ele>
        <time>2014-04-17T10:07:54Z</time>
      </trkpt>
      <trkpt lat="47.56058" lon="3.75776">
        <ele>194</ele>
        <time>2014-04-17T10:07:57Z</time>
      </trkpt>
      <trkpt lat="47.56056" lon="3.75769">
        <ele>194</ele>
        <time>2014-04-17T10:08:01Z</time>
      </trkpt>
      <trkpt lat="47.56055" lon="3.75761">
        <ele>194</ele>
        <time>2014-04-17T10:08:07Z</time>
      </trkpt>
      <trkpt lat="47.56054" lon="3.75754">
        <ele>194</ele>
        <time>2014-04-17T10:08:11Z</time>
      </trkpt>
      <trkpt lat="47.56051" lon="3.75746">
        <ele>195</ele>
        <time>2014-04-17T10:08:15Z</time>
      </trkpt>
      <trkpt lat="47.56048" lon="3.7574">
        <ele>196</ele>
        <time>2014-04-17T10:08:18Z</time>
      </trkpt>
      <trkpt lat="47.56044" lon="3.75734">
        <ele>196</ele>
        <time>2014-04-17T10:08:21Z</time>
      </trkpt>
      <trkpt lat="47.5604" lon="3.75728">
        <ele>196</ele>
        <time>2014-04-17T10:08:24Z</time>
      </trkpt>
      <trkpt lat="47.56037" lon="3.75724">
        <ele>196</ele>
        <time>2014-04-17T10:08:26Z</time>
      </trkpt>
      <trkpt lat="47.56033" lon="3.75719">
        <ele>196</ele>
        <time>2014-04-17T10:08:29Z</time>
      </trkpt>
      <trkpt lat="47.56031" lon="3.7571">
        <ele>196</ele>
        <time>2014-04-17T10:08:33Z</time>
      </trkpt>
      <trkpt lat="47.56032" lon="3.75702">
        <ele>196</ele>
        <time>2014-04-17T10:08:37Z</time>
      </trkpt>
      <trkpt lat="47.56032" lon="3.75698">
        <ele>196</ele>
        <time>2014-04-17T10:08:44Z</time>
      </trkpt>
      <trkpt lat="47.56029" lon="3.75692">
        <ele>196</ele>
        <time>2014-04-17T10:08:55Z</time>
      </trkpt>
      <trkpt lat="47.56029" lon="3.75689">
        <ele>196</ele>
        <time>2014-04-17T10:09:01Z</time>
      </trkpt>
      <trkpt lat="47.56025" lon="3.75681">
        <ele>196</ele>
        <time>2014-04-17T10:09:07Z</time>
      </trkpt>
      <trkpt lat="47.56022" lon="3.75675">
        <ele>196</ele>
        <time>2014-04-17T10:09:11Z</time>
      </trkpt>
      <trkpt lat="47.56019" lon="3.75667">
        <ele>196</ele>
        <time>2014-04-17T10:09:15Z</time>
      </trkpt>
      <trkpt lat="47.56015" lon="3.75662">
        <ele>197</ele>
        <time>2014-04-17T10:09:19Z</time>
      </trkpt>
      <trkpt lat="47.56011" lon="3.75657">
        <ele>197</ele>
        <time>2014-04-17T10:09:24Z</time>
      </trkpt>
      <trkpt lat="47.56008" lon="3.75649">
        <ele>197</ele>
        <time>2014-04-17T10:09:27Z</time>
      </trkpt>
      <trkpt lat="47.56005" lon="3.75643">
        <ele>197</ele>
        <time>2014-04-17T10:09:30Z</time>
      </trkpt>
      <trkpt lat="47.56003" lon="3.75637">
        <ele>197</ele>
        <time>2014-04-17T10:09:33Z</time>
      </trkpt>
      <trkpt lat="47.56002" lon="3.7563">
        <ele>197</ele>
        <time>2014-04-17T10:09:37Z</time>
      </trkpt>
      <trkpt lat="47.56001" lon="3.75623">
        <ele>198</ele>
        <time>2014-04-17T10:09:42Z</time>
      </trkpt>
      <trkpt lat="47.55999" lon="3.75617">
        <ele>198</ele>
        <time>2014-04-17T10:09:46Z</time>
      </trkpt>
      <trkpt lat="47.55995" lon="3.75612">
        <ele>198</ele>
        <time>2014-04-17T10:09:49Z</time>
      </trkpt>
      <trkpt lat="47.55992" lon="3.75605">
        <ele>198</ele>
        <time>2014-04-17T10:09:53Z</time>
      </trkpt>
      <trkpt lat="47.55991" lon="3.75597">
        <ele>198</ele>
        <time>2014-04-17T10:09:58Z</time>
      </trkpt>
      <trkpt lat="47.55988" lon="3.75589">
        <ele>197</ele>
        <time>2014-04-17T10:10:03Z</time>
      </trkpt>
      <trkpt lat="47.55982" lon="3.75578">
        <ele>198</ele>
        <time>2014-04-17T10:10:08Z</time>
      </trkpt>
      <trkpt lat="47.5598" lon="3.75569">
        <ele>198</ele>
        <time>2014-04-17T10:10:12Z</time>
      </trkpt>
      <trkpt lat="47.55977" lon="3.75561">
        <ele>199</ele>
        <time>2014-04-17T10:10:16Z</time>
      </trkpt>
      <trkpt lat="47.55974" lon="3.75556">
        <ele>199</ele>
        <time>2014-04-17T10:10:19Z</time>
      </trkpt>
      <trkpt lat="47.55971" lon="3.75548">
        <ele>199</ele>
        <time>2014-04-17T10:10:23Z</time>
      </trkpt>
      <trkpt lat="47.5597" lon="3.75541">
        <ele>199</ele>
        <time>2014-04-17T10:10:26Z</time>
      </trkpt>
      <trkpt lat="47.55968" lon="3.75534">
        <ele>199</ele>
        <time>2014-04-17T10:10:30Z</time>
      </trkpt>
      <trkpt lat="47.55966" lon="3.75526">
        <ele>199</ele>
        <time>2014-04-17T10:10:34Z</time>
      </trkpt>
      <trkpt lat="47.55965" lon="3.75519">
        <ele>199</ele>
        <time>2014-04-17T10:10:38Z</time>
      </trkpt>
      <trkpt lat="47.55963" lon="3.75513">
        <ele>199</ele>
        <time>2014-04-17T10:10:41Z</time>
      </trkpt>
      <trkpt lat="47.55961" lon="3.75505">
        <ele>199</ele>
        <time>2014-04-17T10:10:45Z</time>
      </trkpt>
      <trkpt lat="47.55963" lon="3.75499">
        <ele>200</ele>
        <time>2014-04-17T10:10:48Z</time>
      </trkpt>
      <trkpt lat="47.55962" lon="3.75492">
        <ele>200</ele>
        <time>2014-04-17T10:10:52Z</time>
      </trkpt>
      <trkpt lat="47.55959" lon="3.75487">
        <ele>200</ele>
        <time>2014-04-17T10:10:55Z</time>
      </trkpt>
      <trkpt lat="47.55956" lon="3.75481">
        <ele>200</ele>
        <time>2014-04-17T10:11:00Z</time>
      </trkpt>
      <trkpt lat="47.55951" lon="3.75476">
        <ele>200</ele>
        <time>2014-04-17T10:11:03Z</time>
      </trkpt>
      <trkpt lat="47.55947" lon="3.75473">
        <ele>200</ele>
        <time>2014-04-17T10:11:06Z</time>
      </trkpt>
      <trkpt lat="47.55947" lon="3.7546">
        <ele>200</ele>
        <time>2014-04-17T10:11:25Z</time>
      </trkpt>
      <trkpt lat="47.55947" lon="3.75453">
        <ele>200</ele>
        <time>2014-04-17T10:11:29Z</time>
      </trkpt>
      <trkpt lat="47.55944" lon="3.75446">
        <ele>200</ele>
        <time>2014-04-17T10:11:33Z</time>
      </trkpt>
      <trkpt lat="47.55941" lon="3.75439">
        <ele>200</ele>
        <time>2014-04-17T10:11:37Z</time>
      </trkpt>
      <trkpt lat="47.55938" lon="3.75434">
        <ele>200</ele>
        <time>2014-04-17T10:11:40Z</time>
      </trkpt>
      <trkpt lat="47.55936" lon="3.75426">
        <ele>200</ele>
        <time>2014-04-17T10:11:45Z</time>
      </trkpt>
      <trkpt lat="47.55934" lon="3.75419">
        <ele>200</ele>
        <time>2014-04-17T10:11:50Z</time>
      </trkpt>
      <trkpt lat="47.55934" lon="3.75411">
        <ele>200</ele>
        <time>2014-04-17T10:11:56Z</time>
      </trkpt>
      <trkpt lat="47.55934" lon="3.75402">
        <ele>200</ele>
        <time>2014-04-17T10:12:01Z</time>
      </trkpt>
      <trkpt lat="47.55929" lon="3.75395">
        <ele>200</ele>
        <time>2014-04-17T10:12:05Z</time>
      </trkpt>
      <trkpt lat="47.55924" lon="3.75389">
        <ele>200</ele>
        <time>2014-04-17T10:12:08Z</time>
      </trkpt>
      <trkpt lat="47.55922" lon="3.75381">
        <ele>200</ele>
        <time>2014-04-17T10:12:12Z</time>
      </trkpt>
      <trkpt lat="47.5592" lon="3.75374">
        <ele>200</ele>
        <time>2014-04-17T10:12:17Z</time>
      </trkpt>
      <trkpt lat="47.55916" lon="3.75369">
        <ele>202</ele>
        <time>2014-04-17T10:12:21Z</time>
      </trkpt>
      <trkpt lat="47.55914" lon="3.75362">
        <ele>201</ele>
        <time>2014-04-17T10:12:25Z</time>
      </trkpt>
      <trkpt lat="47.55911" lon="3.75357">
        <ele>201</ele>
        <time>2014-04-17T10:12:30Z</time>
      </trkpt>
      <trkpt lat="47.55907" lon="3.75351">
        <ele>201</ele>
        <time>2014-04-17T10:12:34Z</time>
      </trkpt>
      <trkpt lat="47.55905" lon="3.75344">
        <ele>201</ele>
        <time>2014-04-17T10:12:37Z</time>
      </trkpt>
      <trkpt lat="47.55902" lon="3.75336">
        <ele>201</ele>
        <time>2014-04-17T10:12:40Z</time>
      </trkpt>
      <trkpt lat="47.55899" lon="3.7533">
        <ele>200</ele>
        <time>2014-04-17T10:12:43Z</time>
      </trkpt>
      <trkpt lat="47.55898" lon="3.75321">
        <ele>201</ele>
        <time>2014-04-17T10:12:47Z</time>
      </trkpt>
      <trkpt lat="47.55899" lon="3.75314">
        <ele>201</ele>
        <time>2014-04-17T10:12:50Z</time>
      </trkpt>
      <trkpt lat="47.55899" lon="3.75305">
        <ele>201</ele>
        <time>2014-04-17T10:12:54Z</time>
      </trkpt>
      <trkpt lat="47.55899" lon="3.75298">
        <ele>201</ele>
        <time>2014-04-17T10:12:59Z</time>
      </trkpt>
      <trkpt lat="47.55897" lon="3.75291">
        <ele>201</ele>
        <time>2014-04-17T10:13:05Z</time>
      </trkpt>
      <trkpt lat="47.55895" lon="3.75282">
        <ele>201</ele>
        <time>2014-04-17T10:13:09Z</time>
      </trkpt>
      <trkpt lat="47.55893" lon="3.75275">
        <ele>201</ele>
        <time>2014-04-17T10:13:13Z</time>
      </trkpt>
      <trkpt lat="47.55891" lon="3.75269">
        <ele>201</ele>
        <time>2014-04-17T10:13:17Z</time>
      </trkpt>
      <trkpt lat="47.55889" lon="3.75263">
        <ele>201</ele>
        <time>2014-04-17T10:13:20Z</time>
      </trkpt>
      <trkpt lat="47.55887" lon="3.75254">
        <ele>201</ele>
        <time>2014-04-17T10:13:24Z</time>
      </trkpt>
      <trkpt lat="47.55886" lon="3.75247">
        <ele>201</ele>
        <time>2014-04-17T10:13:28Z</time>
      </trkpt>
      <trkpt lat="47.55886" lon="3.7524">
        <ele>201</ele>
        <time>2014-04-17T10:13:31Z</time>
      </trkpt>
      <trkpt lat="47.55886" lon="3.75232">
        <ele>201</ele>
        <time>2014-04-17T10:13:35Z</time>
      </trkpt>
      <trkpt lat="47.55887" lon="3.75224">
        <ele>201</ele>
        <time>2014-04-17T10:13:40Z</time>
      </trkpt>
      <trkpt lat="47.55887" lon="3.75217">
        <ele>201</ele>
        <time>2014-04-17T10:13:44Z</time>
      </trkpt>
      <trkpt lat="47.55885" lon="3.75211">
        <ele>201</ele>
        <time>2014-04-17T10:13:48Z</time>
      </trkpt>
      <trkpt lat="47.55885" lon="3.75204">
        <ele>201</ele>
        <time>2014-04-17T10:13:52Z</time>
      </trkpt>
      <trkpt lat="47.55886" lon="3.75197">
        <ele>201</ele>
        <time>2014-04-17T10:13:56Z</time>
      </trkpt>
      <trkpt lat="47.55888" lon="3.75189">
        <ele>201</ele>
        <time>2014-04-17T10:14:00Z</time>
      </trkpt>
      <trkpt lat="47.55888" lon="3.75182">
        <ele>201</ele>
        <time>2014-04-17T10:14:04Z</time>
      </trkpt>
      <trkpt lat="47.5589" lon="3.75175">
        <ele>200</ele>
        <time>2014-04-17T10:14:10Z</time>
      </trkpt>
      <trkpt lat="47.55889" lon="3.75167">
        <ele>200</ele>
        <time>2014-04-17T10:14:15Z</time>
      </trkpt>
      <trkpt lat="47.55885" lon="3.75163">
        <ele>201</ele>
        <time>2014-04-17T10:14:21Z</time>
      </trkpt>
      <trkpt lat="47.55881" lon="3.75157">
        <ele>201</ele>
        <time>2014-04-17T10:14:25Z</time>
      </trkpt>
      <trkpt lat="47.55878" lon="3.7515">
        <ele>202</ele>
        <time>2014-04-17T10:14:29Z</time>
      </trkpt>
      <trkpt lat="47.55878" lon="3.75143">
        <ele>202</ele>
        <time>2014-04-17T10:14:34Z</time>
      </trkpt>
      <trkpt lat="47.55875" lon="3.75135">
        <ele>202</ele>
        <time>2014-04-17T10:14:39Z</time>
      </trkpt>
      <trkpt lat="47.5587" lon="3.75132">
        <ele>202</ele>
        <time>2014-04-17T10:14:42Z</time>
      </trkpt>
      <trkpt lat="47.55865" lon="3.7513">
        <ele>202</ele>
        <time>2014-04-17T10:14:43Z</time>
      </trkpt>
      <trkpt lat="47.5586" lon="3.75129">
        <ele>202</ele>
        <time>2014-04-17T10:14:45Z</time>
      </trkpt>
      <trkpt lat="47.55855" lon="3.75126">
        <ele>202</ele>
        <time>2014-04-17T10:14:50Z</time>
      </trkpt>
      <trkpt lat="47.55858" lon="3.75121">
        <ele>202</ele>
        <time>2014-04-17T10:15:02Z</time>
      </trkpt>
      <trkpt lat="47.55862" lon="3.75115">
        <ele>202</ele>
        <time>2014-04-17T10:15:06Z</time>
      </trkpt>
      <trkpt lat="47.55865" lon="3.75108">
        <ele>202</ele>
        <time>2014-04-17T10:15:11Z</time>
      </trkpt>
      <trkpt lat="47.55868" lon="3.75103">
        <ele>202</ele>
        <time>2014-04-17T10:15:15Z</time>
      </trkpt>
      <trkpt lat="47.55871" lon="3.75095">
        <ele>203</ele>
        <time>2014-04-17T10:15:19Z</time>
      </trkpt>
      <trkpt lat="47.55872" lon="3.75089">
        <ele>203</ele>
        <time>2014-04-17T10:15:24Z</time>
      </trkpt>
      <trkpt lat="47.55882" lon="3.75086">
        <ele>202</ele>
        <time>2014-04-17T10:15:30Z</time>
      </trkpt>
      <trkpt lat="47.55888" lon="3.75094">
        <ele>202</ele>
        <time>2014-04-17T10:15:36Z</time>
      </trkpt>
      <trkpt lat="47.55893" lon="3.75095">
        <ele>202</ele>
        <time>2014-04-17T10:15:38Z</time>
      </trkpt>
      <trkpt lat="47.559" lon="3.75093">
        <ele>202</ele>
        <time>2014-04-17T10:15:44Z</time>
      </trkpt>
      <trkpt lat="47.55906" lon="3.75094">
        <ele>203</ele>
        <time>2014-04-17T10:15:57Z</time>
      </trkpt>
      <trkpt lat="47.55911" lon="3.75098">
        <ele>202</ele>
        <time>2014-04-17T10:16:07Z</time>
      </trkpt>
      <trkpt lat="47.55916" lon="3.75101">
        <ele>202</ele>
        <time>2014-04-17T10:16:12Z</time>
      </trkpt>
      <trkpt lat="47.55922" lon="3.75097">
        <ele>203</ele>
        <time>2014-04-17T10:16:17Z</time>
      </trkpt>
      <trkpt lat="47.55925" lon="3.75093">
        <ele>203</ele>
        <time>2014-04-17T10:16:21Z</time>
      </trkpt>
      <trkpt lat="47.55928" lon="3.75086">
        <ele>203</ele>
        <time>2014-04-17T10:16:24Z</time>
      </trkpt>
      <trkpt lat="47.55929" lon="3.7508">
        <ele>203</ele>
        <time>2014-04-17T10:16:27Z</time>
      </trkpt>
      <trkpt lat="47.5593" lon="3.75076">
        <ele>204</ele>
        <time>2014-04-17T10:16:34Z</time>
      </trkpt>
      <trkpt lat="47.5593" lon="3.75069">
        <ele>204</ele>
        <time>2014-04-17T10:16:45Z</time>
      </trkpt>
      <trkpt lat="47.55934" lon="3.75064">
        <ele>204</ele>
        <time>2014-04-17T10:16:50Z</time>
      </trkpt>
      <trkpt lat="47.55937" lon="3.75057">
        <ele>204</ele>
        <time>2014-04-17T10:16:55Z</time>
      </trkpt>
      <trkpt lat="47.55939" lon="3.75049">
        <ele>204</ele>
        <time>2014-04-17T10:17:00Z</time>
      </trkpt>
      <trkpt lat="47.55941" lon="3.75042">
        <ele>204</ele>
        <time>2014-04-17T10:17:05Z</time>
      </trkpt>
      <trkpt lat="47.55944" lon="3.75037">
        <ele>204</ele>
        <time>2014-04-17T10:17:11Z</time>
      </trkpt>
      <trkpt lat="47.55947" lon="3.75031">
        <ele>204</ele>
        <time>2014-04-17T10:17:15Z</time>
      </trkpt>
      <trkpt lat="47.55953" lon="3.75021">
        <ele>204</ele>
        <time>2014-04-17T10:17:24Z</time>
      </trkpt>
      <trkpt lat="47.55953" lon="3.75014">
        <ele>204</ele>
        <time>2014-04-17T10:17:28Z</time>
      </trkpt>
      <trkpt lat="47.55947" lon="3.74993">
        <ele>203</ele>
        <time>2014-04-17T10:17:42Z</time>
      </trkpt>
      <trkpt lat="47.55942" lon="3.74984">
        <ele>203</ele>
        <time>2014-04-17T10:17:47Z</time>
      </trkpt>
      <trkpt lat="47.55939" lon="3.74979">
        <ele>203</ele>
        <time>2014-04-17T10:17:52Z</time>
      </trkpt>
      <trkpt lat="47.55935" lon="3.74978">
        <ele>203</ele>
        <time>2014-04-17T10:18:01Z</time>
      </trkpt>
      <trkpt lat="47.55934" lon="3.7497">
        <ele>203</ele>
        <time>2014-04-17T10:18:12Z</time>
      </trkpt>
      <trkpt lat="47.55926" lon="3.74932">
        <ele>203</ele>
        <time>2014-04-17T10:18:33Z</time>
      </trkpt>
      <trkpt lat="47.55928" lon="3.74926">
        <ele>202</ele>
        <time>2014-04-17T10:18:36Z</time>
      </trkpt>
      <trkpt lat="47.55932" lon="3.74921">
        <ele>202</ele>
        <time>2014-04-17T10:18:39Z</time>
      </trkpt>
      <trkpt lat="47.55934" lon="3.74914">
        <ele>202</ele>
        <time>2014-04-17T10:18:43Z</time>
      </trkpt>
      <trkpt lat="47.55931" lon="3.74908">
        <ele>202</ele>
        <time>2014-04-17T10:18:51Z</time>
      </trkpt>
      <trkpt lat="47.55932" lon="3.749">
        <ele>202</ele>
        <time>2014-04-17T10:18:57Z</time>
      </trkpt>
      <trkpt lat="47.55931" lon="3.74893">
        <ele>202</ele>
        <time>2014-04-17T10:19:00Z</time>
      </trkpt>
      <trkpt lat="47.55932" lon="3.74886">
        <ele>202</ele>
        <time>2014-04-17T10:19:04Z</time>
      </trkpt>
      <trkpt lat="47.55928" lon="3.74872">
        <ele>202</ele>
        <time>2014-04-17T10:19:11Z</time>
      </trkpt>
      <trkpt lat="47.55923" lon="3.74859">
        <ele>201</ele>
        <time>2014-04-17T10:19:17Z</time>
      </trkpt>
      <trkpt lat="47.5592" lon="3.74844">
        <ele>201</ele>
        <time>2014-04-17T10:19:25Z</time>
      </trkpt>
      <trkpt lat="47.55915" lon="3.74832">
        <ele>200</ele>
        <time>2014-04-17T10:19:35Z</time>
      </trkpt>
      <trkpt lat="47.55912" lon="3.74826">
        <ele>202</ele>
        <time>2014-04-17T10:19:37Z</time>
      </trkpt>
      <trkpt lat="47.55908" lon="3.74815">
        <ele>203</ele>
        <time>2014-04-17T10:19:39Z</time>
      </trkpt>
      <trkpt lat="47.55909" lon="3.74806">
        <ele>203</ele>
        <time>2014-04-17T10:19:44Z</time>
      </trkpt>
      <trkpt lat="47.55906" lon="3.748">
        <ele>204</ele>
        <time>2014-04-17T10:19:49Z</time>
      </trkpt>
      <trkpt lat="47.55903" lon="3.74794">
        <ele>204</ele>
        <time>2014-04-17T10:19:51Z</time>
      </trkpt>
      <trkpt lat="47.559" lon="3.74789">
        <ele>204</ele>
        <time>2014-04-17T10:19:54Z</time>
      </trkpt>
      <trkpt lat="47.55897" lon="3.74784">
        <ele>204</ele>
        <time>2014-04-17T10:19:59Z</time>
      </trkpt>
      <trkpt lat="47.55893" lon="3.74781">
        <ele>204</ele>
        <time>2014-04-17T10:20:01Z</time>
      </trkpt>
      <trkpt lat="47.5589" lon="3.74775">
        <ele>204</ele>
        <time>2014-04-17T10:20:07Z</time>
      </trkpt>
      <trkpt lat="47.55888" lon="3.74769">
        <ele>204</ele>
        <time>2014-04-17T10:20:11Z</time>
      </trkpt>
      <trkpt lat="47.55887" lon="3.74762">
        <ele>204</ele>
        <time>2014-04-17T10:20:17Z</time>
      </trkpt>
      <trkpt lat="47.55885" lon="3.74753">
        <ele>204</ele>
        <time>2014-04-17T10:20:29Z</time>
      </trkpt>
      <trkpt lat="47.55881" lon="3.74748">
        <ele>204</ele>
        <time>2014-04-17T10:20:33Z</time>
      </trkpt>
      <trkpt lat="47.55878" lon="3.74738">
        <ele>204</ele>
        <time>2014-04-17T10:20:54Z</time>
      </trkpt>
      <trkpt lat="47.55876" lon="3.74733">
        <ele>205</ele>
        <time>2014-04-17T10:21:00Z</time>
      </trkpt>
      <trkpt lat="47.55871" lon="3.74724">
        <ele>205</ele>
        <time>2014-04-17T10:21:10Z</time>
      </trkpt>
      <trkpt lat="47.55866" lon="3.74712">
        <ele>205</ele>
        <time>2014-04-17T10:21:24Z</time>
      </trkpt>
      <trkpt lat="47.55863" lon="3.74706">
        <ele>205</ele>
        <time>2014-04-17T10:21:28Z</time>
      </trkpt>
      <trkpt lat="47.55859" lon="3.74701">
        <ele>205</ele>
        <time>2014-04-17T10:21:31Z</time>
      </trkpt>
      <trkpt lat="47.55856" lon="3.74697">
        <ele>205</ele>
        <time>2014-04-17T10:21:34Z</time>
      </trkpt>
      <trkpt lat="47.55852" lon="3.74693">
        <ele>205</ele>
        <time>2014-04-17T10:21:38Z</time>
      </trkpt>
      <trkpt lat="47.55847" lon="3.74687">
        <ele>205</ele>
        <time>2014-04-17T10:21:42Z</time>
      </trkpt>
      <trkpt lat="47.55842" lon="3.74682">
        <ele>205</ele>
        <time>2014-04-17T10:21:45Z</time>
      </trkpt>
      <trkpt lat="47.55838" lon="3.74675">
        <ele>205</ele>
        <time>2014-04-17T10:21:48Z</time>
      </trkpt>
      <trkpt lat="47.55836" lon="3.74668">
        <ele>205</ele>
        <time>2014-04-17T10:21:52Z</time>
      </trkpt>
      <trkpt lat="47.55833" lon="3.74663">
        <ele>205</ele>
        <time>2014-04-17T10:21:56Z</time>
      </trkpt>
      <trkpt lat="47.5583" lon="3.74655">
        <ele>206</ele>
        <time>2014-04-17T10:22:00Z</time>
      </trkpt>
      <trkpt lat="47.55827" lon="3.7465">
        <ele>206</ele>
        <time>2014-04-17T10:22:05Z</time>
      </trkpt>
      <trkpt lat="47.55827" lon="3.74643">
        <ele>206</ele>
        <time>2014-04-17T10:22:08Z</time>
      </trkpt>
      <trkpt lat="47.55827" lon="3.74631">
        <ele>206</ele>
        <time>2014-04-17T10:22:10Z</time>
      </trkpt>
      <trkpt lat="47.55825" lon="3.74623">
        <ele>206</ele>
        <time>2014-04-17T10:22:13Z</time>
      </trkpt>
      <trkpt lat="47.55823" lon="3.74616">
        <ele>206</ele>
        <time>2014-04-17T10:22:17Z</time>
      </trkpt>
      <trkpt lat="47.55822" lon="3.74608">
        <ele>205</ele>
        <time>2014-04-17T10:22:22Z</time>
      </trkpt>
      <trkpt lat="47.55819" lon="3.74602">
        <ele>205</ele>
        <time>2014-04-17T10:22:26Z</time>
      </trkpt>
      <trkpt lat="47.55816" lon="3.74596">
        <ele>205</ele>
        <time>2014-04-17T10:22:30Z</time>
      </trkpt>
      <trkpt lat="47.55813" lon="3.74591">
        <ele>205</ele>
        <time>2014-04-17T10:22:34Z</time>
      </trkpt>
      <trkpt lat="47.55809" lon="3.74584">
        <ele>205</ele>
        <time>2014-04-17T10:22:37Z</time>
      </trkpt>
      <trkpt lat="47.55806" lon="3.74577">
        <ele>203</ele>
        <time>2014-04-17T10:22:40Z</time>
      </trkpt>
      <trkpt lat="47.55801" lon="3.74572">
        <ele>203</ele>
        <time>2014-04-17T10:22:44Z</time>
      </trkpt>
      <trkpt lat="47.55799" lon="3.74566">
        <ele>203</ele>
        <time>2014-04-17T10:22:47Z</time>
      </trkpt>
      <trkpt lat="47.55796" lon="3.74561">
        <ele>203</ele>
        <time>2014-04-17T10:22:50Z</time>
      </trkpt>
      <trkpt lat="47.55792" lon="3.74555">
        <ele>203</ele>
        <time>2014-04-17T10:22:54Z</time>
      </trkpt>
      <trkpt lat="47.55789" lon="3.74549">
        <ele>203</ele>
        <time>2014-04-17T10:22:57Z</time>
      </trkpt>
      <trkpt lat="47.55785" lon="3.74543">
        <ele>203</ele>
        <time>2014-04-17T10:23:00Z</time>
      </trkpt>
      <trkpt lat="47.55781" lon="3.74536">
        <ele>203</ele>
        <time>2014-04-17T10:23:03Z</time>
      </trkpt>
      <trkpt lat="47.55778" lon="3.74532">
        <ele>203</ele>
        <time>2014-04-17T10:23:05Z</time>
      </trkpt>
      <trkpt lat="47.55776" lon="3.74529">
        <ele>203</ele>
        <time>2014-04-17T10:23:07Z</time>
      </trkpt>
      <trkpt lat="47.55772" lon="3.74526">
        <ele>203</ele>
        <time>2014-04-17T10:23:12Z</time>
      </trkpt>
      <trkpt lat="47.55768" lon="3.74522">
        <ele>203</ele>
        <time>2014-04-17T10:23:16Z</time>
      </trkpt>
      <trkpt lat="47.55764" lon="3.74517">
        <ele>203</ele>
        <time>2014-04-17T10:23:21Z</time>
      </trkpt>
      <trkpt lat="47.55759" lon="3.74514">
        <ele>203</ele>
        <time>2014-04-17T10:23:25Z</time>
      </trkpt>
      <trkpt lat="47.55754" lon="3.74511">
        <ele>203</ele>
        <time>2014-04-17T10:23:29Z</time>
      </trkpt>
      <trkpt lat="47.55751" lon="3.74505">
        <ele>202</ele>
        <time>2014-04-17T10:23:33Z</time>
      </trkpt>
      <trkpt lat="47.55748" lon="3.74499">
        <ele>202</ele>
        <time>2014-04-17T10:23:37Z</time>
      </trkpt>
      <trkpt lat="47.55744" lon="3.74493">
        <ele>203</ele>
        <time>2014-04-17T10:23:42Z</time>
      </trkpt>
      <trkpt lat="47.55741" lon="3.74488">
        <ele>203</ele>
        <time>2014-04-17T10:23:45Z</time>
      </trkpt>
      <trkpt lat="47.55737" lon="3.74482">
        <ele>204</ele>
        <time>2014-04-17T10:23:48Z</time>
      </trkpt>
      <trkpt lat="47.55733" lon="3.74476">
        <ele>204</ele>
        <time>2014-04-17T10:23:51Z</time>
      </trkpt>
      <trkpt lat="47.55729" lon="3.74471">
        <ele>204</ele>
        <time>2014-04-17T10:23:54Z</time>
      </trkpt>
      <trkpt lat="47.55725" lon="3.74467">
        <ele>205</ele>
        <time>2014-04-17T10:23:56Z</time>
      </trkpt>
      <trkpt lat="47.5572" lon="3.74461">
        <ele>205</ele>
        <time>2014-04-17T10:23:59Z</time>
      </trkpt>
      <trkpt lat="47.55718" lon="3.74455">
        <ele>205</ele>
        <time>2014-04-17T10:24:05Z</time>
      </trkpt>
      <trkpt lat="47.55719" lon="3.74449">
        <ele>205</ele>
        <time>2014-04-17T10:24:10Z</time>
      </trkpt>
      <trkpt lat="47.55718" lon="3.74443">
        <ele>205</ele>
        <time>2014-04-17T10:24:14Z</time>
      </trkpt>
      <trkpt lat="47.55716" lon="3.74436">
        <ele>205</ele>
        <time>2014-04-17T10:24:18Z</time>
      </trkpt>
      <trkpt lat="47.55711" lon="3.74431">
        <ele>205</ele>
        <time>2014-04-17T10:24:23Z</time>
      </trkpt>
      <trkpt lat="47.55709" lon="3.74424">
        <ele>205</ele>
        <time>2014-04-17T10:24:27Z</time>
      </trkpt>
      <trkpt lat="47.55706" lon="3.74419">
        <ele>205</ele>
        <time>2014-04-17T10:24:30Z</time>
      </trkpt>
      <trkpt lat="47.55703" lon="3.74413">
        <ele>205</ele>
        <time>2014-04-17T10:24:33Z</time>
      </trkpt>
      <trkpt lat="47.557" lon="3.74406">
        <ele>206</ele>
        <time>2014-04-17T10:24:37Z</time>
      </trkpt>
      <trkpt lat="47.55697" lon="3.744">
        <ele>206</ele>
        <time>2014-04-17T10:24:40Z</time>
      </trkpt>
      <trkpt lat="47.55694" lon="3.74394">
        <ele>206</ele>
        <time>2014-04-17T10:24:44Z</time>
      </trkpt>
      <trkpt lat="47.55691" lon="3.74389">
        <ele>206</ele>
        <time>2014-04-17T10:24:48Z</time>
      </trkpt>
      <trkpt lat="47.55687" lon="3.74384">
        <ele>206</ele>
        <time>2014-04-17T10:24:51Z</time>
      </trkpt>
      <trkpt lat="47.55684" lon="3.74378">
        <ele>206</ele>
        <time>2014-04-17T10:24:54Z</time>
      </trkpt>
      <trkpt lat="47.55681" lon="3.74373">
        <ele>207</ele>
        <time>2014-04-17T10:24:57Z</time>
      </trkpt>
      <trkpt lat="47.55676" lon="3.74369">
        <ele>207</ele>
        <time>2014-04-17T10:25:00Z</time>
      </trkpt>
      <trkpt lat="47.55672" lon="3.74365">
        <ele>207</ele>
        <time>2014-04-17T10:25:04Z</time>
      </trkpt>
      <trkpt lat="47.55667" lon="3.74363">
        <ele>211</ele>
        <time>2014-04-17T10:25:09Z</time>
      </trkpt>
      <trkpt lat="47.55665" lon="3.74355">
        <ele>211</ele>
        <time>2014-04-17T10:25:14Z</time>
      </trkpt>
      <trkpt lat="47.55664" lon="3.74349">
        <ele>211</ele>
        <time>2014-04-17T10:25:19Z</time>
      </trkpt>
      <trkpt lat="47.55662" lon="3.74342">
        <ele>211</ele>
        <time>2014-04-17T10:25:24Z</time>
      </trkpt>
      <trkpt lat="47.55659" lon="3.74336">
        <ele>211</ele>
        <time>2014-04-17T10:25:28Z</time>
      </trkpt>
      <trkpt lat="47.55654" lon="3.74334">
        <ele>211</ele>
        <time>2014-04-17T10:25:32Z</time>
      </trkpt>
      <trkpt lat="47.55649" lon="3.74333">
        <ele>211</ele>
        <time>2014-04-17T10:25:36Z</time>
      </trkpt>
      <trkpt lat="47.55644" lon="3.74328">
        <ele>211</ele>
        <time>2014-04-17T10:25:40Z</time>
      </trkpt>
      <trkpt lat="47.5564" lon="3.74323">
        <ele>212</ele>
        <time>2014-04-17T10:25:44Z</time>
      </trkpt>
      <trkpt lat="47.55637" lon="3.74318">
        <ele>212</ele>
        <time>2014-04-17T10:25:47Z</time>
      </trkpt>
      <trkpt lat="47.55634" lon="3.74312">
        <ele>212</ele>
        <time>2014-04-17T10:25:50Z</time>
      </trkpt>
      <trkpt lat="47.55632" lon="3.74304">
        <ele>212</ele>
        <time>2014-04-17T10:25:54Z</time>
      </trkpt>
      <trkpt lat="47.5563" lon="3.74297">
        <ele>212</ele>
        <time>2014-04-17T10:25:58Z</time>
      </trkpt>
      <trkpt lat="47.55628" lon="3.7429">
        <ele>212</ele>
        <time>2014-04-17T10:26:04Z</time>
      </trkpt>
      <trkpt lat="47.55625" lon="3.74283">
        <ele>212</ele>
        <time>2014-04-17T10:26:07Z</time>
      </trkpt>
      <trkpt lat="47.55622" lon="3.74274">
        <ele>212</ele>
        <time>2014-04-17T10:26:10Z</time>
      </trkpt>
      <trkpt lat="47.5562" lon="3.74268">
        <ele>212</ele>
        <time>2014-04-17T10:26:13Z</time>
      </trkpt>
      <trkpt lat="47.55611" lon="3.74261">
        <ele>213</ele>
        <time>2014-04-17T10:26:20Z</time>
      </trkpt>
      <trkpt lat="47.55601" lon="3.74257">
        <ele>213</ele>
        <time>2014-04-17T10:26:27Z</time>
      </trkpt>
      <trkpt lat="47.55595" lon="3.74246">
        <ele>213</ele>
        <time>2014-04-17T10:26:33Z</time>
      </trkpt>
      <trkpt lat="47.55595" lon="3.74233">
        <ele>213</ele>
        <time>2014-04-17T10:26:38Z</time>
      </trkpt>
      <trkpt lat="47.55593" lon="3.74223">
        <ele>213</ele>
        <time>2014-04-17T10:26:43Z</time>
      </trkpt>
      <trkpt lat="47.55588" lon="3.74223">
        <ele>213</ele>
        <time>2014-04-17T10:26:46Z</time>
      </trkpt>
      <trkpt lat="47.55584" lon="3.74219">
        <ele>213</ele>
        <time>2014-04-17T10:26:51Z</time>
      </trkpt>
      <trkpt lat="47.55582" lon="3.74225">
        <ele>214</ele>
        <time>2014-04-17T10:26:52Z</time>
      </trkpt>
      <trkpt lat="47.55576" lon="3.74225">
        <ele>214</ele>
        <time>2014-04-17T10:27:21Z</time>
      </trkpt>
      <trkpt lat="47.55573" lon="3.7422">
        <ele>214</ele>
        <time>2014-04-17T10:27:24Z</time>
      </trkpt>
      <trkpt lat="47.55571" lon="3.74213">
        <ele>214</ele>
        <time>2014-04-17T10:27:29Z</time>
      </trkpt>
      <trkpt lat="47.55577" lon="3.74216">
        <ele>214</ele>
        <time>2014-04-17T10:27:52Z</time>
      </trkpt>
      <trkpt lat="47.55575" lon="3.74202">
        <ele>214</ele>
        <time>2014-04-17T10:28:05Z</time>
      </trkpt>
      <trkpt lat="47.55577" lon="3.74189">
        <ele>214</ele>
        <time>2014-04-17T10:28:14Z</time>
      </trkpt>
      <trkpt lat="47.5558" lon="3.74191">
        <ele>214</ele>
        <time>2014-04-17T10:28:36Z</time>
      </trkpt>
      <trkpt lat="47.55578" lon="3.74189">
        <ele>214</ele>
        <time>2014-04-17T10:30:13Z</time>
      </trkpt>
      <trkpt lat="47.55583" lon="3.74187">
        <ele>214</ele>
        <time>2014-04-17T10:40:31Z</time>
      </trkpt>
      <trkpt lat="47.55589" lon="3.74187">
        <ele>214</ele>
        <time>2014-04-17T10:40:37Z</time>
      </trkpt>
      <trkpt lat="47.55593" lon="3.74186">
        <ele>214</ele>
        <time>2014-04-17T10:41:10Z</time>
      </trkpt>
      <trkpt lat="47.55585" lon="3.74181">
        <ele>214</ele>
        <time>2014-04-17T10:41:31Z</time>
      </trkpt>
      <trkpt lat="47.55575" lon="3.74179">
        <ele>214</ele>
        <time>2014-04-17T10:41:37Z</time>
      </trkpt>
      <trkpt lat="47.55576" lon="3.74189">
        <ele>214</ele>
        <time>2014-04-17T10:41:43Z</time>
      </trkpt>
      <trkpt lat="47.55583" lon="3.74187">
        <ele>214</ele>
        <time>2014-04-17T10:41:46Z</time>
      </trkpt>
      <trkpt lat="47.55588" lon="3.74184">
        <ele>214</ele>
        <time>2014-04-17T10:42:20Z</time>
      </trkpt>
      <trkpt lat="47.55592" lon="3.74178">
        <ele>214</ele>
        <time>2014-04-17T10:42:23Z</time>
      </trkpt>
      <trkpt lat="47.55594" lon="3.74174">
        <ele>214</ele>
        <time>2014-04-17T10:42:32Z</time>
      </trkpt>
      <trkpt lat="47.5559" lon="3.74168">
        <ele>214</ele>
        <time>2014-04-17T10:42:37Z</time>
      </trkpt>
      <trkpt lat="47.55586" lon="3.74167">
        <ele>215</ele>
        <time>2014-04-17T10:42:45Z</time>
      </trkpt>
      <trkpt lat="47.55582" lon="3.74173">
        <ele>215</ele>
        <time>2014-04-17T10:42:53Z</time>
      </trkpt>
      <trkpt lat="47.55581" lon="3.74178">
        <ele>214</ele>
        <time>2014-04-17T10:43:08Z</time>
      </trkpt>
      <trkpt lat="47.55577" lon="3.74185">
        <ele>214</ele>
        <time>2014-04-17T10:43:15Z</time>
      </trkpt>
      <trkpt lat="47.55578" lon="3.74189">
        <ele>214</ele>
        <time>2014-04-17T10:45:48Z</time>
      </trkpt>
      <trkpt lat="47.55582" lon="3.74186">
        <ele>214</ele>
        <time>2014-04-17T10:47:17Z</time>
      </trkpt>
      <trkpt lat="47.55582" lon="3.74188">
        <ele>214</ele>
        <time>2014-04-17T10:54:16Z</time>
      </trkpt>
      <trkpt lat="47.55584" lon="3.74191">
        <ele>214</ele>
        <time>2014-04-17T10:56:17Z</time>
      </trkpt>
      <trkpt lat="47.55586" lon="3.74199">
        <ele>214</ele>
        <time>2014-04-17T10:57:22Z</time>
      </trkpt>
      <trkpt lat="47.55583" lon="3.74201">
        <ele>214</ele>
        <time>2014-04-17T10:58:31Z</time>
      </trkpt>
      <trkpt lat="47.55583" lon="3.74206">
        <ele>214</ele>
        <time>2014-04-17T11:00:07Z</time>
      </trkpt>
      <trkpt lat="47.55582" lon="3.74207">
        <ele>214</ele>
        <time>2014-04-17T11:01:21Z</time>
      </trkpt>
      <trkpt lat="47.55579" lon="3.74212">
        <ele>214</ele>
        <time>2014-04-17T11:01:25Z</time>
      </trkpt>
      <trkpt lat="47.55575" lon="3.74218">
        <ele>214</ele>
        <time>2014-04-17T11:01:29Z</time>
      </trkpt>
      <trkpt lat="47.55572" lon="3.74223">
        <ele>214</ele>
        <time>2014-04-17T11:01:34Z</time>
      </trkpt>
      <trkpt lat="47.55566" lon="3.74221">
        <ele>214</ele>
        <time>2014-04-17T11:01:40Z</time>
      </trkpt>
      <trkpt lat="47.55564" lon="3.74215">
        <ele>214</ele>
        <time>2014-04-17T11:01:43Z</time>
      </trkpt>
      <trkpt lat="47.55561" lon="3.7421">
        <ele>214</ele>
        <time>2014-04-17T11:01:46Z</time>
      </trkpt>
      <trkpt lat="47.55557" lon="3.74205">
        <ele>213</ele>
        <time>2014-04-17T11:01:49Z</time>
      </trkpt>
      <trkpt lat="47.55552" lon="3.74204">
        <ele>213</ele>
        <time>2014-04-17T11:01:53Z</time>
      </trkpt>
      <trkpt lat="47.55547" lon="3.74203">
        <ele>213</ele>
        <time>2014-04-17T11:01:57Z</time>
      </trkpt>
      <trkpt lat="47.55543" lon="3.74205">
        <ele>213</ele>
        <time>2014-04-17T11:02:01Z</time>
      </trkpt>
      <trkpt lat="47.55537" lon="3.74205">
        <ele>213</ele>
        <time>2014-04-17T11:02:06Z</time>
      </trkpt>
      <trkpt lat="47.55532" lon="3.74204">
        <ele>213</ele>
        <time>2014-04-17T11:02:09Z</time>
      </trkpt>
      <trkpt lat="47.55527" lon="3.74198">
        <ele>213</ele>
        <time>2014-04-17T11:02:13Z</time>
      </trkpt>
      <trkpt lat="47.55522" lon="3.74194">
        <ele>213</ele>
        <time>2014-04-17T11:02:16Z</time>
      </trkpt>
      <trkpt lat="47.55517" lon="3.74193">
        <ele>213</ele>
        <time>2014-04-17T11:02:19Z</time>
      </trkpt>
      <trkpt lat="47.55512" lon="3.74191">
        <ele>213</ele>
        <time>2014-04-17T11:02:23Z</time>
      </trkpt>
      <trkpt lat="47.55509" lon="3.74193">
        <ele>213</ele>
        <time>2014-04-17T11:02:29Z</time>
      </trkpt>
      <trkpt lat="47.55508" lon="3.74187">
        <ele>213</ele>
        <time>2014-04-17T11:02:34Z</time>
      </trkpt>
      <trkpt lat="47.55503" lon="3.74183">
        <ele>213</ele>
        <time>2014-04-17T11:02:38Z</time>
      </trkpt>
      <trkpt lat="47.55497" lon="3.7418">
        <ele>212</ele>
        <time>2014-04-17T11:02:41Z</time>
      </trkpt>
      <trkpt lat="47.55492" lon="3.74177">
        <ele>212</ele>
        <time>2014-04-17T11:02:44Z</time>
      </trkpt>
      <trkpt lat="47.55488" lon="3.74173">
        <ele>212</ele>
        <time>2014-04-17T11:02:48Z</time>
      </trkpt>
      <trkpt lat="47.55482" lon="3.74171">
        <ele>212</ele>
        <time>2014-04-17T11:02:51Z</time>
      </trkpt>
      <trkpt lat="47.55478" lon="3.74168">
        <ele>212</ele>
        <time>2014-04-17T11:02:54Z</time>
      </trkpt>
      <trkpt lat="47.55472" lon="3.74166">
        <ele>212</ele>
        <time>2014-04-17T11:02:57Z</time>
      </trkpt>
      <trkpt lat="47.55468" lon="3.74166">
        <ele>212</ele>
        <time>2014-04-17T11:03:00Z</time>
      </trkpt>
      <trkpt lat="47.55463" lon="3.74166">
        <ele>212</ele>
        <time>2014-04-17T11:03:03Z</time>
      </trkpt>
      <trkpt lat="47.55458" lon="3.74164">
        <ele>212</ele>
        <time>2014-04-17T11:03:07Z</time>
      </trkpt>
      <trkpt lat="47.55456" lon="3.74158">
        <ele>212</ele>
        <time>2014-04-17T11:03:11Z</time>
      </trkpt>
      <trkpt lat="47.55452" lon="3.74154">
        <ele>212</ele>
        <time>2014-04-17T11:03:14Z</time>
      </trkpt>
      <trkpt lat="47.55448" lon="3.74149">
        <ele>212</ele>
        <time>2014-04-17T11:03:18Z</time>
      </trkpt>
      <trkpt lat="47.55443" lon="3.74148">
        <ele>212</ele>
        <time>2014-04-17T11:03:22Z</time>
      </trkpt>
      <trkpt lat="47.55439" lon="3.74152">
        <ele>212</ele>
        <time>2014-04-17T11:03:26Z</time>
      </trkpt>
      <trkpt lat="47.55433" lon="3.74154">
        <ele>211</ele>
        <time>2014-04-17T11:03:30Z</time>
      </trkpt>
      <trkpt lat="47.55428" lon="3.74156">
        <ele>211</ele>
        <time>2014-04-17T11:03:34Z</time>
      </trkpt>
      <trkpt lat="47.55423" lon="3.74155">
        <ele>211</ele>
        <time>2014-04-17T11:03:39Z</time>
      </trkpt>
      <trkpt lat="47.55417" lon="3.74156">
        <ele>211</ele>
        <time>2014-04-17T11:03:44Z</time>
      </trkpt>
      <trkpt lat="47.55412" lon="3.74159">
        <ele>211</ele>
        <time>2014-04-17T11:03:47Z</time>
      </trkpt>
      <trkpt lat="47.55407" lon="3.74159">
        <ele>211</ele>
        <time>2014-04-17T11:03:51Z</time>
      </trkpt>
      <trkpt lat="47.55403" lon="3.74161">
        <ele>211</ele>
        <time>2014-04-17T11:03:54Z</time>
      </trkpt>
      <trkpt lat="47.55399" lon="3.74155">
        <ele>211</ele>
        <time>2014-04-17T11:03:58Z</time>
      </trkpt>
      <trkpt lat="47.55395" lon="3.74155">
        <ele>211</ele>
        <time>2014-04-17T11:04:25Z</time>
      </trkpt>
      <trkpt lat="47.55389" lon="3.74154">
        <ele>211</ele>
        <time>2014-04-17T11:04:54Z</time>
      </trkpt>
      <trkpt lat="47.55384" lon="3.74153">
        <ele>211</ele>
        <time>2014-04-17T11:05:00Z</time>
      </trkpt>
      <trkpt lat="47.55377" lon="3.7415">
        <ele>212</ele>
        <time>2014-04-17T11:05:04Z</time>
      </trkpt>
      <trkpt lat="47.55372" lon="3.7415">
        <ele>212</ele>
        <time>2014-04-17T11:05:08Z</time>
      </trkpt>
      <trkpt lat="47.55368" lon="3.74151">
        <ele>212</ele>
        <time>2014-04-17T11:05:12Z</time>
      </trkpt>
      <trkpt lat="47.55363" lon="3.74154">
        <ele>212</ele>
        <time>2014-04-17T11:05:16Z</time>
      </trkpt>
      <trkpt lat="47.55357" lon="3.74156">
        <ele>212</ele>
        <time>2014-04-17T11:05:21Z</time>
      </trkpt>
      <trkpt lat="47.55352" lon="3.74157">
        <ele>212</ele>
        <time>2014-04-17T11:05:24Z</time>
      </trkpt>
      <trkpt lat="47.55347" lon="3.74158">
        <ele>212</ele>
        <time>2014-04-17T11:05:28Z</time>
      </trkpt>
      <trkpt lat="47.55342" lon="3.74161">
        <ele>212</ele>
        <time>2014-04-17T11:05:33Z</time>
      </trkpt>
      <trkpt lat="47.55337" lon="3.74162">
        <ele>212</ele>
        <time>2014-04-17T11:05:38Z</time>
      </trkpt>
      <trkpt lat="47.55332" lon="3.74165">
        <ele>212</ele>
        <time>2014-04-17T11:05:43Z</time>
      </trkpt>
      <trkpt lat="47.55327" lon="3.74164">
        <ele>212</ele>
        <time>2014-04-17T11:05:46Z</time>
      </trkpt>
      <trkpt lat="47.55322" lon="3.74161">
        <ele>212</ele>
        <time>2014-04-17T11:05:50Z</time>
      </trkpt>
      <trkpt lat="47.55317" lon="3.74158">
        <ele>212</ele>
        <time>2014-04-17T11:05:54Z</time>
      </trkpt>
      <trkpt lat="47.55313" lon="3.74156">
        <ele>212</ele>
        <time>2014-04-17T11:05:57Z</time>
      </trkpt>
      <trkpt lat="47.55309" lon="3.74155">
        <ele>212</ele>
        <time>2014-04-17T11:06:00Z</time>
      </trkpt>
      <trkpt lat="47.55304" lon="3.74154">
        <ele>212</ele>
        <time>2014-04-17T11:06:03Z</time>
      </trkpt>
      <trkpt lat="47.55299" lon="3.74153">
        <ele>212</ele>
        <time>2014-04-17T11:06:06Z</time>
      </trkpt>
      <trkpt lat="47.55295" lon="3.74151">
        <ele>212</ele>
        <time>2014-04-17T11:06:09Z</time>
      </trkpt>
      <trkpt lat="47.55289" lon="3.74148">
        <ele>212</ele>
        <time>2014-04-17T11:06:13Z</time>
      </trkpt>
      <trkpt lat="47.55284" lon="3.74146">
        <ele>212</ele>
        <time>2014-04-17T11:06:16Z</time>
      </trkpt>
      <trkpt lat="47.55278" lon="3.74145">
        <ele>212</ele>
        <time>2014-04-17T11:06:19Z</time>
      </trkpt>
      <trkpt lat="47.55272" lon="3.74144">
        <ele>212</ele>
        <time>2014-04-17T11:06:23Z</time>
      </trkpt>
      <trkpt lat="47.55267" lon="3.74145">
        <ele>211</ele>
        <time>2014-04-17T11:06:27Z</time>
      </trkpt>
      <trkpt lat="47.55263" lon="3.74146">
        <ele>211</ele>
        <time>2014-04-17T11:06:31Z</time>
      </trkpt>
      <trkpt lat="47.55258" lon="3.74146">
        <ele>211</ele>
        <time>2014-04-17T11:06:36Z</time>
      </trkpt>
      <trkpt lat="47.55252" lon="3.74145">
        <ele>211</ele>
        <time>2014-04-17T11:06:41Z</time>
      </trkpt>
      <trkpt lat="47.55247" lon="3.74144">
        <ele>211</ele>
        <time>2014-04-17T11:06:45Z</time>
      </trkpt>
      <trkpt lat="47.55242" lon="3.74143">
        <ele>211</ele>
        <time>2014-04-17T11:06:49Z</time>
      </trkpt>
      <trkpt lat="47.55237" lon="3.74143">
        <ele>211</ele>
        <time>2014-04-17T11:06:53Z</time>
      </trkpt>
      <trkpt lat="47.55232" lon="3.74143">
        <ele>211</ele>
        <time>2014-04-17T11:06:57Z</time>
      </trkpt>
      <trkpt lat="47.55227" lon="3.74142">
        <ele>211</ele>
        <time>2014-04-17T11:07:01Z</time>
      </trkpt>
      <trkpt lat="47.55222" lon="3.74141">
        <ele>211</ele>
        <time>2014-04-17T11:07:05Z</time>
      </trkpt>
      <trkpt lat="47.55216" lon="3.7414">
        <ele>212</ele>
        <time>2014-04-17T11:07:09Z</time>
      </trkpt>
      <trkpt lat="47.55211" lon="3.74139">
        <ele>212</ele>
        <time>2014-04-17T11:07:13Z</time>
      </trkpt>
      <trkpt lat="47.55206" lon="3.74137">
        <ele>212</ele>
        <time>2014-04-17T11:07:17Z</time>
      </trkpt>
      <trkpt lat="47.552" lon="3.74137">
        <ele>212</ele>
        <time>2014-04-17T11:07:21Z</time>
      </trkpt>
      <trkpt lat="47.55195" lon="3.74135">
        <ele>212</ele>
        <time>2014-04-17T11:07:27Z</time>
      </trkpt>
      <trkpt lat="47.55189" lon="3.74136">
        <ele>212</ele>
        <time>2014-04-17T11:07:32Z</time>
      </trkpt>
      <trkpt lat="47.55185" lon="3.74133">
        <ele>212</ele>
        <time>2014-04-17T11:07:51Z</time>
      </trkpt>
      <trkpt lat="47.55179" lon="3.74133">
        <ele>212</ele>
        <time>2014-04-17T11:07:55Z</time>
      </trkpt>
      <trkpt lat="47.55173" lon="3.74134">
        <ele>212</ele>
        <time>2014-04-17T11:07:59Z</time>
      </trkpt>
      <trkpt lat="47.55167" lon="3.74134">
        <ele>212</ele>
        <time>2014-04-17T11:08:03Z</time>
      </trkpt>
      <trkpt lat="47.55163" lon="3.74133">
        <ele>213</ele>
        <time>2014-04-17T11:08:06Z</time>
      </trkpt>
      <trkpt lat="47.55158" lon="3.74133">
        <ele>213</ele>
        <time>2014-04-17T11:08:12Z</time>
      </trkpt>
      <trkpt lat="47.55152" lon="3.74134">
        <ele>213</ele>
        <time>2014-04-17T11:08:15Z</time>
      </trkpt>
      <trkpt lat="47.55147" lon="3.74136">
        <ele>213</ele>
        <time>2014-04-17T11:08:18Z</time>
      </trkpt>
      <trkpt lat="47.55143" lon="3.7414">
        <ele>214</ele>
        <time>2014-04-17T11:08:22Z</time>
      </trkpt>
      <trkpt lat="47.55139" lon="3.74142">
        <ele>214</ele>
        <time>2014-04-17T11:08:27Z</time>
      </trkpt>
      <trkpt lat="47.55133" lon="3.74145">
        <ele>214</ele>
        <time>2014-04-17T11:08:31Z</time>
      </trkpt>
      <trkpt lat="47.55128" lon="3.74148">
        <ele>214</ele>
        <time>2014-04-17T11:08:35Z</time>
      </trkpt>
      <trkpt lat="47.55123" lon="3.74151">
        <ele>214</ele>
        <time>2014-04-17T11:08:38Z</time>
      </trkpt>
      <trkpt lat="47.55118" lon="3.74155">
        <ele>214</ele>
        <time>2014-04-17T11:08:42Z</time>
      </trkpt>
      <trkpt lat="47.55112" lon="3.74159">
        <ele>214</ele>
        <time>2014-04-17T11:08:46Z</time>
      </trkpt>
      <trkpt lat="47.55107" lon="3.74165">
        <ele>215</ele>
        <time>2014-04-17T11:08:49Z</time>
      </trkpt>
      <trkpt lat="47.55103" lon="3.7417">
        <ele>216</ele>
        <time>2014-04-17T11:08:52Z</time>
      </trkpt>
      <trkpt lat="47.55098" lon="3.74175">
        <ele>216</ele>
        <time>2014-04-17T11:08:55Z</time>
      </trkpt>
      <trkpt lat="47.55094" lon="3.74179">
        <ele>216</ele>
        <time>2014-04-17T11:08:58Z</time>
      </trkpt>
      <trkpt lat="47.5509" lon="3.74184">
        <ele>216</ele>
        <time>2014-04-17T11:09:01Z</time>
      </trkpt>
      <trkpt lat="47.55087" lon="3.74187">
        <ele>216</ele>
        <time>2014-04-17T11:09:03Z</time>
      </trkpt>
      <trkpt lat="47.55084" lon="3.74193">
        <ele>216</ele>
        <time>2014-04-17T11:09:10Z</time>
      </trkpt>
      <trkpt lat="47.55081" lon="3.74199">
        <ele>218</ele>
        <time>2014-04-17T11:09:16Z</time>
      </trkpt>
      <trkpt lat="47.55078" lon="3.74204">
        <ele>218</ele>
        <time>2014-04-17T11:09:22Z</time>
      </trkpt>
      <trkpt lat="47.55074" lon="3.7421">
        <ele>219</ele>
        <time>2014-04-17T11:09:27Z</time>
      </trkpt>
      <trkpt lat="47.5507" lon="3.74213">
        <ele>219</ele>
        <time>2014-04-17T11:09:31Z</time>
      </trkpt>
      <trkpt lat="47.55065" lon="3.74217">
        <ele>219</ele>
        <time>2014-04-17T11:09:36Z</time>
      </trkpt>
      <trkpt lat="47.55061" lon="3.74221">
        <ele>219</ele>
        <time>2014-04-17T11:09:40Z</time>
      </trkpt>
      <trkpt lat="47.55057" lon="3.74227">
        <ele>219</ele>
        <time>2014-04-17T11:09:43Z</time>
      </trkpt>
      <trkpt lat="47.55052" lon="3.74231">
        <ele>219</ele>
        <time>2014-04-17T11:09:47Z</time>
      </trkpt>
      <trkpt lat="47.55049" lon="3.74235">
        <ele>219</ele>
        <time>2014-04-17T11:09:51Z</time>
      </trkpt>
      <trkpt lat="47.55047" lon="3.74242">
        <ele>219</ele>
        <time>2014-04-17T11:09:56Z</time>
      </trkpt>
      <trkpt lat="47.55042" lon="3.74247">
        <ele>220</ele>
        <time>2014-04-17T11:10:01Z</time>
      </trkpt>
      <trkpt lat="47.55038" lon="3.74252">
        <ele>222</ele>
        <time>2014-04-17T11:10:04Z</time>
      </trkpt>
      <trkpt lat="47.55035" lon="3.74257">
        <ele>222</ele>
        <time>2014-04-17T11:10:08Z</time>
      </trkpt>
      <trkpt lat="47.55031" lon="3.74261">
        <ele>222</ele>
        <time>2014-04-17T11:10:12Z</time>
      </trkpt>
      <trkpt lat="47.55028" lon="3.74266">
        <ele>222</ele>
        <time>2014-04-17T11:10:15Z</time>
      </trkpt>
      <trkpt lat="47.55024" lon="3.74271">
        <ele>222</ele>
        <time>2014-04-17T11:10:18Z</time>
      </trkpt>
      <trkpt lat="47.55021" lon="3.74277">
        <ele>223</ele>
        <time>2014-04-17T11:10:21Z</time>
      </trkpt>
      <trkpt lat="47.55017" lon="3.74283">
        <ele>223</ele>
        <time>2014-04-17T11:10:23Z</time>
      </trkpt>
      <trkpt lat="47.55014" lon="3.74289">
        <ele>223</ele>
        <time>2014-04-17T11:10:27Z</time>
      </trkpt>
      <trkpt lat="47.55011" lon="3.74294">
        <ele>223</ele>
        <time>2014-04-17T11:10:31Z</time>
      </trkpt>
      <trkpt lat="47.55008" lon="3.74301">
        <ele>224</ele>
        <time>2014-04-17T11:10:35Z</time>
      </trkpt>
      <trkpt lat="47.55002" lon="3.74305">
        <ele>224</ele>
        <time>2014-04-17T11:10:39Z</time>
      </trkpt>
      <trkpt lat="47.54999" lon="3.74309">
        <ele>223</ele>
        <time>2014-04-17T11:10:43Z</time>
      </trkpt>
      <trkpt lat="47.54995" lon="3.74314">
        <ele>223</ele>
        <time>2014-04-17T11:10:49Z</time>
      </trkpt>
      <trkpt lat="47.5499" lon="3.74319">
        <ele>224</ele>
        <time>2014-04-17T11:10:54Z</time>
      </trkpt>
      <trkpt lat="47.54986" lon="3.74325">
        <ele>224</ele>
        <time>2014-04-17T11:10:58Z</time>
      </trkpt>
      <trkpt lat="47.54982" lon="3.74329">
        <ele>224</ele>
        <time>2014-04-17T11:11:01Z</time>
      </trkpt>
      <trkpt lat="47.54977" lon="3.74332">
        <ele>223</ele>
        <time>2014-04-17T11:11:05Z</time>
      </trkpt>
      <trkpt lat="47.54973" lon="3.74332">
        <ele>223</ele>
        <time>2014-04-17T11:11:09Z</time>
      </trkpt>
      <trkpt lat="47.54968" lon="3.74332">
        <ele>223</ele>
        <time>2014-04-17T11:11:12Z</time>
      </trkpt>
      <trkpt lat="47.54965" lon="3.74336">
        <ele>225</ele>
        <time>2014-04-17T11:11:17Z</time>
      </trkpt>
      <trkpt lat="47.54961" lon="3.74341">
        <ele>224</ele>
        <time>2014-04-17T11:11:21Z</time>
      </trkpt>
      <trkpt lat="47.54958" lon="3.74348">
        <ele>224</ele>
        <time>2014-04-17T11:11:26Z</time>
      </trkpt>
      <trkpt lat="47.54954" lon="3.74353">
        <ele>224</ele>
        <time>2014-04-17T11:11:30Z</time>
      </trkpt>
      <trkpt lat="47.5495" lon="3.74357">
        <ele>224</ele>
        <time>2014-04-17T11:11:33Z</time>
      </trkpt>
      <trkpt lat="47.54947" lon="3.74362">
        <ele>224</ele>
        <time>2014-04-17T11:11:36Z</time>
      </trkpt>
      <trkpt lat="47.54943" lon="3.7437">
        <ele>224</ele>
        <time>2014-04-17T11:11:40Z</time>
      </trkpt>
      <trkpt lat="47.5494" lon="3.74377">
        <ele>224</ele>
        <time>2014-04-17T11:11:43Z</time>
      </trkpt>
      <trkpt lat="47.54937" lon="3.74384">
        <ele>225</ele>
        <time>2014-04-17T11:11:47Z</time>
      </trkpt>
      <trkpt lat="47.54932" lon="3.74388">
        <ele>224</ele>
        <time>2014-04-17T11:11:51Z</time>
      </trkpt>
      <trkpt lat="47.5493" lon="3.74395">
        <ele>225</ele>
        <time>2014-04-17T11:11:57Z</time>
      </trkpt>
      <trkpt lat="47.54931" lon="3.74401">
        <ele>225</ele>
        <time>2014-04-17T11:12:01Z</time>
      </trkpt>
      <trkpt lat="47.54928" lon="3.74407">
        <ele>224</ele>
        <time>2014-04-17T11:12:05Z</time>
      </trkpt>
      <trkpt lat="47.54924" lon="3.74412">
        <ele>224</ele>
        <time>2014-04-17T11:12:09Z</time>
      </trkpt>
      <trkpt lat="47.54922" lon="3.74419">
        <ele>225</ele>
        <time>2014-04-17T11:12:12Z</time>
      </trkpt>
      <trkpt lat="47.54919" lon="3.74424">
        <ele>225</ele>
        <time>2014-04-17T11:12:15Z</time>
      </trkpt>
      <trkpt lat="47.54915" lon="3.74427">
        <ele>223</ele>
        <time>2014-04-17T11:12:18Z</time>
      </trkpt>
      <trkpt lat="47.54909" lon="3.74428">
        <ele>223</ele>
        <time>2014-04-17T11:12:21Z</time>
      </trkpt>
      <trkpt lat="47.54905" lon="3.74431">
        <ele>223</ele>
        <time>2014-04-17T11:12:24Z</time>
      </trkpt>
      <trkpt lat="47.54901" lon="3.74435">
        <ele>222</ele>
        <time>2014-04-17T11:12:27Z</time>
      </trkpt>
      <trkpt lat="47.54897" lon="3.7444">
        <ele>222</ele>
        <time>2014-04-17T11:12:30Z</time>
      </trkpt>
      <trkpt lat="47.54895" lon="3.74447">
        <ele>222</ele>
        <time>2014-04-17T11:12:34Z</time>
      </trkpt>
      <trkpt lat="47.54892" lon="3.74453">
        <ele>222</ele>
        <time>2014-04-17T11:12:37Z</time>
      </trkpt>
      <trkpt lat="47.54889" lon="3.74459">
        <ele>222</ele>
        <time>2014-04-17T11:12:40Z</time>
      </trkpt>
      <trkpt lat="47.54885" lon="3.74463">
        <ele>222</ele>
        <time>2014-04-17T11:12:43Z</time>
      </trkpt>
      <trkpt lat="47.54881" lon="3.74468">
        <ele>221</ele>
        <time>2014-04-17T11:12:48Z</time>
      </trkpt>
      <trkpt lat="47.54877" lon="3.74475">
        <ele>221</ele>
        <time>2014-04-17T11:12:52Z</time>
      </trkpt>
      <trkpt lat="47.54874" lon="3.74482">
        <ele>221</ele>
        <time>2014-04-17T11:12:55Z</time>
      </trkpt>
      <trkpt lat="47.54873" lon="3.74488">
        <ele>221</ele>
        <time>2014-04-17T11:12:58Z</time>
      </trkpt>
      <trkpt lat="47.54873" lon="3.74495">
        <ele>221</ele>
        <time>2014-04-17T11:13:02Z</time>
      </trkpt>
      <trkpt lat="47.54873" lon="3.74503">
        <ele>221</ele>
        <time>2014-04-17T11:13:09Z</time>
      </trkpt>
      <trkpt lat="47.54877" lon="3.74509">
        <ele>222</ele>
        <time>2014-04-17T11:13:14Z</time>
      </trkpt>
      <trkpt lat="47.54876" lon="3.74517">
        <ele>222</ele>
        <time>2014-04-17T11:13:17Z</time>
      </trkpt>
      <trkpt lat="47.54875" lon="3.74526">
        <ele>222</ele>
        <time>2014-04-17T11:13:21Z</time>
      </trkpt>
      <trkpt lat="47.54873" lon="3.74535">
        <ele>221</ele>
        <time>2014-04-17T11:13:25Z</time>
      </trkpt>
      <trkpt lat="47.5487" lon="3.74542">
        <ele>221</ele>
        <time>2014-04-17T11:13:28Z</time>
      </trkpt>
      <trkpt lat="47.54867" lon="3.74547">
        <ele>221</ele>
        <time>2014-04-17T11:13:31Z</time>
      </trkpt>
      <trkpt lat="47.54862" lon="3.7455">
        <ele>221</ele>
        <time>2014-04-17T11:13:35Z</time>
      </trkpt>
      <trkpt lat="47.54858" lon="3.74555">
        <ele>220</ele>
        <time>2014-04-17T11:13:39Z</time>
      </trkpt>
      <trkpt lat="47.54854" lon="3.7456">
        <ele>220</ele>
        <time>2014-04-17T11:13:42Z</time>
      </trkpt>
      <trkpt lat="47.54851" lon="3.74564">
        <ele>220</ele>
        <time>2014-04-17T11:13:45Z</time>
      </trkpt>
      <trkpt lat="47.54846" lon="3.74568">
        <ele>219</ele>
        <time>2014-04-17T11:13:49Z</time>
      </trkpt>
      <trkpt lat="47.54842" lon="3.74573">
        <ele>218</ele>
        <time>2014-04-17T11:13:53Z</time>
      </trkpt>
      <trkpt lat="47.54837" lon="3.74578">
        <ele>217</ele>
        <time>2014-04-17T11:13:57Z</time>
      </trkpt>
      <trkpt lat="47.54833" lon="3.74582">
        <ele>216</ele>
        <time>2014-04-17T11:14:01Z</time>
      </trkpt>
      <trkpt lat="47.54829" lon="3.74586">
        <ele>215</ele>
        <time>2014-04-17T11:14:05Z</time>
      </trkpt>
      <trkpt lat="47.54825" lon="3.74589">
        <ele>215</ele>
        <time>2014-04-17T11:14:09Z</time>
      </trkpt>
      <trkpt lat="47.5482" lon="3.74592">
        <ele>214</ele>
        <time>2014-04-17T11:14:14Z</time>
      </trkpt>
      <trkpt lat="47.54815" lon="3.74597">
        <ele>213</ele>
        <time>2014-04-17T11:14:19Z</time>
      </trkpt>
      <trkpt lat="47.54811" lon="3.746">
        <ele>213</ele>
        <time>2014-04-17T11:14:23Z</time>
      </trkpt>
      <trkpt lat="47.54806" lon="3.74603">
        <ele>213</ele>
        <time>2014-04-17T11:14:27Z</time>
      </trkpt>
      <trkpt lat="47.54801" lon="3.74607">
        <ele>212</ele>
        <time>2014-04-17T11:14:31Z</time>
      </trkpt>
      <trkpt lat="47.54797" lon="3.74611">
        <ele>212</ele>
        <time>2014-04-17T11:14:35Z</time>
      </trkpt>
      <trkpt lat="47.54792" lon="3.74615">
        <ele>212</ele>
        <time>2014-04-17T11:14:39Z</time>
      </trkpt>
      <trkpt lat="47.54787" lon="3.74618">
        <ele>212</ele>
        <time>2014-04-17T11:14:43Z</time>
      </trkpt>
      <trkpt lat="47.54781" lon="3.74621">
        <ele>211</ele>
        <time>2014-04-17T11:14:47Z</time>
      </trkpt>
      <trkpt lat="47.54777" lon="3.74624">
        <ele>211</ele>
        <time>2014-04-17T11:14:51Z</time>
      </trkpt>
      <trkpt lat="47.54772" lon="3.74629">
        <ele>211</ele>
        <time>2014-04-17T11:14:55Z</time>
      </trkpt>
      <trkpt lat="47.54768" lon="3.74633">
        <ele>211</ele>
        <time>2014-04-17T11:14:59Z</time>
      </trkpt>
      <trkpt lat="47.54764" lon="3.74638">
        <ele>211</ele>
        <time>2014-04-17T11:15:02Z</time>
      </trkpt>
      <trkpt lat="47.5476" lon="3.74643">
        <ele>210</ele>
        <time>2014-04-17T11:15:05Z</time>
      </trkpt>
      <trkpt lat="47.54755" lon="3.74648">
        <ele>210</ele>
        <time>2014-04-17T11:15:09Z</time>
      </trkpt>
      <trkpt lat="47.54752" lon="3.74653">
        <ele>210</ele>
        <time>2014-04-17T11:15:12Z</time>
      </trkpt>
      <trkpt lat="47.54747" lon="3.74656">
        <ele>208</ele>
        <time>2014-04-17T11:15:15Z</time>
      </trkpt>
      <trkpt lat="47.54743" lon="3.7466">
        <ele>208</ele>
        <time>2014-04-17T11:15:18Z</time>
      </trkpt>
      <trkpt lat="47.54739" lon="3.74663">
        <ele>208</ele>
        <time>2014-04-17T11:15:21Z</time>
      </trkpt>
      <trkpt lat="47.54734" lon="3.74668">
        <ele>208</ele>
        <time>2014-04-17T11:15:25Z</time>
      </trkpt>
      <trkpt lat="47.5473" lon="3.74673">
        <ele>208</ele>
        <time>2014-04-17T11:15:29Z</time>
      </trkpt>
      <trkpt lat="47.54727" lon="3.74677">
        <ele>208</ele>
        <time>2014-04-17T11:15:34Z</time>
      </trkpt>
      <trkpt lat="47.54723" lon="3.74682">
        <ele>208</ele>
        <time>2014-04-17T11:15:38Z</time>
      </trkpt>
      <trkpt lat="47.54719" lon="3.74687">
        <ele>208</ele>
        <time>2014-04-17T11:15:42Z</time>
      </trkpt>
      <trkpt lat="47.54714" lon="3.74689">
        <ele>208</ele>
        <time>2014-04-17T11:15:46Z</time>
      </trkpt>
      <trkpt lat="47.5471" lon="3.74693">
        <ele>208</ele>
        <time>2014-04-17T11:15:50Z</time>
      </trkpt>
      <trkpt lat="47.54705" lon="3.74697">
        <ele>208</ele>
        <time>2014-04-17T11:15:53Z</time>
      </trkpt>
      <trkpt lat="47.547" lon="3.74701">
        <ele>208</ele>
        <time>2014-04-17T11:15:57Z</time>
      </trkpt>
      <trkpt lat="47.54697" lon="3.74705">
        <ele>208</ele>
        <time>2014-04-17T11:16:00Z</time>
      </trkpt>
      <trkpt lat="47.54693" lon="3.74709">
        <ele>208</ele>
        <time>2014-04-17T11:16:04Z</time>
      </trkpt>
      <trkpt lat="47.54688" lon="3.74714">
        <ele>208</ele>
        <time>2014-04-17T11:16:08Z</time>
      </trkpt>
      <trkpt lat="47.54684" lon="3.74718">
        <ele>207</ele>
        <time>2014-04-17T11:16:11Z</time>
      </trkpt>
      <trkpt lat="47.5468" lon="3.74723">
        <ele>207</ele>
        <time>2014-04-17T11:16:16Z</time>
      </trkpt>
      <trkpt lat="47.54675" lon="3.74726">
        <ele>207</ele>
        <time>2014-04-17T11:16:19Z</time>
      </trkpt>
      <trkpt lat="47.54672" lon="3.7473">
        <ele>207</ele>
        <time>2014-04-17T11:16:22Z</time>
      </trkpt>
      <trkpt lat="47.54667" lon="3.74736">
        <ele>207</ele>
        <time>2014-04-17T11:16:26Z</time>
      </trkpt>
      <trkpt lat="47.54663" lon="3.7474">
        <ele>207</ele>
        <time>2014-04-17T11:16:29Z</time>
      </trkpt>
      <trkpt lat="47.54658" lon="3.74743">
        <ele>207</ele>
        <time>2014-04-17T11:16:33Z</time>
      </trkpt>
      <trkpt lat="47.54654" lon="3.74746">
        <ele>207</ele>
        <time>2014-04-17T11:16:36Z</time>
      </trkpt>
      <trkpt lat="47.54649" lon="3.74748">
        <ele>207</ele>
        <time>2014-04-17T11:16:39Z</time>
      </trkpt>
      <trkpt lat="47.54645" lon="3.74753">
        <ele>207</ele>
        <time>2014-04-17T11:16:42Z</time>
      </trkpt>
      <trkpt lat="47.54642" lon="3.74754">
        <ele>207</ele>
        <time>2014-04-17T11:16:44Z</time>
      </trkpt>
      <trkpt lat="47.54637" lon="3.74756">
        <ele>207</ele>
        <time>2014-04-17T11:16:48Z</time>
      </trkpt>
      <trkpt lat="47.54632" lon="3.74759">
        <ele>207</ele>
        <time>2014-04-17T11:16:51Z</time>
      </trkpt>
      <trkpt lat="47.54629" lon="3.74761">
        <ele>207</ele>
        <time>2014-04-17T11:16:53Z</time>
      </trkpt>
      <trkpt lat="47.54627" lon="3.74763">
        <ele>207</ele>
        <time>2014-04-17T11:16:54Z</time>
      </trkpt>
      <trkpt lat="47.54624" lon="3.74765">
        <ele>207</ele>
        <time>2014-04-17T11:16:56Z</time>
      </trkpt>
      <trkpt lat="47.54622" lon="3.74767">
        <ele>207</ele>
        <time>2014-04-17T11:16:58Z</time>
      </trkpt>
      <trkpt lat="47.54617" lon="3.74773">
        <ele>207</ele>
        <time>2014-04-17T11:17:08Z</time>
      </trkpt>
      <trkpt lat="47.54615" lon="3.74779">
        <ele>207</ele>
        <time>2014-04-17T11:17:12Z</time>
      </trkpt>
      <trkpt lat="47.54613" lon="3.74785">
        <ele>207</ele>
        <time>2014-04-17T11:17:16Z</time>
      </trkpt>
      <trkpt lat="47.54609" lon="3.74791">
        <ele>207</ele>
        <time>2014-04-17T11:17:20Z</time>
      </trkpt>
      <trkpt lat="47.54605" lon="3.74795">
        <ele>207</ele>
        <time>2014-04-17T11:17:23Z</time>
      </trkpt>
      <trkpt lat="47.546" lon="3.74799">
        <ele>207</ele>
        <time>2014-04-17T11:17:26Z</time>
      </trkpt>
      <trkpt lat="47.54596" lon="3.74803">
        <ele>207</ele>
        <time>2014-04-17T11:17:29Z</time>
      </trkpt>
      <trkpt lat="47.54591" lon="3.74806">
        <ele>207</ele>
        <time>2014-04-17T11:17:32Z</time>
      </trkpt>
      <trkpt lat="47.54585" lon="3.74811">
        <ele>207</ele>
        <time>2014-04-17T11:17:35Z</time>
      </trkpt>
      <trkpt lat="47.54582" lon="3.74813">
        <ele>208</ele>
        <time>2014-04-17T11:17:37Z</time>
      </trkpt>
      <trkpt lat="47.54579" lon="3.74815">
        <ele>208</ele>
        <time>2014-04-17T11:17:39Z</time>
      </trkpt>
      <trkpt lat="47.54573" lon="3.74818">
        <ele>208</ele>
        <time>2014-04-17T11:17:44Z</time>
      </trkpt>
      <trkpt lat="47.54569" lon="3.74821">
        <ele>208</ele>
        <time>2014-04-17T11:17:48Z</time>
      </trkpt>
      <trkpt lat="47.54564" lon="3.74825">
        <ele>208</ele>
        <time>2014-04-17T11:17:52Z</time>
      </trkpt>
      <trkpt lat="47.54559" lon="3.74826">
        <ele>208</ele>
        <time>2014-04-17T11:17:59Z</time>
      </trkpt>
      <trkpt lat="47.54555" lon="3.7483">
        <ele>208</ele>
        <time>2014-04-17T11:18:07Z</time>
      </trkpt>
      <trkpt lat="47.5455" lon="3.74829">
        <ele>209</ele>
        <time>2014-04-17T11:18:11Z</time>
      </trkpt>
      <trkpt lat="47.54548" lon="3.74828">
        <ele>209</ele>
        <time>2014-04-17T11:18:17Z</time>
      </trkpt>
      <trkpt lat="47.54543" lon="3.74831">
        <ele>209</ele>
        <time>2014-04-17T11:18:21Z</time>
      </trkpt>
      <trkpt lat="47.54538" lon="3.74832">
        <ele>209</ele>
        <time>2014-04-17T11:18:26Z</time>
      </trkpt>
      <trkpt lat="47.54534" lon="3.74835">
        <ele>209</ele>
        <time>2014-04-17T11:18:30Z</time>
      </trkpt>
      <trkpt lat="47.54529" lon="3.74838">
        <ele>209</ele>
        <time>2014-04-17T11:18:34Z</time>
      </trkpt>
      <trkpt lat="47.54524" lon="3.74841">
        <ele>209</ele>
        <time>2014-04-17T11:18:38Z</time>
      </trkpt>
      <trkpt lat="47.54518" lon="3.74843">
        <ele>210</ele>
        <time>2014-04-17T11:18:42Z</time>
      </trkpt>
      <trkpt lat="47.54514" lon="3.74845">
        <ele>210</ele>
        <time>2014-04-17T11:18:45Z</time>
      </trkpt>
      <trkpt lat="47.54509" lon="3.74848">
        <ele>210</ele>
        <time>2014-04-17T11:18:48Z</time>
      </trkpt>
      <trkpt lat="47.54504" lon="3.74852">
        <ele>210</ele>
        <time>2014-04-17T11:18:52Z</time>
      </trkpt>
      <trkpt lat="47.545" lon="3.74855">
        <ele>210</ele>
        <time>2014-04-17T11:18:56Z</time>
      </trkpt>
      <trkpt lat="47.54495" lon="3.74858">
        <ele>210</ele>
        <time>2014-04-17T11:19:00Z</time>
      </trkpt>
      <trkpt lat="47.54491" lon="3.74862">
        <ele>210</ele>
        <time>2014-04-17T11:19:04Z</time>
      </trkpt>
      <trkpt lat="47.54485" lon="3.74866">
        <ele>210</ele>
        <time>2014-04-17T11:19:08Z</time>
      </trkpt>
      <trkpt lat="47.5448" lon="3.74867">
        <ele>210</ele>
        <time>2014-04-17T11:19:11Z</time>
      </trkpt>
      <trkpt lat="47.54475" lon="3.74868">
        <ele>210</ele>
        <time>2014-04-17T11:19:15Z</time>
      </trkpt>
      <trkpt lat="47.54469" lon="3.7487">
        <ele>210</ele>
        <time>2014-04-17T11:19:20Z</time>
      </trkpt>
      <trkpt lat="47.54465" lon="3.74873">
        <ele>210</ele>
        <time>2014-04-17T11:19:23Z</time>
      </trkpt>
      <trkpt lat="47.5446" lon="3.74877">
        <ele>210</ele>
        <time>2014-04-17T11:19:26Z</time>
      </trkpt>
      <trkpt lat="47.54455" lon="3.74878">
        <ele>210</ele>
        <time>2014-04-17T11:19:29Z</time>
      </trkpt>
      <trkpt lat="47.54451" lon="3.7488">
        <ele>210</ele>
        <time>2014-04-17T11:19:32Z</time>
      </trkpt>
      <trkpt lat="47.54446" lon="3.74884">
        <ele>210</ele>
        <time>2014-04-17T11:19:36Z</time>
      </trkpt>
      <trkpt lat="47.54442" lon="3.74888">
        <ele>210</ele>
        <time>2014-04-17T11:19:40Z</time>
      </trkpt>
      <trkpt lat="47.54438" lon="3.74893">
        <ele>210</ele>
        <time>2014-04-17T11:19:43Z</time>
      </trkpt>
      <trkpt lat="47.54434" lon="3.74898">
        <ele>210</ele>
        <time>2014-04-17T11:19:47Z</time>
      </trkpt>
      <trkpt lat="47.54429" lon="3.74899">
        <ele>210</ele>
        <time>2014-04-17T11:19:54Z</time>
      </trkpt>
      <trkpt lat="47.54424" lon="3.74899">
        <ele>210</ele>
        <time>2014-04-17T11:19:59Z</time>
      </trkpt>
      <trkpt lat="47.54418" lon="3.74898">
        <ele>210</ele>
        <time>2014-04-17T11:20:03Z</time>
      </trkpt>
      <trkpt lat="47.54413" lon="3.749">
        <ele>211</ele>
        <time>2014-04-17T11:20:07Z</time>
      </trkpt>
      <trkpt lat="47.54409" lon="3.74901">
        <ele>211</ele>
        <time>2014-04-17T11:20:11Z</time>
      </trkpt>
      <trkpt lat="47.54403" lon="3.74901">
        <ele>211</ele>
        <time>2014-04-17T11:20:14Z</time>
      </trkpt>
      <trkpt lat="47.54398" lon="3.74902">
        <ele>211</ele>
        <time>2014-04-17T11:20:17Z</time>
      </trkpt>
      <trkpt lat="47.54393" lon="3.74901">
        <ele>211</ele>
        <time>2014-04-17T11:20:21Z</time>
      </trkpt>
      <trkpt lat="47.54388" lon="3.74902">
        <ele>211</ele>
        <time>2014-04-17T11:20:24Z</time>
      </trkpt>
      <trkpt lat="47.54383" lon="3.74903">
        <ele>211</ele>
        <time>2014-04-17T11:20:27Z</time>
      </trkpt>
      <trkpt lat="47.54378" lon="3.74905">
        <ele>212</ele>
        <time>2014-04-17T11:20:30Z</time>
      </trkpt>
      <trkpt lat="47.54372" lon="3.74906">
        <ele>212</ele>
        <time>2014-04-17T11:20:34Z</time>
      </trkpt>
      <trkpt lat="47.54367" lon="3.74908">
        <ele>212</ele>
        <time>2014-04-17T11:20:38Z</time>
      </trkpt>
      <trkpt lat="47.54363" lon="3.74911">
        <ele>212</ele>
        <time>2014-04-17T11:20:41Z</time>
      </trkpt>
      <trkpt lat="47.54358" lon="3.74916">
        <ele>212</ele>
        <time>2014-04-17T11:20:45Z</time>
      </trkpt>
      <trkpt lat="47.54352" lon="3.74917">
        <ele>213</ele>
        <time>2014-04-17T11:20:51Z</time>
      </trkpt>
      <trkpt lat="47.54348" lon="3.74918">
        <ele>213</ele>
        <time>2014-04-17T11:20:56Z</time>
      </trkpt>
      <trkpt lat="47.54342" lon="3.74919">
        <ele>213</ele>
        <time>2014-04-17T11:21:02Z</time>
      </trkpt>
      <trkpt lat="47.54338" lon="3.74922">
        <ele>213</ele>
        <time>2014-04-17T11:21:06Z</time>
      </trkpt>
      <trkpt lat="47.54333" lon="3.74926">
        <ele>214</ele>
        <time>2014-04-17T11:21:10Z</time>
      </trkpt>
      <trkpt lat="47.54327" lon="3.74925">
        <ele>214</ele>
        <time>2014-04-17T11:21:14Z</time>
      </trkpt>
      <trkpt lat="47.54321" lon="3.74925">
        <ele>214</ele>
        <time>2014-04-17T11:21:18Z</time>
      </trkpt>
      <trkpt lat="47.54316" lon="3.74925">
        <ele>215</ele>
        <time>2014-04-17T11:21:22Z</time>
      </trkpt>
      <trkpt lat="47.5431" lon="3.74925">
        <ele>215</ele>
        <time>2014-04-17T11:21:26Z</time>
      </trkpt>
      <trkpt lat="47.54305" lon="3.74926">
        <ele>215</ele>
        <time>2014-04-17T11:21:29Z</time>
      </trkpt>
      <trkpt lat="47.54299" lon="3.74927">
        <ele>215</ele>
        <time>2014-04-17T11:21:32Z</time>
      </trkpt>
      <trkpt lat="47.54294" lon="3.74928">
        <ele>215</ele>
        <time>2014-04-17T11:21:35Z</time>
      </trkpt>
      <trkpt lat="47.54289" lon="3.74927">
        <ele>215</ele>
        <time>2014-04-17T11:21:39Z</time>
      </trkpt>
      <trkpt lat="47.54284" lon="3.74928">
        <ele>215</ele>
        <time>2014-04-17T11:21:44Z</time>
      </trkpt>
      <trkpt lat="47.54279" lon="3.7493">
        <ele>215</ele>
        <time>2014-04-17T11:21:49Z</time>
      </trkpt>
      <trkpt lat="47.54275" lon="3.74931">
        <ele>215</ele>
        <time>2014-04-17T11:21:54Z</time>
      </trkpt>
      <trkpt lat="47.54269" lon="3.74933">
        <ele>215</ele>
        <time>2014-04-17T11:21:58Z</time>
      </trkpt>
      <trkpt lat="47.54264" lon="3.74936">
        <ele>215</ele>
        <time>2014-04-17T11:22:01Z</time>
      </trkpt>
      <trkpt lat="47.54258" lon="3.74937">
        <ele>215</ele>
        <time>2014-04-17T11:22:05Z</time>
      </trkpt>
      <trkpt lat="47.54253" lon="3.74938">
        <ele>215</ele>
        <time>2014-04-17T11:22:09Z</time>
      </trkpt>
      <trkpt lat="47.54248" lon="3.74941">
        <ele>218</ele>
        <time>2014-04-17T11:22:14Z</time>
      </trkpt>
      <trkpt lat="47.54244" lon="3.74945">
        <ele>218</ele>
        <time>2014-04-17T11:22:18Z</time>
      </trkpt>
      <trkpt lat="47.54238" lon="3.74948">
        <ele>218</ele>
        <time>2014-04-17T11:22:22Z</time>
      </trkpt>
      <trkpt lat="47.54234" lon="3.74946">
        <ele>218</ele>
        <time>2014-04-17T11:22:27Z</time>
      </trkpt>
      <trkpt lat="47.54229" lon="3.74949">
        <ele>219</ele>
        <time>2014-04-17T11:22:35Z</time>
      </trkpt>
      <trkpt lat="47.54224" lon="3.74952">
        <ele>219</ele>
        <time>2014-04-17T11:22:40Z</time>
      </trkpt>
      <trkpt lat="47.54219" lon="3.74954">
        <ele>219</ele>
        <time>2014-04-17T11:22:45Z</time>
      </trkpt>
      <trkpt lat="47.54214" lon="3.74955">
        <ele>219</ele>
        <time>2014-04-17T11:22:49Z</time>
      </trkpt>
      <trkpt lat="47.54208" lon="3.74958">
        <ele>219</ele>
        <time>2014-04-17T11:22:52Z</time>
      </trkpt>
      <trkpt lat="47.54203" lon="3.74959">
        <ele>219</ele>
        <time>2014-04-17T11:22:56Z</time>
      </trkpt>
      <trkpt lat="47.54198" lon="3.7496">
        <ele>220</ele>
        <time>2014-04-17T11:23:00Z</time>
      </trkpt>
      <trkpt lat="47.54193" lon="3.7496">
        <ele>220</ele>
        <time>2014-04-17T11:23:04Z</time>
      </trkpt>
      <trkpt lat="47.54187" lon="3.7496">
        <ele>220</ele>
        <time>2014-04-17T11:23:09Z</time>
      </trkpt>
      <trkpt lat="47.54183" lon="3.74957">
        <ele>220</ele>
        <time>2014-04-17T11:23:16Z</time>
      </trkpt>
      <trkpt lat="47.54176" lon="3.74958">
        <ele>220</ele>
        <time>2014-04-17T11:23:22Z</time>
      </trkpt>
      <trkpt lat="47.5417" lon="3.7496">
        <ele>220</ele>
        <time>2014-04-17T11:23:26Z</time>
      </trkpt>
      <trkpt lat="47.54166" lon="3.74961">
        <ele>225</ele>
        <time>2014-04-17T11:23:29Z</time>
      </trkpt>
      <trkpt lat="47.5416" lon="3.74963">
        <ele>225</ele>
        <time>2014-04-17T11:23:33Z</time>
      </trkpt>
      <trkpt lat="47.54156" lon="3.74963">
        <ele>226</ele>
        <time>2014-04-17T11:23:39Z</time>
      </trkpt>
      <trkpt lat="47.5415" lon="3.74965">
        <ele>226</ele>
        <time>2014-04-17T11:23:43Z</time>
      </trkpt>
      <trkpt lat="47.54144" lon="3.74966">
        <ele>226</ele>
        <time>2014-04-17T11:23:47Z</time>
      </trkpt>
      <trkpt lat="47.54139" lon="3.74967">
        <ele>226</ele>
        <time>2014-04-17T11:23:50Z</time>
      </trkpt>
      <trkpt lat="47.54135" lon="3.74964">
        <ele>227</ele>
        <time>2014-04-17T11:23:54Z</time>
      </trkpt>
      <trkpt lat="47.5413" lon="3.74964">
        <ele>227</ele>
        <time>2014-04-17T11:23:58Z</time>
      </trkpt>
      <trkpt lat="47.54125" lon="3.74967">
        <ele>227</ele>
        <time>2014-04-17T11:24:03Z</time>
      </trkpt>
      <trkpt lat="47.5412" lon="3.74971">
        <ele>227</ele>
        <time>2014-04-17T11:24:07Z</time>
      </trkpt>
      <trkpt lat="47.54117" lon="3.74976">
        <ele>227</ele>
        <time>2014-04-17T11:24:12Z</time>
      </trkpt>
      <trkpt lat="47.5411" lon="3.74978">
        <ele>228</ele>
        <time>2014-04-17T11:24:17Z</time>
      </trkpt>
      <trkpt lat="47.54105" lon="3.74981">
        <ele>228</ele>
        <time>2014-04-17T11:24:21Z</time>
      </trkpt>
      <trkpt lat="47.541" lon="3.74982">
        <ele>228</ele>
        <time>2014-04-17T11:24:26Z</time>
      </trkpt>
      <trkpt lat="47.54096" lon="3.74983">
        <ele>228</ele>
        <time>2014-04-17T11:24:30Z</time>
      </trkpt>
      <trkpt lat="47.5409" lon="3.74985">
        <ele>228</ele>
        <time>2014-04-17T11:24:34Z</time>
      </trkpt>
      <trkpt lat="47.54086" lon="3.74987">
        <ele>228</ele>
        <time>2014-04-17T11:24:37Z</time>
      </trkpt>
      <trkpt lat="47.54081" lon="3.7499">
        <ele>232</ele>
        <time>2014-04-17T11:24:41Z</time>
      </trkpt>
      <trkpt lat="47.54077" lon="3.74993">
        <ele>231</ele>
        <time>2014-04-17T11:24:48Z</time>
      </trkpt>
      <trkpt lat="47.54073" lon="3.74998">
        <ele>232</ele>
        <time>2014-04-17T11:24:52Z</time>
      </trkpt>
      <trkpt lat="47.54069" lon="3.75001">
        <ele>231</ele>
        <time>2014-04-17T11:24:55Z</time>
      </trkpt>
      <trkpt lat="47.54063" lon="3.75003">
        <ele>232</ele>
        <time>2014-04-17T11:24:58Z</time>
      </trkpt>
      <trkpt lat="47.54057" lon="3.75004">
        <ele>232</ele>
        <time>2014-04-17T11:25:01Z</time>
      </trkpt>
      <trkpt lat="47.54053" lon="3.75001">
        <ele>233</ele>
        <time>2014-04-17T11:25:08Z</time>
      </trkpt>
      <trkpt lat="47.5405" lon="3.75007">
        <ele>233</ele>
        <time>2014-04-17T11:25:13Z</time>
      </trkpt>
      <trkpt lat="47.54046" lon="3.75011">
        <ele>233</ele>
        <time>2014-04-17T11:25:18Z</time>
      </trkpt>
      <trkpt lat="47.54042" lon="3.75014">
        <ele>234</ele>
        <time>2014-04-17T11:25:22Z</time>
      </trkpt>
      <trkpt lat="47.54037" lon="3.75017">
        <ele>234</ele>
        <time>2014-04-17T11:25:27Z</time>
      </trkpt>
      <trkpt lat="47.54033" lon="3.75021">
        <ele>234</ele>
        <time>2014-04-17T11:25:30Z</time>
      </trkpt>
      <trkpt lat="47.54027" lon="3.75023">
        <ele>235</ele>
        <time>2014-04-17T11:25:33Z</time>
      </trkpt>
      <trkpt lat="47.54022" lon="3.75025">
        <ele>235</ele>
        <time>2014-04-17T11:25:36Z</time>
      </trkpt>
      <trkpt lat="47.54018" lon="3.75028">
        <ele>235</ele>
        <time>2014-04-17T11:25:41Z</time>
      </trkpt>
      <trkpt lat="47.54013" lon="3.7503">
        <ele>235</ele>
        <time>2014-04-17T11:25:46Z</time>
      </trkpt>
      <trkpt lat="47.54008" lon="3.75034">
        <ele>235</ele>
        <time>2014-04-17T11:25:51Z</time>
      </trkpt>
      <trkpt lat="47.54004" lon="3.75038">
        <ele>235</ele>
        <time>2014-04-17T11:25:55Z</time>
      </trkpt>
      <trkpt lat="47.54" lon="3.75042">
        <ele>241</ele>
        <time>2014-04-17T11:25:58Z</time>
      </trkpt>
      <trkpt lat="47.53996" lon="3.75047">
        <ele>241</ele>
        <time>2014-04-17T11:26:03Z</time>
      </trkpt>
      <trkpt lat="47.53992" lon="3.75052">
        <ele>240</ele>
        <time>2014-04-17T11:26:06Z</time>
      </trkpt>
      <trkpt lat="47.53987" lon="3.75059">
        <ele>240</ele>
        <time>2014-04-17T11:26:09Z</time>
      </trkpt>
      <trkpt lat="47.53982" lon="3.75062">
        <ele>240</ele>
        <time>2014-04-17T11:26:11Z</time>
      </trkpt>
      <trkpt lat="47.53977" lon="3.75066">
        <ele>240</ele>
        <time>2014-04-17T11:26:14Z</time>
      </trkpt>
      <trkpt lat="47.53973" lon="3.7507">
        <ele>240</ele>
        <time>2014-04-17T11:26:17Z</time>
      </trkpt>
      <trkpt lat="47.53971" lon="3.75076">
        <ele>240</ele>
        <time>2014-04-17T11:26:24Z</time>
      </trkpt>
      <trkpt lat="47.53966" lon="3.7508">
        <ele>240</ele>
        <time>2014-04-17T11:26:30Z</time>
      </trkpt>
      <trkpt lat="47.53961" lon="3.75081">
        <ele>241</ele>
        <time>2014-04-17T11:26:33Z</time>
      </trkpt>
      <trkpt lat="47.53955" lon="3.75081">
        <ele>241</ele>
        <time>2014-04-17T11:26:37Z</time>
      </trkpt>
      <trkpt lat="47.53951" lon="3.75082">
        <ele>241</ele>
        <time>2014-04-17T11:26:42Z</time>
      </trkpt>
      <trkpt lat="47.53946" lon="3.75086">
        <ele>238</ele>
        <time>2014-04-17T11:26:47Z</time>
      </trkpt>
      <trkpt lat="47.5394" lon="3.75086">
        <ele>238</ele>
        <time>2014-04-17T11:26:51Z</time>
      </trkpt>
      <trkpt lat="47.53935" lon="3.75088">
        <ele>239</ele>
        <time>2014-04-17T11:26:54Z</time>
      </trkpt>
      <trkpt lat="47.53931" lon="3.75091">
        <ele>239</ele>
        <time>2014-04-17T11:26:57Z</time>
      </trkpt>
      <trkpt lat="47.53927" lon="3.75096">
        <ele>239</ele>
        <time>2014-04-17T11:27:05Z</time>
      </trkpt>
      <trkpt lat="47.53923" lon="3.751">
        <ele>239</ele>
        <time>2014-04-17T11:27:10Z</time>
      </trkpt>
      <trkpt lat="47.53918" lon="3.75101">
        <ele>239</ele>
        <time>2014-04-17T11:27:15Z</time>
      </trkpt>
      <trkpt lat="47.53914" lon="3.75104">
        <ele>243</ele>
        <time>2014-04-17T11:27:20Z</time>
      </trkpt>
      <trkpt lat="47.5391" lon="3.75107">
        <ele>243</ele>
        <time>2014-04-17T11:27:39Z</time>
      </trkpt>
      <trkpt lat="47.53906" lon="3.75113">
        <ele>243</ele>
        <time>2014-04-17T11:27:44Z</time>
      </trkpt>
      <trkpt lat="47.53901" lon="3.75115">
        <ele>243</ele>
        <time>2014-04-17T11:27:48Z</time>
      </trkpt>
      <trkpt lat="47.53897" lon="3.7512">
        <ele>244</ele>
        <time>2014-04-17T11:27:53Z</time>
      </trkpt>
      <trkpt lat="47.53893" lon="3.75123">
        <ele>244</ele>
        <time>2014-04-17T11:27:57Z</time>
      </trkpt>
      <trkpt lat="47.53888" lon="3.75125">
        <ele>244</ele>
        <time>2014-04-17T11:28:02Z</time>
      </trkpt>
      <trkpt lat="47.53883" lon="3.75127">
        <ele>244</ele>
        <time>2014-04-17T11:28:05Z</time>
      </trkpt>
      <trkpt lat="47.53879" lon="3.7513">
        <ele>245</ele>
        <time>2014-04-17T11:28:09Z</time>
      </trkpt>
      <trkpt lat="47.53874" lon="3.75133">
        <ele>245</ele>
        <time>2014-04-17T11:28:12Z</time>
      </trkpt>
      <trkpt lat="47.53868" lon="3.75139">
        <ele>245</ele>
        <time>2014-04-17T11:28:16Z</time>
      </trkpt>
      <trkpt lat="47.53864" lon="3.75145">
        <ele>245</ele>
        <time>2014-04-17T11:28:20Z</time>
      </trkpt>
      <trkpt lat="47.53859" lon="3.75149">
        <ele>246</ele>
        <time>2014-04-17T11:28:23Z</time>
      </trkpt>
      <trkpt lat="47.53854" lon="3.7515">
        <ele>246</ele>
        <time>2014-04-17T11:28:25Z</time>
      </trkpt>
      <trkpt lat="47.53849" lon="3.75153">
        <ele>247</ele>
        <time>2014-04-17T11:28:28Z</time>
      </trkpt>
      <trkpt lat="47.53845" lon="3.75159">
        <ele>247</ele>
        <time>2014-04-17T11:28:33Z</time>
      </trkpt>
      <trkpt lat="47.53842" lon="3.75164">
        <ele>248</ele>
        <time>2014-04-17T11:28:42Z</time>
      </trkpt>
      <trkpt lat="47.53838" lon="3.75166">
        <ele>248</ele>
        <time>2014-04-17T11:28:48Z</time>
      </trkpt>
      <trkpt lat="47.53833" lon="3.75169">
        <ele>249</ele>
        <time>2014-04-17T11:28:53Z</time>
      </trkpt>
      <trkpt lat="47.53829" lon="3.75174">
        <ele>250</ele>
        <time>2014-04-17T11:28:59Z</time>
      </trkpt>
      <trkpt lat="47.53825" lon="3.75175">
        <ele>250</ele>
        <time>2014-04-17T11:29:06Z</time>
      </trkpt>
      <trkpt lat="47.53819" lon="3.75179">
        <ele>250</ele>
        <time>2014-04-17T11:29:10Z</time>
      </trkpt>
      <trkpt lat="47.53814" lon="3.75183">
        <ele>251</ele>
        <time>2014-04-17T11:29:13Z</time>
      </trkpt>
      <trkpt lat="47.53809" lon="3.75188">
        <ele>251</ele>
        <time>2014-04-17T11:29:17Z</time>
      </trkpt>
      <trkpt lat="47.53804" lon="3.7519">
        <ele>251</ele>
        <time>2014-04-17T11:29:21Z</time>
      </trkpt>
      <trkpt lat="47.53799" lon="3.75191">
        <ele>252</ele>
        <time>2014-04-17T11:29:24Z</time>
      </trkpt>
      <trkpt lat="47.53794" lon="3.75194">
        <ele>252</ele>
        <time>2014-04-17T11:29:30Z</time>
      </trkpt>
      <trkpt lat="47.53789" lon="3.75197">
        <ele>252</ele>
        <time>2014-04-17T11:29:35Z</time>
      </trkpt>
      <trkpt lat="47.53785" lon="3.75201">
        <ele>252</ele>
        <time>2014-04-17T11:29:39Z</time>
      </trkpt>
      <trkpt lat="47.53781" lon="3.75203">
        <ele>252</ele>
        <time>2014-04-17T11:29:43Z</time>
      </trkpt>
      <trkpt lat="47.53776" lon="3.75204">
        <ele>253</ele>
        <time>2014-04-17T11:29:47Z</time>
      </trkpt>
      <trkpt lat="47.53772" lon="3.75208">
        <ele>253</ele>
        <time>2014-04-17T11:29:51Z</time>
      </trkpt>
      <trkpt lat="47.53768" lon="3.75213">
        <ele>253</ele>
        <time>2014-04-17T11:29:54Z</time>
      </trkpt>
      <trkpt lat="47.53763" lon="3.75216">
        <ele>253</ele>
        <time>2014-04-17T11:29:57Z</time>
      </trkpt>
      <trkpt lat="47.53759" lon="3.75219">
        <ele>253</ele>
        <time>2014-04-17T11:30:00Z</time>
      </trkpt>
      <trkpt lat="47.53754" lon="3.75221">
        <ele>253</ele>
        <time>2014-04-17T11:30:04Z</time>
      </trkpt>
      <trkpt lat="47.5375" lon="3.75223">
        <ele>255</ele>
        <time>2014-04-17T11:30:07Z</time>
      </trkpt>
      <trkpt lat="47.53745" lon="3.75223">
        <ele>255</ele>
        <time>2014-04-17T11:30:11Z</time>
      </trkpt>
      <trkpt lat="47.53741" lon="3.75226">
        <ele>255</ele>
        <time>2014-04-17T11:30:15Z</time>
      </trkpt>
      <trkpt lat="47.53736" lon="3.75229">
        <ele>255</ele>
        <time>2014-04-17T11:30:19Z</time>
      </trkpt>
      <trkpt lat="47.53733" lon="3.75234">
        <ele>255</ele>
        <time>2014-04-17T11:30:22Z</time>
      </trkpt>
      <trkpt lat="47.53728" lon="3.75238">
        <ele>255</ele>
        <time>2014-04-17T11:30:26Z</time>
      </trkpt>
      <trkpt lat="47.53723" lon="3.7524">
        <ele>255</ele>
        <time>2014-04-17T11:30:29Z</time>
      </trkpt>
      <trkpt lat="47.53718" lon="3.75243">
        <ele>255</ele>
        <time>2014-04-17T11:30:33Z</time>
      </trkpt>
      <trkpt lat="47.53713" lon="3.75244">
        <ele>255</ele>
        <time>2014-04-17T11:30:39Z</time>
      </trkpt>
      <trkpt lat="47.53707" lon="3.75246">
        <ele>255</ele>
        <time>2014-04-17T11:30:43Z</time>
      </trkpt>
      <trkpt lat="47.53703" lon="3.75248">
        <ele>255</ele>
        <time>2014-04-17T11:30:48Z</time>
      </trkpt>
      <trkpt lat="47.53698" lon="3.75247">
        <ele>255</ele>
        <time>2014-04-17T11:30:52Z</time>
      </trkpt>
      <trkpt lat="47.53691" lon="3.75248">
        <ele>255</ele>
        <time>2014-04-17T11:30:56Z</time>
      </trkpt>
      <trkpt lat="47.53686" lon="3.75248">
        <ele>255</ele>
        <time>2014-04-17T11:30:59Z</time>
      </trkpt>
      <trkpt lat="47.53681" lon="3.75253">
        <ele>253</ele>
        <time>2014-04-17T11:31:01Z</time>
      </trkpt>
      <trkpt lat="47.53676" lon="3.75257">
        <ele>254</ele>
        <time>2014-04-17T11:31:05Z</time>
      </trkpt>
      <trkpt lat="47.53673" lon="3.75262">
        <ele>253</ele>
        <time>2014-04-17T11:31:10Z</time>
      </trkpt>
      <trkpt lat="47.53667" lon="3.75262">
        <ele>254</ele>
        <time>2014-04-17T11:31:16Z</time>
      </trkpt>
      <trkpt lat="47.53663" lon="3.75261">
        <ele>254</ele>
        <time>2014-04-17T11:31:19Z</time>
      </trkpt>
      <trkpt lat="47.53658" lon="3.7526">
        <ele>254</ele>
        <time>2014-04-17T11:31:25Z</time>
      </trkpt>
      <trkpt lat="47.53653" lon="3.75261">
        <ele>254</ele>
        <time>2014-04-17T11:31:30Z</time>
      </trkpt>
      <trkpt lat="47.53648" lon="3.75262">
        <ele>254</ele>
        <time>2014-04-17T11:31:34Z</time>
      </trkpt>
      <trkpt lat="47.53644" lon="3.75263">
        <ele>254</ele>
        <time>2014-04-17T11:31:38Z</time>
      </trkpt>
      <trkpt lat="47.53639" lon="3.75263">
        <ele>254</ele>
        <time>2014-04-17T11:31:41Z</time>
      </trkpt>
      <trkpt lat="47.53634" lon="3.75262">
        <ele>254</ele>
        <time>2014-04-17T11:31:46Z</time>
      </trkpt>
      <trkpt lat="47.53628" lon="3.75263">
        <ele>254</ele>
        <time>2014-04-17T11:31:50Z</time>
      </trkpt>
      <trkpt lat="47.53623" lon="3.75264">
        <ele>254</ele>
        <time>2014-04-17T11:31:54Z</time>
      </trkpt>
      <trkpt lat="47.53618" lon="3.75263">
        <ele>254</ele>
        <time>2014-04-17T11:31:59Z</time>
      </trkpt>
      <trkpt lat="47.53612" lon="3.75263">
        <ele>254</ele>
        <time>2014-04-17T11:32:04Z</time>
      </trkpt>
      <trkpt lat="47.53607" lon="3.7526">
        <ele>254</ele>
        <time>2014-04-17T11:32:09Z</time>
      </trkpt>
      <trkpt lat="47.53603" lon="3.75257">
        <ele>254</ele>
        <time>2014-04-17T11:32:13Z</time>
      </trkpt>
      <trkpt lat="47.53598" lon="3.75258">
        <ele>254</ele>
        <time>2014-04-17T11:32:17Z</time>
      </trkpt>
      <trkpt lat="47.53593" lon="3.75257">
        <ele>254</ele>
        <time>2014-04-17T11:32:21Z</time>
      </trkpt>
      <trkpt lat="47.53589" lon="3.75256">
        <ele>254</ele>
        <time>2014-04-17T11:32:24Z</time>
      </trkpt>
      <trkpt lat="47.53583" lon="3.75257">
        <ele>254</ele>
        <time>2014-04-17T11:32:27Z</time>
      </trkpt>
      <trkpt lat="47.53577" lon="3.75258">
        <ele>254</ele>
        <time>2014-04-17T11:32:31Z</time>
      </trkpt>
      <trkpt lat="47.53573" lon="3.75262">
        <ele>253</ele>
        <time>2014-04-17T11:32:34Z</time>
      </trkpt>
      <trkpt lat="47.53569" lon="3.75269">
        <ele>253</ele>
        <time>2014-04-17T11:32:39Z</time>
      </trkpt>
      <trkpt lat="47.53567" lon="3.75277">
        <ele>252</ele>
        <time>2014-04-17T11:32:48Z</time>
      </trkpt>
      <trkpt lat="47.53566" lon="3.75285">
        <ele>252</ele>
        <time>2014-04-17T11:32:52Z</time>
      </trkpt>
      <trkpt lat="47.53566" lon="3.75292">
        <ele>252</ele>
        <time>2014-04-17T11:32:58Z</time>
      </trkpt>
      <trkpt lat="47.53566" lon="3.75299">
        <ele>252</ele>
        <time>2014-04-17T11:33:02Z</time>
      </trkpt>
      <trkpt lat="47.53564" lon="3.75313">
        <ele>251</ele>
        <time>2014-04-17T11:33:14Z</time>
      </trkpt>
      <trkpt lat="47.53562" lon="3.7532">
        <ele>251</ele>
        <time>2014-04-17T11:33:18Z</time>
      </trkpt>
      <trkpt lat="47.5356" lon="3.75326">
        <ele>251</ele>
        <time>2014-04-17T11:33:21Z</time>
      </trkpt>
      <trkpt lat="47.53558" lon="3.75333">
        <ele>251</ele>
        <time>2014-04-17T11:33:25Z</time>
      </trkpt>
      <trkpt lat="47.53557" lon="3.7534">
        <ele>249</ele>
        <time>2014-04-17T11:33:28Z</time>
      </trkpt>
      <trkpt lat="47.53555" lon="3.75346">
        <ele>248</ele>
        <time>2014-04-17T11:33:33Z</time>
      </trkpt>
      <trkpt lat="47.53556" lon="3.75354">
        <ele>248</ele>
        <time>2014-04-17T11:33:41Z</time>
      </trkpt>
      <trkpt lat="47.53556" lon="3.75363">
        <ele>248</ele>
        <time>2014-04-17T11:33:45Z</time>
      </trkpt>
      <trkpt lat="47.53556" lon="3.7537">
        <ele>248</ele>
        <time>2014-04-17T11:33:48Z</time>
      </trkpt>
      <trkpt lat="47.53557" lon="3.75377">
        <ele>248</ele>
        <time>2014-04-17T11:33:52Z</time>
      </trkpt>
      <trkpt lat="47.53557" lon="3.75385">
        <ele>248</ele>
        <time>2014-04-17T11:33:57Z</time>
      </trkpt>
      <trkpt lat="47.53556" lon="3.75392">
        <ele>247</ele>
        <time>2014-04-17T11:34:03Z</time>
      </trkpt>
      <trkpt lat="47.53558" lon="3.754">
        <ele>247</ele>
        <time>2014-04-17T11:34:07Z</time>
      </trkpt>
      <trkpt lat="47.53558" lon="3.75409">
        <ele>247</ele>
        <time>2014-04-17T11:34:11Z</time>
      </trkpt>
      <trkpt lat="47.53559" lon="3.75416">
        <ele>247</ele>
        <time>2014-04-17T11:34:14Z</time>
      </trkpt>
      <trkpt lat="47.53559" lon="3.75423">
        <ele>245</ele>
        <time>2014-04-17T11:34:17Z</time>
      </trkpt>
      <trkpt lat="47.53558" lon="3.7543">
        <ele>244</ele>
        <time>2014-04-17T11:34:20Z</time>
      </trkpt>
      <trkpt lat="47.53557" lon="3.75437">
        <ele>244</ele>
        <time>2014-04-17T11:34:23Z</time>
      </trkpt>
      <trkpt lat="47.53555" lon="3.75444">
        <ele>243</ele>
        <time>2014-04-17T11:34:28Z</time>
      </trkpt>
      <trkpt lat="47.53554" lon="3.75451">
        <ele>243</ele>
        <time>2014-04-17T11:34:33Z</time>
      </trkpt>
      <trkpt lat="47.53552" lon="3.7546">
        <ele>242</ele>
        <time>2014-04-17T11:34:38Z</time>
      </trkpt>
      <trkpt lat="47.53552" lon="3.75467">
        <ele>242</ele>
        <time>2014-04-17T11:34:42Z</time>
      </trkpt>
      <trkpt lat="47.53552" lon="3.75475">
        <ele>242</ele>
        <time>2014-04-17T11:34:45Z</time>
      </trkpt>
      <trkpt lat="47.53551" lon="3.75483">
        <ele>242</ele>
        <time>2014-04-17T11:34:48Z</time>
      </trkpt>
      <trkpt lat="47.53551" lon="3.7549">
        <ele>242</ele>
        <time>2014-04-17T11:34:51Z</time>
      </trkpt>
      <trkpt lat="47.5355" lon="3.75498">
        <ele>242</ele>
        <time>2014-04-17T11:34:55Z</time>
      </trkpt>
      <trkpt lat="47.5355" lon="3.75505">
        <ele>239</ele>
        <time>2014-04-17T11:34:58Z</time>
      </trkpt>
      <trkpt lat="47.5355" lon="3.75515">
        <ele>239</ele>
        <time>2014-04-17T11:35:01Z</time>
      </trkpt>
      <trkpt lat="47.53551" lon="3.75522">
        <ele>239</ele>
        <time>2014-04-17T11:35:04Z</time>
      </trkpt>
      <trkpt lat="47.53548" lon="3.75528">
        <ele>238</ele>
        <time>2014-04-17T11:35:08Z</time>
      </trkpt>
      <trkpt lat="47.53546" lon="3.7553">
        <ele>238</ele>
        <time>2014-04-17T11:35:14Z</time>
      </trkpt>
      <trkpt lat="47.53543" lon="3.75528">
        <ele>238</ele>
        <time>2014-04-17T11:35:28Z</time>
      </trkpt>
      <trkpt lat="47.53543" lon="3.75538">
        <ele>238</ele>
        <time>2014-04-17T11:35:45Z</time>
      </trkpt>
      <trkpt lat="47.53546" lon="3.75544">
        <ele>238</ele>
        <time>2014-04-17T11:35:52Z</time>
      </trkpt>
      <trkpt lat="47.53546" lon="3.75553">
        <ele>238</ele>
        <time>2014-04-17T11:35:59Z</time>
      </trkpt>
      <trkpt lat="47.53546" lon="3.7556">
        <ele>238</ele>
        <time>2014-04-17T11:36:03Z</time>
      </trkpt>
      <trkpt lat="47.53545" lon="3.75567">
        <ele>238</ele>
        <time>2014-04-17T11:36:06Z</time>
      </trkpt>
      <trkpt lat="47.53543" lon="3.75574">
        <ele>237</ele>
        <time>2014-04-17T11:36:10Z</time>
      </trkpt>
      <trkpt lat="47.53543" lon="3.75581">
        <ele>237</ele>
        <time>2014-04-17T11:36:14Z</time>
      </trkpt>
      <trkpt lat="47.53543" lon="3.75589">
        <ele>237</ele>
        <time>2014-04-17T11:36:19Z</time>
      </trkpt>
      <trkpt lat="47.53544" lon="3.75597">
        <ele>237</ele>
        <time>2014-04-17T11:36:23Z</time>
      </trkpt>
      <trkpt lat="47.53543" lon="3.75604">
        <ele>237</ele>
        <time>2014-04-17T11:36:27Z</time>
      </trkpt>
      <trkpt lat="47.53542" lon="3.75611">
        <ele>237</ele>
        <time>2014-04-17T11:36:31Z</time>
      </trkpt>
      <trkpt lat="47.53542" lon="3.75618">
        <ele>237</ele>
        <time>2014-04-17T11:36:35Z</time>
      </trkpt>
      <trkpt lat="47.5354" lon="3.75626">
        <ele>237</ele>
        <time>2014-04-17T11:36:41Z</time>
      </trkpt>
      <trkpt lat="47.53536" lon="3.75631">
        <ele>236</ele>
        <time>2014-04-17T11:36:45Z</time>
      </trkpt>
      <trkpt lat="47.53532" lon="3.75636">
        <ele>236</ele>
        <time>2014-04-17T11:36:48Z</time>
      </trkpt>
      <trkpt lat="47.5353" lon="3.75643">
        <ele>236</ele>
        <time>2014-04-17T11:36:51Z</time>
      </trkpt>
      <trkpt lat="47.53527" lon="3.75648">
        <ele>236</ele>
        <time>2014-04-17T11:36:56Z</time>
      </trkpt>
      <trkpt lat="47.53525" lon="3.75656">
        <ele>236</ele>
        <time>2014-04-17T11:37:01Z</time>
      </trkpt>
      <trkpt lat="47.53522" lon="3.75662">
        <ele>235</ele>
        <time>2014-04-17T11:37:04Z</time>
      </trkpt>
      <trkpt lat="47.53518" lon="3.75667">
        <ele>235</ele>
        <time>2014-04-17T11:37:07Z</time>
      </trkpt>
      <trkpt lat="47.53515" lon="3.75672">
        <ele>235</ele>
        <time>2014-04-17T11:37:10Z</time>
      </trkpt>
      <trkpt lat="47.53511" lon="3.75677">
        <ele>235</ele>
        <time>2014-04-17T11:37:14Z</time>
      </trkpt>
      <trkpt lat="47.53508" lon="3.75683">
        <ele>235</ele>
        <time>2014-04-17T11:37:17Z</time>
      </trkpt>
      <trkpt lat="47.53505" lon="3.75688">
        <ele>235</ele>
        <time>2014-04-17T11:37:20Z</time>
      </trkpt>
      <trkpt lat="47.53503" lon="3.75694">
        <ele>235</ele>
        <time>2014-04-17T11:37:27Z</time>
      </trkpt>
      <trkpt lat="47.535" lon="3.757">
        <ele>233</ele>
        <time>2014-04-17T11:37:32Z</time>
      </trkpt>
      <trkpt lat="47.53497" lon="3.75706">
        <ele>233</ele>
        <time>2014-04-17T11:37:37Z</time>
      </trkpt>
      <trkpt lat="47.53494" lon="3.75711">
        <ele>233</ele>
        <time>2014-04-17T11:37:43Z</time>
      </trkpt>
      <trkpt lat="47.5349" lon="3.75716">
        <ele>233</ele>
        <time>2014-04-17T11:37:46Z</time>
      </trkpt>
      <trkpt lat="47.53486" lon="3.75721">
        <ele>233</ele>
        <time>2014-04-17T11:37:49Z</time>
      </trkpt>
      <trkpt lat="47.53482" lon="3.75726">
        <ele>233</ele>
        <time>2014-04-17T11:37:51Z</time>
      </trkpt>
      <trkpt lat="47.53479" lon="3.75731">
        <ele>233</ele>
        <time>2014-04-17T11:37:54Z</time>
      </trkpt>
      <trkpt lat="47.53475" lon="3.75736">
        <ele>232</ele>
        <time>2014-04-17T11:38:00Z</time>
      </trkpt>
      <trkpt lat="47.53471" lon="3.7574">
        <ele>232</ele>
        <time>2014-04-17T11:38:03Z</time>
      </trkpt>
      <trkpt lat="47.53467" lon="3.75743">
        <ele>232</ele>
        <time>2014-04-17T11:38:05Z</time>
      </trkpt>
      <trkpt lat="47.53461" lon="3.75747">
        <ele>232</ele>
        <time>2014-04-17T11:38:08Z</time>
      </trkpt>
      <trkpt lat="47.53457" lon="3.75751">
        <ele>230</ele>
        <time>2014-04-17T11:38:11Z</time>
      </trkpt>
      <trkpt lat="47.53454" lon="3.75756">
        <ele>230</ele>
        <time>2014-04-17T11:38:14Z</time>
      </trkpt>
      <trkpt lat="47.53449" lon="3.75761">
        <ele>230</ele>
        <time>2014-04-17T11:38:18Z</time>
      </trkpt>
      <trkpt lat="47.53445" lon="3.75766">
        <ele>230</ele>
        <time>2014-04-17T11:38:21Z</time>
      </trkpt>
      <trkpt lat="47.5344" lon="3.7577">
        <ele>230</ele>
        <time>2014-04-17T11:38:25Z</time>
      </trkpt>
      <trkpt lat="47.53435" lon="3.75775">
        <ele>230</ele>
        <time>2014-04-17T11:38:29Z</time>
      </trkpt>
      <trkpt lat="47.5343" lon="3.75779">
        <ele>229</ele>
        <time>2014-04-17T11:38:33Z</time>
      </trkpt>
      <trkpt lat="47.53426" lon="3.75784">
        <ele>229</ele>
        <time>2014-04-17T11:38:37Z</time>
      </trkpt>
      <trkpt lat="47.53421" lon="3.75788">
        <ele>229</ele>
        <time>2014-04-17T11:38:41Z</time>
      </trkpt>
      <trkpt lat="47.53417" lon="3.75793">
        <ele>229</ele>
        <time>2014-04-17T11:38:46Z</time>
      </trkpt>
      <trkpt lat="47.53414" lon="3.75798">
        <ele>230</ele>
        <time>2014-04-17T11:38:49Z</time>
      </trkpt>
      <trkpt lat="47.53411" lon="3.75803">
        <ele>229</ele>
        <time>2014-04-17T11:38:52Z</time>
      </trkpt>
      <trkpt lat="47.53406" lon="3.7581">
        <ele>229</ele>
        <time>2014-04-17T11:39:03Z</time>
      </trkpt>
      <trkpt lat="47.53402" lon="3.75814">
        <ele>229</ele>
        <time>2014-04-17T11:39:07Z</time>
      </trkpt>
      <trkpt lat="47.53398" lon="3.75819">
        <ele>229</ele>
        <time>2014-04-17T11:39:14Z</time>
      </trkpt>
      <trkpt lat="47.53396" lon="3.75826">
        <ele>229</ele>
        <time>2014-04-17T11:39:20Z</time>
      </trkpt>
      <trkpt lat="47.53394" lon="3.75832">
        <ele>229</ele>
        <time>2014-04-17T11:39:24Z</time>
      </trkpt>
      <trkpt lat="47.5339" lon="3.75839">
        <ele>230</ele>
        <time>2014-04-17T11:39:28Z</time>
      </trkpt>
      <trkpt lat="47.53387" lon="3.75847">
        <ele>230</ele>
        <time>2014-04-17T11:39:32Z</time>
      </trkpt>
      <trkpt lat="47.53384" lon="3.75852">
        <ele>231</ele>
        <time>2014-04-17T11:39:36Z</time>
      </trkpt>
      <trkpt lat="47.53379" lon="3.75858">
        <ele>231</ele>
        <time>2014-04-17T11:39:40Z</time>
      </trkpt>
      <trkpt lat="47.53376" lon="3.75863">
        <ele>231</ele>
        <time>2014-04-17T11:39:43Z</time>
      </trkpt>
      <trkpt lat="47.53373" lon="3.7587">
        <ele>232</ele>
        <time>2014-04-17T11:39:47Z</time>
      </trkpt>
      <trkpt lat="47.5337" lon="3.75876">
        <ele>232</ele>
        <time>2014-04-17T11:39:51Z</time>
      </trkpt>
      <trkpt lat="47.53365" lon="3.75875">
        <ele>232</ele>
        <time>2014-04-17T11:39:58Z</time>
      </trkpt>
      <trkpt lat="47.5336" lon="3.75873">
        <ele>233</ele>
        <time>2014-04-17T11:40:03Z</time>
      </trkpt>
      <trkpt lat="47.53356" lon="3.75872">
        <ele>233</ele>
        <time>2014-04-17T11:40:06Z</time>
      </trkpt>
      <trkpt lat="47.53351" lon="3.75868">
        <ele>233</ele>
        <time>2014-04-17T11:40:11Z</time>
      </trkpt>
      <trkpt lat="47.53347" lon="3.75862">
        <ele>233</ele>
        <time>2014-04-17T11:40:15Z</time>
      </trkpt>
      <trkpt lat="47.53343" lon="3.75857">
        <ele>233</ele>
        <time>2014-04-17T11:40:20Z</time>
      </trkpt>
      <trkpt lat="47.53339" lon="3.75853">
        <ele>233</ele>
        <time>2014-04-17T11:40:26Z</time>
      </trkpt>
      <trkpt lat="47.53334" lon="3.7585">
        <ele>234</ele>
        <time>2014-04-17T11:40:31Z</time>
      </trkpt>
      <trkpt lat="47.53329" lon="3.75849">
        <ele>238</ele>
        <time>2014-04-17T11:40:36Z</time>
      </trkpt>
      <trkpt lat="47.53324" lon="3.75847">
        <ele>238</ele>
        <time>2014-04-17T11:40:40Z</time>
      </trkpt>
      <trkpt lat="47.53319" lon="3.75848">
        <ele>238</ele>
        <time>2014-04-17T11:40:43Z</time>
      </trkpt>
      <trkpt lat="47.53311" lon="3.7585">
        <ele>239</ele>
        <time>2014-04-17T11:40:48Z</time>
      </trkpt>
      <trkpt lat="47.53306" lon="3.7585">
        <ele>239</ele>
        <time>2014-04-17T11:40:52Z</time>
      </trkpt>
      <trkpt lat="47.53302" lon="3.7585">
        <ele>240</ele>
        <time>2014-04-17T11:40:56Z</time>
      </trkpt>
      <trkpt lat="47.53297" lon="3.75848">
        <ele>240</ele>
        <time>2014-04-17T11:41:00Z</time>
      </trkpt>
      <trkpt lat="47.53291" lon="3.7585">
        <ele>240</ele>
        <time>2014-04-17T11:41:04Z</time>
      </trkpt>
      <trkpt lat="47.53286" lon="3.7585">
        <ele>241</ele>
        <time>2014-04-17T11:41:09Z</time>
      </trkpt>
      <trkpt lat="47.53282" lon="3.75844">
        <ele>241</ele>
        <time>2014-04-17T11:41:14Z</time>
      </trkpt>
      <trkpt lat="47.53278" lon="3.7584">
        <ele>241</ele>
        <time>2014-04-17T11:41:16Z</time>
      </trkpt>
      <trkpt lat="47.53274" lon="3.75836">
        <ele>242</ele>
        <time>2014-04-17T11:41:19Z</time>
      </trkpt>
      <trkpt lat="47.53271" lon="3.75829">
        <ele>241</ele>
        <time>2014-04-17T11:41:23Z</time>
      </trkpt>
      <trkpt lat="47.53267" lon="3.75826">
        <ele>241</ele>
        <time>2014-04-17T11:41:27Z</time>
      </trkpt>
      <trkpt lat="47.53262" lon="3.75821">
        <ele>241</ele>
        <time>2014-04-17T11:41:32Z</time>
      </trkpt>
      <trkpt lat="47.53259" lon="3.75819">
        <ele>241</ele>
        <time>2014-04-17T11:41:41Z</time>
      </trkpt>
      <trkpt lat="47.53255" lon="3.75821">
        <ele>242</ele>
        <time>2014-04-17T11:41:48Z</time>
      </trkpt>
      <trkpt lat="47.5325" lon="3.75819">
        <ele>242</ele>
        <time>2014-04-17T11:41:56Z</time>
      </trkpt>
      <trkpt lat="47.53246" lon="3.7582">
        <ele>244</ele>
        <time>2014-04-17T11:42:13Z</time>
      </trkpt>
      <trkpt lat="47.53246" lon="3.75824">
        <ele>244</ele>
        <time>2014-04-17T11:42:19Z</time>
      </trkpt>
      <trkpt lat="47.53244" lon="3.75827">
        <ele>244</ele>
        <time>2014-04-17T11:42:30Z</time>
      </trkpt>
      <trkpt lat="47.5324" lon="3.75831">
        <ele>244</ele>
        <time>2014-04-17T11:42:34Z</time>
      </trkpt>
      <trkpt lat="47.53236" lon="3.75836">
        <ele>246</ele>
        <time>2014-04-17T11:42:38Z</time>
      </trkpt>
      <trkpt lat="47.53231" lon="3.75838">
        <ele>246</ele>
        <time>2014-04-17T11:42:42Z</time>
      </trkpt>
      <trkpt lat="47.53227" lon="3.75841">
        <ele>247</ele>
        <time>2014-04-17T11:42:46Z</time>
      </trkpt>
      <trkpt lat="47.53221" lon="3.75844">
        <ele>247</ele>
        <time>2014-04-17T11:42:50Z</time>
      </trkpt>
      <trkpt lat="47.53217" lon="3.75848">
        <ele>247</ele>
        <time>2014-04-17T11:42:57Z</time>
      </trkpt>
      <trkpt lat="47.53212" lon="3.7585">
        <ele>248</ele>
        <time>2014-04-17T11:43:01Z</time>
      </trkpt>
      <trkpt lat="47.53207" lon="3.75854">
        <ele>248</ele>
        <time>2014-04-17T11:43:07Z</time>
      </trkpt>
      <trkpt lat="47.53203" lon="3.75858">
        <ele>248</ele>
        <time>2014-04-17T11:43:11Z</time>
      </trkpt>
      <trkpt lat="47.53199" lon="3.75861">
        <ele>248</ele>
        <time>2014-04-17T11:43:15Z</time>
      </trkpt>
      <trkpt lat="47.53193" lon="3.7587">
        <ele>248</ele>
        <time>2014-04-17T11:43:21Z</time>
      </trkpt>
      <trkpt lat="47.5319" lon="3.75875">
        <ele>249</ele>
        <time>2014-04-17T11:43:24Z</time>
      </trkpt>
      <trkpt lat="47.53186" lon="3.7588">
        <ele>249</ele>
        <time>2014-04-17T11:43:28Z</time>
      </trkpt>
      <trkpt lat="47.53182" lon="3.75885">
        <ele>249</ele>
        <time>2014-04-17T11:43:32Z</time>
      </trkpt>
      <trkpt lat="47.53178" lon="3.75891">
        <ele>249</ele>
        <time>2014-04-17T11:43:36Z</time>
      </trkpt>
      <trkpt lat="47.53174" lon="3.75897">
        <ele>250</ele>
        <time>2014-04-17T11:43:41Z</time>
      </trkpt>
      <trkpt lat="47.53169" lon="3.75902">
        <ele>250</ele>
        <time>2014-04-17T11:43:46Z</time>
      </trkpt>
      <trkpt lat="47.53166" lon="3.75906">
        <ele>252</ele>
        <time>2014-04-17T11:43:51Z</time>
      </trkpt>
      <trkpt lat="47.53162" lon="3.7591">
        <ele>252</ele>
        <time>2014-04-17T11:43:55Z</time>
      </trkpt>
      <trkpt lat="47.53157" lon="3.75914">
        <ele>252</ele>
        <time>2014-04-17T11:43:59Z</time>
      </trkpt>
      <trkpt lat="47.53153" lon="3.75915">
        <ele>253</ele>
        <time>2014-04-17T11:44:03Z</time>
      </trkpt>
      <trkpt lat="47.53151" lon="3.75914">
        <ele>253</ele>
        <time>2014-04-17T11:44:09Z</time>
      </trkpt>
      <trkpt lat="47.53147" lon="3.75918">
        <ele>254</ele>
        <time>2014-04-17T11:44:13Z</time>
      </trkpt>
      <trkpt lat="47.53143" lon="3.75922">
        <ele>254</ele>
        <time>2014-04-17T11:44:18Z</time>
      </trkpt>
      <trkpt lat="47.53139" lon="3.75926">
        <ele>254</ele>
        <time>2014-04-17T11:44:28Z</time>
      </trkpt>
      <trkpt lat="47.53131" lon="3.75932">
        <ele>255</ele>
        <time>2014-04-17T11:44:41Z</time>
      </trkpt>
      <trkpt lat="47.53126" lon="3.75933">
        <ele>255</ele>
        <time>2014-04-17T11:44:46Z</time>
      </trkpt>
      <trkpt lat="47.53122" lon="3.75938">
        <ele>255</ele>
        <time>2014-04-17T11:44:51Z</time>
      </trkpt>
      <trkpt lat="47.53116" lon="3.75944">
        <ele>255</ele>
        <time>2014-04-17T11:44:57Z</time>
      </trkpt>
      <trkpt lat="47.53112" lon="3.7595">
        <ele>255</ele>
        <time>2014-04-17T11:45:00Z</time>
      </trkpt>
      <trkpt lat="47.53108" lon="3.75956">
        <ele>255</ele>
        <time>2014-04-17T11:45:04Z</time>
      </trkpt>
      <trkpt lat="47.53105" lon="3.75963">
        <ele>255</ele>
        <time>2014-04-17T11:45:08Z</time>
      </trkpt>
      <trkpt lat="47.531" lon="3.75971">
        <ele>256</ele>
        <time>2014-04-17T11:45:12Z</time>
      </trkpt>
      <trkpt lat="47.53095" lon="3.75978">
        <ele>256</ele>
        <time>2014-04-17T11:45:17Z</time>
      </trkpt>
      <trkpt lat="47.53092" lon="3.75984">
        <ele>256</ele>
        <time>2014-04-17T11:45:21Z</time>
      </trkpt>
      <trkpt lat="47.53088" lon="3.75989">
        <ele>256</ele>
        <time>2014-04-17T11:45:26Z</time>
      </trkpt>
      <trkpt lat="47.53084" lon="3.75994">
        <ele>257</ele>
        <time>2014-04-17T11:45:32Z</time>
      </trkpt>
      <trkpt lat="47.53079" lon="3.75997">
        <ele>257</ele>
        <time>2014-04-17T11:45:36Z</time>
      </trkpt>
      <trkpt lat="47.53072" lon="3.76">
        <ele>257</ele>
        <time>2014-04-17T11:45:41Z</time>
      </trkpt>
      <trkpt lat="47.53067" lon="3.76003">
        <ele>257</ele>
        <time>2014-04-17T11:45:44Z</time>
      </trkpt>
      <trkpt lat="47.53062" lon="3.76007">
        <ele>258</ele>
        <time>2014-04-17T11:45:47Z</time>
      </trkpt>
      <trkpt lat="47.53057" lon="3.76011">
        <ele>258</ele>
        <time>2014-04-17T11:45:51Z</time>
      </trkpt>
      <trkpt lat="47.53053" lon="3.76016">
        <ele>258</ele>
        <time>2014-04-17T11:45:56Z</time>
      </trkpt>
      <trkpt lat="47.53051" lon="3.76023">
        <ele>258</ele>
        <time>2014-04-17T11:46:00Z</time>
      </trkpt>
      <trkpt lat="47.53047" lon="3.76026">
        <ele>258</ele>
        <time>2014-04-17T11:46:05Z</time>
      </trkpt>
      <trkpt lat="47.53043" lon="3.76031">
        <ele>258</ele>
        <time>2014-04-17T11:46:11Z</time>
      </trkpt>
      <trkpt lat="47.53038" lon="3.76033">
        <ele>258</ele>
        <time>2014-04-17T11:46:17Z</time>
      </trkpt>
      <trkpt lat="47.53035" lon="3.76038">
        <ele>258</ele>
        <time>2014-04-17T11:46:20Z</time>
      </trkpt>
      <trkpt lat="47.53031" lon="3.76043">
        <ele>258</ele>
        <time>2014-04-17T11:46:24Z</time>
      </trkpt>
      <trkpt lat="47.53027" lon="3.76047">
        <ele>258</ele>
        <time>2014-04-17T11:46:28Z</time>
      </trkpt>
      <trkpt lat="47.53023" lon="3.76052">
        <ele>258</ele>
        <time>2014-04-17T11:46:33Z</time>
      </trkpt>
      <trkpt lat="47.53018" lon="3.76057">
        <ele>258</ele>
        <time>2014-04-17T11:46:36Z</time>
      </trkpt>
      <trkpt lat="47.53012" lon="3.76061">
        <ele>258</ele>
        <time>2014-04-17T11:46:51Z</time>
      </trkpt>
      <trkpt lat="47.53007" lon="3.76062">
        <ele>258</ele>
        <time>2014-04-17T11:46:55Z</time>
      </trkpt>
      <trkpt lat="47.5299" lon="3.76074">
        <ele>258</ele>
        <time>2014-04-17T11:47:13Z</time>
      </trkpt>
      <trkpt lat="47.52984" lon="3.76084">
        <ele>258</ele>
        <time>2014-04-17T11:47:18Z</time>
      </trkpt>
      <trkpt lat="47.52981" lon="3.7609">
        <ele>257</ele>
        <time>2014-04-17T11:47:21Z</time>
      </trkpt>
      <trkpt lat="47.52977" lon="3.76094">
        <ele>257</ele>
        <time>2014-04-17T11:47:24Z</time>
      </trkpt>
      <trkpt lat="47.52972" lon="3.76098">
        <ele>257</ele>
        <time>2014-04-17T11:47:27Z</time>
      </trkpt>
      <trkpt lat="47.52968" lon="3.76102">
        <ele>257</ele>
        <time>2014-04-17T11:47:31Z</time>
      </trkpt>
      <trkpt lat="47.52964" lon="3.76106">
        <ele>257</ele>
        <time>2014-04-17T11:47:35Z</time>
      </trkpt>
      <trkpt lat="47.52959" lon="3.76109">
        <ele>257</ele>
        <time>2014-04-17T11:47:40Z</time>
      </trkpt>
      <trkpt lat="47.52954" lon="3.76113">
        <ele>257</ele>
        <time>2014-04-17T11:47:44Z</time>
      </trkpt>
      <trkpt lat="47.52952" lon="3.76116">
        <ele>257</ele>
        <time>2014-04-17T11:47:50Z</time>
      </trkpt>
      <trkpt lat="47.52947" lon="3.76117">
        <ele>257</ele>
        <time>2014-04-17T11:47:53Z</time>
      </trkpt>
      <trkpt lat="47.52933" lon="3.76112">
        <ele>257</ele>
        <time>2014-04-17T11:48:03Z</time>
      </trkpt>
      <trkpt lat="47.5293" lon="3.76107">
        <ele>257</ele>
        <time>2014-04-17T11:48:07Z</time>
      </trkpt>
      <trkpt lat="47.52927" lon="3.76101">
        <ele>258</ele>
        <time>2014-04-17T11:48:11Z</time>
      </trkpt>
      <trkpt lat="47.52923" lon="3.76096">
        <ele>258</ele>
        <time>2014-04-17T11:48:14Z</time>
      </trkpt>
      <trkpt lat="47.52919" lon="3.76092">
        <ele>258</ele>
        <time>2014-04-17T11:48:18Z</time>
      </trkpt>
      <trkpt lat="47.52914" lon="3.7609">
        <ele>258</ele>
        <time>2014-04-17T11:48:22Z</time>
      </trkpt>
      <trkpt lat="47.52909" lon="3.76087">
        <ele>258</ele>
        <time>2014-04-17T11:48:29Z</time>
      </trkpt>
      <trkpt lat="47.52905" lon="3.76083">
        <ele>259</ele>
        <time>2014-04-17T11:48:32Z</time>
      </trkpt>
      <trkpt lat="47.52901" lon="3.76079">
        <ele>260</ele>
        <time>2014-04-17T11:48:35Z</time>
      </trkpt>
      <trkpt lat="47.52896" lon="3.76076">
        <ele>260</ele>
        <time>2014-04-17T11:48:39Z</time>
      </trkpt>
      <trkpt lat="47.52894" lon="3.7607">
        <ele>260</ele>
        <time>2014-04-17T11:48:44Z</time>
      </trkpt>
      <trkpt lat="47.52891" lon="3.76064">
        <ele>260</ele>
        <time>2014-04-17T11:48:47Z</time>
      </trkpt>
      <trkpt lat="47.52888" lon="3.7606">
        <ele>260</ele>
        <time>2014-04-17T11:48:50Z</time>
      </trkpt>
      <trkpt lat="47.52885" lon="3.76055">
        <ele>260</ele>
        <time>2014-04-17T11:48:53Z</time>
      </trkpt>
      <trkpt lat="47.52882" lon="3.76049">
        <ele>260</ele>
        <time>2014-04-17T11:48:58Z</time>
      </trkpt>
      <trkpt lat="47.5288" lon="3.76043">
        <ele>260</ele>
        <time>2014-04-17T11:49:02Z</time>
      </trkpt>
      <trkpt lat="47.52876" lon="3.76037">
        <ele>261</ele>
        <time>2014-04-17T11:49:06Z</time>
      </trkpt>
      <trkpt lat="47.52872" lon="3.7603">
        <ele>261</ele>
        <time>2014-04-17T11:49:11Z</time>
      </trkpt>
      <trkpt lat="47.52869" lon="3.76024">
        <ele>261</ele>
        <time>2014-04-17T11:49:16Z</time>
      </trkpt>
      <trkpt lat="47.52866" lon="3.76019">
        <ele>261</ele>
        <time>2014-04-17T11:49:21Z</time>
      </trkpt>
      <trkpt lat="47.52861" lon="3.76015">
        <ele>261</ele>
        <time>2014-04-17T11:49:24Z</time>
      </trkpt>
      <trkpt lat="47.52857" lon="3.7601">
        <ele>262</ele>
        <time>2014-04-17T11:49:27Z</time>
      </trkpt>
      <trkpt lat="47.52853" lon="3.76007">
        <ele>262</ele>
        <time>2014-04-17T11:49:32Z</time>
      </trkpt>
      <trkpt lat="47.52849" lon="3.76">
        <ele>262</ele>
        <time>2014-04-17T11:49:36Z</time>
      </trkpt>
      <trkpt lat="47.52845" lon="3.75997">
        <ele>263</ele>
        <time>2014-04-17T11:49:39Z</time>
      </trkpt>
      <trkpt lat="47.52841" lon="3.75993">
        <ele>263</ele>
        <time>2014-04-17T11:49:42Z</time>
      </trkpt>
      <trkpt lat="47.52838" lon="3.75987">
        <ele>263</ele>
        <time>2014-04-17T11:49:45Z</time>
      </trkpt>
      <trkpt lat="47.52836" lon="3.75979">
        <ele>263</ele>
        <time>2014-04-17T11:49:49Z</time>
      </trkpt>
      <trkpt lat="47.52834" lon="3.75972">
        <ele>263</ele>
        <time>2014-04-17T11:49:54Z</time>
      </trkpt>
      <trkpt lat="47.52833" lon="3.75965">
        <ele>265</ele>
        <time>2014-04-17T11:49:58Z</time>
      </trkpt>
      <trkpt lat="47.52828" lon="3.7596">
        <ele>265</ele>
        <time>2014-04-17T11:50:01Z</time>
      </trkpt>
      <trkpt lat="47.52826" lon="3.75953">
        <ele>265</ele>
        <time>2014-04-17T11:50:05Z</time>
      </trkpt>
      <trkpt lat="47.52825" lon="3.75946">
        <ele>265</ele>
        <time>2014-04-17T11:50:08Z</time>
      </trkpt>
      <trkpt lat="47.52824" lon="3.75938">
        <ele>265</ele>
        <time>2014-04-17T11:50:11Z</time>
      </trkpt>
      <trkpt lat="47.52823" lon="3.7593">
        <ele>265</ele>
        <time>2014-04-17T11:50:15Z</time>
      </trkpt>
      <trkpt lat="47.5282" lon="3.75925">
        <ele>265</ele>
        <time>2014-04-17T11:50:19Z</time>
      </trkpt>
      <trkpt lat="47.52818" lon="3.75919">
        <ele>265</ele>
        <time>2014-04-17T11:50:24Z</time>
      </trkpt>
      <trkpt lat="47.52817" lon="3.75912">
        <ele>264</ele>
        <time>2014-04-17T11:50:28Z</time>
      </trkpt>
      <trkpt lat="47.52817" lon="3.75905">
        <ele>264</ele>
        <time>2014-04-17T11:50:31Z</time>
      </trkpt>
      <trkpt lat="47.52816" lon="3.75898">
        <ele>263</ele>
        <time>2014-04-17T11:50:35Z</time>
      </trkpt>
      <trkpt lat="47.52815" lon="3.75891">
        <ele>263</ele>
        <time>2014-04-17T11:50:39Z</time>
      </trkpt>
      <trkpt lat="47.52813" lon="3.75883">
        <ele>263</ele>
        <time>2014-04-17T11:50:43Z</time>
      </trkpt>
      <trkpt lat="47.52814" lon="3.75875">
        <ele>263</ele>
        <time>2014-04-17T11:50:46Z</time>
      </trkpt>
      <trkpt lat="47.5281" lon="3.7587">
        <ele>263</ele>
        <time>2014-04-17T11:50:49Z</time>
      </trkpt>
      <trkpt lat="47.52804" lon="3.75871">
        <ele>263</ele>
        <time>2014-04-17T11:50:53Z</time>
      </trkpt>
      <trkpt lat="47.528" lon="3.75873">
        <ele>263</ele>
        <time>2014-04-17T11:50:58Z</time>
      </trkpt>
      <trkpt lat="47.52798" lon="3.75866">
        <ele>263</ele>
        <time>2014-04-17T11:51:04Z</time>
      </trkpt>
      <trkpt lat="47.52795" lon="3.75859">
        <ele>262</ele>
        <time>2014-04-17T11:51:08Z</time>
      </trkpt>
      <trkpt lat="47.52792" lon="3.75853">
        <ele>262</ele>
        <time>2014-04-17T11:51:12Z</time>
      </trkpt>
      <trkpt lat="47.52788" lon="3.75848">
        <ele>262</ele>
        <time>2014-04-17T11:51:18Z</time>
      </trkpt>
      <trkpt lat="47.52784" lon="3.75844">
        <ele>262</ele>
        <time>2014-04-17T11:51:22Z</time>
      </trkpt>
      <trkpt lat="47.52781" lon="3.75838">
        <ele>262</ele>
        <time>2014-04-17T11:51:26Z</time>
      </trkpt>
      <trkpt lat="47.52779" lon="3.75832">
        <ele>257</ele>
        <time>2014-04-17T11:51:31Z</time>
      </trkpt>
      <trkpt lat="47.52776" lon="3.75826">
        <ele>257</ele>
        <time>2014-04-17T11:51:35Z</time>
      </trkpt>
      <trkpt lat="47.52772" lon="3.7582">
        <ele>257</ele>
        <time>2014-04-17T11:51:39Z</time>
      </trkpt>
      <trkpt lat="47.52768" lon="3.75813">
        <ele>257</ele>
        <time>2014-04-17T11:51:43Z</time>
      </trkpt>
      <trkpt lat="47.52764" lon="3.7581">
        <ele>257</ele>
        <time>2014-04-17T11:51:46Z</time>
      </trkpt>
      <trkpt lat="47.5276" lon="3.75807">
        <ele>257</ele>
        <time>2014-04-17T11:51:50Z</time>
      </trkpt>
      <trkpt lat="47.52756" lon="3.758">
        <ele>256</ele>
        <time>2014-04-17T11:51:54Z</time>
      </trkpt>
      <trkpt lat="47.52753" lon="3.75794">
        <ele>256</ele>
        <time>2014-04-17T11:51:58Z</time>
      </trkpt>
      <trkpt lat="47.52749" lon="3.75788">
        <ele>260</ele>
        <time>2014-04-17T11:52:02Z</time>
      </trkpt>
      <trkpt lat="47.52746" lon="3.75783">
        <ele>259</ele>
        <time>2014-04-17T11:52:06Z</time>
      </trkpt>
      <trkpt lat="47.52742" lon="3.75777">
        <ele>259</ele>
        <time>2014-04-17T11:52:11Z</time>
      </trkpt>
      <trkpt lat="47.52739" lon="3.75773">
        <ele>259</ele>
        <time>2014-04-17T11:52:15Z</time>
      </trkpt>
      <trkpt lat="47.52735" lon="3.75767">
        <ele>258</ele>
        <time>2014-04-17T11:52:19Z</time>
      </trkpt>
      <trkpt lat="47.5273" lon="3.75765">
        <ele>258</ele>
        <time>2014-04-17T11:52:22Z</time>
      </trkpt>
      <trkpt lat="47.52727" lon="3.7576">
        <ele>259</ele>
        <time>2014-04-17T11:52:26Z</time>
      </trkpt>
      <trkpt lat="47.52724" lon="3.75754">
        <ele>259</ele>
        <time>2014-04-17T11:52:30Z</time>
      </trkpt>
      <trkpt lat="47.52721" lon="3.75748">
        <ele>254</ele>
        <time>2014-04-17T11:52:34Z</time>
      </trkpt>
      <trkpt lat="47.52718" lon="3.75744">
        <ele>255</ele>
        <time>2014-04-17T11:52:39Z</time>
      </trkpt>
      <trkpt lat="47.52713" lon="3.75739">
        <ele>255</ele>
        <time>2014-04-17T11:52:44Z</time>
      </trkpt>
      <trkpt lat="47.52709" lon="3.75735">
        <ele>255</ele>
        <time>2014-04-17T11:52:50Z</time>
      </trkpt>
      <trkpt lat="47.52705" lon="3.75729">
        <ele>255</ele>
        <time>2014-04-17T11:52:54Z</time>
      </trkpt>
      <trkpt lat="47.52701" lon="3.75724">
        <ele>255</ele>
        <time>2014-04-17T11:52:58Z</time>
      </trkpt>
      <trkpt lat="47.52696" lon="3.75716">
        <ele>255</ele>
        <time>2014-04-17T11:53:10Z</time>
      </trkpt>
      <trkpt lat="47.52692" lon="3.75711">
        <ele>255</ele>
        <time>2014-04-17T11:53:14Z</time>
      </trkpt>
      <trkpt lat="47.52688" lon="3.75708">
        <ele>255</ele>
        <time>2014-04-17T11:53:18Z</time>
      </trkpt>
      <trkpt lat="47.52683" lon="3.75704">
        <ele>255</ele>
        <time>2014-04-17T11:53:23Z</time>
      </trkpt>
      <trkpt lat="47.52678" lon="3.75698">
        <ele>255</ele>
        <time>2014-04-17T11:53:27Z</time>
      </trkpt>
      <trkpt lat="47.52674" lon="3.75693">
        <ele>255</ele>
        <time>2014-04-17T11:53:31Z</time>
      </trkpt>
      <trkpt lat="47.52669" lon="3.7569">
        <ele>255</ele>
        <time>2014-04-17T11:53:34Z</time>
      </trkpt>
      <trkpt lat="47.52663" lon="3.75689">
        <ele>258</ele>
        <time>2014-04-17T11:53:38Z</time>
      </trkpt>
      <trkpt lat="47.52659" lon="3.75686">
        <ele>258</ele>
        <time>2014-04-17T11:53:42Z</time>
      </trkpt>
      <trkpt lat="47.52655" lon="3.75681">
        <ele>258</ele>
        <time>2014-04-17T11:53:46Z</time>
      </trkpt>
      <trkpt lat="47.52652" lon="3.75676">
        <ele>258</ele>
        <time>2014-04-17T11:53:49Z</time>
      </trkpt>
      <trkpt lat="47.52648" lon="3.75672">
        <ele>258</ele>
        <time>2014-04-17T11:53:52Z</time>
      </trkpt>
      <trkpt lat="47.52644" lon="3.75668">
        <ele>258</ele>
        <time>2014-04-17T11:53:55Z</time>
      </trkpt>
      <trkpt lat="47.52641" lon="3.75661">
        <ele>256</ele>
        <time>2014-04-17T11:53:59Z</time>
      </trkpt>
      <trkpt lat="47.52636" lon="3.75658">
        <ele>256</ele>
        <time>2014-04-17T11:54:03Z</time>
      </trkpt>
      <trkpt lat="47.52633" lon="3.75652">
        <ele>256</ele>
        <time>2014-04-17T11:54:07Z</time>
      </trkpt>
      <trkpt lat="47.5263" lon="3.75648">
        <ele>256</ele>
        <time>2014-04-17T11:54:11Z</time>
      </trkpt>
      <trkpt lat="47.52626" lon="3.75643">
        <ele>256</ele>
        <time>2014-04-17T11:54:15Z</time>
      </trkpt>
      <trkpt lat="47.52623" lon="3.75636">
        <ele>256</ele>
        <time>2014-04-17T11:54:19Z</time>
      </trkpt>
      <trkpt lat="47.52619" lon="3.75631">
        <ele>256</ele>
        <time>2014-04-17T11:54:24Z</time>
      </trkpt>
      <trkpt lat="47.52615" lon="3.75626">
        <ele>256</ele>
        <time>2014-04-17T11:54:29Z</time>
      </trkpt>
      <trkpt lat="47.52611" lon="3.75621">
        <ele>257</ele>
        <time>2014-04-17T11:54:33Z</time>
      </trkpt>
      <trkpt lat="47.5261" lon="3.75615">
        <ele>257</ele>
        <time>2014-04-17T11:54:38Z</time>
      </trkpt>
      <trkpt lat="47.52608" lon="3.75608">
        <ele>257</ele>
        <time>2014-04-17T11:54:42Z</time>
      </trkpt>
      <trkpt lat="47.52606" lon="3.756">
        <ele>257</ele>
        <time>2014-04-17T11:54:46Z</time>
      </trkpt>
      <trkpt lat="47.52603" lon="3.75594">
        <ele>257</ele>
        <time>2014-04-17T11:54:50Z</time>
      </trkpt>
      <trkpt lat="47.52598" lon="3.75589">
        <ele>257</ele>
        <time>2014-04-17T11:54:54Z</time>
      </trkpt>
      <trkpt lat="47.52594" lon="3.75583">
        <ele>257</ele>
        <time>2014-04-17T11:54:58Z</time>
      </trkpt>
      <trkpt lat="47.52589" lon="3.75579">
        <ele>258</ele>
        <time>2014-04-17T11:55:02Z</time>
      </trkpt>
      <trkpt lat="47.52586" lon="3.75573">
        <ele>257</ele>
        <time>2014-04-17T11:55:06Z</time>
      </trkpt>
      <trkpt lat="47.52584" lon="3.75566">
        <ele>257</ele>
        <time>2014-04-17T11:55:11Z</time>
      </trkpt>
      <trkpt lat="47.52581" lon="3.7556">
        <ele>260</ele>
        <time>2014-04-17T11:55:15Z</time>
      </trkpt>
      <trkpt lat="47.5258" lon="3.75557">
        <ele>260</ele>
        <time>2014-04-17T11:55:27Z</time>
      </trkpt>
      <trkpt lat="47.52576" lon="3.75552">
        <ele>260</ele>
        <time>2014-04-17T11:55:33Z</time>
      </trkpt>
      <trkpt lat="47.52572" lon="3.75548">
        <ele>260</ele>
        <time>2014-04-17T11:55:36Z</time>
      </trkpt>
      <trkpt lat="47.52568" lon="3.75543">
        <ele>260</ele>
        <time>2014-04-17T11:55:40Z</time>
      </trkpt>
      <trkpt lat="47.52564" lon="3.75537">
        <ele>260</ele>
        <time>2014-04-17T11:55:45Z</time>
      </trkpt>
      <trkpt lat="47.5256" lon="3.75533">
        <ele>260</ele>
        <time>2014-04-17T11:55:49Z</time>
      </trkpt>
      <trkpt lat="47.52555" lon="3.75532">
        <ele>260</ele>
        <time>2014-04-17T11:55:52Z</time>
      </trkpt>
      <trkpt lat="47.5255" lon="3.75531">
        <ele>260</ele>
        <time>2014-04-17T11:55:54Z</time>
      </trkpt>
      <trkpt lat="47.52545" lon="3.75527">
        <ele>260</ele>
        <time>2014-04-17T11:55:58Z</time>
      </trkpt>
      <trkpt lat="47.52541" lon="3.75523">
        <ele>260</ele>
        <time>2014-04-17T11:56:02Z</time>
      </trkpt>
      <trkpt lat="47.52537" lon="3.75518">
        <ele>260</ele>
        <time>2014-04-17T11:56:06Z</time>
      </trkpt>
      <trkpt lat="47.52532" lon="3.75515">
        <ele>261</ele>
        <time>2014-04-17T11:56:11Z</time>
      </trkpt>
      <trkpt lat="47.52528" lon="3.75511">
        <ele>261</ele>
        <time>2014-04-17T11:56:16Z</time>
      </trkpt>
      <trkpt lat="47.52524" lon="3.75507">
        <ele>261</ele>
        <time>2014-04-17T11:56:21Z</time>
      </trkpt>
      <trkpt lat="47.52519" lon="3.75506">
        <ele>261</ele>
        <time>2014-04-17T11:56:25Z</time>
      </trkpt>
      <trkpt lat="47.52513" lon="3.75507">
        <ele>261</ele>
        <time>2014-04-17T11:56:29Z</time>
      </trkpt>
      <trkpt lat="47.52514" lon="3.75499">
        <ele>260</ele>
        <time>2014-04-17T11:56:42Z</time>
      </trkpt>
      <trkpt lat="47.52513" lon="3.75503">
        <ele>261</ele>
        <time>2014-04-17T11:57:14Z</time>
      </trkpt>
      <trkpt lat="47.5251" lon="3.75503">
        <ele>261</ele>
        <time>2014-04-17T11:57:48Z</time>
      </trkpt>
      <trkpt lat="47.52509" lon="3.75508">
        <ele>261</ele>
        <time>2014-04-17T11:57:56Z</time>
      </trkpt>
      <trkpt lat="47.52506" lon="3.75514">
        <ele>261</ele>
        <time>2014-04-17T11:58:01Z</time>
      </trkpt>
      <trkpt lat="47.52503" lon="3.75519">
        <ele>261</ele>
        <time>2014-04-17T11:58:09Z</time>
      </trkpt>
      <trkpt lat="47.52501" lon="3.75525">
        <ele>261</ele>
        <time>2014-04-17T11:58:16Z</time>
      </trkpt>
      <trkpt lat="47.52498" lon="3.75538">
        <ele>263</ele>
        <time>2014-04-17T11:59:25Z</time>
      </trkpt>
      <trkpt lat="47.52495" lon="3.75545">
        <ele>263</ele>
        <time>2014-04-17T11:59:29Z</time>
      </trkpt>
      <trkpt lat="47.52498" lon="3.75544">
        <ele>263</ele>
        <time>2014-04-17T11:59:55Z</time>
      </trkpt>
      <trkpt lat="47.52501" lon="3.75536">
        <ele>261</ele>
        <time>2014-04-17T12:00:14Z</time>
      </trkpt>
      <trkpt lat="47.52505" lon="3.7553">
        <ele>261</ele>
        <time>2014-04-17T12:00:17Z</time>
      </trkpt>
      <trkpt lat="47.52509" lon="3.75527">
        <ele>261</ele>
        <time>2014-04-17T12:00:20Z</time>
      </trkpt>
      <trkpt lat="47.52513" lon="3.75525">
        <ele>261</ele>
        <time>2014-04-17T12:00:28Z</time>
      </trkpt>
      <trkpt lat="47.52514" lon="3.75517">
        <ele>261</ele>
        <time>2014-04-17T12:00:32Z</time>
      </trkpt>
      <trkpt lat="47.52511" lon="3.75513">
        <ele>261</ele>
        <time>2014-04-17T12:00:42Z</time>
      </trkpt>
      <trkpt lat="47.52508" lon="3.75508">
        <ele>261</ele>
        <time>2014-04-17T12:02:50Z</time>
      </trkpt>
      <trkpt lat="47.52509" lon="3.75512">
        <ele>261</ele>
        <time>2014-04-17T12:04:34Z</time>
      </trkpt>
      <trkpt lat="47.52508" lon="3.75517">
        <ele>261</ele>
        <time>2014-04-17T12:07:01Z</time>
      </trkpt>
      <trkpt lat="47.52506" lon="3.75522">
        <ele>261</ele>
        <time>2014-04-17T12:07:06Z</time>
      </trkpt>
      <trkpt lat="47.52501" lon="3.75528">
        <ele>261</ele>
        <time>2014-04-17T12:07:09Z</time>
      </trkpt>
      <trkpt lat="47.52495" lon="3.75539">
        <ele>263</ele>
        <time>2014-04-17T12:07:18Z</time>
      </trkpt>
      <trkpt lat="47.52491" lon="3.75534">
        <ele>263</ele>
        <time>2014-04-17T12:07:25Z</time>
      </trkpt>
      <trkpt lat="47.52488" lon="3.75528">
        <ele>262</ele>
        <time>2014-04-17T12:07:33Z</time>
      </trkpt>
      <trkpt lat="47.52485" lon="3.75528">
        <ele>262</ele>
        <time>2014-04-17T12:07:41Z</time>
      </trkpt>
      <trkpt lat="47.52487" lon="3.7552">
        <ele>262</ele>
        <time>2014-04-17T12:07:45Z</time>
      </trkpt>
      <trkpt lat="47.52477" lon="3.75518">
        <ele>262</ele>
        <time>2014-04-17T12:07:55Z</time>
      </trkpt>
      <trkpt lat="47.52471" lon="3.75522">
        <ele>262</ele>
        <time>2014-04-17T12:07:58Z</time>
      </trkpt>
      <trkpt lat="47.52466" lon="3.75524">
        <ele>263</ele>
        <time>2014-04-17T12:08:01Z</time>
      </trkpt>
      <trkpt lat="47.52462" lon="3.75522">
        <ele>263</ele>
        <time>2014-04-17T12:08:07Z</time>
      </trkpt>
      <trkpt lat="47.52461" lon="3.75517">
        <ele>263</ele>
        <time>2014-04-17T12:08:19Z</time>
      </trkpt>
      <trkpt lat="47.52472" lon="3.75496">
        <ele>261</ele>
        <time>2014-04-17T12:08:36Z</time>
      </trkpt>
      <trkpt lat="47.52471" lon="3.755">
        <ele>261</ele>
        <time>2014-04-17T12:09:06Z</time>
      </trkpt>
      <trkpt lat="47.52472" lon="3.75496">
        <ele>261</ele>
        <time>2014-04-17T12:11:17Z</time>
      </trkpt>
      <trkpt lat="47.52468" lon="3.75493">
        <ele>261</ele>
        <time>2014-04-17T12:11:42Z</time>
      </trkpt>
      <trkpt lat="47.52463" lon="3.75494">
        <ele>261</ele>
        <time>2014-04-17T12:11:51Z</time>
      </trkpt>
      <trkpt lat="47.52459" lon="3.7549">
        <ele>261</ele>
        <time>2014-04-17T12:12:09Z</time>
      </trkpt>
      <trkpt lat="47.52456" lon="3.75491">
        <ele>261</ele>
        <time>2014-04-17T12:12:15Z</time>
      </trkpt>
      <trkpt lat="47.52452" lon="3.75489">
        <ele>261</ele>
        <time>2014-04-17T12:12:21Z</time>
      </trkpt>
      <trkpt lat="47.52449" lon="3.75487">
        <ele>261</ele>
        <time>2014-04-17T12:12:28Z</time>
      </trkpt>
      <trkpt lat="47.52445" lon="3.75483">
        <ele>261</ele>
        <time>2014-04-17T12:12:41Z</time>
      </trkpt>
      <trkpt lat="47.52444" lon="3.75475">
        <ele>261</ele>
        <time>2014-04-17T12:12:46Z</time>
      </trkpt>
      <trkpt lat="47.5244" lon="3.75481">
        <ele>261</ele>
        <time>2014-04-17T12:12:56Z</time>
      </trkpt>
      <trkpt lat="47.5244" lon="3.7548">
        <ele>261</ele>
        <time>2014-04-17T12:13:08Z</time>
      </trkpt>
      <trkpt lat="47.52444" lon="3.75476">
        <ele>261</ele>
        <time>2014-04-17T12:13:12Z</time>
      </trkpt>
      <trkpt lat="47.52444" lon="3.75483">
        <ele>261</ele>
        <time>2014-04-17T12:13:37Z</time>
      </trkpt>
      <trkpt lat="47.5244" lon="3.75484">
        <ele>261</ele>
        <time>2014-04-17T12:13:45Z</time>
      </trkpt>
      <trkpt lat="47.52435" lon="3.75486">
        <ele>261</ele>
        <time>2014-04-17T12:13:49Z</time>
      </trkpt>
      <trkpt lat="47.52429" lon="3.75486">
        <ele>261</ele>
        <time>2014-04-17T12:13:53Z</time>
      </trkpt>
      <trkpt lat="47.52424" lon="3.75484">
        <ele>262</ele>
        <time>2014-04-17T12:13:56Z</time>
      </trkpt>
      <trkpt lat="47.52419" lon="3.75483">
        <ele>262</ele>
        <time>2014-04-17T12:14:00Z</time>
      </trkpt>
      <trkpt lat="47.52414" lon="3.75482">
        <ele>260</ele>
        <time>2014-04-17T12:14:05Z</time>
      </trkpt>
      <trkpt lat="47.52409" lon="3.75479">
        <ele>260</ele>
        <time>2014-04-17T12:14:10Z</time>
      </trkpt>
      <trkpt lat="47.52404" lon="3.75478">
        <ele>260</ele>
        <time>2014-04-17T12:14:14Z</time>
      </trkpt>
      <trkpt lat="47.524" lon="3.75482">
        <ele>260</ele>
        <time>2014-04-17T12:14:16Z</time>
      </trkpt>
      <trkpt lat="47.52403" lon="3.75489">
        <ele>260</ele>
        <time>2014-04-17T12:14:23Z</time>
      </trkpt>
      <trkpt lat="47.52405" lon="3.75483">
        <ele>260</ele>
        <time>2014-04-17T12:14:31Z</time>
      </trkpt>
      <trkpt lat="47.524" lon="3.75478">
        <ele>260</ele>
        <time>2014-04-17T12:14:36Z</time>
      </trkpt>
      <trkpt lat="47.52395" lon="3.75478">
        <ele>259</ele>
        <time>2014-04-17T12:14:40Z</time>
      </trkpt>
      <trkpt lat="47.5239" lon="3.75477">
        <ele>259</ele>
        <time>2014-04-17T12:14:44Z</time>
      </trkpt>
      <trkpt lat="47.52386" lon="3.75475">
        <ele>259</ele>
        <time>2014-04-17T12:14:49Z</time>
      </trkpt>
      <trkpt lat="47.52381" lon="3.75475">
        <ele>259</ele>
        <time>2014-04-17T12:14:53Z</time>
      </trkpt>
      <trkpt lat="47.52376" lon="3.75478">
        <ele>259</ele>
        <time>2014-04-17T12:14:56Z</time>
      </trkpt>
      <trkpt lat="47.52368" lon="3.75474">
        <ele>258</ele>
        <time>2014-04-17T12:15:01Z</time>
      </trkpt>
      <trkpt lat="47.52364" lon="3.75474">
        <ele>258</ele>
        <time>2014-04-17T12:15:04Z</time>
      </trkpt>
      <trkpt lat="47.52359" lon="3.75473">
        <ele>258</ele>
        <time>2014-04-17T12:15:07Z</time>
      </trkpt>
      <trkpt lat="47.52354" lon="3.7547">
        <ele>258</ele>
        <time>2014-04-17T12:15:11Z</time>
      </trkpt>
      <trkpt lat="47.52343" lon="3.75468">
        <ele>258</ele>
        <time>2014-04-17T12:15:51Z</time>
      </trkpt>
      <trkpt lat="47.52333" lon="3.75472">
        <ele>252</ele>
        <time>2014-04-17T12:15:54Z</time>
      </trkpt>
      <trkpt lat="47.52325" lon="3.75478">
        <ele>253</ele>
        <time>2014-04-17T12:15:57Z</time>
      </trkpt>
      <trkpt lat="47.5232" lon="3.7548">
        <ele>253</ele>
        <time>2014-04-17T12:16:01Z</time>
      </trkpt>
      <trkpt lat="47.52316" lon="3.75483">
        <ele>253</ele>
        <time>2014-04-17T12:16:06Z</time>
      </trkpt>
      <trkpt lat="47.52311" lon="3.75485">
        <ele>252</ele>
        <time>2014-04-17T12:16:13Z</time>
      </trkpt>
      <trkpt lat="47.52307" lon="3.7549">
        <ele>252</ele>
        <time>2014-04-17T12:16:17Z</time>
      </trkpt>
      <trkpt lat="47.52303" lon="3.75493">
        <ele>252</ele>
        <time>2014-04-17T12:16:20Z</time>
      </trkpt>
      <trkpt lat="47.52299" lon="3.75494">
        <ele>251</ele>
        <time>2014-04-17T12:16:24Z</time>
      </trkpt>
      <trkpt lat="47.52294" lon="3.75493">
        <ele>251</ele>
        <time>2014-04-17T12:16:28Z</time>
      </trkpt>
      <trkpt lat="47.52289" lon="3.75494">
        <ele>250</ele>
        <time>2014-04-17T12:16:31Z</time>
      </trkpt>
      <trkpt lat="47.52284" lon="3.75494">
        <ele>250</ele>
        <time>2014-04-17T12:16:34Z</time>
      </trkpt>
      <trkpt lat="47.52278" lon="3.75492">
        <ele>249</ele>
        <time>2014-04-17T12:16:38Z</time>
      </trkpt>
      <trkpt lat="47.52273" lon="3.75493">
        <ele>249</ele>
        <time>2014-04-17T12:16:41Z</time>
      </trkpt>
      <trkpt lat="47.52269" lon="3.75492">
        <ele>249</ele>
        <time>2014-04-17T12:16:44Z</time>
      </trkpt>
      <trkpt lat="47.52263" lon="3.75489">
        <ele>249</ele>
        <time>2014-04-17T12:16:47Z</time>
      </trkpt>
      <trkpt lat="47.52258" lon="3.75485">
        <ele>248</ele>
        <time>2014-04-17T12:16:50Z</time>
      </trkpt>
      <trkpt lat="47.52254" lon="3.75478">
        <ele>248</ele>
        <time>2014-04-17T12:16:54Z</time>
      </trkpt>
      <trkpt lat="47.52251" lon="3.75472">
        <ele>247</ele>
        <time>2014-04-17T12:16:58Z</time>
      </trkpt>
      <trkpt lat="47.52247" lon="3.75467">
        <ele>241</ele>
        <time>2014-04-17T12:17:02Z</time>
      </trkpt>
      <trkpt lat="47.52244" lon="3.75459">
        <ele>240</ele>
        <time>2014-04-17T12:17:06Z</time>
      </trkpt>
      <trkpt lat="47.52244" lon="3.75452">
        <ele>239</ele>
        <time>2014-04-17T12:17:09Z</time>
      </trkpt>
      <trkpt lat="47.5224" lon="3.75448">
        <ele>238</ele>
        <time>2014-04-17T12:17:14Z</time>
      </trkpt>
      <trkpt lat="47.52235" lon="3.75446">
        <ele>238</ele>
        <time>2014-04-17T12:17:18Z</time>
      </trkpt>
      <trkpt lat="47.52229" lon="3.75445">
        <ele>238</ele>
        <time>2014-04-17T12:17:22Z</time>
      </trkpt>
      <trkpt lat="47.52224" lon="3.75445">
        <ele>238</ele>
        <time>2014-04-17T12:17:25Z</time>
      </trkpt>
      <trkpt lat="47.5222" lon="3.75448">
        <ele>238</ele>
        <time>2014-04-17T12:17:28Z</time>
      </trkpt>
      <trkpt lat="47.52215" lon="3.75448">
        <ele>237</ele>
        <time>2014-04-17T12:17:33Z</time>
      </trkpt>
      <trkpt lat="47.5221" lon="3.75446">
        <ele>237</ele>
        <time>2014-04-17T12:17:37Z</time>
      </trkpt>
      <trkpt lat="47.52208" lon="3.7544">
        <ele>237</ele>
        <time>2014-04-17T12:17:41Z</time>
      </trkpt>
      <trkpt lat="47.52206" lon="3.75433">
        <ele>236</ele>
        <time>2014-04-17T12:17:46Z</time>
      </trkpt>
      <trkpt lat="47.52203" lon="3.75427">
        <ele>235</ele>
        <time>2014-04-17T12:17:50Z</time>
      </trkpt>
      <trkpt lat="47.52199" lon="3.75424">
        <ele>235</ele>
        <time>2014-04-17T12:17:57Z</time>
      </trkpt>
      <trkpt lat="47.52194" lon="3.75424">
        <ele>234</ele>
        <time>2014-04-17T12:18:01Z</time>
      </trkpt>
      <trkpt lat="47.5219" lon="3.75422">
        <ele>233</ele>
        <time>2014-04-17T12:18:04Z</time>
      </trkpt>
      <trkpt lat="47.52186" lon="3.75417">
        <ele>233</ele>
        <time>2014-04-17T12:18:08Z</time>
      </trkpt>
      <trkpt lat="47.52192" lon="3.75413">
        <ele>225</ele>
        <time>2014-04-17T12:18:14Z</time>
      </trkpt>
      <trkpt lat="47.52182" lon="3.75412">
        <ele>225</ele>
        <time>2014-04-17T12:18:30Z</time>
      </trkpt>
      <trkpt lat="47.52177" lon="3.75411">
        <ele>226</ele>
        <time>2014-04-17T12:18:33Z</time>
      </trkpt>
      <trkpt lat="47.52173" lon="3.75409">
        <ele>226</ele>
        <time>2014-04-17T12:18:38Z</time>
      </trkpt>
      <trkpt lat="47.52168" lon="3.7541">
        <ele>226</ele>
        <time>2014-04-17T12:18:42Z</time>
      </trkpt>
      <trkpt lat="47.52162" lon="3.75411">
        <ele>223</ele>
        <time>2014-04-17T12:18:46Z</time>
      </trkpt>
      <trkpt lat="47.52155" lon="3.75417">
        <ele>225</ele>
        <time>2014-04-17T12:18:53Z</time>
      </trkpt>
      <trkpt lat="47.52147" lon="3.7542">
        <ele>224</ele>
        <time>2014-04-17T12:19:02Z</time>
      </trkpt>
      <trkpt lat="47.52151" lon="3.75411">
        <ele>219</ele>
        <time>2014-04-17T12:19:24Z</time>
      </trkpt>
      <trkpt lat="47.52148" lon="3.75408">
        <ele>218</ele>
        <time>2014-04-17T12:20:01Z</time>
      </trkpt>
      <trkpt lat="47.52144" lon="3.75406">
        <ele>216</ele>
        <time>2014-04-17T12:20:04Z</time>
      </trkpt>
      <trkpt lat="47.52139" lon="3.75409">
        <ele>215</ele>
        <time>2014-04-17T12:20:08Z</time>
      </trkpt>
      <trkpt lat="47.52134" lon="3.75409">
        <ele>214</ele>
        <time>2014-04-17T12:20:13Z</time>
      </trkpt>
      <trkpt lat="47.52131" lon="3.75403">
        <ele>213</ele>
        <time>2014-04-17T12:20:20Z</time>
      </trkpt>
      <trkpt lat="47.52126" lon="3.75402">
        <ele>213</ele>
        <time>2014-04-17T12:20:24Z</time>
      </trkpt>
      <trkpt lat="47.5212" lon="3.75402">
        <ele>212</ele>
        <time>2014-04-17T12:20:28Z</time>
      </trkpt>
      <trkpt lat="47.52115" lon="3.754">
        <ele>211</ele>
        <time>2014-04-17T12:20:32Z</time>
      </trkpt>
      <trkpt lat="47.52111" lon="3.754">
        <ele>210</ele>
        <time>2014-04-17T12:20:37Z</time>
      </trkpt>
      <trkpt lat="47.52106" lon="3.75401">
        <ele>210</ele>
        <time>2014-04-17T12:20:42Z</time>
      </trkpt>
      <trkpt lat="47.52101" lon="3.75402">
        <ele>209</ele>
        <time>2014-04-17T12:20:46Z</time>
      </trkpt>
      <trkpt lat="47.52096" lon="3.75402">
        <ele>209</ele>
        <time>2014-04-17T12:20:51Z</time>
      </trkpt>
      <trkpt lat="47.5209" lon="3.75403">
        <ele>209</ele>
        <time>2014-04-17T12:20:55Z</time>
      </trkpt>
      <trkpt lat="47.52084" lon="3.75405">
        <ele>208</ele>
        <time>2014-04-17T12:20:59Z</time>
      </trkpt>
      <trkpt lat="47.5208" lon="3.75407">
        <ele>204</ele>
        <time>2014-04-17T12:21:03Z</time>
      </trkpt>
      <trkpt lat="47.52075" lon="3.75406">
        <ele>203</ele>
        <time>2014-04-17T12:21:08Z</time>
      </trkpt>
      <trkpt lat="47.52072" lon="3.75406">
        <ele>202</ele>
        <time>2014-04-17T12:21:20Z</time>
      </trkpt>
      <trkpt lat="47.52067" lon="3.75405">
        <ele>201</ele>
        <time>2014-04-17T12:21:24Z</time>
      </trkpt>
      <trkpt lat="47.52062" lon="3.75403">
        <ele>200</ele>
        <time>2014-04-17T12:21:28Z</time>
      </trkpt>
      <trkpt lat="47.52053" lon="3.75396">
        <ele>199</ele>
        <time>2014-04-17T12:21:40Z</time>
      </trkpt>
      <trkpt lat="47.52048" lon="3.75398">
        <ele>199</ele>
        <time>2014-04-17T12:21:44Z</time>
      </trkpt>
      <trkpt lat="47.52043" lon="3.75401">
        <ele>198</ele>
        <time>2014-04-17T12:21:48Z</time>
      </trkpt>
      <trkpt lat="47.52034" lon="3.754">
        <ele>197</ele>
        <time>2014-04-17T12:21:56Z</time>
      </trkpt>
      <trkpt lat="47.52029" lon="3.75395">
        <ele>197</ele>
        <time>2014-04-17T12:22:02Z</time>
      </trkpt>
      <trkpt lat="47.52003" lon="3.75394">
        <ele>195</ele>
        <time>2014-04-17T12:22:22Z</time>
      </trkpt>
      <trkpt lat="47.51998" lon="3.75393">
        <ele>191</ele>
        <time>2014-04-17T12:22:26Z</time>
      </trkpt>
      <trkpt lat="47.51993" lon="3.75391">
        <ele>191</ele>
        <time>2014-04-17T12:22:30Z</time>
      </trkpt>
      <trkpt lat="47.51989" lon="3.75386">
        <ele>191</ele>
        <time>2014-04-17T12:22:35Z</time>
      </trkpt>
      <trkpt lat="47.51985" lon="3.75384">
        <ele>191</ele>
        <time>2014-04-17T12:22:39Z</time>
      </trkpt>
      <trkpt lat="47.51979" lon="3.75385">
        <ele>191</ele>
        <time>2014-04-17T12:22:43Z</time>
      </trkpt>
      <trkpt lat="47.51974" lon="3.75386">
        <ele>191</ele>
        <time>2014-04-17T12:22:47Z</time>
      </trkpt>
      <trkpt lat="47.51969" lon="3.75386">
        <ele>191</ele>
        <time>2014-04-17T12:22:50Z</time>
      </trkpt>
      <trkpt lat="47.51964" lon="3.75383">
        <ele>191</ele>
        <time>2014-04-17T12:22:54Z</time>
      </trkpt>
      <trkpt lat="47.51958" lon="3.75382">
        <ele>191</ele>
        <time>2014-04-17T12:22:59Z</time>
      </trkpt>
      <trkpt lat="47.51954" lon="3.7538">
        <ele>191</ele>
        <time>2014-04-17T12:23:03Z</time>
      </trkpt>
      <trkpt lat="47.51949" lon="3.75376">
        <ele>190</ele>
        <time>2014-04-17T12:23:08Z</time>
      </trkpt>
      <trkpt lat="47.51945" lon="3.75376">
        <ele>190</ele>
        <time>2014-04-17T12:23:12Z</time>
      </trkpt>
      <trkpt lat="47.51939" lon="3.75376">
        <ele>190</ele>
        <time>2014-04-17T12:23:16Z</time>
      </trkpt>
      <trkpt lat="47.51934" lon="3.75376">
        <ele>190</ele>
        <time>2014-04-17T12:23:20Z</time>
      </trkpt>
      <trkpt lat="47.5193" lon="3.75372">
        <ele>190</ele>
        <time>2014-04-17T12:23:24Z</time>
      </trkpt>
      <trkpt lat="47.51925" lon="3.75369">
        <ele>190</ele>
        <time>2014-04-17T12:23:29Z</time>
      </trkpt>
      <trkpt lat="47.51921" lon="3.75364">
        <ele>189</ele>
        <time>2014-04-17T12:23:34Z</time>
      </trkpt>
      <trkpt lat="47.51916" lon="3.7536">
        <ele>190</ele>
        <time>2014-04-17T12:23:38Z</time>
      </trkpt>
      <trkpt lat="47.51908" lon="3.75354">
        <ele>189</ele>
        <time>2014-04-17T12:23:46Z</time>
      </trkpt>
      <trkpt lat="47.51904" lon="3.7535">
        <ele>189</ele>
        <time>2014-04-17T12:23:50Z</time>
      </trkpt>
      <trkpt lat="47.51899" lon="3.75346">
        <ele>189</ele>
        <time>2014-04-17T12:23:54Z</time>
      </trkpt>
      <trkpt lat="47.51901" lon="3.7534">
        <ele>189</ele>
        <time>2014-04-17T12:24:02Z</time>
      </trkpt>
      <trkpt lat="47.51901" lon="3.75343">
        <ele>189</ele>
        <time>2014-04-17T12:24:20Z</time>
      </trkpt>
      <trkpt lat="47.51895" lon="3.75342">
        <ele>189</ele>
        <time>2014-04-17T12:24:31Z</time>
      </trkpt>
      <trkpt lat="47.51885" lon="3.75341">
        <ele>190</ele>
        <time>2014-04-17T12:24:36Z</time>
      </trkpt>
      <trkpt lat="47.51884" lon="3.75335">
        <ele>190</ele>
        <time>2014-04-17T12:24:38Z</time>
      </trkpt>
      <trkpt lat="47.51881" lon="3.75329">
        <ele>186</ele>
        <time>2014-04-17T12:24:42Z</time>
      </trkpt>
      <trkpt lat="47.51876" lon="3.75328">
        <ele>187</ele>
        <time>2014-04-17T12:24:46Z</time>
      </trkpt>
      <trkpt lat="47.51872" lon="3.75325">
        <ele>187</ele>
        <time>2014-04-17T12:24:50Z</time>
      </trkpt>
      <trkpt lat="47.51867" lon="3.75321">
        <ele>187</ele>
        <time>2014-04-17T12:24:55Z</time>
      </trkpt>
      <trkpt lat="47.51863" lon="3.75316">
        <ele>187</ele>
        <time>2014-04-17T12:24:59Z</time>
      </trkpt>
      <trkpt lat="47.5186" lon="3.75311">
        <ele>186</ele>
        <time>2014-04-17T12:25:02Z</time>
      </trkpt>
      <trkpt lat="47.51855" lon="3.75309">
        <ele>186</ele>
        <time>2014-04-17T12:25:06Z</time>
      </trkpt>
      <trkpt lat="47.51849" lon="3.75307">
        <ele>186</ele>
        <time>2014-04-17T12:25:11Z</time>
      </trkpt>
      <trkpt lat="47.51845" lon="3.75302">
        <ele>186</ele>
        <time>2014-04-17T12:25:15Z</time>
      </trkpt>
      <trkpt lat="47.51842" lon="3.75297">
        <ele>186</ele>
        <time>2014-04-17T12:25:19Z</time>
      </trkpt>
      <trkpt lat="47.51836" lon="3.75295">
        <ele>186</ele>
        <time>2014-04-17T12:25:23Z</time>
      </trkpt>
      <trkpt lat="47.51831" lon="3.75295">
        <ele>186</ele>
        <time>2014-04-17T12:25:27Z</time>
      </trkpt>
      <trkpt lat="47.51826" lon="3.75291">
        <ele>186</ele>
        <time>2014-04-17T12:25:31Z</time>
      </trkpt>
      <trkpt lat="47.51822" lon="3.75288">
        <ele>185</ele>
        <time>2014-04-17T12:25:37Z</time>
      </trkpt>
      <trkpt lat="47.51817" lon="3.75285">
        <ele>185</ele>
        <time>2014-04-17T12:25:41Z</time>
      </trkpt>
      <trkpt lat="47.51815" lon="3.75276">
        <ele>185</ele>
        <time>2014-04-17T12:25:45Z</time>
      </trkpt>
      <trkpt lat="47.51812" lon="3.7527">
        <ele>185</ele>
        <time>2014-04-17T12:25:49Z</time>
      </trkpt>
      <trkpt lat="47.51807" lon="3.7527">
        <ele>185</ele>
        <time>2014-04-17T12:25:52Z</time>
      </trkpt>
      <trkpt lat="47.51802" lon="3.75271">
        <ele>185</ele>
        <time>2014-04-17T12:25:55Z</time>
      </trkpt>
      <trkpt lat="47.51798" lon="3.75268">
        <ele>185</ele>
        <time>2014-04-17T12:25:58Z</time>
      </trkpt>
      <trkpt lat="47.51793" lon="3.75267">
        <ele>185</ele>
        <time>2014-04-17T12:26:02Z</time>
      </trkpt>
      <trkpt lat="47.51788" lon="3.75263">
        <ele>185</ele>
        <time>2014-04-17T12:26:06Z</time>
      </trkpt>
      <trkpt lat="47.51783" lon="3.75259">
        <ele>184</ele>
        <time>2014-04-17T12:26:10Z</time>
      </trkpt>
      <trkpt lat="47.5178" lon="3.75254">
        <ele>184</ele>
        <time>2014-04-17T12:26:14Z</time>
      </trkpt>
      <trkpt lat="47.51777" lon="3.75248">
        <ele>183</ele>
        <time>2014-04-17T12:26:17Z</time>
      </trkpt>
      <trkpt lat="47.51773" lon="3.75242">
        <ele>183</ele>
        <time>2014-04-17T12:26:21Z</time>
      </trkpt>
      <trkpt lat="47.51768" lon="3.7524">
        <ele>183</ele>
        <time>2014-04-17T12:26:26Z</time>
      </trkpt>
      <trkpt lat="47.51763" lon="3.75238">
        <ele>183</ele>
        <time>2014-04-17T12:26:30Z</time>
      </trkpt>
      <trkpt lat="47.51759" lon="3.75235">
        <ele>182</ele>
        <time>2014-04-17T12:26:33Z</time>
      </trkpt>
      <trkpt lat="47.51755" lon="3.75231">
        <ele>183</ele>
        <time>2014-04-17T12:26:44Z</time>
      </trkpt>
      <trkpt lat="47.5175" lon="3.75228">
        <ele>181</ele>
        <time>2014-04-17T12:26:48Z</time>
      </trkpt>
      <trkpt lat="47.51746" lon="3.75224">
        <ele>181</ele>
        <time>2014-04-17T12:26:52Z</time>
      </trkpt>
      <trkpt lat="47.51741" lon="3.75223">
        <ele>181</ele>
        <time>2014-04-17T12:26:56Z</time>
      </trkpt>
      <trkpt lat="47.51735" lon="3.75222">
        <ele>181</ele>
        <time>2014-04-17T12:27:00Z</time>
      </trkpt>
      <trkpt lat="47.51725" lon="3.75219">
        <ele>181</ele>
        <time>2014-04-17T12:27:06Z</time>
      </trkpt>
      <trkpt lat="47.51722" lon="3.75213">
        <ele>181</ele>
        <time>2014-04-17T12:27:09Z</time>
      </trkpt>
      <trkpt lat="47.51719" lon="3.75207">
        <ele>181</ele>
        <time>2014-04-17T12:27:13Z</time>
      </trkpt>
      <trkpt lat="47.51716" lon="3.75202">
        <ele>181</ele>
        <time>2014-04-17T12:27:17Z</time>
      </trkpt>
      <trkpt lat="47.51711" lon="3.75198">
        <ele>181</ele>
        <time>2014-04-17T12:27:22Z</time>
      </trkpt>
      <trkpt lat="47.51706" lon="3.75194">
        <ele>181</ele>
        <time>2014-04-17T12:27:26Z</time>
      </trkpt>
      <trkpt lat="47.51702" lon="3.7519">
        <ele>181</ele>
        <time>2014-04-17T12:27:30Z</time>
      </trkpt>
      <trkpt lat="47.51697" lon="3.75186">
        <ele>180</ele>
        <time>2014-04-17T12:27:35Z</time>
      </trkpt>
      <trkpt lat="47.51693" lon="3.75182">
        <ele>180</ele>
        <time>2014-04-17T12:27:39Z</time>
      </trkpt>
      <trkpt lat="47.51688" lon="3.75179">
        <ele>180</ele>
        <time>2014-04-17T12:27:43Z</time>
      </trkpt>
      <trkpt lat="47.51683" lon="3.75176">
        <ele>179</ele>
        <time>2014-04-17T12:27:47Z</time>
      </trkpt>
      <trkpt lat="47.51679" lon="3.75172">
        <ele>178</ele>
        <time>2014-04-17T12:27:51Z</time>
      </trkpt>
      <trkpt lat="47.51675" lon="3.75169">
        <ele>178</ele>
        <time>2014-04-17T12:27:55Z</time>
      </trkpt>
      <trkpt lat="47.51671" lon="3.75165">
        <ele>177</ele>
        <time>2014-04-17T12:27:59Z</time>
      </trkpt>
      <trkpt lat="47.51665" lon="3.75161">
        <ele>176</ele>
        <time>2014-04-17T12:28:03Z</time>
      </trkpt>
      <trkpt lat="47.5166" lon="3.75158">
        <ele>176</ele>
        <time>2014-04-17T12:28:07Z</time>
      </trkpt>
      <trkpt lat="47.51657" lon="3.75152">
        <ele>176</ele>
        <time>2014-04-17T12:28:11Z</time>
      </trkpt>
      <trkpt lat="47.51654" lon="3.75147">
        <ele>176</ele>
        <time>2014-04-17T12:28:15Z</time>
      </trkpt>
      <trkpt lat="47.51646" lon="3.75143">
        <ele>176</ele>
        <time>2014-04-17T12:28:21Z</time>
      </trkpt>
      <trkpt lat="47.51641" lon="3.75142">
        <ele>176</ele>
        <time>2014-04-17T12:28:24Z</time>
      </trkpt>
      <trkpt lat="47.51637" lon="3.7514">
        <ele>176</ele>
        <time>2014-04-17T12:28:27Z</time>
      </trkpt>
      <trkpt lat="47.51633" lon="3.75137">
        <ele>176</ele>
        <time>2014-04-17T12:28:30Z</time>
      </trkpt>
      <trkpt lat="47.5163" lon="3.7513">
        <ele>176</ele>
        <time>2014-04-17T12:28:34Z</time>
      </trkpt>
      <trkpt lat="47.51625" lon="3.75126">
        <ele>176</ele>
        <time>2014-04-17T12:28:38Z</time>
      </trkpt>
      <trkpt lat="47.51621" lon="3.75122">
        <ele>176</ele>
        <time>2014-04-17T12:28:43Z</time>
      </trkpt>
      <trkpt lat="47.51617" lon="3.75117">
        <ele>176</ele>
        <time>2014-04-17T12:28:47Z</time>
      </trkpt>
      <trkpt lat="47.51613" lon="3.75112">
        <ele>176</ele>
        <time>2014-04-17T12:28:51Z</time>
      </trkpt>
      <trkpt lat="47.51609" lon="3.75108">
        <ele>176</ele>
        <time>2014-04-17T12:28:55Z</time>
      </trkpt>
      <trkpt lat="47.51605" lon="3.75104">
        <ele>175</ele>
        <time>2014-04-17T12:29:00Z</time>
      </trkpt>
      <trkpt lat="47.516" lon="3.75099">
        <ele>175</ele>
        <time>2014-04-17T12:29:05Z</time>
      </trkpt>
      <trkpt lat="47.51597" lon="3.75092">
        <ele>175</ele>
        <time>2014-04-17T12:29:09Z</time>
      </trkpt>
      <trkpt lat="47.51594" lon="3.75087">
        <ele>174</ele>
        <time>2014-04-17T12:29:13Z</time>
      </trkpt>
      <trkpt lat="47.5159" lon="3.75083">
        <ele>174</ele>
        <time>2014-04-17T12:29:17Z</time>
      </trkpt>
      <trkpt lat="47.51585" lon="3.7508">
        <ele>174</ele>
        <time>2014-04-17T12:29:21Z</time>
      </trkpt>
      <trkpt lat="47.51581" lon="3.75078">
        <ele>173</ele>
        <time>2014-04-17T12:29:25Z</time>
      </trkpt>
      <trkpt lat="47.51575" lon="3.75075">
        <ele>174</ele>
        <time>2014-04-17T12:29:29Z</time>
      </trkpt>
      <trkpt lat="47.51571" lon="3.75073">
        <ele>174</ele>
        <time>2014-04-17T12:29:32Z</time>
      </trkpt>
      <trkpt lat="47.51566" lon="3.75072">
        <ele>174</ele>
        <time>2014-04-17T12:29:35Z</time>
      </trkpt>
      <trkpt lat="47.51561" lon="3.75071">
        <ele>174</ele>
        <time>2014-04-17T12:29:38Z</time>
      </trkpt>
      <trkpt lat="47.51558" lon="3.75065">
        <ele>174</ele>
        <time>2014-04-17T12:29:42Z</time>
      </trkpt>
      <trkpt lat="47.51554" lon="3.75059">
        <ele>174</ele>
        <time>2014-04-17T12:29:46Z</time>
      </trkpt>
      <trkpt lat="47.5155" lon="3.75057">
        <ele>174</ele>
        <time>2014-04-17T12:29:50Z</time>
      </trkpt>
      <trkpt lat="47.51545" lon="3.75057">
        <ele>175</ele>
        <time>2014-04-17T12:29:53Z</time>
      </trkpt>
      <trkpt lat="47.5154" lon="3.75056">
        <ele>175</ele>
        <time>2014-04-17T12:29:57Z</time>
      </trkpt>
      <trkpt lat="47.51536" lon="3.75051">
        <ele>175</ele>
        <time>2014-04-17T12:30:01Z</time>
      </trkpt>
      <trkpt lat="47.51535" lon="3.75044">
        <ele>175</ele>
        <time>2014-04-17T12:30:12Z</time>
      </trkpt>
      <trkpt lat="47.51529" lon="3.75041">
        <ele>174</ele>
        <time>2014-04-17T12:30:16Z</time>
      </trkpt>
      <trkpt lat="47.51525" lon="3.75039">
        <ele>174</ele>
        <time>2014-04-17T12:30:27Z</time>
      </trkpt>
      <trkpt lat="47.51524" lon="3.75035">
        <ele>174</ele>
        <time>2014-04-17T12:30:39Z</time>
      </trkpt>
      <trkpt lat="47.51519" lon="3.75033">
        <ele>174</ele>
        <time>2014-04-17T12:30:43Z</time>
      </trkpt>
      <trkpt lat="47.51514" lon="3.75031">
        <ele>174</ele>
        <time>2014-04-17T12:30:47Z</time>
      </trkpt>
      <trkpt lat="47.51509" lon="3.75028">
        <ele>174</ele>
        <time>2014-04-17T12:30:51Z</time>
      </trkpt>
      <trkpt lat="47.51505" lon="3.75025">
        <ele>174</ele>
        <time>2014-04-17T12:30:55Z</time>
      </trkpt>
      <trkpt lat="47.51501" lon="3.75022">
        <ele>174</ele>
        <time>2014-04-17T12:30:59Z</time>
      </trkpt>
      <trkpt lat="47.51495" lon="3.7502">
        <ele>173</ele>
        <time>2014-04-17T12:31:04Z</time>
      </trkpt>
      <trkpt lat="47.5149" lon="3.7502">
        <ele>173</ele>
        <time>2014-04-17T12:31:09Z</time>
      </trkpt>
      <trkpt lat="47.51485" lon="3.75018">
        <ele>173</ele>
        <time>2014-04-17T12:31:13Z</time>
      </trkpt>
      <trkpt lat="47.5148" lon="3.75016">
        <ele>173</ele>
        <time>2014-04-17T12:31:17Z</time>
      </trkpt>
      <trkpt lat="47.51475" lon="3.75013">
        <ele>173</ele>
        <time>2014-04-17T12:31:21Z</time>
      </trkpt>
      <trkpt lat="47.5147" lon="3.75011">
        <ele>173</ele>
        <time>2014-04-17T12:31:25Z</time>
      </trkpt>
      <trkpt lat="47.51464" lon="3.7501">
        <ele>173</ele>
        <time>2014-04-17T12:31:30Z</time>
      </trkpt>
      <trkpt lat="47.51458" lon="3.7501">
        <ele>173</ele>
        <time>2014-04-17T12:31:34Z</time>
      </trkpt>
      <trkpt lat="47.51453" lon="3.7501">
        <ele>173</ele>
        <time>2014-04-17T12:31:37Z</time>
      </trkpt>
      <trkpt lat="47.51447" lon="3.75009">
        <ele>173</ele>
        <time>2014-04-17T12:31:41Z</time>
      </trkpt>
      <trkpt lat="47.51443" lon="3.75008">
        <ele>173</ele>
        <time>2014-04-17T12:31:44Z</time>
      </trkpt>
      <trkpt lat="47.51437" lon="3.75009">
        <ele>172</ele>
        <time>2014-04-17T12:31:48Z</time>
      </trkpt>
      <trkpt lat="47.51432" lon="3.75008">
        <ele>172</ele>
        <time>2014-04-17T12:31:52Z</time>
      </trkpt>
      <trkpt lat="47.51427" lon="3.75008">
        <ele>171</ele>
        <time>2014-04-17T12:31:56Z</time>
      </trkpt>
      <trkpt lat="47.51421" lon="3.75008">
        <ele>171</ele>
        <time>2014-04-17T12:32:00Z</time>
      </trkpt>
      <trkpt lat="47.51416" lon="3.7501">
        <ele>170</ele>
        <time>2014-04-17T12:32:03Z</time>
      </trkpt>
      <trkpt lat="47.51411" lon="3.75009">
        <ele>170</ele>
        <time>2014-04-17T12:32:08Z</time>
      </trkpt>
      <trkpt lat="47.51407" lon="3.7501">
        <ele>170</ele>
        <time>2014-04-17T12:32:14Z</time>
      </trkpt>
      <trkpt lat="47.51402" lon="3.75014">
        <ele>171</ele>
        <time>2014-04-17T12:32:19Z</time>
      </trkpt>
      <trkpt lat="47.51398" lon="3.75019">
        <ele>171</ele>
        <time>2014-04-17T12:32:24Z</time>
      </trkpt>
      <trkpt lat="47.51395" lon="3.75025">
        <ele>171</ele>
        <time>2014-04-17T12:32:29Z</time>
      </trkpt>
      <trkpt lat="47.51392" lon="3.7503">
        <ele>172</ele>
        <time>2014-04-17T12:32:33Z</time>
      </trkpt>
      <trkpt lat="47.51387" lon="3.75035">
        <ele>172</ele>
        <time>2014-04-17T12:32:37Z</time>
      </trkpt>
      <trkpt lat="47.51384" lon="3.75041">
        <ele>172</ele>
        <time>2014-04-17T12:32:41Z</time>
      </trkpt>
      <trkpt lat="47.51381" lon="3.75047">
        <ele>172</ele>
        <time>2014-04-17T12:32:45Z</time>
      </trkpt>
      <trkpt lat="47.51378" lon="3.75054">
        <ele>173</ele>
        <time>2014-04-17T12:32:51Z</time>
      </trkpt>
      <trkpt lat="47.51374" lon="3.75057">
        <ele>173</ele>
        <time>2014-04-17T12:32:55Z</time>
      </trkpt>
      <trkpt lat="47.51369" lon="3.75062">
        <ele>173</ele>
        <time>2014-04-17T12:32:59Z</time>
      </trkpt>
      <trkpt lat="47.51365" lon="3.75066">
        <ele>173</ele>
        <time>2014-04-17T12:33:03Z</time>
      </trkpt>
      <trkpt lat="47.51361" lon="3.75071">
        <ele>173</ele>
        <time>2014-04-17T12:33:08Z</time>
      </trkpt>
      <trkpt lat="47.51357" lon="3.75078">
        <ele>173</ele>
        <time>2014-04-17T12:33:13Z</time>
      </trkpt>
      <trkpt lat="47.51353" lon="3.7508">
        <ele>173</ele>
        <time>2014-04-17T12:33:17Z</time>
      </trkpt>
      <trkpt lat="47.51349" lon="3.75084">
        <ele>177</ele>
        <time>2014-04-17T12:33:20Z</time>
      </trkpt>
      <trkpt lat="47.51344" lon="3.75087">
        <ele>176</ele>
        <time>2014-04-17T12:33:23Z</time>
      </trkpt>
      <trkpt lat="47.5134" lon="3.75089">
        <ele>176</ele>
        <time>2014-04-17T12:33:26Z</time>
      </trkpt>
      <trkpt lat="47.51335" lon="3.75092">
        <ele>176</ele>
        <time>2014-04-17T12:33:30Z</time>
      </trkpt>
      <trkpt lat="47.51329" lon="3.75094">
        <ele>173</ele>
        <time>2014-04-17T12:33:34Z</time>
      </trkpt>
      <trkpt lat="47.51325" lon="3.75097">
        <ele>174</ele>
        <time>2014-04-17T12:33:37Z</time>
      </trkpt>
      <trkpt lat="47.5132" lon="3.751">
        <ele>174</ele>
        <time>2014-04-17T12:33:41Z</time>
      </trkpt>
      <trkpt lat="47.51316" lon="3.75101">
        <ele>174</ele>
        <time>2014-04-17T12:33:45Z</time>
      </trkpt>
      <trkpt lat="47.51311" lon="3.75103">
        <ele>174</ele>
        <time>2014-04-17T12:33:49Z</time>
      </trkpt>
      <trkpt lat="47.51307" lon="3.75106">
        <ele>174</ele>
        <time>2014-04-17T12:33:53Z</time>
      </trkpt>
      <trkpt lat="47.51302" lon="3.75108">
        <ele>173</ele>
        <time>2014-04-17T12:33:57Z</time>
      </trkpt>
      <trkpt lat="47.51293" lon="3.75116">
        <ele>173</ele>
        <time>2014-04-17T12:34:07Z</time>
      </trkpt>
      <trkpt lat="47.51288" lon="3.75118">
        <ele>173</ele>
        <time>2014-04-17T12:34:11Z</time>
      </trkpt>
      <trkpt lat="47.51283" lon="3.7512">
        <ele>173</ele>
        <time>2014-04-17T12:34:15Z</time>
      </trkpt>
      <trkpt lat="47.51278" lon="3.75122">
        <ele>173</ele>
        <time>2014-04-17T12:34:19Z</time>
      </trkpt>
      <trkpt lat="47.51273" lon="3.75123">
        <ele>173</ele>
        <time>2014-04-17T12:34:22Z</time>
      </trkpt>
      <trkpt lat="47.51268" lon="3.75123">
        <ele>173</ele>
        <time>2014-04-17T12:34:25Z</time>
      </trkpt>
      <trkpt lat="47.51263" lon="3.75123">
        <ele>172</ele>
        <time>2014-04-17T12:34:29Z</time>
      </trkpt>
      <trkpt lat="47.51257" lon="3.75124">
        <ele>172</ele>
        <time>2014-04-17T12:34:33Z</time>
      </trkpt>
      <trkpt lat="47.51251" lon="3.75125">
        <ele>172</ele>
        <time>2014-04-17T12:34:37Z</time>
      </trkpt>
      <trkpt lat="47.51246" lon="3.75125">
        <ele>167</ele>
        <time>2014-04-17T12:34:41Z</time>
      </trkpt>
      <trkpt lat="47.51241" lon="3.75126">
        <ele>167</ele>
        <time>2014-04-17T12:34:44Z</time>
      </trkpt>
      <trkpt lat="47.51236" lon="3.75128">
        <ele>167</ele>
        <time>2014-04-17T12:34:47Z</time>
      </trkpt>
      <trkpt lat="47.5123" lon="3.7513">
        <ele>167</ele>
        <time>2014-04-17T12:34:51Z</time>
      </trkpt>
      <trkpt lat="47.51225" lon="3.75131">
        <ele>167</ele>
        <time>2014-04-17T12:34:55Z</time>
      </trkpt>
      <trkpt lat="47.51219" lon="3.75131">
        <ele>167</ele>
        <time>2014-04-17T12:34:59Z</time>
      </trkpt>
      <trkpt lat="47.51214" lon="3.75133">
        <ele>167</ele>
        <time>2014-04-17T12:35:03Z</time>
      </trkpt>
      <trkpt lat="47.51209" lon="3.75136">
        <ele>167</ele>
        <time>2014-04-17T12:35:09Z</time>
      </trkpt>
      <trkpt lat="47.51203" lon="3.75139">
        <ele>167</ele>
        <time>2014-04-17T12:35:13Z</time>
      </trkpt>
      <trkpt lat="47.51199" lon="3.75141">
        <ele>167</ele>
        <time>2014-04-17T12:35:17Z</time>
      </trkpt>
      <trkpt lat="47.51195" lon="3.75139">
        <ele>167</ele>
        <time>2014-04-17T12:36:04Z</time>
      </trkpt>
      <trkpt lat="47.51188" lon="3.75145">
        <ele>167</ele>
        <time>2014-04-17T12:36:14Z</time>
      </trkpt>
      <trkpt lat="47.51183" lon="3.75147">
        <ele>167</ele>
        <time>2014-04-17T12:36:18Z</time>
      </trkpt>
      <trkpt lat="47.51178" lon="3.7515">
        <ele>167</ele>
        <time>2014-04-17T12:36:23Z</time>
      </trkpt>
      <trkpt lat="47.51174" lon="3.75153">
        <ele>167</ele>
        <time>2014-04-17T12:36:28Z</time>
      </trkpt>
      <trkpt lat="47.5117" lon="3.75156">
        <ele>167</ele>
        <time>2014-04-17T12:36:33Z</time>
      </trkpt>
      <trkpt lat="47.51164" lon="3.75158">
        <ele>165</ele>
        <time>2014-04-17T12:36:38Z</time>
      </trkpt>
      <trkpt lat="47.5116" lon="3.7516">
        <ele>165</ele>
        <time>2014-04-17T12:36:41Z</time>
      </trkpt>
      <trkpt lat="47.51154" lon="3.75164">
        <ele>164</ele>
        <time>2014-04-17T12:36:44Z</time>
      </trkpt>
      <trkpt lat="47.5115" lon="3.75167">
        <ele>168</ele>
        <time>2014-04-17T12:36:48Z</time>
      </trkpt>
      <trkpt lat="47.51144" lon="3.7517">
        <ele>168</ele>
        <time>2014-04-17T12:36:52Z</time>
      </trkpt>
      <trkpt lat="47.51139" lon="3.75172">
        <ele>168</ele>
        <time>2014-04-17T12:36:56Z</time>
      </trkpt>
      <trkpt lat="47.51134" lon="3.75173">
        <ele>168</ele>
        <time>2014-04-17T12:37:00Z</time>
      </trkpt>
      <trkpt lat="47.51129" lon="3.75175">
        <ele>167</ele>
        <time>2014-04-17T12:37:04Z</time>
      </trkpt>
      <trkpt lat="47.51125" lon="3.75178">
        <ele>167</ele>
        <time>2014-04-17T12:37:07Z</time>
      </trkpt>
      <trkpt lat="47.5112" lon="3.75181">
        <ele>167</ele>
        <time>2014-04-17T12:37:11Z</time>
      </trkpt>
      <trkpt lat="47.51114" lon="3.75185">
        <ele>167</ele>
        <time>2014-04-17T12:37:15Z</time>
      </trkpt>
      <trkpt lat="47.5111" lon="3.75189">
        <ele>167</ele>
        <time>2014-04-17T12:37:17Z</time>
      </trkpt>
      <trkpt lat="47.51106" lon="3.75193">
        <ele>167</ele>
        <time>2014-04-17T12:37:19Z</time>
      </trkpt>
      <trkpt lat="47.51102" lon="3.75196">
        <ele>167</ele>
        <time>2014-04-17T12:37:21Z</time>
      </trkpt>
      <trkpt lat="47.51098" lon="3.752">
        <ele>167</ele>
        <time>2014-04-17T12:37:23Z</time>
      </trkpt>
      <trkpt lat="47.51094" lon="3.75204">
        <ele>167</ele>
        <time>2014-04-17T12:37:26Z</time>
      </trkpt>
      <trkpt lat="47.5109" lon="3.75208">
        <ele>167</ele>
        <time>2014-04-17T12:37:31Z</time>
      </trkpt>
      <trkpt lat="47.51084" lon="3.75209">
        <ele>167</ele>
        <time>2014-04-17T12:37:34Z</time>
      </trkpt>
      <trkpt lat="47.5108" lon="3.75209">
        <ele>161</ele>
        <time>2014-04-17T12:37:37Z</time>
      </trkpt>
      <trkpt lat="47.51075" lon="3.7521">
        <ele>161</ele>
        <time>2014-04-17T12:37:40Z</time>
      </trkpt>
      <trkpt lat="47.5107" lon="3.7521">
        <ele>161</ele>
        <time>2014-04-17T12:37:45Z</time>
      </trkpt>
      <trkpt lat="47.51066" lon="3.75209">
        <ele>161</ele>
        <time>2014-04-17T12:37:50Z</time>
      </trkpt>
      <trkpt lat="47.51061" lon="3.7521">
        <ele>160</ele>
        <time>2014-04-17T12:37:54Z</time>
      </trkpt>
      <trkpt lat="47.51056" lon="3.75211">
        <ele>160</ele>
        <time>2014-04-17T12:37:58Z</time>
      </trkpt>
      <trkpt lat="47.51052" lon="3.75209">
        <ele>160</ele>
        <time>2014-04-17T12:38:04Z</time>
      </trkpt>
      <trkpt lat="47.51046" lon="3.75211">
        <ele>160</ele>
        <time>2014-04-17T12:38:09Z</time>
      </trkpt>
      <trkpt lat="47.51042" lon="3.75215">
        <ele>160</ele>
        <time>2014-04-17T12:38:11Z</time>
      </trkpt>
      <trkpt lat="47.51038" lon="3.75219">
        <ele>159</ele>
        <time>2014-04-17T12:38:13Z</time>
      </trkpt>
      <trkpt lat="47.51034" lon="3.75223">
        <ele>159</ele>
        <time>2014-04-17T12:38:16Z</time>
      </trkpt>
      <trkpt lat="47.5103" lon="3.75226">
        <ele>159</ele>
        <time>2014-04-17T12:38:20Z</time>
      </trkpt>
      <trkpt lat="47.51025" lon="3.75227">
        <ele>159</ele>
        <time>2014-04-17T12:38:26Z</time>
      </trkpt>
      <trkpt lat="47.5102" lon="3.75228">
        <ele>158</ele>
        <time>2014-04-17T12:38:30Z</time>
      </trkpt>
      <trkpt lat="47.51016" lon="3.75231">
        <ele>158</ele>
        <time>2014-04-17T12:38:33Z</time>
      </trkpt>
      <trkpt lat="47.5101" lon="3.7523">
        <ele>158</ele>
        <time>2014-04-17T12:38:37Z</time>
      </trkpt>
      <trkpt lat="47.51006" lon="3.75227">
        <ele>158</ele>
        <time>2014-04-17T12:38:42Z</time>
      </trkpt>
      <trkpt lat="47.51002" lon="3.75221">
        <ele>158</ele>
        <time>2014-04-17T12:38:46Z</time>
      </trkpt>
      <trkpt lat="47.50999" lon="3.75216">
        <ele>154</ele>
        <time>2014-04-17T12:38:49Z</time>
      </trkpt>
      <trkpt lat="47.50993" lon="3.75214">
        <ele>154</ele>
        <time>2014-04-17T12:38:53Z</time>
      </trkpt>
      <trkpt lat="47.50989" lon="3.75213">
        <ele>154</ele>
        <time>2014-04-17T12:38:58Z</time>
      </trkpt>
      <trkpt lat="47.50984" lon="3.75211">
        <ele>153</ele>
        <time>2014-04-17T12:39:02Z</time>
      </trkpt>
      <trkpt lat="47.50979" lon="3.75207">
        <ele>153</ele>
        <time>2014-04-17T12:39:07Z</time>
      </trkpt>
      <trkpt lat="47.50974" lon="3.75203">
        <ele>153</ele>
        <time>2014-04-17T12:39:11Z</time>
      </trkpt>
      <trkpt lat="47.50967" lon="3.75201">
        <ele>153</ele>
        <time>2014-04-17T12:39:14Z</time>
      </trkpt>
      <trkpt lat="47.50962" lon="3.752">
        <ele>153</ele>
        <time>2014-04-17T12:39:18Z</time>
      </trkpt>
      <trkpt lat="47.50958" lon="3.75198">
        <ele>153</ele>
        <time>2014-04-17T12:39:22Z</time>
      </trkpt>
      <trkpt lat="47.50953" lon="3.75197">
        <ele>153</ele>
        <time>2014-04-17T12:39:25Z</time>
      </trkpt>
      <trkpt lat="47.50948" lon="3.75197">
        <ele>153</ele>
        <time>2014-04-17T12:39:28Z</time>
      </trkpt>
      <trkpt lat="47.50943" lon="3.75197">
        <ele>153</ele>
        <time>2014-04-17T12:39:31Z</time>
      </trkpt>
      <trkpt lat="47.50937" lon="3.75198">
        <ele>153</ele>
        <time>2014-04-17T12:39:34Z</time>
      </trkpt>
      <trkpt lat="47.50932" lon="3.752">
        <ele>153</ele>
        <time>2014-04-17T12:39:37Z</time>
      </trkpt>
      <trkpt lat="47.50926" lon="3.75201">
        <ele>153</ele>
        <time>2014-04-17T12:39:41Z</time>
      </trkpt>
      <trkpt lat="47.50922" lon="3.75198">
        <ele>153</ele>
        <time>2014-04-17T12:39:46Z</time>
      </trkpt>
      <trkpt lat="47.50917" lon="3.75197">
        <ele>154</ele>
        <time>2014-04-17T12:39:51Z</time>
      </trkpt>
      <trkpt lat="47.50912" lon="3.75196">
        <ele>154</ele>
        <time>2014-04-17T12:39:56Z</time>
      </trkpt>
      <trkpt lat="47.50907" lon="3.75194">
        <ele>154</ele>
        <time>2014-04-17T12:40:01Z</time>
      </trkpt>
      <trkpt lat="47.50902" lon="3.7519">
        <ele>155</ele>
        <time>2014-04-17T12:40:06Z</time>
      </trkpt>
      <trkpt lat="47.50897" lon="3.75189">
        <ele>155</ele>
        <time>2014-04-17T12:40:11Z</time>
      </trkpt>
      <trkpt lat="47.50893" lon="3.75192">
        <ele>155</ele>
        <time>2014-04-17T12:40:15Z</time>
      </trkpt>
      <trkpt lat="47.50888" lon="3.75196">
        <ele>155</ele>
        <time>2014-04-17T12:40:21Z</time>
      </trkpt>
      <trkpt lat="47.50884" lon="3.75201">
        <ele>155</ele>
        <time>2014-04-17T12:40:26Z</time>
      </trkpt>
      <trkpt lat="47.50881" lon="3.75208">
        <ele>155</ele>
        <time>2014-04-17T12:40:31Z</time>
      </trkpt>
      <trkpt lat="47.50877" lon="3.75213">
        <ele>155</ele>
        <time>2014-04-17T12:40:35Z</time>
      </trkpt>
      <trkpt lat="47.50874" lon="3.75218">
        <ele>155</ele>
        <time>2014-04-17T12:40:40Z</time>
      </trkpt>
      <trkpt lat="47.5087" lon="3.75224">
        <ele>155</ele>
        <time>2014-04-17T12:40:45Z</time>
      </trkpt>
      <trkpt lat="47.50867" lon="3.75228">
        <ele>155</ele>
        <time>2014-04-17T12:40:51Z</time>
      </trkpt>
      <trkpt lat="47.50862" lon="3.75228">
        <ele>155</ele>
        <time>2014-04-17T12:40:54Z</time>
      </trkpt>
      <trkpt lat="47.50857" lon="3.7523">
        <ele>155</ele>
        <time>2014-04-17T12:40:58Z</time>
      </trkpt>
      <trkpt lat="47.50853" lon="3.75235">
        <ele>155</ele>
        <time>2014-04-17T12:41:02Z</time>
      </trkpt>
      <trkpt lat="47.5085" lon="3.75241">
        <ele>154</ele>
        <time>2014-04-17T12:41:06Z</time>
      </trkpt>
      <trkpt lat="47.50847" lon="3.75245">
        <ele>154</ele>
        <time>2014-04-17T12:41:10Z</time>
      </trkpt>
      <trkpt lat="47.50842" lon="3.75251">
        <ele>152</ele>
        <time>2014-04-17T12:41:14Z</time>
      </trkpt>
      <trkpt lat="47.50838" lon="3.75256">
        <ele>152</ele>
        <time>2014-04-17T12:41:18Z</time>
      </trkpt>
      <trkpt lat="47.50834" lon="3.7526">
        <ele>152</ele>
        <time>2014-04-17T12:41:22Z</time>
      </trkpt>
      <trkpt lat="47.50831" lon="3.75266">
        <ele>155</ele>
        <time>2014-04-17T12:41:27Z</time>
      </trkpt>
      <trkpt lat="47.50829" lon="3.75273">
        <ele>156</ele>
        <time>2014-04-17T12:41:31Z</time>
      </trkpt>
      <trkpt lat="47.50824" lon="3.75279">
        <ele>156</ele>
        <time>2014-04-17T12:41:35Z</time>
      </trkpt>
      <trkpt lat="47.50821" lon="3.75285">
        <ele>156</ele>
        <time>2014-04-17T12:41:38Z</time>
      </trkpt>
      <trkpt lat="47.50819" lon="3.75291">
        <ele>156</ele>
        <time>2014-04-17T12:41:41Z</time>
      </trkpt>
      <trkpt lat="47.50815" lon="3.75296">
        <ele>156</ele>
        <time>2014-04-17T12:41:45Z</time>
      </trkpt>
      <trkpt lat="47.50811" lon="3.75301">
        <ele>156</ele>
        <time>2014-04-17T12:41:49Z</time>
      </trkpt>
      <trkpt lat="47.50805" lon="3.75304">
        <ele>156</ele>
        <time>2014-04-17T12:41:52Z</time>
      </trkpt>
      <trkpt lat="47.50802" lon="3.75309">
        <ele>156</ele>
        <time>2014-04-17T12:41:56Z</time>
      </trkpt>
      <trkpt lat="47.50797" lon="3.75312">
        <ele>157</ele>
        <time>2014-04-17T12:42:03Z</time>
      </trkpt>
      <trkpt lat="47.50793" lon="3.75307">
        <ele>157</ele>
        <time>2014-04-17T12:42:08Z</time>
      </trkpt>
      <trkpt lat="47.50787" lon="3.75308">
        <ele>158</ele>
        <time>2014-04-17T12:42:14Z</time>
      </trkpt>
      <trkpt lat="47.50781" lon="3.75318">
        <ele>158</ele>
        <time>2014-04-17T12:42:22Z</time>
      </trkpt>
      <trkpt lat="47.50776" lon="3.75319">
        <ele>158</ele>
        <time>2014-04-17T12:42:27Z</time>
      </trkpt>
      <trkpt lat="47.5077" lon="3.75324">
        <ele>158</ele>
        <time>2014-04-17T12:42:31Z</time>
      </trkpt>
      <trkpt lat="47.50765" lon="3.75327">
        <ele>158</ele>
        <time>2014-04-17T12:42:34Z</time>
      </trkpt>
      <trkpt lat="47.50761" lon="3.75324">
        <ele>158</ele>
        <time>2014-04-17T12:42:41Z</time>
      </trkpt>
      <trkpt lat="47.5076" lon="3.75317">
        <ele>159</ele>
        <time>2014-04-17T12:42:44Z</time>
      </trkpt>
      <trkpt lat="47.50757" lon="3.75309">
        <ele>159</ele>
        <time>2014-04-17T12:42:49Z</time>
      </trkpt>
      <trkpt lat="47.50752" lon="3.75305">
        <ele>160</ele>
        <time>2014-04-17T12:42:53Z</time>
      </trkpt>
      <trkpt lat="47.50747" lon="3.75305">
        <ele>165</ele>
        <time>2014-04-17T12:43:03Z</time>
      </trkpt>
      <trkpt lat="47.50745" lon="3.75306">
        <ele>165</ele>
        <time>2014-04-17T12:43:09Z</time>
      </trkpt>
      <trkpt lat="47.50744" lon="3.75314">
        <ele>164</ele>
        <time>2014-04-17T12:43:10Z</time>
      </trkpt>
      <trkpt lat="47.50739" lon="3.75315">
        <ele>164</ele>
        <time>2014-04-17T12:43:17Z</time>
      </trkpt>
      <trkpt lat="47.50734" lon="3.75313">
        <ele>165</ele>
        <time>2014-04-17T12:43:21Z</time>
      </trkpt>
      <trkpt lat="47.50725" lon="3.75308">
        <ele>166</ele>
        <time>2014-04-17T12:43:28Z</time>
      </trkpt>
      <trkpt lat="47.50716" lon="3.75305">
        <ele>167</ele>
        <time>2014-04-17T12:43:37Z</time>
      </trkpt>
      <trkpt lat="47.5071" lon="3.75311">
        <ele>167</ele>
        <time>2014-04-17T12:43:40Z</time>
      </trkpt>
      <trkpt lat="47.50706" lon="3.75313">
        <ele>167</ele>
        <time>2014-04-17T12:43:43Z</time>
      </trkpt>
      <trkpt lat="47.50697" lon="3.75321">
        <ele>166</ele>
        <time>2014-04-17T12:43:49Z</time>
      </trkpt>
      <trkpt lat="47.50691" lon="3.7532">
        <ele>166</ele>
        <time>2014-04-17T12:43:53Z</time>
      </trkpt>
      <trkpt lat="47.50687" lon="3.75318">
        <ele>167</ele>
        <time>2014-04-17T12:43:57Z</time>
      </trkpt>
      <trkpt lat="47.50681" lon="3.75316">
        <ele>167</ele>
        <time>2014-04-17T12:44:03Z</time>
      </trkpt>
      <trkpt lat="47.50676" lon="3.75314">
        <ele>167</ele>
        <time>2014-04-17T12:44:06Z</time>
      </trkpt>
      <trkpt lat="47.50665" lon="3.75312">
        <ele>166</ele>
        <time>2014-04-17T12:44:16Z</time>
      </trkpt>
      <trkpt lat="47.50662" lon="3.75308">
        <ele>166</ele>
        <time>2014-04-17T12:44:20Z</time>
      </trkpt>
      <trkpt lat="47.50657" lon="3.75304">
        <ele>167</ele>
        <time>2014-04-17T12:44:26Z</time>
      </trkpt>
      <trkpt lat="47.50652" lon="3.75301">
        <ele>167</ele>
        <time>2014-04-17T12:44:30Z</time>
      </trkpt>
      <trkpt lat="47.50647" lon="3.75299">
        <ele>167</ele>
        <time>2014-04-17T12:44:36Z</time>
      </trkpt>
      <trkpt lat="47.50641" lon="3.75295">
        <ele>167</ele>
        <time>2014-04-17T12:44:40Z</time>
      </trkpt>
      <trkpt lat="47.50637" lon="3.75291">
        <ele>167</ele>
        <time>2014-04-17T12:44:43Z</time>
      </trkpt>
      <trkpt lat="47.50632" lon="3.75289">
        <ele>167</ele>
        <time>2014-04-17T12:44:48Z</time>
      </trkpt>
      <trkpt lat="47.50628" lon="3.75284">
        <ele>167</ele>
        <time>2014-04-17T12:44:53Z</time>
      </trkpt>
      <trkpt lat="47.50623" lon="3.7528">
        <ele>167</ele>
        <time>2014-04-17T12:44:57Z</time>
      </trkpt>
      <trkpt lat="47.50617" lon="3.75278">
        <ele>167</ele>
        <time>2014-04-17T12:45:01Z</time>
      </trkpt>
      <trkpt lat="47.50613" lon="3.75275">
        <ele>167</ele>
        <time>2014-04-17T12:45:06Z</time>
      </trkpt>
      <trkpt lat="47.50608" lon="3.75272">
        <ele>167</ele>
        <time>2014-04-17T12:45:11Z</time>
      </trkpt>
      <trkpt lat="47.50603" lon="3.75269">
        <ele>167</ele>
        <time>2014-04-17T12:45:15Z</time>
      </trkpt>
      <trkpt lat="47.50599" lon="3.75265">
        <ele>167</ele>
        <time>2014-04-17T12:45:18Z</time>
      </trkpt>
      <trkpt lat="47.50594" lon="3.75262">
        <ele>167</ele>
        <time>2014-04-17T12:45:24Z</time>
      </trkpt>
      <trkpt lat="47.50589" lon="3.75259">
        <ele>167</ele>
        <time>2014-04-17T12:45:28Z</time>
      </trkpt>
      <trkpt lat="47.50585" lon="3.75256">
        <ele>167</ele>
        <time>2014-04-17T12:45:31Z</time>
      </trkpt>
      <trkpt lat="47.5058" lon="3.75254">
        <ele>167</ele>
        <time>2014-04-17T12:45:35Z</time>
      </trkpt>
      <trkpt lat="47.50575" lon="3.75252">
        <ele>167</ele>
        <time>2014-04-17T12:45:41Z</time>
      </trkpt>
      <trkpt lat="47.5057" lon="3.75249">
        <ele>170</ele>
        <time>2014-04-17T12:45:44Z</time>
      </trkpt>
      <trkpt lat="47.50566" lon="3.75246">
        <ele>171</ele>
        <time>2014-04-17T12:45:48Z</time>
      </trkpt>
      <trkpt lat="47.50561" lon="3.75245">
        <ele>172</ele>
        <time>2014-04-17T12:45:54Z</time>
      </trkpt>
      <trkpt lat="47.50556" lon="3.75244">
        <ele>172</ele>
        <time>2014-04-17T12:46:00Z</time>
      </trkpt>
      <trkpt lat="47.50562" lon="3.75228">
        <ele>173</ele>
        <time>2014-04-17T12:46:58Z</time>
      </trkpt>
      <trkpt lat="47.50558" lon="3.75228">
        <ele>173</ele>
        <time>2014-04-17T12:48:55Z</time>
      </trkpt>
      <trkpt lat="47.50552" lon="3.75231">
        <ele>173</ele>
        <time>2014-04-17T12:49:23Z</time>
      </trkpt>
      <trkpt lat="47.50547" lon="3.75232">
        <ele>173</ele>
        <time>2014-04-17T12:49:27Z</time>
      </trkpt>
      <trkpt lat="47.50543" lon="3.75232">
        <ele>173</ele>
        <time>2014-04-17T12:49:32Z</time>
      </trkpt>
      <trkpt lat="47.50538" lon="3.75232">
        <ele>173</ele>
        <time>2014-04-17T12:49:37Z</time>
      </trkpt>
      <trkpt lat="47.50534" lon="3.75238">
        <ele>173</ele>
        <time>2014-04-17T12:49:41Z</time>
      </trkpt>
      <trkpt lat="47.50528" lon="3.75237">
        <ele>173</ele>
        <time>2014-04-17T12:49:46Z</time>
      </trkpt>
      <trkpt lat="47.50524" lon="3.75236">
        <ele>173</ele>
        <time>2014-04-17T12:49:50Z</time>
      </trkpt>
      <trkpt lat="47.50519" lon="3.75235">
        <ele>173</ele>
        <time>2014-04-17T12:49:54Z</time>
      </trkpt>
      <trkpt lat="47.50513" lon="3.75233">
        <ele>173</ele>
        <time>2014-04-17T12:49:58Z</time>
      </trkpt>
      <trkpt lat="47.50508" lon="3.75231">
        <ele>173</ele>
        <time>2014-04-17T12:50:03Z</time>
      </trkpt>
      <trkpt lat="47.50503" lon="3.7523">
        <ele>173</ele>
        <time>2014-04-17T12:50:08Z</time>
      </trkpt>
      <trkpt lat="47.50498" lon="3.7523">
        <ele>175</ele>
        <time>2014-04-17T12:50:13Z</time>
      </trkpt>
      <trkpt lat="47.50492" lon="3.75219">
        <ele>176</ele>
        <time>2014-04-17T12:50:22Z</time>
      </trkpt>
      <trkpt lat="47.50482" lon="3.75221">
        <ele>176</ele>
        <time>2014-04-17T12:50:28Z</time>
      </trkpt>
      <trkpt lat="47.50477" lon="3.7522">
        <ele>177</ele>
        <time>2014-04-17T12:50:33Z</time>
      </trkpt>
      <trkpt lat="47.50473" lon="3.75222">
        <ele>177</ele>
        <time>2014-04-17T12:50:37Z</time>
      </trkpt>
      <trkpt lat="47.50467" lon="3.75222">
        <ele>177</ele>
        <time>2014-04-17T12:50:45Z</time>
      </trkpt>
      <trkpt lat="47.50463" lon="3.75224">
        <ele>178</ele>
        <time>2014-04-17T12:50:52Z</time>
      </trkpt>
      <trkpt lat="47.50458" lon="3.75223">
        <ele>178</ele>
        <time>2014-04-17T12:50:57Z</time>
      </trkpt>
      <trkpt lat="47.50448" lon="3.75221">
        <ele>179</ele>
        <time>2014-04-17T12:51:04Z</time>
      </trkpt>
      <trkpt lat="47.50439" lon="3.75219">
        <ele>179</ele>
        <time>2014-04-17T12:51:11Z</time>
      </trkpt>
      <trkpt lat="47.5043" lon="3.75213">
        <ele>180</ele>
        <time>2014-04-17T12:51:20Z</time>
      </trkpt>
      <trkpt lat="47.50425" lon="3.7521">
        <ele>180</ele>
        <time>2014-04-17T12:51:26Z</time>
      </trkpt>
      <trkpt lat="47.5042" lon="3.7521">
        <ele>180</ele>
        <time>2014-04-17T12:51:30Z</time>
      </trkpt>
      <trkpt lat="47.5041" lon="3.7521">
        <ele>186</ele>
        <time>2014-04-17T12:51:39Z</time>
      </trkpt>
      <trkpt lat="47.50401" lon="3.75203">
        <ele>187</ele>
        <time>2014-04-17T12:51:47Z</time>
      </trkpt>
      <trkpt lat="47.50393" lon="3.75196">
        <ele>187</ele>
        <time>2014-04-17T12:51:53Z</time>
      </trkpt>
      <trkpt lat="47.50383" lon="3.7519">
        <ele>187</ele>
        <time>2014-04-17T12:52:11Z</time>
      </trkpt>
      <trkpt lat="47.50375" lon="3.75185">
        <ele>188</ele>
        <time>2014-04-17T12:52:17Z</time>
      </trkpt>
      <trkpt lat="47.50366" lon="3.75179">
        <ele>188</ele>
        <time>2014-04-17T12:52:26Z</time>
      </trkpt>
      <trkpt lat="47.50359" lon="3.7517">
        <ele>189</ele>
        <time>2014-04-17T12:52:36Z</time>
      </trkpt>
      <trkpt lat="47.5035" lon="3.75177">
        <ele>189</ele>
        <time>2014-04-17T12:52:45Z</time>
      </trkpt>
      <trkpt lat="47.5034" lon="3.75178">
        <ele>190</ele>
        <time>2014-04-17T12:52:52Z</time>
      </trkpt>
      <trkpt lat="47.50331" lon="3.75173">
        <ele>192</ele>
        <time>2014-04-17T12:53:00Z</time>
      </trkpt>
      <trkpt lat="47.50323" lon="3.75168">
        <ele>193</ele>
        <time>2014-04-17T12:53:06Z</time>
      </trkpt>
      <trkpt lat="47.50316" lon="3.75158">
        <ele>194</ele>
        <time>2014-04-17T12:53:16Z</time>
      </trkpt>
      <trkpt lat="47.50308" lon="3.7515">
        <ele>196</ele>
        <time>2014-04-17T12:53:22Z</time>
      </trkpt>
      <trkpt lat="47.50298" lon="3.75149">
        <ele>197</ele>
        <time>2014-04-17T12:53:27Z</time>
      </trkpt>
      <trkpt lat="47.50289" lon="3.75149">
        <ele>198</ele>
        <time>2014-04-17T12:53:37Z</time>
      </trkpt>
      <trkpt lat="47.50279" lon="3.75149">
        <ele>198</ele>
        <time>2014-04-17T12:53:47Z</time>
      </trkpt>
      <trkpt lat="47.50276" lon="3.75135">
        <ele>199</ele>
        <time>2014-04-17T12:53:59Z</time>
      </trkpt>
      <trkpt lat="47.50275" lon="3.75131">
        <ele>199</ele>
        <time>2014-04-17T12:54:23Z</time>
      </trkpt>
      <trkpt lat="47.50265" lon="3.75136">
        <ele>199</ele>
        <time>2014-04-17T12:54:33Z</time>
      </trkpt>
      <trkpt lat="47.50255" lon="3.7514">
        <ele>200</ele>
        <time>2014-04-17T12:54:38Z</time>
      </trkpt>
      <trkpt lat="47.50246" lon="3.75134">
        <ele>203</ele>
        <time>2014-04-17T12:54:49Z</time>
      </trkpt>
      <trkpt lat="47.50238" lon="3.7513">
        <ele>203</ele>
        <time>2014-04-17T12:54:57Z</time>
      </trkpt>
      <trkpt lat="47.50229" lon="3.7513">
        <ele>204</ele>
        <time>2014-04-17T12:55:18Z</time>
      </trkpt>
      <trkpt lat="47.50226" lon="3.75134">
        <ele>203</ele>
        <time>2014-04-17T12:55:26Z</time>
      </trkpt>
      <trkpt lat="47.50221" lon="3.75138">
        <ele>203</ele>
        <time>2014-04-17T12:55:33Z</time>
      </trkpt>
      <trkpt lat="47.50218" lon="3.75143">
        <ele>203</ele>
        <time>2014-04-17T12:55:37Z</time>
      </trkpt>
      <trkpt lat="47.50213" lon="3.75147">
        <ele>204</ele>
        <time>2014-04-17T12:55:42Z</time>
      </trkpt>
      <trkpt lat="47.50209" lon="3.75152">
        <ele>204</ele>
        <time>2014-04-17T12:55:46Z</time>
      </trkpt>
      <trkpt lat="47.50205" lon="3.75154">
        <ele>204</ele>
        <time>2014-04-17T12:55:50Z</time>
      </trkpt>
      <trkpt lat="47.502" lon="3.75155">
        <ele>204</ele>
        <time>2014-04-17T12:55:59Z</time>
      </trkpt>
      <trkpt lat="47.50195" lon="3.7516">
        <ele>204</ele>
        <time>2014-04-17T12:56:04Z</time>
      </trkpt>
      <trkpt lat="47.50191" lon="3.75164">
        <ele>204</ele>
        <time>2014-04-17T12:56:10Z</time>
      </trkpt>
      <trkpt lat="47.50187" lon="3.75166">
        <ele>204</ele>
        <time>2014-04-17T12:56:16Z</time>
      </trkpt>
      <trkpt lat="47.50182" lon="3.75167">
        <ele>205</ele>
        <time>2014-04-17T12:56:21Z</time>
      </trkpt>
      <trkpt lat="47.50176" lon="3.75169">
        <ele>205</ele>
        <time>2014-04-17T12:56:27Z</time>
      </trkpt>
      <trkpt lat="47.50172" lon="3.75171">
        <ele>205</ele>
        <time>2014-04-17T12:56:30Z</time>
      </trkpt>
      <trkpt lat="47.50167" lon="3.75173">
        <ele>205</ele>
        <time>2014-04-17T12:56:34Z</time>
      </trkpt>
      <trkpt lat="47.50163" lon="3.75174">
        <ele>205</ele>
        <time>2014-04-17T12:56:44Z</time>
      </trkpt>
      <trkpt lat="47.5016" lon="3.75179">
        <ele>206</ele>
        <time>2014-04-17T12:56:47Z</time>
      </trkpt>
      <trkpt lat="47.50154" lon="3.7518">
        <ele>206</ele>
        <time>2014-04-17T12:56:54Z</time>
      </trkpt>
      <trkpt lat="47.50149" lon="3.7518">
        <ele>206</ele>
        <time>2014-04-17T12:57:00Z</time>
      </trkpt>
      <trkpt lat="47.50145" lon="3.75182">
        <ele>206</ele>
        <time>2014-04-17T12:57:04Z</time>
      </trkpt>
      <trkpt lat="47.5014" lon="3.75185">
        <ele>207</ele>
        <time>2014-04-17T12:57:07Z</time>
      </trkpt>
      <trkpt lat="47.50135" lon="3.75189">
        <ele>207</ele>
        <time>2014-04-17T12:57:11Z</time>
      </trkpt>
      <trkpt lat="47.5013" lon="3.75192">
        <ele>207</ele>
        <time>2014-04-17T12:57:15Z</time>
      </trkpt>
      <trkpt lat="47.50125" lon="3.75196">
        <ele>207</ele>
        <time>2014-04-17T12:57:20Z</time>
      </trkpt>
      <trkpt lat="47.50121" lon="3.75199">
        <ele>207</ele>
        <time>2014-04-17T12:57:24Z</time>
      </trkpt>
      <trkpt lat="47.50116" lon="3.752">
        <ele>207</ele>
        <time>2014-04-17T12:57:28Z</time>
      </trkpt>
      <trkpt lat="47.50111" lon="3.75201">
        <ele>207</ele>
        <time>2014-04-17T12:57:33Z</time>
      </trkpt>
      <trkpt lat="47.50106" lon="3.75203">
        <ele>207</ele>
        <time>2014-04-17T12:57:37Z</time>
      </trkpt>
      <trkpt lat="47.50102" lon="3.75207">
        <ele>207</ele>
        <time>2014-04-17T12:57:40Z</time>
      </trkpt>
      <trkpt lat="47.50097" lon="3.75209">
        <ele>208</ele>
        <time>2014-04-17T12:57:44Z</time>
      </trkpt>
      <trkpt lat="47.50091" lon="3.75212">
        <ele>208</ele>
        <time>2014-04-17T12:57:48Z</time>
      </trkpt>
      <trkpt lat="47.50087" lon="3.75214">
        <ele>208</ele>
        <time>2014-04-17T12:57:51Z</time>
      </trkpt>
      <trkpt lat="47.50082" lon="3.75217">
        <ele>207</ele>
        <time>2014-04-17T12:57:54Z</time>
      </trkpt>
      <trkpt lat="47.50073" lon="3.75222">
        <ele>207</ele>
        <time>2014-04-17T12:58:04Z</time>
      </trkpt>
      <trkpt lat="47.50069" lon="3.75226">
        <ele>207</ele>
        <time>2014-04-17T12:58:07Z</time>
      </trkpt>
      <trkpt lat="47.50065" lon="3.75228">
        <ele>207</ele>
        <time>2014-04-17T12:58:12Z</time>
      </trkpt>
      <trkpt lat="47.50059" lon="3.75232">
        <ele>207</ele>
        <time>2014-04-17T12:58:17Z</time>
      </trkpt>
      <trkpt lat="47.50055" lon="3.75236">
        <ele>207</ele>
        <time>2014-04-17T12:58:21Z</time>
      </trkpt>
      <trkpt lat="47.50051" lon="3.75237">
        <ele>206</ele>
        <time>2014-04-17T12:58:25Z</time>
      </trkpt>
      <trkpt lat="47.50046" lon="3.75236">
        <ele>206</ele>
        <time>2014-04-17T12:58:29Z</time>
      </trkpt>
      <trkpt lat="47.50041" lon="3.75241">
        <ele>206</ele>
        <time>2014-04-17T12:58:33Z</time>
      </trkpt>
      <trkpt lat="47.50037" lon="3.75244">
        <ele>206</ele>
        <time>2014-04-17T12:58:36Z</time>
      </trkpt>
      <trkpt lat="47.50032" lon="3.75246">
        <ele>206</ele>
        <time>2014-04-17T12:58:39Z</time>
      </trkpt>
      <trkpt lat="47.50027" lon="3.75249">
        <ele>205</ele>
        <time>2014-04-17T12:58:43Z</time>
      </trkpt>
      <trkpt lat="47.50022" lon="3.75251">
        <ele>206</ele>
        <time>2014-04-17T12:58:47Z</time>
      </trkpt>
      <trkpt lat="47.50017" lon="3.75252">
        <ele>206</ele>
        <time>2014-04-17T12:58:51Z</time>
      </trkpt>
      <trkpt lat="47.50012" lon="3.75253">
        <ele>206</ele>
        <time>2014-04-17T12:58:55Z</time>
      </trkpt>
      <trkpt lat="47.50007" lon="3.75255">
        <ele>205</ele>
        <time>2014-04-17T12:58:59Z</time>
      </trkpt>
      <trkpt lat="47.50001" lon="3.75257">
        <ele>205</ele>
        <time>2014-04-17T12:59:03Z</time>
      </trkpt>
      <trkpt lat="47.49996" lon="3.75258">
        <ele>205</ele>
        <time>2014-04-17T12:59:07Z</time>
      </trkpt>
      <trkpt lat="47.49991" lon="3.75259">
        <ele>205</ele>
        <time>2014-04-17T12:59:10Z</time>
      </trkpt>
      <trkpt lat="47.49986" lon="3.75261">
        <ele>205</ele>
        <time>2014-04-17T12:59:13Z</time>
      </trkpt>
      <trkpt lat="47.49981" lon="3.75262">
        <ele>205</ele>
        <time>2014-04-17T12:59:17Z</time>
      </trkpt>
      <trkpt lat="47.49975" lon="3.75262">
        <ele>205</ele>
        <time>2014-04-17T12:59:22Z</time>
      </trkpt>
      <trkpt lat="47.4997" lon="3.75262">
        <ele>205</ele>
        <time>2014-04-17T12:59:26Z</time>
      </trkpt>
      <trkpt lat="47.49965" lon="3.75261">
        <ele>205</ele>
        <time>2014-04-17T12:59:30Z</time>
      </trkpt>
      <trkpt lat="47.4996" lon="3.75262">
        <ele>205</ele>
        <time>2014-04-17T12:59:33Z</time>
      </trkpt>
      <trkpt lat="47.49955" lon="3.75264">
        <ele>206</ele>
        <time>2014-04-17T12:59:37Z</time>
      </trkpt>
      <trkpt lat="47.4995" lon="3.75264">
        <ele>206</ele>
        <time>2014-04-17T12:59:41Z</time>
      </trkpt>
      <trkpt lat="47.49946" lon="3.75264">
        <ele>206</ele>
        <time>2014-04-17T12:59:45Z</time>
      </trkpt>
      <trkpt lat="47.49941" lon="3.75262">
        <ele>206</ele>
        <time>2014-04-17T12:59:48Z</time>
      </trkpt>
      <trkpt lat="47.49936" lon="3.75263">
        <ele>206</ele>
        <time>2014-04-17T12:59:51Z</time>
      </trkpt>
      <trkpt lat="47.49932" lon="3.75264">
        <ele>206</ele>
        <time>2014-04-17T12:59:55Z</time>
      </trkpt>
      <trkpt lat="47.49927" lon="3.75266">
        <ele>206</ele>
        <time>2014-04-17T13:00:00Z</time>
      </trkpt>
      <trkpt lat="47.49922" lon="3.75266">
        <ele>206</ele>
        <time>2014-04-17T13:00:04Z</time>
      </trkpt>
      <trkpt lat="47.49917" lon="3.75267">
        <ele>206</ele>
        <time>2014-04-17T13:00:08Z</time>
      </trkpt>
      <trkpt lat="47.49912" lon="3.75266">
        <ele>207</ele>
        <time>2014-04-17T13:00:13Z</time>
      </trkpt>
      <trkpt lat="47.49908" lon="3.75262">
        <ele>207</ele>
        <time>2014-04-17T13:00:19Z</time>
      </trkpt>
      <trkpt lat="47.49902" lon="3.7526">
        <ele>208</ele>
        <time>2014-04-17T13:00:24Z</time>
      </trkpt>
      <trkpt lat="47.49897" lon="3.75258">
        <ele>208</ele>
        <time>2014-04-17T13:00:28Z</time>
      </trkpt>
      <trkpt lat="47.49892" lon="3.75257">
        <ele>208</ele>
        <time>2014-04-17T13:00:33Z</time>
      </trkpt>
      <trkpt lat="47.49887" lon="3.75254">
        <ele>208</ele>
        <time>2014-04-17T13:00:38Z</time>
      </trkpt>
      <trkpt lat="47.49883" lon="3.75252">
        <ele>209</ele>
        <time>2014-04-17T13:00:42Z</time>
      </trkpt>
      <trkpt lat="47.49874" lon="3.75257">
        <ele>209</ele>
        <time>2014-04-17T13:00:49Z</time>
      </trkpt>
      <trkpt lat="47.49867" lon="3.75256">
        <ele>209</ele>
        <time>2014-04-17T13:00:56Z</time>
      </trkpt>
      <trkpt lat="47.49863" lon="3.75257">
        <ele>210</ele>
        <time>2014-04-17T13:01:01Z</time>
      </trkpt>
      <trkpt lat="47.49853" lon="3.7526">
        <ele>210</ele>
        <time>2014-04-17T13:01:07Z</time>
      </trkpt>
      <trkpt lat="47.49844" lon="3.75255">
        <ele>210</ele>
        <time>2014-04-17T13:01:16Z</time>
      </trkpt>
      <trkpt lat="47.49839" lon="3.75256">
        <ele>211</ele>
        <time>2014-04-17T13:01:20Z</time>
      </trkpt>
      <trkpt lat="47.49834" lon="3.75256">
        <ele>211</ele>
        <time>2014-04-17T13:01:24Z</time>
      </trkpt>
      <trkpt lat="47.49829" lon="3.75254">
        <ele>211</ele>
        <time>2014-04-17T13:01:28Z</time>
      </trkpt>
      <trkpt lat="47.49824" lon="3.75252">
        <ele>212</ele>
        <time>2014-04-17T13:01:33Z</time>
      </trkpt>
      <trkpt lat="47.49819" lon="3.75249">
        <ele>211</ele>
        <time>2014-04-17T13:01:38Z</time>
      </trkpt>
      <trkpt lat="47.49815" lon="3.75247">
        <ele>211</ele>
        <time>2014-04-17T13:01:42Z</time>
      </trkpt>
      <trkpt lat="47.4981" lon="3.75245">
        <ele>211</ele>
        <time>2014-04-17T13:01:46Z</time>
      </trkpt>
      <trkpt lat="47.49805" lon="3.75245">
        <ele>211</ele>
        <time>2014-04-17T13:01:50Z</time>
      </trkpt>
      <trkpt lat="47.498" lon="3.75245">
        <ele>211</ele>
        <time>2014-04-17T13:01:54Z</time>
      </trkpt>
      <trkpt lat="47.49795" lon="3.75243">
        <ele>211</ele>
        <time>2014-04-17T13:01:58Z</time>
      </trkpt>
      <trkpt lat="47.49791" lon="3.75241">
        <ele>212</ele>
        <time>2014-04-17T13:02:02Z</time>
      </trkpt>
      <trkpt lat="47.49787" lon="3.75239">
        <ele>212</ele>
        <time>2014-04-17T13:02:06Z</time>
      </trkpt>
      <trkpt lat="47.49782" lon="3.75237">
        <ele>212</ele>
        <time>2014-04-17T13:02:11Z</time>
      </trkpt>
      <trkpt lat="47.49777" lon="3.75235">
        <ele>212</ele>
        <time>2014-04-17T13:02:15Z</time>
      </trkpt>
      <trkpt lat="47.49773" lon="3.75235">
        <ele>212</ele>
        <time>2014-04-17T13:02:19Z</time>
      </trkpt>
      <trkpt lat="47.49768" lon="3.75233">
        <ele>212</ele>
        <time>2014-04-17T13:02:23Z</time>
      </trkpt>
      <trkpt lat="47.49763" lon="3.75233">
        <ele>212</ele>
        <time>2014-04-17T13:02:27Z</time>
      </trkpt>
      <trkpt lat="47.49759" lon="3.75233">
        <ele>212</ele>
        <time>2014-04-17T13:02:31Z</time>
      </trkpt>
      <trkpt lat="47.49754" lon="3.75233">
        <ele>213</ele>
        <time>2014-04-17T13:02:35Z</time>
      </trkpt>
      <trkpt lat="47.49749" lon="3.75233">
        <ele>213</ele>
        <time>2014-04-17T13:02:39Z</time>
      </trkpt>
      <trkpt lat="47.49744" lon="3.75234">
        <ele>213</ele>
        <time>2014-04-17T13:02:43Z</time>
      </trkpt>
      <trkpt lat="47.49742" lon="3.75234">
        <ele>213</ele>
        <time>2014-04-17T13:02:49Z</time>
      </trkpt>
      <trkpt lat="47.49737" lon="3.75234">
        <ele>213</ele>
        <time>2014-04-17T13:03:02Z</time>
      </trkpt>
      <trkpt lat="47.49731" lon="3.75235">
        <ele>213</ele>
        <time>2014-04-17T13:03:06Z</time>
      </trkpt>
      <trkpt lat="47.49727" lon="3.75236">
        <ele>213</ele>
        <time>2014-04-17T13:03:09Z</time>
      </trkpt>
      <trkpt lat="47.49722" lon="3.75237">
        <ele>213</ele>
        <time>2014-04-17T13:03:12Z</time>
      </trkpt>
      <trkpt lat="47.49717" lon="3.75238">
        <ele>213</ele>
        <time>2014-04-17T13:03:16Z</time>
      </trkpt>
      <trkpt lat="47.49713" lon="3.75239">
        <ele>213</ele>
        <time>2014-04-17T13:03:21Z</time>
      </trkpt>
      <trkpt lat="47.49707" lon="3.75238">
        <ele>213</ele>
        <time>2014-04-17T13:03:26Z</time>
      </trkpt>
      <trkpt lat="47.49702" lon="3.75237">
        <ele>213</ele>
        <time>2014-04-17T13:03:30Z</time>
      </trkpt>
      <trkpt lat="47.49697" lon="3.75236">
        <ele>213</ele>
        <time>2014-04-17T13:03:35Z</time>
      </trkpt>
      <trkpt lat="47.49692" lon="3.75239">
        <ele>213</ele>
        <time>2014-04-17T13:03:39Z</time>
      </trkpt>
      <trkpt lat="47.49686" lon="3.75239">
        <ele>213</ele>
        <time>2014-04-17T13:03:43Z</time>
      </trkpt>
      <trkpt lat="47.49681" lon="3.75241">
        <ele>214</ele>
        <time>2014-04-17T13:03:46Z</time>
      </trkpt>
      <trkpt lat="47.49676" lon="3.75244">
        <ele>214</ele>
        <time>2014-04-17T13:03:49Z</time>
      </trkpt>
      <trkpt lat="47.49671" lon="3.75246">
        <ele>214</ele>
        <time>2014-04-17T13:03:52Z</time>
      </trkpt>
      <trkpt lat="47.49665" lon="3.75245">
        <ele>214</ele>
        <time>2014-04-17T13:03:56Z</time>
      </trkpt>
      <trkpt lat="47.4966" lon="3.75244">
        <ele>214</ele>
        <time>2014-04-17T13:03:59Z</time>
      </trkpt>
      <trkpt lat="47.49655" lon="3.75244">
        <ele>214</ele>
        <time>2014-04-17T13:04:03Z</time>
      </trkpt>
      <trkpt lat="47.4965" lon="3.75242">
        <ele>214</ele>
        <time>2014-04-17T13:04:10Z</time>
      </trkpt>
      <trkpt lat="47.49645" lon="3.75244">
        <ele>214</ele>
        <time>2014-04-17T13:04:15Z</time>
      </trkpt>
      <trkpt lat="47.49642" lon="3.75239">
        <ele>214</ele>
        <time>2014-04-17T13:04:19Z</time>
      </trkpt>
      <trkpt lat="47.49638" lon="3.75233">
        <ele>213</ele>
        <time>2014-04-17T13:04:23Z</time>
      </trkpt>
      <trkpt lat="47.49633" lon="3.75237">
        <ele>213</ele>
        <time>2014-04-17T13:04:27Z</time>
      </trkpt>
      <trkpt lat="47.49628" lon="3.75239">
        <ele>213</ele>
        <time>2014-04-17T13:04:32Z</time>
      </trkpt>
      <trkpt lat="47.49623" lon="3.75238">
        <ele>213</ele>
        <time>2014-04-17T13:04:36Z</time>
      </trkpt>
      <trkpt lat="47.49618" lon="3.75237">
        <ele>213</ele>
        <time>2014-04-17T13:04:40Z</time>
      </trkpt>
      <trkpt lat="47.49612" lon="3.75236">
        <ele>214</ele>
        <time>2014-04-17T13:04:44Z</time>
      </trkpt>
      <trkpt lat="47.49607" lon="3.75235">
        <ele>214</ele>
        <time>2014-04-17T13:04:49Z</time>
      </trkpt>
      <trkpt lat="47.49603" lon="3.75233">
        <ele>214</ele>
        <time>2014-04-17T13:04:53Z</time>
      </trkpt>
      <trkpt lat="47.49599" lon="3.7523">
        <ele>214</ele>
        <time>2014-04-17T13:04:57Z</time>
      </trkpt>
      <trkpt lat="47.49594" lon="3.75226">
        <ele>214</ele>
        <time>2014-04-17T13:05:04Z</time>
      </trkpt>
      <trkpt lat="47.4959" lon="3.75225">
        <ele>214</ele>
        <time>2014-04-17T13:05:08Z</time>
      </trkpt>
      <trkpt lat="47.49585" lon="3.75226">
        <ele>214</ele>
        <time>2014-04-17T13:05:12Z</time>
      </trkpt>
      <trkpt lat="47.49579" lon="3.75225">
        <ele>213</ele>
        <time>2014-04-17T13:05:16Z</time>
      </trkpt>
      <trkpt lat="47.49575" lon="3.75223">
        <ele>213</ele>
        <time>2014-04-17T13:05:19Z</time>
      </trkpt>
      <trkpt lat="47.4957" lon="3.75223">
        <ele>213</ele>
        <time>2014-04-17T13:05:22Z</time>
      </trkpt>
      <trkpt lat="47.49565" lon="3.75223">
        <ele>213</ele>
        <time>2014-04-17T13:05:25Z</time>
      </trkpt>
      <trkpt lat="47.49559" lon="3.75224">
        <ele>213</ele>
        <time>2014-04-17T13:05:28Z</time>
      </trkpt>
      <trkpt lat="47.49555" lon="3.75222">
        <ele>213</ele>
        <time>2014-04-17T13:05:34Z</time>
      </trkpt>
      <trkpt lat="47.4955" lon="3.75219">
        <ele>212</ele>
        <time>2014-04-17T13:05:39Z</time>
      </trkpt>
      <trkpt lat="47.49544" lon="3.75218">
        <ele>212</ele>
        <time>2014-04-17T13:05:43Z</time>
      </trkpt>
      <trkpt lat="47.49539" lon="3.75217">
        <ele>212</ele>
        <time>2014-04-17T13:05:48Z</time>
      </trkpt>
      <trkpt lat="47.49535" lon="3.75215">
        <ele>212</ele>
        <time>2014-04-17T13:05:52Z</time>
      </trkpt>
      <trkpt lat="47.4953" lon="3.75213">
        <ele>212</ele>
        <time>2014-04-17T13:05:56Z</time>
      </trkpt>
      <trkpt lat="47.49525" lon="3.75212">
        <ele>212</ele>
        <time>2014-04-17T13:06:00Z</time>
      </trkpt>
      <trkpt lat="47.49521" lon="3.7521">
        <ele>212</ele>
        <time>2014-04-17T13:06:05Z</time>
      </trkpt>
      <trkpt lat="47.49516" lon="3.75208">
        <ele>212</ele>
        <time>2014-04-17T13:06:09Z</time>
      </trkpt>
      <trkpt lat="47.49511" lon="3.75205">
        <ele>212</ele>
        <time>2014-04-17T13:06:13Z</time>
      </trkpt>
      <trkpt lat="47.49506" lon="3.75203">
        <ele>212</ele>
        <time>2014-04-17T13:06:17Z</time>
      </trkpt>
      <trkpt lat="47.495" lon="3.75202">
        <ele>211</ele>
        <time>2014-04-17T13:06:22Z</time>
      </trkpt>
      <trkpt lat="47.49496" lon="3.75198">
        <ele>211</ele>
        <time>2014-04-17T13:06:27Z</time>
      </trkpt>
      <trkpt lat="47.49495" lon="3.75195">
        <ele>211</ele>
        <time>2014-04-17T13:06:32Z</time>
      </trkpt>
      <trkpt lat="47.4949" lon="3.75193">
        <ele>211</ele>
        <time>2014-04-17T13:06:37Z</time>
      </trkpt>
      <trkpt lat="47.49485" lon="3.75195">
        <ele>211</ele>
        <time>2014-04-17T13:06:42Z</time>
      </trkpt>
      <trkpt lat="47.4948" lon="3.75194">
        <ele>211</ele>
        <time>2014-04-17T13:06:48Z</time>
      </trkpt>
      <trkpt lat="47.49474" lon="3.7519">
        <ele>211</ele>
        <time>2014-04-17T13:06:53Z</time>
      </trkpt>
      <trkpt lat="47.49469" lon="3.75188">
        <ele>211</ele>
        <time>2014-04-17T13:06:56Z</time>
      </trkpt>
      <trkpt lat="47.49464" lon="3.75186">
        <ele>211</ele>
        <time>2014-04-17T13:07:01Z</time>
      </trkpt>
      <trkpt lat="47.4946" lon="3.75183">
        <ele>211</ele>
        <time>2014-04-17T13:07:08Z</time>
      </trkpt>
      <trkpt lat="47.49456" lon="3.7518">
        <ele>211</ele>
        <time>2014-04-17T13:07:12Z</time>
      </trkpt>
      <trkpt lat="47.49452" lon="3.75176">
        <ele>211</ele>
        <time>2014-04-17T13:07:16Z</time>
      </trkpt>
      <trkpt lat="47.49447" lon="3.75173">
        <ele>211</ele>
        <time>2014-04-17T13:07:20Z</time>
      </trkpt>
      <trkpt lat="47.49443" lon="3.75169">
        <ele>211</ele>
        <time>2014-04-17T13:07:24Z</time>
      </trkpt>
      <trkpt lat="47.49439" lon="3.75166">
        <ele>210</ele>
        <time>2014-04-17T13:07:27Z</time>
      </trkpt>
      <trkpt lat="47.49434" lon="3.75163">
        <ele>210</ele>
        <time>2014-04-17T13:07:31Z</time>
      </trkpt>
      <trkpt lat="47.49429" lon="3.75161">
        <ele>210</ele>
        <time>2014-04-17T13:07:34Z</time>
      </trkpt>
      <trkpt lat="47.49426" lon="3.75155">
        <ele>210</ele>
        <time>2014-04-17T13:07:38Z</time>
      </trkpt>
      <trkpt lat="47.4942" lon="3.7515">
        <ele>210</ele>
        <time>2014-04-17T13:07:58Z</time>
      </trkpt>
      <trkpt lat="47.49415" lon="3.75149">
        <ele>209</ele>
        <time>2014-04-17T13:08:03Z</time>
      </trkpt>
      <trkpt lat="47.4941" lon="3.75147">
        <ele>209</ele>
        <time>2014-04-17T13:08:09Z</time>
      </trkpt>
      <trkpt lat="47.49405" lon="3.7515">
        <ele>209</ele>
        <time>2014-04-17T13:08:13Z</time>
      </trkpt>
      <trkpt lat="47.49402" lon="3.7515">
        <ele>209</ele>
        <time>2014-04-17T13:08:21Z</time>
      </trkpt>
      <trkpt lat="47.49397" lon="3.75148">
        <ele>209</ele>
        <time>2014-04-17T13:08:32Z</time>
      </trkpt>
      <trkpt lat="47.49391" lon="3.75147">
        <ele>208</ele>
        <time>2014-04-17T13:08:36Z</time>
      </trkpt>
      <trkpt lat="47.49387" lon="3.75146">
        <ele>208</ele>
        <time>2014-04-17T13:08:40Z</time>
      </trkpt>
      <trkpt lat="47.49382" lon="3.75145">
        <ele>208</ele>
        <time>2014-04-17T13:08:43Z</time>
      </trkpt>
      <trkpt lat="47.49377" lon="3.75144">
        <ele>208</ele>
        <time>2014-04-17T13:08:47Z</time>
      </trkpt>
      <trkpt lat="47.49373" lon="3.75141">
        <ele>208</ele>
        <time>2014-04-17T13:08:51Z</time>
      </trkpt>
      <trkpt lat="47.49368" lon="3.75139">
        <ele>208</ele>
        <time>2014-04-17T13:08:54Z</time>
      </trkpt>
      <trkpt lat="47.49362" lon="3.75138">
        <ele>208</ele>
        <time>2014-04-17T13:08:58Z</time>
      </trkpt>
      <trkpt lat="47.49358" lon="3.75135">
        <ele>208</ele>
        <time>2014-04-17T13:09:02Z</time>
      </trkpt>
      <trkpt lat="47.49353" lon="3.75131">
        <ele>207</ele>
        <time>2014-04-17T13:09:06Z</time>
      </trkpt>
      <trkpt lat="47.49348" lon="3.75131">
        <ele>207</ele>
        <time>2014-04-17T13:09:09Z</time>
      </trkpt>
      <trkpt lat="47.49343" lon="3.75133">
        <ele>207</ele>
        <time>2014-04-17T13:09:12Z</time>
      </trkpt>
      <trkpt lat="47.49338" lon="3.75133">
        <ele>207</ele>
        <time>2014-04-17T13:09:20Z</time>
      </trkpt>
      <trkpt lat="47.49333" lon="3.75135">
        <ele>205</ele>
        <time>2014-04-17T13:09:24Z</time>
      </trkpt>
      <trkpt lat="47.49325" lon="3.75132">
        <ele>205</ele>
        <time>2014-04-17T13:09:29Z</time>
      </trkpt>
      <trkpt lat="47.49316" lon="3.75136">
        <ele>205</ele>
        <time>2014-04-17T13:09:38Z</time>
      </trkpt>
      <trkpt lat="47.49307" lon="3.75137">
        <ele>204</ele>
        <time>2014-04-17T13:09:45Z</time>
      </trkpt>
      <trkpt lat="47.49298" lon="3.75134">
        <ele>204</ele>
        <time>2014-04-17T13:09:57Z</time>
      </trkpt>
      <trkpt lat="47.49288" lon="3.75129">
        <ele>204</ele>
        <time>2014-04-17T13:10:03Z</time>
      </trkpt>
      <trkpt lat="47.4928" lon="3.75124">
        <ele>203</ele>
        <time>2014-04-17T13:10:10Z</time>
      </trkpt>
      <trkpt lat="47.4927" lon="3.75122">
        <ele>203</ele>
        <time>2014-04-17T13:10:21Z</time>
      </trkpt>
      <trkpt lat="47.49259" lon="3.75118">
        <ele>203</ele>
        <time>2014-04-17T13:10:30Z</time>
      </trkpt>
      <trkpt lat="47.49251" lon="3.75112">
        <ele>202</ele>
        <time>2014-04-17T13:10:35Z</time>
      </trkpt>
      <trkpt lat="47.49241" lon="3.75107">
        <ele>197</ele>
        <time>2014-04-17T13:10:40Z</time>
      </trkpt>
      <trkpt lat="47.49232" lon="3.75105">
        <ele>197</ele>
        <time>2014-04-17T13:10:47Z</time>
      </trkpt>
      <trkpt lat="47.49222" lon="3.75104">
        <ele>196</ele>
        <time>2014-04-17T13:10:54Z</time>
      </trkpt>
      <trkpt lat="47.49213" lon="3.751">
        <ele>195</ele>
        <time>2014-04-17T13:11:00Z</time>
      </trkpt>
      <trkpt lat="47.49204" lon="3.75094">
        <ele>194</ele>
        <time>2014-04-17T13:11:06Z</time>
      </trkpt>
      <trkpt lat="47.492" lon="3.75092">
        <ele>193</ele>
        <time>2014-04-17T13:11:09Z</time>
      </trkpt>
      <trkpt lat="47.49195" lon="3.7509">
        <ele>193</ele>
        <time>2014-04-17T13:11:13Z</time>
      </trkpt>
      <trkpt lat="47.49166" lon="3.75085">
        <ele>184</ele>
        <time>2014-04-17T13:11:48Z</time>
      </trkpt>
      <trkpt lat="47.49162" lon="3.75084">
        <ele>184</ele>
        <time>2014-04-17T13:11:51Z</time>
      </trkpt>
      <trkpt lat="47.49158" lon="3.75085">
        <ele>185</ele>
        <time>2014-04-17T13:12:01Z</time>
      </trkpt>
      <trkpt lat="47.49152" lon="3.75076">
        <ele>182</ele>
        <time>2014-04-17T13:12:25Z</time>
      </trkpt>
      <trkpt lat="47.49147" lon="3.75076">
        <ele>182</ele>
        <time>2014-04-17T13:12:31Z</time>
      </trkpt>
      <trkpt lat="47.49142" lon="3.75078">
        <ele>182</ele>
        <time>2014-04-17T13:12:34Z</time>
      </trkpt>
      <trkpt lat="47.49137" lon="3.75079">
        <ele>182</ele>
        <time>2014-04-17T13:12:38Z</time>
      </trkpt>
      <trkpt lat="47.49132" lon="3.7508">
        <ele>182</ele>
        <time>2014-04-17T13:12:42Z</time>
      </trkpt>
      <trkpt lat="47.49127" lon="3.75082">
        <ele>182</ele>
        <time>2014-04-17T13:12:48Z</time>
      </trkpt>
      <trkpt lat="47.49122" lon="3.75081">
        <ele>181</ele>
        <time>2014-04-17T13:12:52Z</time>
      </trkpt>
      <trkpt lat="47.49116" lon="3.75079">
        <ele>181</ele>
        <time>2014-04-17T13:12:56Z</time>
      </trkpt>
      <trkpt lat="47.49111" lon="3.75079">
        <ele>181</ele>
        <time>2014-04-17T13:13:00Z</time>
      </trkpt>
      <trkpt lat="47.49107" lon="3.75078">
        <ele>181</ele>
        <time>2014-04-17T13:13:03Z</time>
      </trkpt>
      <trkpt lat="47.49101" lon="3.75076">
        <ele>180</ele>
        <time>2014-04-17T13:13:08Z</time>
      </trkpt>
      <trkpt lat="47.49096" lon="3.75074">
        <ele>180</ele>
        <time>2014-04-17T13:13:12Z</time>
      </trkpt>
      <trkpt lat="47.49091" lon="3.75071">
        <ele>180</ele>
        <time>2014-04-17T13:13:16Z</time>
      </trkpt>
      <trkpt lat="47.49087" lon="3.75067">
        <ele>180</ele>
        <time>2014-04-17T13:13:20Z</time>
      </trkpt>
      <trkpt lat="47.49083" lon="3.75065">
        <ele>178</ele>
        <time>2014-04-17T13:13:24Z</time>
      </trkpt>
      <trkpt lat="47.49077" lon="3.75062">
        <ele>178</ele>
        <time>2014-04-17T13:13:29Z</time>
      </trkpt>
      <trkpt lat="47.49073" lon="3.7506">
        <ele>178</ele>
        <time>2014-04-17T13:13:33Z</time>
      </trkpt>
      <trkpt lat="47.49067" lon="3.75058">
        <ele>178</ele>
        <time>2014-04-17T13:13:37Z</time>
      </trkpt>
      <trkpt lat="47.49062" lon="3.75058">
        <ele>178</ele>
        <time>2014-04-17T13:13:40Z</time>
      </trkpt>
      <trkpt lat="47.49057" lon="3.75059">
        <ele>178</ele>
        <time>2014-04-17T13:13:44Z</time>
      </trkpt>
      <trkpt lat="47.49052" lon="3.75062">
        <ele>178</ele>
        <time>2014-04-17T13:13:48Z</time>
      </trkpt>
      <trkpt lat="47.49048" lon="3.75062">
        <ele>178</ele>
        <time>2014-04-17T13:13:53Z</time>
      </trkpt>
      <trkpt lat="47.49043" lon="3.75059">
        <ele>178</ele>
        <time>2014-04-17T13:13:58Z</time>
      </trkpt>
      <trkpt lat="47.49038" lon="3.75055">
        <ele>177</ele>
        <time>2014-04-17T13:14:02Z</time>
      </trkpt>
      <trkpt lat="47.49033" lon="3.75055">
        <ele>177</ele>
        <time>2014-04-17T13:14:06Z</time>
      </trkpt>
      <trkpt lat="47.49028" lon="3.75057">
        <ele>177</ele>
        <time>2014-04-17T13:14:10Z</time>
      </trkpt>
      <trkpt lat="47.49023" lon="3.75057">
        <ele>177</ele>
        <time>2014-04-17T13:14:14Z</time>
      </trkpt>
      <trkpt lat="47.49017" lon="3.75056">
        <ele>177</ele>
        <time>2014-04-17T13:14:18Z</time>
      </trkpt>
      <trkpt lat="47.49012" lon="3.75055">
        <ele>177</ele>
        <time>2014-04-17T13:14:21Z</time>
      </trkpt>
      <trkpt lat="47.49007" lon="3.75052">
        <ele>177</ele>
        <time>2014-04-17T13:14:25Z</time>
      </trkpt>
      <trkpt lat="47.49002" lon="3.75052">
        <ele>177</ele>
        <time>2014-04-17T13:14:29Z</time>
      </trkpt>
      <trkpt lat="47.48998" lon="3.75049">
        <ele>176</ele>
        <time>2014-04-17T13:14:33Z</time>
      </trkpt>
      <trkpt lat="47.48993" lon="3.75048">
        <ele>176</ele>
        <time>2014-04-17T13:14:38Z</time>
      </trkpt>
      <trkpt lat="47.48988" lon="3.75049">
        <ele>176</ele>
        <time>2014-04-17T13:14:44Z</time>
      </trkpt>
      <trkpt lat="47.48982" lon="3.75049">
        <ele>176</ele>
        <time>2014-04-17T13:14:49Z</time>
      </trkpt>
      <trkpt lat="47.48977" lon="3.75046">
        <ele>175</ele>
        <time>2014-04-17T13:14:54Z</time>
      </trkpt>
      <trkpt lat="47.48973" lon="3.75044">
        <ele>175</ele>
        <time>2014-04-17T13:14:57Z</time>
      </trkpt>
      <trkpt lat="47.48967" lon="3.75043">
        <ele>175</ele>
        <time>2014-04-17T13:15:01Z</time>
      </trkpt>
      <trkpt lat="47.48963" lon="3.75044">
        <ele>175</ele>
        <time>2014-04-17T13:15:07Z</time>
      </trkpt>
      <trkpt lat="47.48957" lon="3.75042">
        <ele>175</ele>
        <time>2014-04-17T13:15:12Z</time>
      </trkpt>
      <trkpt lat="47.48952" lon="3.75042">
        <ele>175</ele>
        <time>2014-04-17T13:15:16Z</time>
      </trkpt>
      <trkpt lat="47.48947" lon="3.75039">
        <ele>175</ele>
        <time>2014-04-17T13:15:20Z</time>
      </trkpt>
      <trkpt lat="47.48942" lon="3.75037">
        <ele>174</ele>
        <time>2014-04-17T13:15:24Z</time>
      </trkpt>
      <trkpt lat="47.48937" lon="3.75036">
        <ele>174</ele>
        <time>2014-04-17T13:15:28Z</time>
      </trkpt>
      <trkpt lat="47.48932" lon="3.75033">
        <ele>174</ele>
        <time>2014-04-17T13:15:33Z</time>
      </trkpt>
      <trkpt lat="47.48927" lon="3.75031">
        <ele>173</ele>
        <time>2014-04-17T13:15:38Z</time>
      </trkpt>
      <trkpt lat="47.48922" lon="3.75028">
        <ele>173</ele>
        <time>2014-04-17T13:15:42Z</time>
      </trkpt>
      <trkpt lat="47.48918" lon="3.75026">
        <ele>173</ele>
        <time>2014-04-17T13:15:46Z</time>
      </trkpt>
      <trkpt lat="47.48913" lon="3.75024">
        <ele>173</ele>
        <time>2014-04-17T13:15:51Z</time>
      </trkpt>
      <trkpt lat="47.48908" lon="3.75021">
        <ele>172</ele>
        <time>2014-04-17T13:15:56Z</time>
      </trkpt>
      <trkpt lat="47.48903" lon="3.7502">
        <ele>173</ele>
        <time>2014-04-17T13:16:01Z</time>
      </trkpt>
      <trkpt lat="47.48898" lon="3.75018">
        <ele>173</ele>
        <time>2014-04-17T13:16:06Z</time>
      </trkpt>
      <trkpt lat="47.48894" lon="3.75015">
        <ele>173</ele>
        <time>2014-04-17T13:16:10Z</time>
      </trkpt>
      <trkpt lat="47.4889" lon="3.75013">
        <ele>173</ele>
        <time>2014-04-17T13:16:14Z</time>
      </trkpt>
      <trkpt lat="47.48885" lon="3.75012">
        <ele>173</ele>
        <time>2014-04-17T13:16:18Z</time>
      </trkpt>
      <trkpt lat="47.4888" lon="3.75011">
        <ele>173</ele>
        <time>2014-04-17T13:16:23Z</time>
      </trkpt>
      <trkpt lat="47.48875" lon="3.75009">
        <ele>173</ele>
        <time>2014-04-17T13:16:28Z</time>
      </trkpt>
      <trkpt lat="47.4887" lon="3.75007">
        <ele>173</ele>
        <time>2014-04-17T13:16:32Z</time>
      </trkpt>
      <trkpt lat="47.48866" lon="3.75006">
        <ele>173</ele>
        <time>2014-04-17T13:16:36Z</time>
      </trkpt>
      <trkpt lat="47.4886" lon="3.75004">
        <ele>173</ele>
        <time>2014-04-17T13:16:40Z</time>
      </trkpt>
      <trkpt lat="47.48855" lon="3.75003">
        <ele>172</ele>
        <time>2014-04-17T13:16:44Z</time>
      </trkpt>
      <trkpt lat="47.48851" lon="3.75001">
        <ele>172</ele>
        <time>2014-04-17T13:16:48Z</time>
      </trkpt>
      <trkpt lat="47.48846" lon="3.74999">
        <ele>168</ele>
        <time>2014-04-17T13:16:51Z</time>
      </trkpt>
      <trkpt lat="47.48841" lon="3.74996">
        <ele>168</ele>
        <time>2014-04-17T13:16:55Z</time>
      </trkpt>
      <trkpt lat="47.48836" lon="3.74995">
        <ele>168</ele>
        <time>2014-04-17T13:17:00Z</time>
      </trkpt>
      <trkpt lat="47.48831" lon="3.74992">
        <ele>167</ele>
        <time>2014-04-17T13:17:06Z</time>
      </trkpt>
      <trkpt lat="47.48827" lon="3.74991">
        <ele>167</ele>
        <time>2014-04-17T13:17:14Z</time>
      </trkpt>
      <trkpt lat="47.48826" lon="3.74986">
        <ele>166</ele>
        <time>2014-04-17T13:17:31Z</time>
      </trkpt>
      <trkpt lat="47.48821" lon="3.74984">
        <ele>166</ele>
        <time>2014-04-17T13:17:40Z</time>
      </trkpt>
      <trkpt lat="47.48816" lon="3.74983">
        <ele>165</ele>
        <time>2014-04-17T13:17:44Z</time>
      </trkpt>
      <trkpt lat="47.48811" lon="3.74982">
        <ele>165</ele>
        <time>2014-04-17T13:17:48Z</time>
      </trkpt>
      <trkpt lat="47.48806" lon="3.74981">
        <ele>165</ele>
        <time>2014-04-17T13:17:53Z</time>
      </trkpt>
      <trkpt lat="47.48801" lon="3.74982">
        <ele>165</ele>
        <time>2014-04-17T13:18:00Z</time>
      </trkpt>
      <trkpt lat="47.48796" lon="3.74981">
        <ele>165</ele>
        <time>2014-04-17T13:18:05Z</time>
      </trkpt>
      <trkpt lat="47.4879" lon="3.7498">
        <ele>164</ele>
        <time>2014-04-17T13:18:09Z</time>
      </trkpt>
      <trkpt lat="47.48785" lon="3.74981">
        <ele>164</ele>
        <time>2014-04-17T13:18:14Z</time>
      </trkpt>
      <trkpt lat="47.4878" lon="3.7498">
        <ele>164</ele>
        <time>2014-04-17T13:18:18Z</time>
      </trkpt>
      <trkpt lat="47.48776" lon="3.74977">
        <ele>164</ele>
        <time>2014-04-17T13:18:22Z</time>
      </trkpt>
      <trkpt lat="47.4877" lon="3.74976">
        <ele>164</ele>
        <time>2014-04-17T13:18:27Z</time>
      </trkpt>
      <trkpt lat="47.48764" lon="3.74975">
        <ele>164</ele>
        <time>2014-04-17T13:18:31Z</time>
      </trkpt>
      <trkpt lat="47.48759" lon="3.74973">
        <ele>164</ele>
        <time>2014-04-17T13:18:35Z</time>
      </trkpt>
      <trkpt lat="47.48754" lon="3.74969">
        <ele>163</ele>
        <time>2014-04-17T13:18:39Z</time>
      </trkpt>
      <trkpt lat="47.48748" lon="3.7497">
        <ele>160</ele>
        <time>2014-04-17T13:18:43Z</time>
      </trkpt>
      <trkpt lat="47.48744" lon="3.74973">
        <ele>160</ele>
        <time>2014-04-17T13:18:46Z</time>
      </trkpt>
      <trkpt lat="47.48739" lon="3.74972">
        <ele>160</ele>
        <time>2014-04-17T13:18:53Z</time>
      </trkpt>
      <trkpt lat="47.48733" lon="3.74972">
        <ele>159</ele>
        <time>2014-04-17T13:18:57Z</time>
      </trkpt>
      <trkpt lat="47.48729" lon="3.74972">
        <ele>159</ele>
        <time>2014-04-17T13:19:00Z</time>
      </trkpt>
      <trkpt lat="47.48723" lon="3.74971">
        <ele>159</ele>
        <time>2014-04-17T13:19:05Z</time>
      </trkpt>
      <trkpt lat="47.48719" lon="3.7497">
        <ele>158</ele>
        <time>2014-04-17T13:19:10Z</time>
      </trkpt>
      <trkpt lat="47.48715" lon="3.74967">
        <ele>158</ele>
        <time>2014-04-17T13:19:44Z</time>
      </trkpt>
      <trkpt lat="47.48715" lon="3.7496">
        <ele>158</ele>
        <time>2014-04-17T13:19:47Z</time>
      </trkpt>
      <trkpt lat="47.48714" lon="3.74953">
        <ele>157</ele>
        <time>2014-04-17T13:19:51Z</time>
      </trkpt>
      <trkpt lat="47.48718" lon="3.74947">
        <ele>157</ele>
        <time>2014-04-17T13:19:55Z</time>
      </trkpt>
      <trkpt lat="47.48721" lon="3.74941">
        <ele>157</ele>
        <time>2014-04-17T13:19:59Z</time>
      </trkpt>
      <trkpt lat="47.4872" lon="3.74933">
        <ele>157</ele>
        <time>2014-04-17T13:20:19Z</time>
      </trkpt>
      <trkpt lat="47.48724" lon="3.74927">
        <ele>157</ele>
        <time>2014-04-17T13:20:23Z</time>
      </trkpt>
      <trkpt lat="47.48727" lon="3.74921">
        <ele>157</ele>
        <time>2014-04-17T13:20:27Z</time>
      </trkpt>
      <trkpt lat="47.48727" lon="3.74914">
        <ele>155</ele>
        <time>2014-04-17T13:20:30Z</time>
      </trkpt>
      <trkpt lat="47.48728" lon="3.74907">
        <ele>155</ele>
        <time>2014-04-17T13:20:34Z</time>
      </trkpt>
      <trkpt lat="47.48729" lon="3.749">
        <ele>155</ele>
        <time>2014-04-17T13:20:39Z</time>
      </trkpt>
      <trkpt lat="47.48732" lon="3.74893">
        <ele>155</ele>
        <time>2014-04-17T13:20:44Z</time>
      </trkpt>
      <trkpt lat="47.48734" lon="3.74887">
        <ele>155</ele>
        <time>2014-04-17T13:20:51Z</time>
      </trkpt>
      <trkpt lat="47.48733" lon="3.7488">
        <ele>155</ele>
        <time>2014-04-17T13:20:58Z</time>
      </trkpt>
      <trkpt lat="47.48727" lon="3.74877">
        <ele>155</ele>
        <time>2014-04-17T13:21:15Z</time>
      </trkpt>
      <trkpt lat="47.48722" lon="3.74875">
        <ele>155</ele>
        <time>2014-04-17T13:21:18Z</time>
      </trkpt>
      <trkpt lat="47.48717" lon="3.74875">
        <ele>155</ele>
        <time>2014-04-17T13:21:21Z</time>
      </trkpt>
      <trkpt lat="47.48712" lon="3.74877">
        <ele>155</ele>
        <time>2014-04-17T13:21:24Z</time>
      </trkpt>
      <trkpt lat="47.48708" lon="3.7488">
        <ele>154</ele>
        <time>2014-04-17T13:21:27Z</time>
      </trkpt>
      <trkpt lat="47.48704" lon="3.74884">
        <ele>154</ele>
        <time>2014-04-17T13:21:30Z</time>
      </trkpt>
      <trkpt lat="47.48699" lon="3.74887">
        <ele>154</ele>
        <time>2014-04-17T13:21:33Z</time>
      </trkpt>
      <trkpt lat="47.48696" lon="3.74891">
        <ele>154</ele>
        <time>2014-04-17T13:21:36Z</time>
      </trkpt>
      <trkpt lat="47.48691" lon="3.74896">
        <ele>154</ele>
        <time>2014-04-17T13:21:40Z</time>
      </trkpt>
      <trkpt lat="47.48686" lon="3.74899">
        <ele>154</ele>
        <time>2014-04-17T13:21:44Z</time>
      </trkpt>
      <trkpt lat="47.4868" lon="3.74904">
        <ele>153</ele>
        <time>2014-04-17T13:21:50Z</time>
      </trkpt>
      <trkpt lat="47.48675" lon="3.74905">
        <ele>153</ele>
        <time>2014-04-17T13:21:54Z</time>
      </trkpt>
      <trkpt lat="47.4867" lon="3.74907">
        <ele>153</ele>
        <time>2014-04-17T13:22:00Z</time>
      </trkpt>
      <trkpt lat="47.48665" lon="3.74909">
        <ele>154</ele>
        <time>2014-04-17T13:22:04Z</time>
      </trkpt>
      <trkpt lat="47.48656" lon="3.74913">
        <ele>154</ele>
        <time>2014-04-17T13:22:10Z</time>
      </trkpt>
      <trkpt lat="47.48648" lon="3.74916">
        <ele>155</ele>
        <time>2014-04-17T13:22:17Z</time>
      </trkpt>
      <trkpt lat="47.48644" lon="3.74918">
        <ele>154</ele>
        <time>2014-04-17T13:22:21Z</time>
      </trkpt>
      <trkpt lat="47.4864" lon="3.74922">
        <ele>154</ele>
        <time>2014-04-17T13:22:26Z</time>
      </trkpt>
      <trkpt lat="47.48635" lon="3.74926">
        <ele>155</ele>
        <time>2014-04-17T13:22:30Z</time>
      </trkpt>
      <trkpt lat="47.48631" lon="3.74929">
        <ele>155</ele>
        <time>2014-04-17T13:22:33Z</time>
      </trkpt>
      <trkpt lat="47.48626" lon="3.74932">
        <ele>155</ele>
        <time>2014-04-17T13:22:37Z</time>
      </trkpt>
      <trkpt lat="47.48621" lon="3.74931">
        <ele>155</ele>
        <time>2014-04-17T13:22:42Z</time>
      </trkpt>
      <trkpt lat="47.48617" lon="3.74927">
        <ele>156</ele>
        <time>2014-04-17T13:22:46Z</time>
      </trkpt>
      <trkpt lat="47.48612" lon="3.74923">
        <ele>156</ele>
        <time>2014-04-17T13:22:50Z</time>
      </trkpt>
      <trkpt lat="47.48607" lon="3.74925">
        <ele>156</ele>
        <time>2014-04-17T13:22:55Z</time>
      </trkpt>
      <trkpt lat="47.48585" lon="3.74941">
        <ele>156</ele>
        <time>2014-04-17T13:23:20Z</time>
      </trkpt>
      <trkpt lat="47.48583" lon="3.74948">
        <ele>158</ele>
        <time>2014-04-17T13:23:25Z</time>
      </trkpt>
      <trkpt lat="47.4858" lon="3.74955">
        <ele>157</ele>
        <time>2014-04-17T13:23:29Z</time>
      </trkpt>
      <trkpt lat="47.48577" lon="3.74961">
        <ele>157</ele>
        <time>2014-04-17T13:23:33Z</time>
      </trkpt>
      <trkpt lat="47.48574" lon="3.74967">
        <ele>157</ele>
        <time>2014-04-17T13:23:37Z</time>
      </trkpt>
      <trkpt lat="47.48571" lon="3.74972">
        <ele>156</ele>
        <time>2014-04-17T13:23:41Z</time>
      </trkpt>
      <trkpt lat="47.48568" lon="3.74977">
        <ele>156</ele>
        <time>2014-04-17T13:23:45Z</time>
      </trkpt>
      <trkpt lat="47.48564" lon="3.74982">
        <ele>156</ele>
        <time>2014-04-17T13:23:49Z</time>
      </trkpt>
      <trkpt lat="47.4856" lon="3.74987">
        <ele>156</ele>
        <time>2014-04-17T13:23:53Z</time>
      </trkpt>
      <trkpt lat="47.48556" lon="3.74992">
        <ele>156</ele>
        <time>2014-04-17T13:23:57Z</time>
      </trkpt>
      <trkpt lat="47.48552" lon="3.74994">
        <ele>156</ele>
        <time>2014-04-17T13:24:01Z</time>
      </trkpt>
      <trkpt lat="47.48547" lon="3.74998">
        <ele>156</ele>
        <time>2014-04-17T13:24:05Z</time>
      </trkpt>
      <trkpt lat="47.48543" lon="3.75001">
        <ele>154</ele>
        <time>2014-04-17T13:24:09Z</time>
      </trkpt>
      <trkpt lat="47.48538" lon="3.75004">
        <ele>154</ele>
        <time>2014-04-17T13:24:13Z</time>
      </trkpt>
      <trkpt lat="47.48533" lon="3.75007">
        <ele>154</ele>
        <time>2014-04-17T13:24:17Z</time>
      </trkpt>
      <trkpt lat="47.48529" lon="3.7501">
        <ele>155</ele>
        <time>2014-04-17T13:24:21Z</time>
      </trkpt>
      <trkpt lat="47.48524" lon="3.75012">
        <ele>155</ele>
        <time>2014-04-17T13:24:25Z</time>
      </trkpt>
      <trkpt lat="47.4852" lon="3.75013">
        <ele>155</ele>
        <time>2014-04-17T13:24:29Z</time>
      </trkpt>
      <trkpt lat="47.48515" lon="3.75015">
        <ele>155</ele>
        <time>2014-04-17T13:24:33Z</time>
      </trkpt>
      <trkpt lat="47.4851" lon="3.75016">
        <ele>155</ele>
        <time>2014-04-17T13:24:37Z</time>
      </trkpt>
      <trkpt lat="47.48505" lon="3.75017">
        <ele>156</ele>
        <time>2014-04-17T13:24:41Z</time>
      </trkpt>
      <trkpt lat="47.48501" lon="3.7502">
        <ele>155</ele>
        <time>2014-04-17T13:24:45Z</time>
      </trkpt>
      <trkpt lat="47.48496" lon="3.75022">
        <ele>157</ele>
        <time>2014-04-17T13:24:49Z</time>
      </trkpt>
      <trkpt lat="47.48491" lon="3.75024">
        <ele>157</ele>
        <time>2014-04-17T13:24:54Z</time>
      </trkpt>
      <trkpt lat="47.48486" lon="3.75025">
        <ele>157</ele>
        <time>2014-04-17T13:24:58Z</time>
      </trkpt>
      <trkpt lat="47.48481" lon="3.75024">
        <ele>157</ele>
        <time>2014-04-17T13:25:03Z</time>
      </trkpt>
      <trkpt lat="47.48476" lon="3.75021">
        <ele>157</ele>
        <time>2014-04-17T13:25:07Z</time>
      </trkpt>
      <trkpt lat="47.48472" lon="3.7502">
        <ele>157</ele>
        <time>2014-04-17T13:25:11Z</time>
      </trkpt>
      <trkpt lat="47.48467" lon="3.75022">
        <ele>157</ele>
        <time>2014-04-17T13:25:15Z</time>
      </trkpt>
      <trkpt lat="47.48462" lon="3.75024">
        <ele>157</ele>
        <time>2014-04-17T13:25:19Z</time>
      </trkpt>
      <trkpt lat="47.48457" lon="3.75026">
        <ele>157</ele>
        <time>2014-04-17T13:25:24Z</time>
      </trkpt>
      <trkpt lat="47.48452" lon="3.75028">
        <ele>157</ele>
        <time>2014-04-17T13:25:29Z</time>
      </trkpt>
      <trkpt lat="47.48448" lon="3.75034">
        <ele>157</ele>
        <time>2014-04-17T13:25:46Z</time>
      </trkpt>
      <trkpt lat="47.48442" lon="3.75034">
        <ele>157</ele>
        <time>2014-04-17T13:25:50Z</time>
      </trkpt>
      <trkpt lat="47.48437" lon="3.75037">
        <ele>157</ele>
        <time>2014-04-17T13:25:54Z</time>
      </trkpt>
      <trkpt lat="47.48432" lon="3.75041">
        <ele>157</ele>
        <time>2014-04-17T13:25:58Z</time>
      </trkpt>
      <trkpt lat="47.48427" lon="3.75044">
        <ele>157</ele>
        <time>2014-04-17T13:26:02Z</time>
      </trkpt>
      <trkpt lat="47.48422" lon="3.75047">
        <ele>157</ele>
        <time>2014-04-17T13:26:07Z</time>
      </trkpt>
      <trkpt lat="47.48418" lon="3.75049">
        <ele>157</ele>
        <time>2014-04-17T13:26:11Z</time>
      </trkpt>
      <trkpt lat="47.48409" lon="3.75055">
        <ele>160</ele>
        <time>2014-04-17T13:26:20Z</time>
      </trkpt>
      <trkpt lat="47.48404" lon="3.75059">
        <ele>159</ele>
        <time>2014-04-17T13:26:24Z</time>
      </trkpt>
      <trkpt lat="47.484" lon="3.75064">
        <ele>159</ele>
        <time>2014-04-17T13:26:28Z</time>
      </trkpt>
      <trkpt lat="47.48397" lon="3.75069">
        <ele>159</ele>
        <time>2014-04-17T13:26:32Z</time>
      </trkpt>
      <trkpt lat="47.48395" lon="3.75075">
        <ele>159</ele>
        <time>2014-04-17T13:26:36Z</time>
      </trkpt>
      <trkpt lat="47.48393" lon="3.75083">
        <ele>159</ele>
        <time>2014-04-17T13:26:41Z</time>
      </trkpt>
      <trkpt lat="47.4839" lon="3.75089">
        <ele>157</ele>
        <time>2014-04-17T13:26:45Z</time>
      </trkpt>
      <trkpt lat="47.48389" lon="3.75096">
        <ele>157</ele>
        <time>2014-04-17T13:26:50Z</time>
      </trkpt>
      <trkpt lat="47.48385" lon="3.75108">
        <ele>157</ele>
        <time>2014-04-17T13:26:57Z</time>
      </trkpt>
      <trkpt lat="47.48383" lon="3.75115">
        <ele>157</ele>
        <time>2014-04-17T13:27:01Z</time>
      </trkpt>
      <trkpt lat="47.48382" lon="3.75122">
        <ele>157</ele>
        <time>2014-04-17T13:27:06Z</time>
      </trkpt>
      <trkpt lat="47.4838" lon="3.75129">
        <ele>157</ele>
        <time>2014-04-17T13:27:11Z</time>
      </trkpt>
      <trkpt lat="47.48379" lon="3.75137">
        <ele>157</ele>
        <time>2014-04-17T13:27:15Z</time>
      </trkpt>
      <trkpt lat="47.48376" lon="3.7515">
        <ele>157</ele>
        <time>2014-04-17T13:27:24Z</time>
      </trkpt>
      <trkpt lat="47.48372" lon="3.75158">
        <ele>157</ele>
        <time>2014-04-17T13:27:29Z</time>
      </trkpt>
      <trkpt lat="47.4837" lon="3.75165">
        <ele>157</ele>
        <time>2014-04-17T13:27:33Z</time>
      </trkpt>
      <trkpt lat="47.48366" lon="3.75176">
        <ele>154</ele>
        <time>2014-04-17T13:27:39Z</time>
      </trkpt>
      <trkpt lat="47.48363" lon="3.75182">
        <ele>154</ele>
        <time>2014-04-17T13:27:42Z</time>
      </trkpt>
      <trkpt lat="47.48361" lon="3.75188">
        <ele>154</ele>
        <time>2014-04-17T13:27:45Z</time>
      </trkpt>
      <trkpt lat="47.48359" lon="3.75195">
        <ele>154</ele>
        <time>2014-04-17T13:27:49Z</time>
      </trkpt>
      <trkpt lat="47.48353" lon="3.75206">
        <ele>153</ele>
        <time>2014-04-17T13:27:59Z</time>
      </trkpt>
      <trkpt lat="47.48351" lon="3.7522">
        <ele>153</ele>
        <time>2014-04-17T13:28:07Z</time>
      </trkpt>
      <trkpt lat="47.48349" lon="3.75227">
        <ele>153</ele>
        <time>2014-04-17T13:28:12Z</time>
      </trkpt>
      <trkpt lat="47.48344" lon="3.75229">
        <ele>153</ele>
        <time>2014-04-17T13:28:18Z</time>
      </trkpt>
      <trkpt lat="47.4834" lon="3.75234">
        <ele>153</ele>
        <time>2014-04-17T13:28:24Z</time>
      </trkpt>
      <trkpt lat="47.48335" lon="3.75237">
        <ele>153</ele>
        <time>2014-04-17T13:28:28Z</time>
      </trkpt>
      <trkpt lat="47.48334" lon="3.75246">
        <ele>153</ele>
        <time>2014-04-17T13:28:32Z</time>
      </trkpt>
      <trkpt lat="47.48332" lon="3.75251">
        <ele>153</ele>
        <time>2014-04-17T13:28:35Z</time>
      </trkpt>
      <trkpt lat="47.48328" lon="3.75258">
        <ele>153</ele>
        <time>2014-04-17T13:28:39Z</time>
      </trkpt>
      <trkpt lat="47.4832" lon="3.75266">
        <ele>153</ele>
        <time>2014-04-17T13:28:46Z</time>
      </trkpt>
      <trkpt lat="47.48314" lon="3.75263">
        <ele>153</ele>
        <time>2014-04-17T13:28:50Z</time>
      </trkpt>
      <trkpt lat="47.4831" lon="3.75262">
        <ele>153</ele>
        <time>2014-04-17T13:28:56Z</time>
      </trkpt>
      <trkpt lat="47.48304" lon="3.75257">
        <ele>153</ele>
        <time>2014-04-17T13:29:02Z</time>
      </trkpt>
      <trkpt lat="47.483" lon="3.75252">
        <ele>153</ele>
        <time>2014-04-17T13:29:06Z</time>
      </trkpt>
      <trkpt lat="47.48295" lon="3.75247">
        <ele>155</ele>
        <time>2014-04-17T13:29:11Z</time>
      </trkpt>
      <trkpt lat="47.4829" lon="3.75243">
        <ele>155</ele>
        <time>2014-04-17T13:29:15Z</time>
      </trkpt>
      <trkpt lat="47.48286" lon="3.7524">
        <ele>155</ele>
        <time>2014-04-17T13:29:19Z</time>
      </trkpt>
      <trkpt lat="47.48281" lon="3.75236">
        <ele>155</ele>
        <time>2014-04-17T13:29:23Z</time>
      </trkpt>
      <trkpt lat="47.48278" lon="3.75242">
        <ele>155</ele>
        <time>2014-04-17T13:29:32Z</time>
      </trkpt>
      <trkpt lat="47.48274" lon="3.75248">
        <ele>155</ele>
        <time>2014-04-17T13:29:37Z</time>
      </trkpt>
      <trkpt lat="47.48272" lon="3.75255">
        <ele>154</ele>
        <time>2014-04-17T13:29:41Z</time>
      </trkpt>
      <trkpt lat="47.4827" lon="3.75262">
        <ele>154</ele>
        <time>2014-04-17T13:29:45Z</time>
      </trkpt>
      <trkpt lat="47.48266" lon="3.75267">
        <ele>154</ele>
        <time>2014-04-17T13:29:50Z</time>
      </trkpt>
      <trkpt lat="47.48263" lon="3.75273">
        <ele>154</ele>
        <time>2014-04-17T13:29:55Z</time>
      </trkpt>
      <trkpt lat="47.48258" lon="3.75279">
        <ele>154</ele>
        <time>2014-04-17T13:30:02Z</time>
      </trkpt>
      <trkpt lat="47.48261" lon="3.75285">
        <ele>154</ele>
        <time>2014-04-17T13:30:08Z</time>
      </trkpt>
      <trkpt lat="47.48266" lon="3.75288">
        <ele>154</ele>
        <time>2014-04-17T13:30:12Z</time>
      </trkpt>
      <trkpt lat="47.48272" lon="3.7529">
        <ele>154</ele>
        <time>2014-04-17T13:30:16Z</time>
      </trkpt>
      <trkpt lat="47.48276" lon="3.75294">
        <ele>154</ele>
        <time>2014-04-17T13:30:19Z</time>
      </trkpt>
      <trkpt lat="47.4828" lon="3.75297">
        <ele>153</ele>
        <time>2014-04-17T13:30:23Z</time>
      </trkpt>
      <trkpt lat="47.48283" lon="3.75304">
        <ele>153</ele>
        <time>2014-04-17T13:30:27Z</time>
      </trkpt>
      <trkpt lat="47.48283" lon="3.75312">
        <ele>153</ele>
        <time>2014-04-17T13:30:31Z</time>
      </trkpt>
      <trkpt lat="47.48283" lon="3.7532">
        <ele>153</ele>
        <time>2014-04-17T13:30:37Z</time>
      </trkpt>
      <trkpt lat="47.48281" lon="3.75327">
        <ele>153</ele>
        <time>2014-04-17T13:30:41Z</time>
      </trkpt>
      <trkpt lat="47.4828" lon="3.75335">
        <ele>153</ele>
        <time>2014-04-17T13:30:46Z</time>
      </trkpt>
      <trkpt lat="47.48278" lon="3.75343">
        <ele>153</ele>
        <time>2014-04-17T13:30:52Z</time>
      </trkpt>
      <trkpt lat="47.48276" lon="3.7535">
        <ele>153</ele>
        <time>2014-04-17T13:30:56Z</time>
      </trkpt>
      <trkpt lat="47.48273" lon="3.75354">
        <ele>153</ele>
        <time>2014-04-17T13:31:01Z</time>
      </trkpt>
      <trkpt lat="47.4827" lon="3.75361">
        <ele>153</ele>
        <time>2014-04-17T13:31:04Z</time>
      </trkpt>
      <trkpt lat="47.48268" lon="3.75368">
        <ele>153</ele>
        <time>2014-04-17T13:31:08Z</time>
      </trkpt>
      <trkpt lat="47.48265" lon="3.75374">
        <ele>153</ele>
        <time>2014-04-17T13:31:12Z</time>
      </trkpt>
      <trkpt lat="47.48267" lon="3.75379">
        <ele>153</ele>
        <time>2014-04-17T13:31:46Z</time>
      </trkpt>
      <trkpt lat="47.48265" lon="3.75386">
        <ele>153</ele>
        <time>2014-04-17T13:31:48Z</time>
      </trkpt>
      <trkpt lat="47.48264" lon="3.75394">
        <ele>153</ele>
        <time>2014-04-17T13:31:52Z</time>
      </trkpt>
      <trkpt lat="47.48265" lon="3.75398">
        <ele>153</ele>
        <time>2014-04-17T13:31:58Z</time>
      </trkpt>
      <trkpt lat="47.48264" lon="3.75404">
        <ele>153</ele>
        <time>2014-04-17T13:32:13Z</time>
      </trkpt>
      <trkpt lat="47.4827" lon="3.75406">
        <ele>153</ele>
        <time>2014-04-17T13:32:17Z</time>
      </trkpt>
      <trkpt lat="47.48275" lon="3.75411">
        <ele>153</ele>
        <time>2014-04-17T13:32:21Z</time>
      </trkpt>
      <trkpt lat="47.4828" lon="3.75413">
        <ele>152</ele>
        <time>2014-04-17T13:32:25Z</time>
      </trkpt>
      <trkpt lat="47.48283" lon="3.75419">
        <ele>150</ele>
        <time>2014-04-17T13:32:30Z</time>
      </trkpt>
      <trkpt lat="47.48284" lon="3.75426">
        <ele>150</ele>
        <time>2014-04-17T13:32:34Z</time>
      </trkpt>
      <trkpt lat="47.48285" lon="3.75434">
        <ele>149</ele>
        <time>2014-04-17T13:32:39Z</time>
      </trkpt>
      <trkpt lat="47.48284" lon="3.75441">
        <ele>149</ele>
        <time>2014-04-17T13:32:44Z</time>
      </trkpt>
      <trkpt lat="47.48283" lon="3.75449">
        <ele>149</ele>
        <time>2014-04-17T13:32:49Z</time>
      </trkpt>
      <trkpt lat="47.48283" lon="3.75456">
        <ele>148</ele>
        <time>2014-04-17T13:32:53Z</time>
      </trkpt>
      <trkpt lat="47.48278" lon="3.75461">
        <ele>148</ele>
        <time>2014-04-17T13:32:57Z</time>
      </trkpt>
      <trkpt lat="47.48276" lon="3.75467">
        <ele>148</ele>
        <time>2014-04-17T13:33:00Z</time>
      </trkpt>
      <trkpt lat="47.48271" lon="3.7547">
        <ele>148</ele>
        <time>2014-04-17T13:33:04Z</time>
      </trkpt>
      <trkpt lat="47.48266" lon="3.7547">
        <ele>148</ele>
        <time>2014-04-17T13:33:08Z</time>
      </trkpt>
      <trkpt lat="47.48261" lon="3.75466">
        <ele>149</ele>
        <time>2014-04-17T13:33:12Z</time>
      </trkpt>
      <trkpt lat="47.48259" lon="3.75458">
        <ele>149</ele>
        <time>2014-04-17T13:33:16Z</time>
      </trkpt>
      <trkpt lat="47.48257" lon="3.75452">
        <ele>150</ele>
        <time>2014-04-17T13:33:19Z</time>
      </trkpt>
      <trkpt lat="47.48256" lon="3.75445">
        <ele>150</ele>
        <time>2014-04-17T13:33:23Z</time>
      </trkpt>
      <trkpt lat="47.48254" lon="3.75438">
        <ele>151</ele>
        <time>2014-04-17T13:33:28Z</time>
      </trkpt>
      <trkpt lat="47.48251" lon="3.75432">
        <ele>152</ele>
        <time>2014-04-17T13:33:33Z</time>
      </trkpt>
      <trkpt lat="47.48252" lon="3.75425">
        <ele>153</ele>
        <time>2014-04-17T13:33:37Z</time>
      </trkpt>
      <trkpt lat="47.48254" lon="3.75418">
        <ele>154</ele>
        <time>2014-04-17T13:33:43Z</time>
      </trkpt>
      <trkpt lat="47.48252" lon="3.75417">
        <ele>154</ele>
        <time>2014-04-17T13:34:27Z</time>
      </trkpt>
      <trkpt lat="47.48248" lon="3.75414">
        <ele>155</ele>
        <time>2014-04-17T13:35:37Z</time>
      </trkpt>
      <trkpt lat="47.48242" lon="3.7541">
        <ele>154</ele>
        <time>2014-04-17T13:35:40Z</time>
      </trkpt>
      <trkpt lat="47.48238" lon="3.75405">
        <ele>154</ele>
        <time>2014-04-17T13:35:43Z</time>
      </trkpt>
      <trkpt lat="47.48248" lon="3.75407">
        <ele>155</ele>
        <time>2014-04-17T13:35:53Z</time>
      </trkpt>
      <trkpt lat="47.4825" lon="3.75408">
        <ele>155</ele>
        <time>2014-04-17T13:37:21Z</time>
      </trkpt>
      <trkpt lat="47.4825" lon="3.75411">
        <ele>154</ele>
        <time>2014-04-17T13:44:00Z</time>
      </trkpt>
      <trkpt lat="47.48248" lon="3.75406">
        <ele>154</ele>
        <time>2014-04-17T13:48:02Z</time>
      </trkpt>
      <trkpt lat="47.48249" lon="3.7541">
        <ele>155</ele>
        <time>2014-04-17T13:48:40Z</time>
      </trkpt>
      <trkpt lat="47.48252" lon="3.75416">
        <ele>155</ele>
        <time>2014-04-17T13:48:45Z</time>
      </trkpt>
      <trkpt lat="47.4826" lon="3.7541">
        <ele>154</ele>
        <time>2014-04-17T13:59:11Z</time>
      </trkpt>
      <trkpt lat="47.48261" lon="3.754">
        <ele>153</ele>
        <time>2014-04-17T13:59:22Z</time>
      </trkpt>
      <trkpt lat="47.48256" lon="3.75401">
        <ele>153</ele>
        <time>2014-04-17T13:59:25Z</time>
      </trkpt>
      <trkpt lat="47.48251" lon="3.754">
        <ele>154</ele>
        <time>2014-04-17T14:00:14Z</time>
      </trkpt>
      <trkpt lat="47.48248" lon="3.75406">
        <ele>154</ele>
        <time>2014-04-17T14:00:19Z</time>
      </trkpt>
      <trkpt lat="47.48243" lon="3.75406">
        <ele>154</ele>
        <time>2014-04-17T14:00:26Z</time>
      </trkpt>
      <trkpt lat="47.48236" lon="3.75401">
        <ele>154</ele>
        <time>2014-04-17T14:00:54Z</time>
      </trkpt>
      <trkpt lat="47.48231" lon="3.754">
        <ele>154</ele>
        <time>2014-04-17T14:00:57Z</time>
      </trkpt>
      <trkpt lat="47.48226" lon="3.75398">
        <ele>154</ele>
        <time>2014-04-17T14:01:00Z</time>
      </trkpt>
      <trkpt lat="47.48222" lon="3.75397">
        <ele>154</ele>
        <time>2014-04-17T14:01:03Z</time>
      </trkpt>
      <trkpt lat="47.48217" lon="3.75394">
        <ele>154</ele>
        <time>2014-04-17T14:01:06Z</time>
      </trkpt>
      <trkpt lat="47.48213" lon="3.75393">
        <ele>154</ele>
        <time>2014-04-17T14:01:09Z</time>
      </trkpt>
      <trkpt lat="47.48207" lon="3.75391">
        <ele>153</ele>
        <time>2014-04-17T14:01:13Z</time>
      </trkpt>
      <trkpt lat="47.48202" lon="3.75389">
        <ele>153</ele>
        <time>2014-04-17T14:01:17Z</time>
      </trkpt>
      <trkpt lat="47.48204" lon="3.7538">
        <ele>153</ele>
        <time>2014-04-17T14:01:24Z</time>
      </trkpt>
      <trkpt lat="47.48208" lon="3.75373">
        <ele>154</ele>
        <time>2014-04-17T14:01:28Z</time>
      </trkpt>
      <trkpt lat="47.4821" lon="3.75367">
        <ele>154</ele>
        <time>2014-04-17T14:01:31Z</time>
      </trkpt>
      <trkpt lat="47.48213" lon="3.7536">
        <ele>154</ele>
        <time>2014-04-17T14:01:35Z</time>
      </trkpt>
      <trkpt lat="47.48216" lon="3.75354">
        <ele>154</ele>
        <time>2014-04-17T14:01:40Z</time>
      </trkpt>
      <trkpt lat="47.48219" lon="3.75349">
        <ele>154</ele>
        <time>2014-04-17T14:01:45Z</time>
      </trkpt>
      <trkpt lat="47.48219" lon="3.7535">
        <ele>154</ele>
        <time>2014-04-17T14:02:06Z</time>
      </trkpt>
      <trkpt lat="47.48214" lon="3.75354">
        <ele>154</ele>
        <time>2014-04-17T14:02:12Z</time>
      </trkpt>
      <trkpt lat="47.48211" lon="3.75359">
        <ele>154</ele>
        <time>2014-04-17T14:02:16Z</time>
      </trkpt>
      <trkpt lat="47.48209" lon="3.75366">
        <ele>154</ele>
        <time>2014-04-17T14:02:21Z</time>
      </trkpt>
      <trkpt lat="47.48206" lon="3.75373">
        <ele>153</ele>
        <time>2014-04-17T14:02:25Z</time>
      </trkpt>
      <trkpt lat="47.48203" lon="3.75378">
        <ele>153</ele>
        <time>2014-04-17T14:02:29Z</time>
      </trkpt>
      <trkpt lat="47.482" lon="3.75383">
        <ele>153</ele>
        <time>2014-04-17T14:02:34Z</time>
      </trkpt>
      <trkpt lat="47.48195" lon="3.75386">
        <ele>153</ele>
        <time>2014-04-17T14:02:38Z</time>
      </trkpt>
      <trkpt lat="47.4819" lon="3.75387">
        <ele>153</ele>
        <time>2014-04-17T14:02:45Z</time>
      </trkpt>
      <trkpt lat="47.48186" lon="3.75387">
        <ele>153</ele>
        <time>2014-04-17T14:02:50Z</time>
      </trkpt>
      <trkpt lat="47.4818" lon="3.75386">
        <ele>153</ele>
        <time>2014-04-17T14:02:54Z</time>
      </trkpt>
      <trkpt lat="47.48175" lon="3.75385">
        <ele>153</ele>
        <time>2014-04-17T14:02:58Z</time>
      </trkpt>
      <trkpt lat="47.48171" lon="3.75385">
        <ele>153</ele>
        <time>2014-04-17T14:03:02Z</time>
      </trkpt>
      <trkpt lat="47.48165" lon="3.75386">
        <ele>151</ele>
        <time>2014-04-17T14:03:06Z</time>
      </trkpt>
      <trkpt lat="47.4816" lon="3.75387">
        <ele>151</ele>
        <time>2014-04-17T14:03:10Z</time>
      </trkpt>
      <trkpt lat="47.48155" lon="3.75387">
        <ele>151</ele>
        <time>2014-04-17T14:03:15Z</time>
      </trkpt>
      <trkpt lat="47.48149" lon="3.75388">
        <ele>151</ele>
        <time>2014-04-17T14:03:19Z</time>
      </trkpt>
      <trkpt lat="47.48144" lon="3.75387">
        <ele>150</ele>
        <time>2014-04-17T14:03:23Z</time>
      </trkpt>
      <trkpt lat="47.48138" lon="3.75386">
        <ele>150</ele>
        <time>2014-04-17T14:03:27Z</time>
      </trkpt>
      <trkpt lat="47.48134" lon="3.75381">
        <ele>150</ele>
        <time>2014-04-17T14:03:32Z</time>
      </trkpt>
      <trkpt lat="47.48132" lon="3.75375">
        <ele>150</ele>
        <time>2014-04-17T14:03:36Z</time>
      </trkpt>
      <trkpt lat="47.4813" lon="3.75368">
        <ele>150</ele>
        <time>2014-04-17T14:03:41Z</time>
      </trkpt>
      <trkpt lat="47.48128" lon="3.7536">
        <ele>151</ele>
        <time>2014-04-17T14:03:46Z</time>
      </trkpt>
      <trkpt lat="47.48125" lon="3.75354">
        <ele>151</ele>
        <time>2014-04-17T14:03:50Z</time>
      </trkpt>
      <trkpt lat="47.48122" lon="3.75348">
        <ele>151</ele>
        <time>2014-04-17T14:03:56Z</time>
      </trkpt>
      <trkpt lat="47.48119" lon="3.75341">
        <ele>151</ele>
        <time>2014-04-17T14:04:02Z</time>
      </trkpt>
      <trkpt lat="47.48119" lon="3.75334">
        <ele>151</ele>
        <time>2014-04-17T14:04:06Z</time>
      </trkpt>
      <trkpt lat="47.48116" lon="3.75328">
        <ele>153</ele>
        <time>2014-04-17T14:04:10Z</time>
      </trkpt>
      <trkpt lat="47.48112" lon="3.75323">
        <ele>153</ele>
        <time>2014-04-17T14:04:13Z</time>
      </trkpt>
      <trkpt lat="47.48109" lon="3.75316">
        <ele>153</ele>
        <time>2014-04-17T14:04:17Z</time>
      </trkpt>
      <trkpt lat="47.48107" lon="3.75309">
        <ele>153</ele>
        <time>2014-04-17T14:04:21Z</time>
      </trkpt>
      <trkpt lat="47.48104" lon="3.75303">
        <ele>153</ele>
        <time>2014-04-17T14:04:25Z</time>
      </trkpt>
      <trkpt lat="47.48102" lon="3.75296">
        <ele>153</ele>
        <time>2014-04-17T14:04:30Z</time>
      </trkpt>
      <trkpt lat="47.481" lon="3.75289">
        <ele>153</ele>
        <time>2014-04-17T14:04:35Z</time>
      </trkpt>
      <trkpt lat="47.48099" lon="3.75281">
        <ele>153</ele>
        <time>2014-04-17T14:04:40Z</time>
      </trkpt>
      <trkpt lat="47.481" lon="3.75274">
        <ele>154</ele>
        <time>2014-04-17T14:04:44Z</time>
      </trkpt>
      <trkpt lat="47.48099" lon="3.75267">
        <ele>154</ele>
        <time>2014-04-17T14:04:48Z</time>
      </trkpt>
      <trkpt lat="47.48098" lon="3.7526">
        <ele>154</ele>
        <time>2014-04-17T14:04:52Z</time>
      </trkpt>
      <trkpt lat="47.48097" lon="3.75253">
        <ele>154</ele>
        <time>2014-04-17T14:04:56Z</time>
      </trkpt>
      <trkpt lat="47.48097" lon="3.75245">
        <ele>155</ele>
        <time>2014-04-17T14:05:01Z</time>
      </trkpt>
      <trkpt lat="47.48097" lon="3.75237">
        <ele>155</ele>
        <time>2014-04-17T14:05:06Z</time>
      </trkpt>
      <trkpt lat="47.48096" lon="3.75229">
        <ele>155</ele>
        <time>2014-04-17T14:05:11Z</time>
      </trkpt>
      <trkpt lat="47.48094" lon="3.75222">
        <ele>155</ele>
        <time>2014-04-17T14:05:15Z</time>
      </trkpt>
      <trkpt lat="47.4809" lon="3.75217">
        <ele>155</ele>
        <time>2014-04-17T14:05:19Z</time>
      </trkpt>
      <trkpt lat="47.48088" lon="3.7521">
        <ele>155</ele>
        <time>2014-04-17T14:05:25Z</time>
      </trkpt>
      <trkpt lat="47.48086" lon="3.75204">
        <ele>156</ele>
        <time>2014-04-17T14:05:28Z</time>
      </trkpt>
      <trkpt lat="47.48083" lon="3.75199">
        <ele>156</ele>
        <time>2014-04-17T14:05:30Z</time>
      </trkpt>
      <trkpt lat="47.4808" lon="3.75193">
        <ele>156</ele>
        <time>2014-04-17T14:05:33Z</time>
      </trkpt>
      <trkpt lat="47.48076" lon="3.75187">
        <ele>156</ele>
        <time>2014-04-17T14:05:37Z</time>
      </trkpt>
      <trkpt lat="47.48073" lon="3.75183">
        <ele>156</ele>
        <time>2014-04-17T14:05:41Z</time>
      </trkpt>
      <trkpt lat="47.48068" lon="3.75179">
        <ele>156</ele>
        <time>2014-04-17T14:05:46Z</time>
      </trkpt>
      <trkpt lat="47.48063" lon="3.75176">
        <ele>156</ele>
        <time>2014-04-17T14:05:50Z</time>
      </trkpt>
      <trkpt lat="47.48058" lon="3.75172">
        <ele>156</ele>
        <time>2014-04-17T14:05:55Z</time>
      </trkpt>
      <trkpt lat="47.48053" lon="3.7517">
        <ele>156</ele>
        <time>2014-04-17T14:06:00Z</time>
      </trkpt>
      <trkpt lat="47.48048" lon="3.75166">
        <ele>158</ele>
        <time>2014-04-17T14:06:04Z</time>
      </trkpt>
      <trkpt lat="47.48044" lon="3.75162">
        <ele>158</ele>
        <time>2014-04-17T14:06:07Z</time>
      </trkpt>
      <trkpt lat="47.4804" lon="3.75158">
        <ele>158</ele>
        <time>2014-04-17T14:06:10Z</time>
      </trkpt>
      <trkpt lat="47.48035" lon="3.75156">
        <ele>158</ele>
        <time>2014-04-17T14:06:14Z</time>
      </trkpt>
      <trkpt lat="47.48031" lon="3.75154">
        <ele>158</ele>
        <time>2014-04-17T14:06:18Z</time>
      </trkpt>
      <trkpt lat="47.48026" lon="3.75152">
        <ele>158</ele>
        <time>2014-04-17T14:06:22Z</time>
      </trkpt>
      <trkpt lat="47.48021" lon="3.75148">
        <ele>158</ele>
        <time>2014-04-17T14:06:26Z</time>
      </trkpt>
      <trkpt lat="47.48016" lon="3.75143">
        <ele>158</ele>
        <time>2014-04-17T14:06:30Z</time>
      </trkpt>
      <trkpt lat="47.48012" lon="3.75139">
        <ele>158</ele>
        <time>2014-04-17T14:06:34Z</time>
      </trkpt>
      <trkpt lat="47.48008" lon="3.75135">
        <ele>158</ele>
        <time>2014-04-17T14:06:38Z</time>
      </trkpt>
      <trkpt lat="47.48004" lon="3.7513">
        <ele>158</ele>
        <time>2014-04-17T14:06:42Z</time>
      </trkpt>
      <trkpt lat="47.47999" lon="3.75124">
        <ele>157</ele>
        <time>2014-04-17T14:06:46Z</time>
      </trkpt>
      <trkpt lat="47.47995" lon="3.75119">
        <ele>157</ele>
        <time>2014-04-17T14:06:50Z</time>
      </trkpt>
      <trkpt lat="47.47991" lon="3.75115">
        <ele>158</ele>
        <time>2014-04-17T14:06:54Z</time>
      </trkpt>
      <trkpt lat="47.47987" lon="3.75111">
        <ele>158</ele>
        <time>2014-04-17T14:07:01Z</time>
      </trkpt>
      <trkpt lat="47.47984" lon="3.75106">
        <ele>158</ele>
        <time>2014-04-17T14:07:06Z</time>
      </trkpt>
      <trkpt lat="47.4798" lon="3.75101">
        <ele>158</ele>
        <time>2014-04-17T14:07:09Z</time>
      </trkpt>
      <trkpt lat="47.47975" lon="3.75095">
        <ele>158</ele>
        <time>2014-04-17T14:07:12Z</time>
      </trkpt>
      <trkpt lat="47.47971" lon="3.75089">
        <ele>158</ele>
        <time>2014-04-17T14:07:15Z</time>
      </trkpt>
      <trkpt lat="47.47967" lon="3.75083">
        <ele>160</ele>
        <time>2014-04-17T14:07:20Z</time>
      </trkpt>
      <trkpt lat="47.47962" lon="3.75081">
        <ele>160</ele>
        <time>2014-04-17T14:07:27Z</time>
      </trkpt>
      <trkpt lat="47.47957" lon="3.75077">
        <ele>159</ele>
        <time>2014-04-17T14:07:31Z</time>
      </trkpt>
      <trkpt lat="47.47953" lon="3.75073">
        <ele>159</ele>
        <time>2014-04-17T14:07:35Z</time>
      </trkpt>
      <trkpt lat="47.4795" lon="3.75068">
        <ele>159</ele>
        <time>2014-04-17T14:07:39Z</time>
      </trkpt>
      <trkpt lat="47.47945" lon="3.75062">
        <ele>159</ele>
        <time>2014-04-17T14:07:43Z</time>
      </trkpt>
      <trkpt lat="47.47941" lon="3.75058">
        <ele>159</ele>
        <time>2014-04-17T14:07:46Z</time>
      </trkpt>
      <trkpt lat="47.47937" lon="3.75057">
        <ele>159</ele>
        <time>2014-04-17T14:07:50Z</time>
      </trkpt>
      <trkpt lat="47.47932" lon="3.75056">
        <ele>159</ele>
        <time>2014-04-17T14:07:55Z</time>
      </trkpt>
      <trkpt lat="47.47927" lon="3.75058">
        <ele>159</ele>
        <time>2014-04-17T14:07:59Z</time>
      </trkpt>
      <trkpt lat="47.47922" lon="3.75058">
        <ele>159</ele>
        <time>2014-04-17T14:08:04Z</time>
      </trkpt>
      <trkpt lat="47.47918" lon="3.75061">
        <ele>158</ele>
        <time>2014-04-17T14:08:10Z</time>
      </trkpt>
      <trkpt lat="47.47913" lon="3.75063">
        <ele>157</ele>
        <time>2014-04-17T14:08:16Z</time>
      </trkpt>
      <trkpt lat="47.47908" lon="3.75064">
        <ele>157</ele>
        <time>2014-04-17T14:08:20Z</time>
      </trkpt>
      <trkpt lat="47.47903" lon="3.75063">
        <ele>157</ele>
        <time>2014-04-17T14:08:24Z</time>
      </trkpt>
      <trkpt lat="47.47898" lon="3.75062">
        <ele>157</ele>
        <time>2014-04-17T14:08:28Z</time>
      </trkpt>
      <trkpt lat="47.47892" lon="3.7506">
        <ele>157</ele>
        <time>2014-04-17T14:08:32Z</time>
      </trkpt>
      <trkpt lat="47.47887" lon="3.75057">
        <ele>157</ele>
        <time>2014-04-17T14:08:36Z</time>
      </trkpt>
      <trkpt lat="47.47882" lon="3.75054">
        <ele>157</ele>
        <time>2014-04-17T14:08:40Z</time>
      </trkpt>
      <trkpt lat="47.47877" lon="3.75052">
        <ele>157</ele>
        <time>2014-04-17T14:08:45Z</time>
      </trkpt>
      <trkpt lat="47.47872" lon="3.75051">
        <ele>156</ele>
        <time>2014-04-17T14:08:50Z</time>
      </trkpt>
      <trkpt lat="47.47867" lon="3.75049">
        <ele>156</ele>
        <time>2014-04-17T14:08:56Z</time>
      </trkpt>
      <trkpt lat="47.47862" lon="3.75048">
        <ele>156</ele>
        <time>2014-04-17T14:09:00Z</time>
      </trkpt>
      <trkpt lat="47.47856" lon="3.75046">
        <ele>156</ele>
        <time>2014-04-17T14:09:04Z</time>
      </trkpt>
      <trkpt lat="47.47852" lon="3.75044">
        <ele>156</ele>
        <time>2014-04-17T14:09:08Z</time>
      </trkpt>
      <trkpt lat="47.47847" lon="3.75041">
        <ele>156</ele>
        <time>2014-04-17T14:09:13Z</time>
      </trkpt>
      <trkpt lat="47.47842" lon="3.75041">
        <ele>156</ele>
        <time>2014-04-17T14:09:16Z</time>
      </trkpt>
      <trkpt lat="47.47837" lon="3.75041">
        <ele>156</ele>
        <time>2014-04-17T14:09:19Z</time>
      </trkpt>
      <trkpt lat="47.47833" lon="3.7504">
        <ele>155</ele>
        <time>2014-04-17T14:09:22Z</time>
      </trkpt>
      <trkpt lat="47.47828" lon="3.7504">
        <ele>156</ele>
        <time>2014-04-17T14:09:26Z</time>
      </trkpt>
      <trkpt lat="47.47823" lon="3.75038">
        <ele>156</ele>
        <time>2014-04-17T14:09:30Z</time>
      </trkpt>
      <trkpt lat="47.47818" lon="3.75037">
        <ele>156</ele>
        <time>2014-04-17T14:09:34Z</time>
      </trkpt>
      <trkpt lat="47.47814" lon="3.75034">
        <ele>156</ele>
        <time>2014-04-17T14:09:38Z</time>
      </trkpt>
      <trkpt lat="47.47811" lon="3.75028">
        <ele>156</ele>
        <time>2014-04-17T14:09:43Z</time>
      </trkpt>
      <trkpt lat="47.47806" lon="3.75035">
        <ele>156</ele>
        <time>2014-04-17T14:10:00Z</time>
      </trkpt>
      <trkpt lat="47.47803" lon="3.7504">
        <ele>156</ele>
        <time>2014-04-17T14:10:05Z</time>
      </trkpt>
      <trkpt lat="47.478" lon="3.75046">
        <ele>156</ele>
        <time>2014-04-17T14:10:09Z</time>
      </trkpt>
      <trkpt lat="47.47796" lon="3.75053">
        <ele>156</ele>
        <time>2014-04-17T14:10:12Z</time>
      </trkpt>
      <trkpt lat="47.47792" lon="3.75058">
        <ele>156</ele>
        <time>2014-04-17T14:10:16Z</time>
      </trkpt>
      <trkpt lat="47.47788" lon="3.75063">
        <ele>156</ele>
        <time>2014-04-17T14:10:20Z</time>
      </trkpt>
      <trkpt lat="47.47785" lon="3.7507">
        <ele>156</ele>
        <time>2014-04-17T14:10:25Z</time>
      </trkpt>
      <trkpt lat="47.47781" lon="3.75076">
        <ele>156</ele>
        <time>2014-04-17T14:10:32Z</time>
      </trkpt>
      <trkpt lat="47.47777" lon="3.75079">
        <ele>156</ele>
        <time>2014-04-17T14:10:36Z</time>
      </trkpt>
      <trkpt lat="47.47773" lon="3.75086">
        <ele>156</ele>
        <time>2014-04-17T14:10:40Z</time>
      </trkpt>
      <trkpt lat="47.4777" lon="3.75091">
        <ele>156</ele>
        <time>2014-04-17T14:10:43Z</time>
      </trkpt>
      <trkpt lat="47.47766" lon="3.75096">
        <ele>156</ele>
        <time>2014-04-17T14:10:47Z</time>
      </trkpt>
      <trkpt lat="47.47763" lon="3.75102">
        <ele>156</ele>
        <time>2014-04-17T14:10:52Z</time>
      </trkpt>
      <trkpt lat="47.47759" lon="3.75108">
        <ele>157</ele>
        <time>2014-04-17T14:10:55Z</time>
      </trkpt>
      <trkpt lat="47.47755" lon="3.75112">
        <ele>157</ele>
        <time>2014-04-17T14:11:00Z</time>
      </trkpt>
      <trkpt lat="47.4775" lon="3.75114">
        <ele>157</ele>
        <time>2014-04-17T14:11:06Z</time>
      </trkpt>
      <trkpt lat="47.47745" lon="3.75116">
        <ele>160</ele>
        <time>2014-04-17T14:11:11Z</time>
      </trkpt>
      <trkpt lat="47.47741" lon="3.75122">
        <ele>160</ele>
        <time>2014-04-17T14:11:14Z</time>
      </trkpt>
      <trkpt lat="47.47737" lon="3.75127">
        <ele>161</ele>
        <time>2014-04-17T14:11:17Z</time>
      </trkpt>
      <trkpt lat="47.47731" lon="3.7513">
        <ele>161</ele>
        <time>2014-04-17T14:11:20Z</time>
      </trkpt>
      <trkpt lat="47.47727" lon="3.75133">
        <ele>161</ele>
        <time>2014-04-17T14:11:23Z</time>
      </trkpt>
      <trkpt lat="47.47723" lon="3.75137">
        <ele>161</ele>
        <time>2014-04-17T14:11:27Z</time>
      </trkpt>
      <trkpt lat="47.47718" lon="3.75135">
        <ele>161</ele>
        <time>2014-04-17T14:11:34Z</time>
      </trkpt>
      <trkpt lat="47.47712" lon="3.75134">
        <ele>162</ele>
        <time>2014-04-17T14:11:38Z</time>
      </trkpt>
      <trkpt lat="47.47708" lon="3.75133">
        <ele>162</ele>
        <time>2014-04-17T14:11:42Z</time>
      </trkpt>
      <trkpt lat="47.47703" lon="3.75131">
        <ele>162</ele>
        <time>2014-04-17T14:11:46Z</time>
      </trkpt>
      <trkpt lat="47.47697" lon="3.75129">
        <ele>162</ele>
        <time>2014-04-17T14:11:50Z</time>
      </trkpt>
      <trkpt lat="47.47692" lon="3.75126">
        <ele>162</ele>
        <time>2014-04-17T14:11:54Z</time>
      </trkpt>
      <trkpt lat="47.47688" lon="3.75125">
        <ele>163</ele>
        <time>2014-04-17T14:11:59Z</time>
      </trkpt>
      <trkpt lat="47.47682" lon="3.75123">
        <ele>163</ele>
        <time>2014-04-17T14:12:04Z</time>
      </trkpt>
      <trkpt lat="47.47677" lon="3.75121">
        <ele>163</ele>
        <time>2014-04-17T14:12:09Z</time>
      </trkpt>
      <trkpt lat="47.47672" lon="3.75119">
        <ele>163</ele>
        <time>2014-04-17T14:12:14Z</time>
      </trkpt>
      <trkpt lat="47.47667" lon="3.75117">
        <ele>163</ele>
        <time>2014-04-17T14:12:18Z</time>
      </trkpt>
      <trkpt lat="47.47663" lon="3.75113">
        <ele>166</ele>
        <time>2014-04-17T14:12:22Z</time>
      </trkpt>
      <trkpt lat="47.47658" lon="3.75111">
        <ele>166</ele>
        <time>2014-04-17T14:12:26Z</time>
      </trkpt>
      <trkpt lat="47.47654" lon="3.75111">
        <ele>166</ele>
        <time>2014-04-17T14:12:29Z</time>
      </trkpt>
      <trkpt lat="47.47649" lon="3.75111">
        <ele>166</ele>
        <time>2014-04-17T14:12:33Z</time>
      </trkpt>
      <trkpt lat="47.47644" lon="3.75109">
        <ele>166</ele>
        <time>2014-04-17T14:12:37Z</time>
      </trkpt>
      <trkpt lat="47.4764" lon="3.75106">
        <ele>166</ele>
        <time>2014-04-17T14:12:41Z</time>
      </trkpt>
      <trkpt lat="47.47636" lon="3.75102">
        <ele>166</ele>
        <time>2014-04-17T14:12:45Z</time>
      </trkpt>
      <trkpt lat="47.47632" lon="3.75099">
        <ele>167</ele>
        <time>2014-04-17T14:12:49Z</time>
      </trkpt>
      <trkpt lat="47.47628" lon="3.75094">
        <ele>167</ele>
        <time>2014-04-17T14:12:55Z</time>
      </trkpt>
      <trkpt lat="47.47622" lon="3.75093">
        <ele>167</ele>
        <time>2014-04-17T14:12:59Z</time>
      </trkpt>
      <trkpt lat="47.47617" lon="3.7509">
        <ele>167</ele>
        <time>2014-04-17T14:13:02Z</time>
      </trkpt>
      <trkpt lat="47.47612" lon="3.75087">
        <ele>167</ele>
        <time>2014-04-17T14:13:06Z</time>
      </trkpt>
      <trkpt lat="47.47606" lon="3.75086">
        <ele>167</ele>
        <time>2014-04-17T14:13:10Z</time>
      </trkpt>
      <trkpt lat="47.47602" lon="3.75084">
        <ele>167</ele>
        <time>2014-04-17T14:13:14Z</time>
      </trkpt>
      <trkpt lat="47.47597" lon="3.75082">
        <ele>167</ele>
        <time>2014-04-17T14:13:18Z</time>
      </trkpt>
      <trkpt lat="47.47593" lon="3.75079">
        <ele>167</ele>
        <time>2014-04-17T14:13:22Z</time>
      </trkpt>
      <trkpt lat="47.47587" lon="3.75075">
        <ele>167</ele>
        <time>2014-04-17T14:14:02Z</time>
      </trkpt>
      <trkpt lat="47.47583" lon="3.75073">
        <ele>169</ele>
        <time>2014-04-17T14:14:05Z</time>
      </trkpt>
      <trkpt lat="47.47577" lon="3.7507">
        <ele>169</ele>
        <time>2014-04-17T14:14:09Z</time>
      </trkpt>
      <trkpt lat="47.47572" lon="3.75067">
        <ele>169</ele>
        <time>2014-04-17T14:14:14Z</time>
      </trkpt>
      <trkpt lat="47.47567" lon="3.75065">
        <ele>169</ele>
        <time>2014-04-17T14:14:18Z</time>
      </trkpt>
      <trkpt lat="47.47563" lon="3.75063">
        <ele>169</ele>
        <time>2014-04-17T14:14:22Z</time>
      </trkpt>
      <trkpt lat="47.47558" lon="3.75061">
        <ele>169</ele>
        <time>2014-04-17T14:14:26Z</time>
      </trkpt>
      <trkpt lat="47.47554" lon="3.75058">
        <ele>169</ele>
        <time>2014-04-17T14:14:30Z</time>
      </trkpt>
      <trkpt lat="47.47549" lon="3.75055">
        <ele>170</ele>
        <time>2014-04-17T14:14:34Z</time>
      </trkpt>
      <trkpt lat="47.47545" lon="3.75053">
        <ele>170</ele>
        <time>2014-04-17T14:14:39Z</time>
      </trkpt>
      <trkpt lat="47.4754" lon="3.7505">
        <ele>170</ele>
        <time>2014-04-17T14:14:43Z</time>
      </trkpt>
      <trkpt lat="47.47534" lon="3.75047">
        <ele>170</ele>
        <time>2014-04-17T14:14:47Z</time>
      </trkpt>
      <trkpt lat="47.4753" lon="3.75045">
        <ele>170</ele>
        <time>2014-04-17T14:14:51Z</time>
      </trkpt>
      <trkpt lat="47.47525" lon="3.75042">
        <ele>170</ele>
        <time>2014-04-17T14:14:56Z</time>
      </trkpt>
      <trkpt lat="47.47521" lon="3.75042">
        <ele>170</ele>
        <time>2014-04-17T14:15:00Z</time>
      </trkpt>
      <trkpt lat="47.47515" lon="3.75038">
        <ele>170</ele>
        <time>2014-04-17T14:15:04Z</time>
      </trkpt>
      <trkpt lat="47.4751" lon="3.75036">
        <ele>170</ele>
        <time>2014-04-17T14:15:08Z</time>
      </trkpt>
      <trkpt lat="47.47505" lon="3.75034">
        <ele>170</ele>
        <time>2014-04-17T14:15:12Z</time>
      </trkpt>
      <trkpt lat="47.475" lon="3.75033">
        <ele>172</ele>
        <time>2014-04-17T14:15:16Z</time>
      </trkpt>
      <trkpt lat="47.47495" lon="3.75032">
        <ele>173</ele>
        <time>2014-04-17T14:15:20Z</time>
      </trkpt>
      <trkpt lat="47.47491" lon="3.75031">
        <ele>173</ele>
        <time>2014-04-17T14:15:24Z</time>
      </trkpt>
      <trkpt lat="47.47486" lon="3.75028">
        <ele>173</ele>
        <time>2014-04-17T14:15:28Z</time>
      </trkpt>
      <trkpt lat="47.47481" lon="3.75026">
        <ele>173</ele>
        <time>2014-04-17T14:15:32Z</time>
      </trkpt>
      <trkpt lat="47.47476" lon="3.75024">
        <ele>173</ele>
        <time>2014-04-17T14:15:37Z</time>
      </trkpt>
      <trkpt lat="47.47471" lon="3.75023">
        <ele>173</ele>
        <time>2014-04-17T14:15:41Z</time>
      </trkpt>
      <trkpt lat="47.47466" lon="3.75022">
        <ele>173</ele>
        <time>2014-04-17T14:15:46Z</time>
      </trkpt>
      <trkpt lat="47.47461" lon="3.7502">
        <ele>173</ele>
        <time>2014-04-17T14:15:51Z</time>
      </trkpt>
      <trkpt lat="47.47455" lon="3.75018">
        <ele>173</ele>
        <time>2014-04-17T14:15:55Z</time>
      </trkpt>
      <trkpt lat="47.4745" lon="3.75016">
        <ele>173</ele>
        <time>2014-04-17T14:15:59Z</time>
      </trkpt>
      <trkpt lat="47.47444" lon="3.75015">
        <ele>174</ele>
        <time>2014-04-17T14:16:03Z</time>
      </trkpt>
      <trkpt lat="47.4744" lon="3.75015">
        <ele>174</ele>
        <time>2014-04-17T14:16:06Z</time>
      </trkpt>
      <trkpt lat="47.47435" lon="3.75012">
        <ele>174</ele>
        <time>2014-04-17T14:16:11Z</time>
      </trkpt>
      <trkpt lat="47.4743" lon="3.75011">
        <ele>174</ele>
        <time>2014-04-17T14:16:15Z</time>
      </trkpt>
      <trkpt lat="47.47424" lon="3.75007">
        <ele>174</ele>
        <time>2014-04-17T14:16:19Z</time>
      </trkpt>
      <trkpt lat="47.4742" lon="3.75002">
        <ele>175</ele>
        <time>2014-04-17T14:16:23Z</time>
      </trkpt>
      <trkpt lat="47.47415" lon="3.75">
        <ele>175</ele>
        <time>2014-04-17T14:16:28Z</time>
      </trkpt>
      <trkpt lat="47.4741" lon="3.74996">
        <ele>175</ele>
        <time>2014-04-17T14:16:33Z</time>
      </trkpt>
      <trkpt lat="47.47404" lon="3.74994">
        <ele>176</ele>
        <time>2014-04-17T14:16:37Z</time>
      </trkpt>
      <trkpt lat="47.47399" lon="3.74995">
        <ele>176</ele>
        <time>2014-04-17T14:16:41Z</time>
      </trkpt>
      <trkpt lat="47.47394" lon="3.74994">
        <ele>176</ele>
        <time>2014-04-17T14:16:45Z</time>
      </trkpt>
      <trkpt lat="47.47388" lon="3.74991">
        <ele>176</ele>
        <time>2014-04-17T14:16:50Z</time>
      </trkpt>
      <trkpt lat="47.47384" lon="3.74989">
        <ele>176</ele>
        <time>2014-04-17T14:17:00Z</time>
      </trkpt>
      <trkpt lat="47.47379" lon="3.74987">
        <ele>177</ele>
        <time>2014-04-17T14:17:25Z</time>
      </trkpt>
      <trkpt lat="47.47374" lon="3.74987">
        <ele>177</ele>
        <time>2014-04-17T14:17:30Z</time>
      </trkpt>
      <trkpt lat="47.47369" lon="3.74985">
        <ele>177</ele>
        <time>2014-04-17T14:17:34Z</time>
      </trkpt>
      <trkpt lat="47.47363" lon="3.74984">
        <ele>177</ele>
        <time>2014-04-17T14:17:38Z</time>
      </trkpt>
      <trkpt lat="47.47358" lon="3.74985">
        <ele>177</ele>
        <time>2014-04-17T14:17:43Z</time>
      </trkpt>
      <trkpt lat="47.47352" lon="3.74987">
        <ele>177</ele>
        <time>2014-04-17T14:17:47Z</time>
      </trkpt>
      <trkpt lat="47.47348" lon="3.7499">
        <ele>178</ele>
        <time>2014-04-17T14:17:51Z</time>
      </trkpt>
      <trkpt lat="47.47343" lon="3.74988">
        <ele>178</ele>
        <time>2014-04-17T14:17:55Z</time>
      </trkpt>
      <trkpt lat="47.47334" lon="3.74982">
        <ele>178</ele>
        <time>2014-04-17T14:18:02Z</time>
      </trkpt>
      <trkpt lat="47.47329" lon="3.74983">
        <ele>180</ele>
        <time>2014-04-17T14:18:08Z</time>
      </trkpt>
      <trkpt lat="47.47324" lon="3.74983">
        <ele>180</ele>
        <time>2014-04-17T14:18:13Z</time>
      </trkpt>
      <trkpt lat="47.47318" lon="3.74983">
        <ele>180</ele>
        <time>2014-04-17T14:18:17Z</time>
      </trkpt>
      <trkpt lat="47.47313" lon="3.74984">
        <ele>180</ele>
        <time>2014-04-17T14:18:21Z</time>
      </trkpt>
      <trkpt lat="47.47309" lon="3.74986">
        <ele>180</ele>
        <time>2014-04-17T14:18:26Z</time>
      </trkpt>
      <trkpt lat="47.47303" lon="3.74988">
        <ele>180</ele>
        <time>2014-04-17T14:18:30Z</time>
      </trkpt>
      <trkpt lat="47.47298" lon="3.74989">
        <ele>180</ele>
        <time>2014-04-17T14:18:34Z</time>
      </trkpt>
      <trkpt lat="47.47293" lon="3.7499">
        <ele>181</ele>
        <time>2014-04-17T14:18:38Z</time>
      </trkpt>
      <trkpt lat="47.47287" lon="3.74991">
        <ele>181</ele>
        <time>2014-04-17T14:18:42Z</time>
      </trkpt>
      <trkpt lat="47.47283" lon="3.7499">
        <ele>181</ele>
        <time>2014-04-17T14:18:46Z</time>
      </trkpt>
      <trkpt lat="47.47278" lon="3.74991">
        <ele>181</ele>
        <time>2014-04-17T14:18:50Z</time>
      </trkpt>
      <trkpt lat="47.47272" lon="3.74992">
        <ele>181</ele>
        <time>2014-04-17T14:18:55Z</time>
      </trkpt>
      <trkpt lat="47.47268" lon="3.74993">
        <ele>182</ele>
        <time>2014-04-17T14:18:59Z</time>
      </trkpt>
      <trkpt lat="47.47263" lon="3.74994">
        <ele>182</ele>
        <time>2014-04-17T14:19:03Z</time>
      </trkpt>
      <trkpt lat="47.47258" lon="3.74994">
        <ele>182</ele>
        <time>2014-04-17T14:19:07Z</time>
      </trkpt>
      <trkpt lat="47.47253" lon="3.74995">
        <ele>182</ele>
        <time>2014-04-17T14:19:11Z</time>
      </trkpt>
      <trkpt lat="47.47249" lon="3.74995">
        <ele>184</ele>
        <time>2014-04-17T14:19:15Z</time>
      </trkpt>
      <trkpt lat="47.47244" lon="3.74996">
        <ele>184</ele>
        <time>2014-04-17T14:19:19Z</time>
      </trkpt>
      <trkpt lat="47.47239" lon="3.74997">
        <ele>184</ele>
        <time>2014-04-17T14:19:23Z</time>
      </trkpt>
      <trkpt lat="47.47234" lon="3.75">
        <ele>185</ele>
        <time>2014-04-17T14:19:28Z</time>
      </trkpt>
      <trkpt lat="47.47229" lon="3.74999">
        <ele>185</ele>
        <time>2014-04-17T14:19:33Z</time>
      </trkpt>
      <trkpt lat="47.47224" lon="3.75002">
        <ele>187</ele>
        <time>2014-04-17T14:19:38Z</time>
      </trkpt>
      <trkpt lat="47.47219" lon="3.75004">
        <ele>188</ele>
        <time>2014-04-17T14:19:43Z</time>
      </trkpt>
      <trkpt lat="47.47214" lon="3.75005">
        <ele>189</ele>
        <time>2014-04-17T14:19:48Z</time>
      </trkpt>
      <trkpt lat="47.47209" lon="3.75005">
        <ele>189</ele>
        <time>2014-04-17T14:19:52Z</time>
      </trkpt>
      <trkpt lat="47.47204" lon="3.75005">
        <ele>190</ele>
        <time>2014-04-17T14:19:56Z</time>
      </trkpt>
      <trkpt lat="47.47199" lon="3.75005">
        <ele>190</ele>
        <time>2014-04-17T14:20:00Z</time>
      </trkpt>
      <trkpt lat="47.47194" lon="3.75005">
        <ele>190</ele>
        <time>2014-04-17T14:20:04Z</time>
      </trkpt>
      <trkpt lat="47.4719" lon="3.75006">
        <ele>191</ele>
        <time>2014-04-17T14:20:08Z</time>
      </trkpt>
      <trkpt lat="47.47184" lon="3.75007">
        <ele>191</ele>
        <time>2014-04-17T14:20:13Z</time>
      </trkpt>
      <trkpt lat="47.4718" lon="3.75006">
        <ele>192</ele>
        <time>2014-04-17T14:20:18Z</time>
      </trkpt>
      <trkpt lat="47.47175" lon="3.75006">
        <ele>192</ele>
        <time>2014-04-17T14:20:23Z</time>
      </trkpt>
      <trkpt lat="47.4717" lon="3.75006">
        <ele>192</ele>
        <time>2014-04-17T14:20:40Z</time>
      </trkpt>
      <trkpt lat="47.47167" lon="3.75007">
        <ele>192</ele>
        <time>2014-04-17T14:20:51Z</time>
      </trkpt>
      <trkpt lat="47.47162" lon="3.75009">
        <ele>195</ele>
        <time>2014-04-17T14:20:56Z</time>
      </trkpt>
      <trkpt lat="47.47158" lon="3.75013">
        <ele>196</ele>
        <time>2014-04-17T14:21:01Z</time>
      </trkpt>
      <trkpt lat="47.47154" lon="3.7501">
        <ele>196</ele>
        <time>2014-04-17T14:21:05Z</time>
      </trkpt>
      <trkpt lat="47.47149" lon="3.75008">
        <ele>196</ele>
        <time>2014-04-17T14:21:09Z</time>
      </trkpt>
      <trkpt lat="47.47144" lon="3.75009">
        <ele>197</ele>
        <time>2014-04-17T14:21:14Z</time>
      </trkpt>
      <trkpt lat="47.4714" lon="3.75012">
        <ele>197</ele>
        <time>2014-04-17T14:21:19Z</time>
      </trkpt>
      <trkpt lat="47.47136" lon="3.75012">
        <ele>198</ele>
        <time>2014-04-17T14:21:28Z</time>
      </trkpt>
      <trkpt lat="47.47131" lon="3.75012">
        <ele>198</ele>
        <time>2014-04-17T14:21:38Z</time>
      </trkpt>
      <trkpt lat="47.47127" lon="3.75013">
        <ele>198</ele>
        <time>2014-04-17T14:21:44Z</time>
      </trkpt>
      <trkpt lat="47.47122" lon="3.75017">
        <ele>199</ele>
        <time>2014-04-17T14:21:49Z</time>
      </trkpt>
      <trkpt lat="47.47118" lon="3.75021">
        <ele>199</ele>
        <time>2014-04-17T14:21:53Z</time>
      </trkpt>
      <trkpt lat="47.47113" lon="3.75024">
        <ele>199</ele>
        <time>2014-04-17T14:21:56Z</time>
      </trkpt>
      <trkpt lat="47.4711" lon="3.75029">
        <ele>199</ele>
        <time>2014-04-17T14:22:00Z</time>
      </trkpt>
      <trkpt lat="47.47105" lon="3.75033">
        <ele>200</ele>
        <time>2014-04-17T14:22:07Z</time>
      </trkpt>
      <trkpt lat="47.471" lon="3.75036">
        <ele>200</ele>
        <time>2014-04-17T14:22:11Z</time>
      </trkpt>
      <trkpt lat="47.47096" lon="3.75039">
        <ele>200</ele>
        <time>2014-04-17T14:22:14Z</time>
      </trkpt>
      <trkpt lat="47.47092" lon="3.75043">
        <ele>200</ele>
        <time>2014-04-17T14:22:17Z</time>
      </trkpt>
      <trkpt lat="47.47088" lon="3.75046">
        <ele>200</ele>
        <time>2014-04-17T14:22:23Z</time>
      </trkpt>
      <trkpt lat="47.47084" lon="3.7505">
        <ele>201</ele>
        <time>2014-04-17T14:22:28Z</time>
      </trkpt>
      <trkpt lat="47.47079" lon="3.75052">
        <ele>206</ele>
        <time>2014-04-17T14:22:33Z</time>
      </trkpt>
      <trkpt lat="47.47075" lon="3.75052">
        <ele>206</ele>
        <time>2014-04-17T14:22:43Z</time>
      </trkpt>
      <trkpt lat="47.47069" lon="3.75052">
        <ele>206</ele>
        <time>2014-04-17T14:22:49Z</time>
      </trkpt>
      <trkpt lat="47.47065" lon="3.75053">
        <ele>206</ele>
        <time>2014-04-17T14:22:53Z</time>
      </trkpt>
      <trkpt lat="47.4706" lon="3.75054">
        <ele>207</ele>
        <time>2014-04-17T14:22:57Z</time>
      </trkpt>
      <trkpt lat="47.47055" lon="3.75054">
        <ele>207</ele>
        <time>2014-04-17T14:23:01Z</time>
      </trkpt>
      <trkpt lat="47.4705" lon="3.75054">
        <ele>207</ele>
        <time>2014-04-17T14:23:06Z</time>
      </trkpt>
      <trkpt lat="47.47045" lon="3.75055">
        <ele>208</ele>
        <time>2014-04-17T14:23:11Z</time>
      </trkpt>
      <trkpt lat="47.47039" lon="3.75055">
        <ele>208</ele>
        <time>2014-04-17T14:23:16Z</time>
      </trkpt>
      <trkpt lat="47.47034" lon="3.75055">
        <ele>208</ele>
        <time>2014-04-17T14:23:20Z</time>
      </trkpt>
      <trkpt lat="47.47029" lon="3.75056">
        <ele>209</ele>
        <time>2014-04-17T14:23:24Z</time>
      </trkpt>
      <trkpt lat="47.47025" lon="3.75053">
        <ele>209</ele>
        <time>2014-04-17T14:23:29Z</time>
      </trkpt>
      <trkpt lat="47.4702" lon="3.75052">
        <ele>209</ele>
        <time>2014-04-17T14:23:34Z</time>
      </trkpt>
      <trkpt lat="47.47014" lon="3.75053">
        <ele>209</ele>
        <time>2014-04-17T14:23:38Z</time>
      </trkpt>
      <trkpt lat="47.47009" lon="3.75055">
        <ele>210</ele>
        <time>2014-04-17T14:23:42Z</time>
      </trkpt>
      <trkpt lat="47.47005" lon="3.75057">
        <ele>210</ele>
        <time>2014-04-17T14:23:46Z</time>
      </trkpt>
      <trkpt lat="47.47" lon="3.75056">
        <ele>218</ele>
        <time>2014-04-17T14:23:50Z</time>
      </trkpt>
      <trkpt lat="47.46995" lon="3.75058">
        <ele>218</ele>
        <time>2014-04-17T14:23:54Z</time>
      </trkpt>
      <trkpt lat="47.4699" lon="3.75058">
        <ele>218</ele>
        <time>2014-04-17T14:23:59Z</time>
      </trkpt>
      <trkpt lat="47.46984" lon="3.75057">
        <ele>219</ele>
        <time>2014-04-17T14:24:04Z</time>
      </trkpt>
      <trkpt lat="47.46978" lon="3.75058">
        <ele>219</ele>
        <time>2014-04-17T14:24:09Z</time>
      </trkpt>
      <trkpt lat="47.46974" lon="3.75061">
        <ele>220</ele>
        <time>2014-04-17T14:24:14Z</time>
      </trkpt>
      <trkpt lat="47.46969" lon="3.75062">
        <ele>220</ele>
        <time>2014-04-17T14:24:22Z</time>
      </trkpt>
      <trkpt lat="47.46965" lon="3.75064">
        <ele>221</ele>
        <time>2014-04-17T14:24:28Z</time>
      </trkpt>
      <trkpt lat="47.4696" lon="3.75066">
        <ele>221</ele>
        <time>2014-04-17T14:24:33Z</time>
      </trkpt>
      <trkpt lat="47.46957" lon="3.75065">
        <ele>222</ele>
        <time>2014-04-17T14:24:51Z</time>
      </trkpt>
      <trkpt lat="47.46952" lon="3.75067">
        <ele>222</ele>
        <time>2014-04-17T14:24:55Z</time>
      </trkpt>
      <trkpt lat="47.46948" lon="3.75063">
        <ele>223</ele>
        <time>2014-04-17T14:25:00Z</time>
      </trkpt>
      <trkpt lat="47.46945" lon="3.7506">
        <ele>223</ele>
        <time>2014-04-17T14:25:13Z</time>
      </trkpt>
      <trkpt lat="47.46941" lon="3.75064">
        <ele>224</ele>
        <time>2014-04-17T14:25:20Z</time>
      </trkpt>
      <trkpt lat="47.46936" lon="3.75065">
        <ele>224</ele>
        <time>2014-04-17T14:25:24Z</time>
      </trkpt>
      <trkpt lat="47.46931" lon="3.75066">
        <ele>225</ele>
        <time>2014-04-17T14:25:29Z</time>
      </trkpt>
      <trkpt lat="47.46927" lon="3.75065">
        <ele>225</ele>
        <time>2014-04-17T14:25:33Z</time>
      </trkpt>
      <trkpt lat="47.46922" lon="3.75063">
        <ele>226</ele>
        <time>2014-04-17T14:25:36Z</time>
      </trkpt>
      <trkpt lat="47.46911" lon="3.75051">
        <ele>239</ele>
        <time>2014-04-17T14:26:16Z</time>
      </trkpt>
      <trkpt lat="47.46907" lon="3.75045">
        <ele>239</ele>
        <time>2014-04-17T14:26:21Z</time>
      </trkpt>
      <trkpt lat="47.46903" lon="3.7504">
        <ele>240</ele>
        <time>2014-04-17T14:26:25Z</time>
      </trkpt>
      <trkpt lat="47.469" lon="3.75036">
        <ele>240</ele>
        <time>2014-04-17T14:26:34Z</time>
      </trkpt>
      <trkpt lat="47.46895" lon="3.75034">
        <ele>241</ele>
        <time>2014-04-17T14:26:39Z</time>
      </trkpt>
      <trkpt lat="47.4689" lon="3.75031">
        <ele>241</ele>
        <time>2014-04-17T14:26:44Z</time>
      </trkpt>
      <trkpt lat="47.46889" lon="3.75025">
        <ele>242</ele>
        <time>2014-04-17T14:26:50Z</time>
      </trkpt>
      <trkpt lat="47.46886" lon="3.75018">
        <ele>242</ele>
        <time>2014-04-17T14:26:55Z</time>
      </trkpt>
      <trkpt lat="47.46885" lon="3.7501">
        <ele>242</ele>
        <time>2014-04-17T14:26:59Z</time>
      </trkpt>
      <trkpt lat="47.46882" lon="3.75005">
        <ele>243</ele>
        <time>2014-04-17T14:27:03Z</time>
      </trkpt>
      <trkpt lat="47.46878" lon="3.75001">
        <ele>243</ele>
        <time>2014-04-17T14:27:09Z</time>
      </trkpt>
      <trkpt lat="47.46875" lon="3.74995">
        <ele>245</ele>
        <time>2014-04-17T14:27:16Z</time>
      </trkpt>
      <trkpt lat="47.46871" lon="3.74992">
        <ele>246</ele>
        <time>2014-04-17T14:27:24Z</time>
      </trkpt>
      <trkpt lat="47.46867" lon="3.74987">
        <ele>247</ele>
        <time>2014-04-17T14:27:29Z</time>
      </trkpt>
      <trkpt lat="47.46863" lon="3.74983">
        <ele>247</ele>
        <time>2014-04-17T14:27:36Z</time>
      </trkpt>
      <trkpt lat="47.46864" lon="3.74977">
        <ele>247</ele>
        <time>2014-04-17T14:27:44Z</time>
      </trkpt>
      <trkpt lat="47.46865" lon="3.74969">
        <ele>247</ele>
        <time>2014-04-17T14:27:50Z</time>
      </trkpt>
      <trkpt lat="47.46863" lon="3.74962">
        <ele>247</ele>
        <time>2014-04-17T14:27:56Z</time>
      </trkpt>
      <trkpt lat="47.46859" lon="3.74958">
        <ele>248</ele>
        <time>2014-04-17T14:28:02Z</time>
      </trkpt>
      <trkpt lat="47.46857" lon="3.74951">
        <ele>248</ele>
        <time>2014-04-17T14:28:12Z</time>
      </trkpt>
      <trkpt lat="47.46856" lon="3.74944">
        <ele>248</ele>
        <time>2014-04-17T14:28:16Z</time>
      </trkpt>
      <trkpt lat="47.46854" lon="3.74938">
        <ele>249</ele>
        <time>2014-04-17T14:28:20Z</time>
      </trkpt>
      <trkpt lat="47.4685" lon="3.74931">
        <ele>251</ele>
        <time>2014-04-17T14:28:34Z</time>
      </trkpt>
      <trkpt lat="47.46845" lon="3.74928">
        <ele>252</ele>
        <time>2014-04-17T14:28:43Z</time>
      </trkpt>
      <trkpt lat="47.46841" lon="3.74922">
        <ele>255</ele>
        <time>2014-04-17T14:28:49Z</time>
      </trkpt>
      <trkpt lat="47.46838" lon="3.74916">
        <ele>257</ele>
        <time>2014-04-17T14:28:53Z</time>
      </trkpt>
      <trkpt lat="47.46833" lon="3.74914">
        <ele>260</ele>
        <time>2014-04-17T14:28:57Z</time>
      </trkpt>
      <trkpt lat="47.4683" lon="3.74908">
        <ele>262</ele>
        <time>2014-04-17T14:29:01Z</time>
      </trkpt>
      <trkpt lat="47.46825" lon="3.74905">
        <ele>263</ele>
        <time>2014-04-17T14:29:04Z</time>
      </trkpt>
      <trkpt lat="47.46822" lon="3.749">
        <ele>264</ele>
        <time>2014-04-17T14:29:08Z</time>
      </trkpt>
      <trkpt lat="47.46824" lon="3.74893">
        <ele>265</ele>
        <time>2014-04-17T14:29:12Z</time>
      </trkpt>
      <trkpt lat="47.46827" lon="3.74888">
        <ele>265</ele>
        <time>2014-04-17T14:29:20Z</time>
      </trkpt>
      <trkpt lat="47.46822" lon="3.74887">
        <ele>265</ele>
        <time>2014-04-17T14:29:30Z</time>
      </trkpt>
      <trkpt lat="47.46817" lon="3.74887">
        <ele>266</ele>
        <time>2014-04-17T14:29:36Z</time>
      </trkpt>
      <trkpt lat="47.46823" lon="3.74876">
        <ele>265</ele>
        <time>2014-04-17T14:29:45Z</time>
      </trkpt>
      <trkpt lat="47.46817" lon="3.74874">
        <ele>266</ele>
        <time>2014-04-17T14:30:04Z</time>
      </trkpt>
      <trkpt lat="47.46812" lon="3.74873">
        <ele>266</ele>
        <time>2014-04-17T14:30:16Z</time>
      </trkpt>
      <trkpt lat="47.46807" lon="3.74872">
        <ele>267</ele>
        <time>2014-04-17T14:30:19Z</time>
      </trkpt>
      <trkpt lat="47.46811" lon="3.7487">
        <ele>266</ele>
        <time>2014-04-17T14:30:45Z</time>
      </trkpt>
      <trkpt lat="47.46814" lon="3.7487">
        <ele>266</ele>
        <time>2014-04-17T14:30:53Z</time>
      </trkpt>
      <trkpt lat="47.46819" lon="3.74874">
        <ele>266</ele>
        <time>2014-04-17T14:31:00Z</time>
      </trkpt>
      <trkpt lat="47.46819" lon="3.74881">
        <ele>266</ele>
        <time>2014-04-17T14:31:09Z</time>
      </trkpt>
      <trkpt lat="47.4682" lon="3.74887">
        <ele>266</ele>
        <time>2014-04-17T14:31:14Z</time>
      </trkpt>
      <trkpt lat="47.46822" lon="3.74893">
        <ele>265</ele>
        <time>2014-04-17T14:31:20Z</time>
      </trkpt>
      <trkpt lat="47.46821" lon="3.74893">
        <ele>265</ele>
        <time>2014-04-17T14:32:39Z</time>
      </trkpt>
      <trkpt lat="47.46823" lon="3.74887">
        <ele>265</ele>
        <time>2014-04-17T14:33:14Z</time>
      </trkpt>
      <trkpt lat="47.4682" lon="3.74882">
        <ele>266</ele>
        <time>2014-04-17T14:33:17Z</time>
      </trkpt>
      <trkpt lat="47.46812" lon="3.74875">
        <ele>266</ele>
        <time>2014-04-17T14:33:24Z</time>
      </trkpt>
      <trkpt lat="47.46805" lon="3.74866">
        <ele>267</ele>
        <time>2014-04-17T14:33:34Z</time>
      </trkpt>
      <trkpt lat="47.46797" lon="3.74859">
        <ele>268</ele>
        <time>2014-04-17T14:33:43Z</time>
      </trkpt>
      <trkpt lat="47.4679" lon="3.74855">
        <ele>269</ele>
        <time>2014-04-17T14:33:50Z</time>
      </trkpt>
      <trkpt lat="47.46785" lon="3.74852">
        <ele>270</ele>
        <time>2014-04-17T14:33:54Z</time>
      </trkpt>
      <trkpt lat="47.46781" lon="3.74849">
        <ele>271</ele>
        <time>2014-04-17T14:33:58Z</time>
      </trkpt>
      <trkpt lat="47.46775" lon="3.74847">
        <ele>272</ele>
        <time>2014-04-17T14:34:02Z</time>
      </trkpt>
      <trkpt lat="47.46772" lon="3.74841">
        <ele>273</ele>
        <time>2014-04-17T14:34:08Z</time>
      </trkpt>
      <trkpt lat="47.4677" lon="3.74834">
        <ele>274</ele>
        <time>2014-04-17T14:34:14Z</time>
      </trkpt>
      <trkpt lat="47.46766" lon="3.74828">
        <ele>272</ele>
        <time>2014-04-17T14:34:18Z</time>
      </trkpt>
      <trkpt lat="47.46763" lon="3.74823">
        <ele>272</ele>
        <time>2014-04-17T14:34:23Z</time>
      </trkpt>
      <trkpt lat="47.46757" lon="3.74821">
        <ele>273</ele>
        <time>2014-04-17T14:34:27Z</time>
      </trkpt>
      <trkpt lat="47.46753" lon="3.74817">
        <ele>273</ele>
        <time>2014-04-17T14:34:33Z</time>
      </trkpt>
      <trkpt lat="47.46749" lon="3.74813">
        <ele>283</ele>
        <time>2014-04-17T14:34:38Z</time>
      </trkpt>
      <trkpt lat="47.46747" lon="3.74807">
        <ele>283</ele>
        <time>2014-04-17T14:34:44Z</time>
      </trkpt>
      <trkpt lat="47.46743" lon="3.74801">
        <ele>283</ele>
        <time>2014-04-17T14:34:50Z</time>
      </trkpt>
      <trkpt lat="47.46713" lon="3.7476">
        <ele>285</ele>
        <time>2014-04-17T14:35:30Z</time>
      </trkpt>
      <trkpt lat="47.46693" lon="3.74747">
        <ele>285</ele>
        <time>2014-04-17T14:36:00Z</time>
      </trkpt>
      <trkpt lat="47.46673" lon="3.74764">
        <ele>291</ele>
        <time>2014-04-17T14:36:30Z</time>
      </trkpt>
      <trkpt lat="47.46661" lon="3.74737">
        <ele>293</ele>
        <time>2014-04-17T14:37:00Z</time>
      </trkpt>
      <trkpt lat="47.46639" lon="3.74758">
        <ele>295</ele>
        <time>2014-04-17T14:37:30Z</time>
      </trkpt>
      <trkpt lat="47.46645" lon="3.74793">
        <ele>295</ele>
        <time>2014-04-17T14:38:00Z</time>
      </trkpt>
      <trkpt lat="47.46662" lon="3.74861">
        <ele>297</ele>
        <time>2014-04-17T14:38:30Z</time>
      </trkpt>
      <trkpt lat="47.46665" lon="3.74936">
        <ele>297</ele>
        <time>2014-04-17T14:39:00Z</time>
      </trkpt>
      <trkpt lat="47.46652" lon="3.74957">
        <ele>296</ele>
        <time>2014-04-17T14:39:30Z</time>
      </trkpt>
      <trkpt lat="47.46628" lon="3.74955">
        <ele>296</ele>
        <time>2014-04-17T14:40:00Z</time>
      </trkpt>
      <trkpt lat="47.46583" lon="3.74949">
        <ele>297</ele>
        <time>2014-04-17T14:40:30Z</time>
      </trkpt>
      <trkpt lat="47.46581" lon="3.74913">
        <ele>296</ele>
        <time>2014-04-17T14:41:00Z</time>
      </trkpt>
      <trkpt lat="47.46573" lon="3.74838">
        <ele>291</ele>
        <time>2014-04-17T14:41:30Z</time>
      </trkpt>
      <trkpt lat="47.46583" lon="3.74823">
        <ele>295</ele>
        <time>2014-04-17T14:42:00Z</time>
      </trkpt>
      <trkpt lat="47.4661" lon="3.74815">
        <ele>295</ele>
        <time>2014-04-17T14:42:30Z</time>
      </trkpt>
      <trkpt lat="47.46615" lon="3.7477">
        <ele>295</ele>
        <time>2014-04-17T14:43:30Z</time>
      </trkpt>
      <trkpt lat="47.46595" lon="3.74685">
        <ele>292</ele>
        <time>2014-04-17T14:44:00Z</time>
      </trkpt>
    </trkseg>
  </trk>
</gpx>